<?xml version='1.0' encoding='UTF-8'?><gpx version="1.1" creator="JPX - https://github.com/jenetics/jpx" xmlns="http://www.topografix.com/GPX/1/1"><trk><trkseg><trkpt lat="43.4220797" lon="11.181192"><ele>173.42857142857142</ele><time>2026-04-18T06:38:24.22Z</time></trkpt><trkpt lat="43.4221517" lon="11.1811795"><ele>172.85714285714286</ele><time>2026-04-18T06:38:34.23Z</time></trkpt><trkpt lat="43.4222029" lon="11.1811189"><ele>172.28571428571428</ele><time>2026-04-18T06:38:40.227Z</time></trkpt><trkpt lat="43.4222126" lon="11.1810242"><ele>171.71428571428572</ele><time>2026-04-18T06:39:09.232Z</time></trkpt><trkpt lat="43.4222012" lon="11.1809257"><ele>171.14285714285714</ele><time>2026-04-18T06:39:13.23Z</time></trkpt><trkpt lat="43.4221982" lon="11.18083"><ele>170.57142857142858</ele><time>2026-04-18T06:39:17.233Z</time></trkpt><trkpt lat="43.4221985" lon="11.1809254"><ele>170.0</ele><time>2026-04-18T06:39:22.222Z</time></trkpt><trkpt lat="43.4222143" lon="11.1810665"><ele>170.0</ele><time>2026-04-18T06:39:26.22Z</time></trkpt><trkpt lat="43.4222343" lon="11.1811693"><ele>170.0</ele><time>2026-04-18T06:39:29.225Z</time></trkpt><trkpt lat="43.4222151" lon="11.181081"><ele>170.0</ele><time>2026-04-18T06:39:38.25Z</time></trkpt><trkpt lat="43.422212" lon="11.1809685"><ele>170.0</ele><time>2026-04-18T06:39:41.303Z</time></trkpt><trkpt lat="43.4221955" lon="11.1808632"><ele>170.0</ele><time>2026-04-18T06:39:44.26Z</time></trkpt><trkpt lat="43.4221606" lon="11.1807698"><ele>170.0</ele><time>2026-04-18T06:39:47.242Z</time></trkpt><trkpt lat="43.422154" lon="11.1806646"><ele>170.0</ele><time>2026-04-18T06:39:50.32Z</time></trkpt><trkpt lat="43.4221631" lon="11.1807556"><ele>170.0</ele><time>2026-04-18T06:39:55.233Z</time></trkpt><trkpt lat="43.4221812" lon="11.1808459"><ele>170.0</ele><time>2026-04-18T06:39:57.259Z</time></trkpt><trkpt lat="43.4222095" lon="11.1809391"><ele>170.0</ele><time>2026-04-18T06:39:59.245Z</time></trkpt><trkpt lat="43.4222235" lon="11.1810419"><ele>170.0</ele><time>2026-04-18T06:40:01.323Z</time></trkpt><trkpt lat="43.4222245" lon="11.1811323"><ele>170.0</ele><time>2026-04-18T06:40:03.246Z</time></trkpt><trkpt lat="43.4222216" lon="11.1812305"><ele>170.0</ele><time>2026-04-18T06:40:05.237Z</time></trkpt><trkpt lat="43.4222093" lon="11.1810774"><ele>170.0</ele><time>2026-04-18T06:40:14.231Z</time></trkpt><trkpt lat="43.4222207" lon="11.1809851"><ele>170.0</ele><time>2026-04-18T06:40:18.243Z</time></trkpt><trkpt lat="43.4221895" lon="11.1808858"><ele>170.0</ele><time>2026-04-18T06:40:22.275Z</time></trkpt><trkpt lat="43.4221929" lon="11.180792"><ele>170.0</ele><time>2026-04-18T06:40:26.241Z</time></trkpt><trkpt lat="43.4221934" lon="11.1808972"><ele>170.0</ele><time>2026-04-18T06:40:30.25Z</time></trkpt><trkpt lat="43.4222012" lon="11.1810143"><ele>170.0</ele><time>2026-04-18T06:40:33.247Z</time></trkpt><trkpt lat="43.4222144" lon="11.1811269"><ele>170.0</ele><time>2026-04-18T06:40:36.251Z</time></trkpt><trkpt lat="43.4222533" lon="11.1812437"><ele>170.0</ele><time>2026-04-18T06:40:39.233Z</time></trkpt><trkpt lat="43.4222283" lon="11.1811453"><ele>170.0</ele><time>2026-04-18T06:40:48.242Z</time></trkpt><trkpt lat="43.4222205" lon="11.1810501"><ele>170.0</ele><time>2026-04-18T06:40:51.229Z</time></trkpt><trkpt lat="43.422194" lon="11.180946"><ele>170.0</ele><time>2026-04-18T06:40:54.321Z</time></trkpt><trkpt lat="43.4221593" lon="11.180849"><ele>170.0</ele><time>2026-04-18T06:40:57.249Z</time></trkpt><trkpt lat="43.4221548" lon="11.1807304"><ele>170.0</ele><time>2026-04-18T06:41:00.245Z</time></trkpt><trkpt lat="43.4221083" lon="11.1809692"><ele>170.0</ele><time>2026-04-18T06:41:10.314Z</time></trkpt><trkpt lat="43.4221938" lon="11.1809744"><ele>170.0</ele><time>2026-04-18T06:41:11.242Z</time></trkpt><trkpt lat="43.4222269" lon="11.1811"><ele>170.0</ele><time>2026-04-18T06:41:14.313Z</time></trkpt><trkpt lat="43.4222377" lon="11.1812034"><ele>170.0</ele><time>2026-04-18T06:41:16.241Z</time></trkpt><trkpt lat="43.422239" lon="11.1813009"><ele>170.0</ele><time>2026-04-18T06:41:18.247Z</time></trkpt><trkpt lat="43.4222763" lon="11.1813727"><ele>170.0</ele><time>2026-04-18T06:41:20.255Z</time></trkpt><trkpt lat="43.4223212" lon="11.181467"><ele>170.0</ele><time>2026-04-18T06:41:23.245Z</time></trkpt><trkpt lat="43.4223058" lon="11.1815545"><ele>170.0</ele><time>2026-04-18T06:41:26.236Z</time></trkpt><trkpt lat="43.4222756" lon="11.1814608"><ele>170.0</ele><time>2026-04-18T06:41:30.235Z</time></trkpt><trkpt lat="43.4223006" lon="11.1813655"><ele>170.0</ele><time>2026-04-18T06:41:32.252Z</time></trkpt><trkpt lat="43.4222975" lon="11.1812467"><ele>170.0</ele><time>2026-04-18T06:41:35.241Z</time></trkpt><trkpt lat="43.422263" lon="11.181136"><ele>170.0</ele><time>2026-04-18T06:41:38.241Z</time></trkpt><trkpt lat="43.4222516" lon="11.1810501"><ele>170.0</ele><time>2026-04-18T06:41:40.256Z</time></trkpt><trkpt lat="43.4222353" lon="11.1809261"><ele>170.0</ele><time>2026-04-18T06:41:43.247Z</time></trkpt><trkpt lat="43.4222065" lon="11.180811"><ele>170.0</ele><time>2026-04-18T06:41:46.255Z</time></trkpt><trkpt lat="43.4221608" lon="11.1807093"><ele>170.0</ele><time>2026-04-18T06:41:49.248Z</time></trkpt><trkpt lat="43.4221679" lon="11.180802"><ele>170.0</ele><time>2026-04-18T06:41:57.239Z</time></trkpt><trkpt lat="43.4221794" lon="11.1808935"><ele>170.0</ele><time>2026-04-18T06:41:59.24Z</time></trkpt><trkpt lat="43.4221864" lon="11.1809852"><ele>170.0</ele><time>2026-04-18T06:42:01.252Z</time></trkpt><trkpt lat="43.42217" lon="11.181092"><ele>170.0</ele><time>2026-04-18T06:42:04.247Z</time></trkpt><trkpt lat="43.4221949" lon="11.1811816"><ele>170.0</ele><time>2026-04-18T06:42:06.238Z</time></trkpt><trkpt lat="43.422228" lon="11.1812708"><ele>170.0</ele><time>2026-04-18T06:42:08.235Z</time></trkpt><trkpt lat="43.4221938" lon="11.1811803"><ele>170.0</ele><time>2026-04-18T06:42:15.238Z</time></trkpt><trkpt lat="43.422173" lon="11.1810789"><ele>170.0</ele><time>2026-04-18T06:42:18.248Z</time></trkpt><trkpt lat="43.4221604" lon="11.1809767"><ele>170.0</ele><time>2026-04-18T06:42:21.258Z</time></trkpt><trkpt lat="43.4221607" lon="11.1808661"><ele>170.0</ele><time>2026-04-18T06:44:39.251Z</time></trkpt><trkpt lat="43.4221688" lon="11.1807792"><ele>170.0</ele><time>2026-04-18T06:44:43.23Z</time></trkpt><trkpt lat="43.4222154" lon="11.1808433"><ele>170.0</ele><time>2026-04-18T06:44:49.238Z</time></trkpt><trkpt lat="43.4222512" lon="11.1809438"><ele>170.0</ele><time>2026-04-18T06:44:52.237Z</time></trkpt><trkpt lat="43.4222462" lon="11.1810519"><ele>170.0</ele><time>2026-04-18T06:45:12.231Z</time></trkpt><trkpt lat="43.4222507" lon="11.1811451"><ele>170.0</ele><time>2026-04-18T06:45:15.231Z</time></trkpt><trkpt lat="43.4222609" lon="11.1812321"><ele>170.0</ele><time>2026-04-18T06:45:18.243Z</time></trkpt><trkpt lat="43.4222766" lon="11.1813403"><ele>170.0</ele><time>2026-04-18T06:45:22.237Z</time></trkpt><trkpt lat="43.422289" lon="11.1814308"><ele>170.0</ele><time>2026-04-18T06:45:25.252Z</time></trkpt><trkpt lat="43.4222788" lon="11.181532"><ele>170.0</ele><time>2026-04-18T06:45:28.247Z</time></trkpt><trkpt lat="43.4222655" lon="11.1816181"><ele>170.0</ele><time>2026-04-18T06:45:31.259Z</time></trkpt><trkpt lat="43.4222254" lon="11.1817173"><ele>170.0</ele><time>2026-04-18T06:45:34.251Z</time></trkpt><trkpt lat="43.4221641" lon="11.1817732"><ele>170.0</ele><time>2026-04-18T06:45:38.235Z</time></trkpt><trkpt lat="43.4221159" lon="11.181851"><ele>170.0</ele><time>2026-04-18T06:45:41.236Z</time></trkpt><trkpt lat="43.4221406" lon="11.1819616"><ele>170.0</ele><time>2026-04-18T06:45:44.222Z</time></trkpt><trkpt lat="43.4221757" lon="11.1820364"><ele>170.0</ele><time>2026-04-18T06:45:46.246Z</time></trkpt><trkpt lat="43.4222188" lon="11.1821243"><ele>170.0</ele><time>2026-04-18T06:45:49.25Z</time></trkpt><trkpt lat="43.4222771" lon="11.1822058"><ele>170.0</ele><time>2026-04-18T06:45:52.249Z</time></trkpt><trkpt lat="43.4223276" lon="11.1822959"><ele>170.0</ele><time>2026-04-18T06:45:55.319Z</time></trkpt><trkpt lat="43.4223632" lon="11.1823775"><ele>170.42857142857144</ele><time>2026-04-18T06:45:58.237Z</time></trkpt><trkpt lat="43.4224059" lon="11.1824492"><ele>170.85714285714283</ele><time>2026-04-18T06:46:01.222Z</time></trkpt><trkpt lat="43.4224743" lon="11.1824549"><ele>171.28571428571428</ele><time>2026-04-18T06:46:04.245Z</time></trkpt><trkpt lat="43.4225722" lon="11.1824517"><ele>171.71428571428572</ele><time>2026-04-18T06:46:07.222Z</time></trkpt><trkpt lat="43.4226516" lon="11.182416"><ele>172.14285714285717</ele><time>2026-04-18T06:46:09.229Z</time></trkpt><trkpt lat="43.4227159" lon="11.1824023"><ele>172.57142857142856</ele><time>2026-04-18T06:46:11.235Z</time></trkpt><trkpt lat="43.4227788" lon="11.1823824"><ele>173.0</ele><time>2026-04-18T06:46:13.242Z</time></trkpt><trkpt lat="43.4228437" lon="11.1824093"><ele>173.0</ele><time>2026-04-18T06:46:15.257Z</time></trkpt><trkpt lat="43.4229221" lon="11.1824098"><ele>173.0</ele><time>2026-04-18T06:46:17.228Z</time></trkpt><trkpt lat="43.4230268" lon="11.1823902"><ele>173.0</ele><time>2026-04-18T06:46:19.307Z</time></trkpt><trkpt lat="43.4231064" lon="11.1823442"><ele>173.0</ele><time>2026-04-18T06:46:21.247Z</time></trkpt><trkpt lat="43.423199" lon="11.1823076"><ele>173.0</ele><time>2026-04-18T06:46:24.251Z</time></trkpt><trkpt lat="43.4232685" lon="11.1822908"><ele>173.0</ele><time>2026-04-18T06:46:26.322Z</time></trkpt><trkpt lat="43.4233431" lon="11.1822759"><ele>172.33333333333331</ele><time>2026-04-18T06:46:28.242Z</time></trkpt><trkpt lat="43.4234367" lon="11.1822626"><ele>171.66666666666666</ele><time>2026-04-18T06:46:30.234Z</time></trkpt><trkpt lat="43.4235248" lon="11.1822464"><ele>171.0</ele><time>2026-04-18T06:46:32.232Z</time></trkpt><trkpt lat="43.4236068" lon="11.1822647"><ele>170.33333333333334</ele><time>2026-04-18T06:46:34.243Z</time></trkpt><trkpt lat="43.4236981" lon="11.1822918"><ele>169.66666666666669</ele><time>2026-04-18T06:46:36.306Z</time></trkpt><trkpt lat="43.4237705" lon="11.1823111"><ele>169.0</ele><time>2026-04-18T06:46:38.231Z</time></trkpt><trkpt lat="43.4238668" lon="11.1823072"><ele>168.33333333333334</ele><time>2026-04-18T06:46:40.308Z</time></trkpt><trkpt lat="43.4239705" lon="11.182323"><ele>167.66666666666669</ele><time>2026-04-18T06:46:42.214Z</time></trkpt><trkpt lat="43.4240671" lon="11.1823368"><ele>167.0</ele><time>2026-04-18T06:46:44.235Z</time></trkpt><trkpt lat="43.4241344" lon="11.1823522"><ele>166.33333333333334</ele><time>2026-04-18T06:46:46.333Z</time></trkpt><trkpt lat="43.4242082" lon="11.1823918"><ele>165.66666666666666</ele><time>2026-04-18T06:46:48.243Z</time></trkpt><trkpt lat="43.4242893" lon="11.1824165"><ele>165.0</ele><time>2026-04-18T06:46:50.31Z</time></trkpt><trkpt lat="43.4243584" lon="11.1824232"><ele>165.0</ele><time>2026-04-18T06:46:52.229Z</time></trkpt><trkpt lat="43.4244346" lon="11.1824529"><ele>165.0</ele><time>2026-04-18T06:46:54.236Z</time></trkpt><trkpt lat="43.4245089" lon="11.1824963"><ele>165.0</ele><time>2026-04-18T06:46:56.303Z</time></trkpt><trkpt lat="43.4245841" lon="11.1825612"><ele>165.0</ele><time>2026-04-18T06:46:58.237Z</time></trkpt><trkpt lat="43.4246469" lon="11.1826717"><ele>165.0</ele><time>2026-04-18T06:47:00.236Z</time></trkpt><trkpt lat="43.424688" lon="11.1827859"><ele>165.0</ele><time>2026-04-18T06:47:02.238Z</time></trkpt><trkpt lat="43.4247355" lon="11.1828753"><ele>164.0</ele><time>2026-04-18T06:47:04.236Z</time></trkpt><trkpt lat="43.4247944" lon="11.1829415"><ele>163.0</ele><time>2026-04-18T06:47:06.222Z</time></trkpt><trkpt lat="43.4248644" lon="11.1830148"><ele>162.0</ele><time>2026-04-18T06:47:08.236Z</time></trkpt><trkpt lat="43.4249275" lon="11.1831074"><ele>161.0</ele><time>2026-04-18T06:47:10.238Z</time></trkpt><trkpt lat="43.4249992" lon="11.183199"><ele>160.0</ele><time>2026-04-18T06:47:12.318Z</time></trkpt><trkpt lat="43.4250771" lon="11.1832841"><ele>160.0</ele><time>2026-04-18T06:47:14.238Z</time></trkpt><trkpt lat="43.4251456" lon="11.1833543"><ele>160.0</ele><time>2026-04-18T06:47:16.242Z</time></trkpt><trkpt lat="43.4252278" lon="11.1833601"><ele>160.0</ele><time>2026-04-18T06:47:18.236Z</time></trkpt><trkpt lat="43.425305" lon="11.1832811"><ele>160.0</ele><time>2026-04-18T06:47:20.235Z</time></trkpt><trkpt lat="43.4253576" lon="11.1831765"><ele>160.0</ele><time>2026-04-18T06:47:22.243Z</time></trkpt><trkpt lat="43.4254089" lon="11.1830453"><ele>160.0</ele><time>2026-04-18T06:47:24.24Z</time></trkpt><trkpt lat="43.4254458" lon="11.182969"><ele>160.0</ele><time>2026-04-18T06:47:25.32Z</time></trkpt><trkpt lat="43.4254736" lon="11.1828887"><ele>160.0</ele><time>2026-04-18T06:47:26.328Z</time></trkpt><trkpt lat="43.4254974" lon="11.1828064"><ele>160.0</ele><time>2026-04-18T06:47:27.244Z</time></trkpt><trkpt lat="43.4255661" lon="11.1826728"><ele>160.0</ele><time>2026-04-18T06:47:29.244Z</time></trkpt><trkpt lat="43.4256213" lon="11.1825346"><ele>160.0</ele><time>2026-04-18T06:47:31.32Z</time></trkpt><trkpt lat="43.4256713" lon="11.1824025"><ele>157.0</ele><time>2026-04-18T06:47:33.24Z</time></trkpt><trkpt lat="43.4257367" lon="11.1822829"><ele>154.0</ele><time>2026-04-18T06:47:35.316Z</time></trkpt><trkpt lat="43.4257757" lon="11.1822146"><ele>151.0</ele><time>2026-04-18T06:47:36.32Z</time></trkpt><trkpt lat="43.4258681" lon="11.1821228"><ele>148.0</ele><time>2026-04-18T06:47:38.235Z</time></trkpt><trkpt lat="43.425965" lon="11.182104"><ele>145.0</ele><time>2026-04-18T06:47:40.308Z</time></trkpt><trkpt lat="43.4260641" lon="11.1821142"><ele>145.0</ele><time>2026-04-18T06:47:42.257Z</time></trkpt><trkpt lat="43.4261575" lon="11.1821186"><ele>145.0</ele><time>2026-04-18T06:47:44.25Z</time></trkpt><trkpt lat="43.42625" lon="11.182115"><ele>145.0</ele><time>2026-04-18T06:47:46.259Z</time></trkpt><trkpt lat="43.4263328" lon="11.18211"><ele>145.0</ele><time>2026-04-18T06:47:48.261Z</time></trkpt><trkpt lat="43.4264069" lon="11.1821075"><ele>145.0</ele><time>2026-04-18T06:47:50.249Z</time></trkpt><trkpt lat="43.4264703" lon="11.1821036"><ele>145.0</ele><time>2026-04-18T06:47:52.241Z</time></trkpt><trkpt lat="43.4265601" lon="11.1820819"><ele>144.66666666666669</ele><time>2026-04-18T06:47:55.261Z</time></trkpt><trkpt lat="43.4266339" lon="11.1820531"><ele>144.33333333333334</ele><time>2026-04-18T06:47:58.247Z</time></trkpt><trkpt lat="43.4267107" lon="11.18203"><ele>144.0</ele><time>2026-04-18T06:48:01.313Z</time></trkpt><trkpt lat="43.4267875" lon="11.1819767"><ele>143.66666666666666</ele><time>2026-04-18T06:48:04.256Z</time></trkpt><trkpt lat="43.426863" lon="11.1819455"><ele>143.33333333333331</ele><time>2026-04-18T06:48:07.236Z</time></trkpt><trkpt lat="43.4269314" lon="11.1819059"><ele>143.0</ele><time>2026-04-18T06:48:09.25Z</time></trkpt><trkpt lat="43.4269978" lon="11.1819047"><ele>143.0</ele><time>2026-04-18T06:48:11.229Z</time></trkpt><trkpt lat="43.4270686" lon="11.1819028"><ele>143.0</ele><time>2026-04-18T06:48:13.234Z</time></trkpt><trkpt lat="43.4271534" lon="11.1818731"><ele>143.0</ele><time>2026-04-18T06:48:16.236Z</time></trkpt><trkpt lat="43.4272272" lon="11.1819039"><ele>143.0</ele><time>2026-04-18T06:48:19.251Z</time></trkpt><trkpt lat="43.4273945" lon="11.1817303"><ele>143.0</ele><time>2026-04-18T06:48:25.237Z</time></trkpt><trkpt lat="43.4274951" lon="11.1817234"><ele>143.7142857142857</ele><time>2026-04-18T06:48:28.219Z</time></trkpt><trkpt lat="43.4275867" lon="11.1816889"><ele>144.42857142857142</ele><time>2026-04-18T06:48:30.239Z</time></trkpt><trkpt lat="43.4276553" lon="11.1817072"><ele>145.14285714285714</ele><time>2026-04-18T06:48:32.237Z</time></trkpt><trkpt lat="43.4277236" lon="11.1817517"><ele>145.85714285714283</ele><time>2026-04-18T06:48:34.24Z</time></trkpt><trkpt lat="43.4277892" lon="11.181776"><ele>146.57142857142856</ele><time>2026-04-18T06:48:36.319Z</time></trkpt><trkpt lat="43.42785" lon="11.1818084"><ele>147.28571428571428</ele><time>2026-04-18T06:48:39.234Z</time></trkpt><trkpt lat="43.4279215" lon="11.1818107"><ele>148.0</ele><time>2026-04-18T06:48:42.233Z</time></trkpt><trkpt lat="43.4279814" lon="11.1817773"><ele>148.57142857142858</ele><time>2026-04-18T06:48:45.247Z</time></trkpt><trkpt lat="43.4280351" lon="11.1817274"><ele>149.14285714285714</ele><time>2026-04-18T06:48:48.227Z</time></trkpt><trkpt lat="43.4280816" lon="11.1816396"><ele>149.71428571428572</ele><time>2026-04-18T06:48:52.241Z</time></trkpt><trkpt lat="43.4281198" lon="11.181564"><ele>150.28571428571428</ele><time>2026-04-18T06:48:55.238Z</time></trkpt><trkpt lat="43.4281705" lon="11.1814692"><ele>150.85714285714286</ele><time>2026-04-18T06:48:59.229Z</time></trkpt><trkpt lat="43.4282064" lon="11.1813945"><ele>151.42857142857142</ele><time>2026-04-18T06:49:02.25Z</time></trkpt><trkpt lat="43.4282378" lon="11.1813158"><ele>152.0</ele><time>2026-04-18T06:49:05.239Z</time></trkpt><trkpt lat="43.428279" lon="11.1812434"><ele>152.0</ele><time>2026-04-18T06:49:08.232Z</time></trkpt><trkpt lat="43.4283158" lon="11.1811632"><ele>152.0</ele><time>2026-04-18T06:49:11.256Z</time></trkpt><trkpt lat="43.4283511" lon="11.1810787"><ele>152.0</ele><time>2026-04-18T06:49:14.244Z</time></trkpt><trkpt lat="43.428381" lon="11.1809905"><ele>152.0</ele><time>2026-04-18T06:49:17.246Z</time></trkpt><trkpt lat="43.4284115" lon="11.1809138"><ele>152.0</ele><time>2026-04-18T06:49:20.243Z</time></trkpt><trkpt lat="43.4284629" lon="11.1808299"><ele>152.0</ele><time>2026-04-18T06:49:24.241Z</time></trkpt><trkpt lat="43.4285277" lon="11.1806677"><ele>151.57142857142856</ele><time>2026-04-18T06:49:30.331Z</time></trkpt><trkpt lat="43.4285911" lon="11.1806367"><ele>151.14285714285717</ele><time>2026-04-18T06:49:32.305Z</time></trkpt><trkpt lat="43.4286528" lon="11.1805794"><ele>150.71428571428572</ele><time>2026-04-18T06:49:34.25Z</time></trkpt><trkpt lat="43.4287338" lon="11.1805632"><ele>150.28571428571428</ele><time>2026-04-18T06:49:38.251Z</time></trkpt><trkpt lat="43.4287974" lon="11.1805709"><ele>149.85714285714283</ele><time>2026-04-18T06:49:42.315Z</time></trkpt><trkpt lat="43.4288703" lon="11.1806334"><ele>149.42857142857142</ele><time>2026-04-18T06:49:47.255Z</time></trkpt><trkpt lat="43.4289183" lon="11.18069"><ele>149.0</ele><time>2026-04-18T06:49:50.3Z</time></trkpt><trkpt lat="43.428962" lon="11.1807705"><ele>150.66666666666666</ele><time>2026-04-18T06:49:53.232Z</time></trkpt><trkpt lat="43.4290126" lon="11.1808413"><ele>152.33333333333331</ele><time>2026-04-18T06:49:56.254Z</time></trkpt><trkpt lat="43.4290611" lon="11.1809216"><ele>154.0</ele><time>2026-04-18T06:49:59.244Z</time></trkpt><trkpt lat="43.4291084" lon="11.1810105"><ele>155.66666666666666</ele><time>2026-04-18T06:50:02.318Z</time></trkpt><trkpt lat="43.4291624" lon="11.1810731"><ele>157.33333333333334</ele><time>2026-04-18T06:50:05.251Z</time></trkpt><trkpt lat="43.4292332" lon="11.1811257"><ele>159.0</ele><time>2026-04-18T06:50:08.245Z</time></trkpt><trkpt lat="43.4293065" lon="11.1811495"><ele>159.0</ele><time>2026-04-18T06:50:11.308Z</time></trkpt><trkpt lat="43.429372" lon="11.1811394"><ele>159.0</ele><time>2026-04-18T06:50:14.25Z</time></trkpt><trkpt lat="43.4294483" lon="11.1811407"><ele>159.0</ele><time>2026-04-18T06:50:17.304Z</time></trkpt><trkpt lat="43.4295188" lon="11.1811231"><ele>159.0</ele><time>2026-04-18T06:50:20.238Z</time></trkpt><trkpt lat="43.4295815" lon="11.1811025"><ele>159.0</ele><time>2026-04-18T06:50:22.304Z</time></trkpt><trkpt lat="43.4296527" lon="11.181095"><ele>159.0</ele><time>2026-04-18T06:50:24.238Z</time></trkpt><trkpt lat="43.4297178" lon="11.1810899"><ele>159.0</ele><time>2026-04-18T06:50:27.242Z</time></trkpt><trkpt lat="43.4297846" lon="11.1810598"><ele>159.57142857142856</ele><time>2026-04-18T06:50:30.232Z</time></trkpt><trkpt lat="43.4298472" lon="11.1810246"><ele>160.14285714285717</ele><time>2026-04-18T06:50:33.243Z</time></trkpt><trkpt lat="43.4299131" lon="11.1809936"><ele>160.71428571428572</ele><time>2026-04-18T06:50:36.239Z</time></trkpt><trkpt lat="43.4299783" lon="11.1809595"><ele>161.28571428571428</ele><time>2026-04-18T06:50:39.244Z</time></trkpt><trkpt lat="43.4300394" lon="11.1809294"><ele>161.85714285714283</ele><time>2026-04-18T06:50:42.24Z</time></trkpt><trkpt lat="43.430111" lon="11.1809136"><ele>162.42857142857144</ele><time>2026-04-18T06:50:45.248Z</time></trkpt><trkpt lat="43.4301822" lon="11.1809226"><ele>163.0</ele><time>2026-04-18T06:50:48.242Z</time></trkpt><trkpt lat="43.4302489" lon="11.1809677"><ele>163.0</ele><time>2026-04-18T06:50:51.239Z</time></trkpt><trkpt lat="43.4303089" lon="11.1810267"><ele>163.0</ele><time>2026-04-18T06:50:54.243Z</time></trkpt><trkpt lat="43.430372" lon="11.1810995"><ele>163.0</ele><time>2026-04-18T06:50:57.245Z</time></trkpt><trkpt lat="43.4304317" lon="11.1811619"><ele>163.0</ele><time>2026-04-18T06:51:00.246Z</time></trkpt><trkpt lat="43.430496" lon="11.1812334"><ele>163.0</ele><time>2026-04-18T06:51:03.241Z</time></trkpt><trkpt lat="43.4305652" lon="11.1813146"><ele>163.0</ele><time>2026-04-18T06:51:06.248Z</time></trkpt><trkpt lat="43.4306154" lon="11.1813699"><ele>163.0</ele><time>2026-04-18T06:51:08.241Z</time></trkpt><trkpt lat="43.430668" lon="11.1814249"><ele>163.0</ele><time>2026-04-18T06:51:10.247Z</time></trkpt><trkpt lat="43.4307249" lon="11.1814857"><ele>163.0</ele><time>2026-04-18T06:51:12.251Z</time></trkpt><trkpt lat="43.4307757" lon="11.1815591"><ele>163.0</ele><time>2026-04-18T06:51:14.244Z</time></trkpt><trkpt lat="43.4308292" lon="11.1816354"><ele>163.0</ele><time>2026-04-18T06:51:16.241Z</time></trkpt><trkpt lat="43.4308688" lon="11.1817189"><ele>163.0</ele><time>2026-04-18T06:51:18.242Z</time></trkpt><trkpt lat="43.4309167" lon="11.1818237"><ele>164.0</ele><time>2026-04-18T06:51:20.252Z</time></trkpt><trkpt lat="43.4309509" lon="11.1819299"><ele>165.0</ele><time>2026-04-18T06:51:22.245Z</time></trkpt><trkpt lat="43.4309563" lon="11.1820667"><ele>166.0</ele><time>2026-04-18T06:51:24.245Z</time></trkpt><trkpt lat="43.4309616" lon="11.1822068"><ele>167.0</ele><time>2026-04-18T06:51:26.241Z</time></trkpt><trkpt lat="43.4309688" lon="11.1823555"><ele>168.0</ele><time>2026-04-18T06:51:28.246Z</time></trkpt><trkpt lat="43.4309721" lon="11.1825008"><ele>168.25</ele><time>2026-04-18T06:51:30.25Z</time></trkpt><trkpt lat="43.4309965" lon="11.1826354"><ele>168.5</ele><time>2026-04-18T06:51:32.244Z</time></trkpt><trkpt lat="43.4310309" lon="11.1827867"><ele>168.75</ele><time>2026-04-18T06:51:34.251Z</time></trkpt><trkpt lat="43.431066" lon="11.1829384"><ele>169.0</ele><time>2026-04-18T06:51:36.243Z</time></trkpt><trkpt lat="43.4310973" lon="11.1830964"><ele>167.83333333333334</ele><time>2026-04-18T06:51:38.245Z</time></trkpt><trkpt lat="43.4311278" lon="11.1832506"><ele>166.66666666666669</ele><time>2026-04-18T06:51:40.254Z</time></trkpt><trkpt lat="43.4311708" lon="11.1834128"><ele>165.5</ele><time>2026-04-18T06:51:42.255Z</time></trkpt><trkpt lat="43.431202" lon="11.1834938"><ele>164.33333333333334</ele><time>2026-04-18T06:51:43.251Z</time></trkpt><trkpt lat="43.431242" lon="11.183561"><ele>163.16666666666666</ele><time>2026-04-18T06:51:44.248Z</time></trkpt><trkpt lat="43.4312902" lon="11.1836232"><ele>162.0</ele><time>2026-04-18T06:51:45.242Z</time></trkpt><trkpt lat="43.4313948" lon="11.1836971"><ele>160.66666666666666</ele><time>2026-04-18T06:51:47.241Z</time></trkpt><trkpt lat="43.4314914" lon="11.1837363"><ele>159.33333333333334</ele><time>2026-04-18T06:51:49.231Z</time></trkpt><trkpt lat="43.4315792" lon="11.1837596"><ele>158.0</ele><time>2026-04-18T06:51:51.244Z</time></trkpt><trkpt lat="43.43165" lon="11.183783"><ele>156.66666666666669</ele><time>2026-04-18T06:51:53.241Z</time></trkpt><trkpt lat="43.4317192" lon="11.1838004"><ele>155.33333333333334</ele><time>2026-04-18T06:51:55.244Z</time></trkpt><trkpt lat="43.4317937" lon="11.1838043"><ele>154.0</ele><time>2026-04-18T06:51:58.241Z</time></trkpt><trkpt lat="43.4318694" lon="11.1838245"><ele>154.0</ele><time>2026-04-18T06:52:01.244Z</time></trkpt><trkpt lat="43.431933" lon="11.1838285"><ele>154.0</ele><time>2026-04-18T06:52:04.241Z</time></trkpt><trkpt lat="43.4320104" lon="11.1838438"><ele>154.0</ele><time>2026-04-18T06:52:08.244Z</time></trkpt><trkpt lat="43.4320784" lon="11.1838612"><ele>154.0</ele><time>2026-04-18T06:52:11.258Z</time></trkpt><trkpt lat="43.4321486" lon="11.1838786"><ele>154.0</ele><time>2026-04-18T06:52:14.245Z</time></trkpt><trkpt lat="43.432227" lon="11.1839071"><ele>154.0</ele><time>2026-04-18T06:52:18.264Z</time></trkpt><trkpt lat="43.4322951" lon="11.1839331"><ele>154.0</ele><time>2026-04-18T06:52:22.249Z</time></trkpt><trkpt lat="43.4323606" lon="11.1839624"><ele>154.83333333333334</ele><time>2026-04-18T06:52:25.251Z</time></trkpt><trkpt lat="43.4324288" lon="11.1839914"><ele>155.66666666666669</ele><time>2026-04-18T06:52:28.245Z</time></trkpt><trkpt lat="43.4324994" lon="11.184018"><ele>156.5</ele><time>2026-04-18T06:52:31.241Z</time></trkpt><trkpt lat="43.4325785" lon="11.1840463"><ele>157.33333333333334</ele><time>2026-04-18T06:52:34.242Z</time></trkpt><trkpt lat="43.432654" lon="11.1840778"><ele>158.16666666666666</ele><time>2026-04-18T06:52:37.247Z</time></trkpt><trkpt lat="43.4327279" lon="11.1841136"><ele>159.0</ele><time>2026-04-18T06:52:40.24Z</time></trkpt><trkpt lat="43.4328069" lon="11.1841382"><ele>160.33333333333334</ele><time>2026-04-18T06:52:43.245Z</time></trkpt><trkpt lat="43.432879" lon="11.1841666"><ele>161.66666666666666</ele><time>2026-04-18T06:52:46.24Z</time></trkpt><trkpt lat="43.4329545" lon="11.1842009"><ele>163.0</ele><time>2026-04-18T06:52:49.259Z</time></trkpt><trkpt lat="43.4330319" lon="11.1842384"><ele>164.33333333333331</ele><time>2026-04-18T06:52:52.236Z</time></trkpt><trkpt lat="43.4331171" lon="11.1842801"><ele>165.66666666666666</ele><time>2026-04-18T06:52:55.241Z</time></trkpt><trkpt lat="43.4331924" lon="11.1843093"><ele>167.0</ele><time>2026-04-18T06:52:58.242Z</time></trkpt><trkpt lat="43.4332744" lon="11.1843518"><ele>167.0</ele><time>2026-04-18T06:53:01.257Z</time></trkpt><trkpt lat="43.4333626" lon="11.1843893"><ele>167.0</ele><time>2026-04-18T06:53:04.258Z</time></trkpt><trkpt lat="43.4334483" lon="11.1844259"><ele>167.0</ele><time>2026-04-18T06:53:07.245Z</time></trkpt><trkpt lat="43.433533" lon="11.1844609"><ele>167.0</ele><time>2026-04-18T06:53:10.245Z</time></trkpt><trkpt lat="43.4336183" lon="11.1844962"><ele>167.0</ele><time>2026-04-18T06:53:13.245Z</time></trkpt><trkpt lat="43.4336813" lon="11.1845214"><ele>167.0</ele><time>2026-04-18T06:53:15.26Z</time></trkpt><trkpt lat="43.433765" lon="11.1845508"><ele>167.28571428571428</ele><time>2026-04-18T06:53:18.251Z</time></trkpt><trkpt lat="43.4338394" lon="11.1845806"><ele>167.57142857142858</ele><time>2026-04-18T06:53:21.246Z</time></trkpt><trkpt lat="43.4339151" lon="11.1846043"><ele>167.85714285714286</ele><time>2026-04-18T06:53:24.252Z</time></trkpt><trkpt lat="43.4339849" lon="11.1846346"><ele>168.14285714285714</ele><time>2026-04-18T06:53:27.243Z</time></trkpt><trkpt lat="43.434052" lon="11.1846595"><ele>168.42857142857142</ele><time>2026-04-18T06:53:30.254Z</time></trkpt><trkpt lat="43.4341211" lon="11.1846865"><ele>168.71428571428572</ele><time>2026-04-18T06:53:33.25Z</time></trkpt><trkpt lat="43.4341889" lon="11.1847206"><ele>169.0</ele><time>2026-04-18T06:53:36.249Z</time></trkpt><trkpt lat="43.4342514" lon="11.1847397"><ele>169.0</ele><time>2026-04-18T06:53:39.25Z</time></trkpt><trkpt lat="43.4343129" lon="11.1847609"><ele>169.0</ele><time>2026-04-18T06:53:42.251Z</time></trkpt><trkpt lat="43.4343852" lon="11.184787"><ele>169.0</ele><time>2026-04-18T06:53:46.246Z</time></trkpt><trkpt lat="43.4344674" lon="11.1848201"><ele>169.0</ele><time>2026-04-18T06:53:50.243Z</time></trkpt><trkpt lat="43.4345284" lon="11.1848455"><ele>169.0</ele><time>2026-04-18T06:53:53.245Z</time></trkpt><trkpt lat="43.4345974" lon="11.1848794"><ele>169.0</ele><time>2026-04-18T06:53:57.247Z</time></trkpt><trkpt lat="43.434673" lon="11.1849109"><ele>169.0</ele><time>2026-04-18T06:54:01.239Z</time></trkpt><trkpt lat="43.4347511" lon="11.1849367"><ele>170.85714285714286</ele><time>2026-04-18T06:54:05.243Z</time></trkpt><trkpt lat="43.4348178" lon="11.1849361"><ele>172.71428571428572</ele><time>2026-04-18T06:54:09.247Z</time></trkpt><trkpt lat="43.4348912" lon="11.1849443"><ele>174.57142857142856</ele><time>2026-04-18T06:54:14.25Z</time></trkpt><trkpt lat="43.4349617" lon="11.1849541"><ele>176.42857142857144</ele><time>2026-04-18T06:54:19.244Z</time></trkpt><trkpt lat="43.4350308" lon="11.1849743"><ele>178.28571428571428</ele><time>2026-04-18T06:54:24.241Z</time></trkpt><trkpt lat="43.4351036" lon="11.18499"><ele>180.14285714285714</ele><time>2026-04-18T06:54:29.249Z</time></trkpt><trkpt lat="43.4351669" lon="11.1849936"><ele>182.0</ele><time>2026-04-18T06:54:33.245Z</time></trkpt><trkpt lat="43.4352477" lon="11.1849957"><ele>182.0</ele><time>2026-04-18T06:54:38.238Z</time></trkpt><trkpt lat="43.4353234" lon="11.1850201"><ele>182.0</ele><time>2026-04-18T06:54:42.223Z</time></trkpt><trkpt lat="43.4353972" lon="11.1850412"><ele>182.0</ele><time>2026-04-18T06:54:45.325Z</time></trkpt><trkpt lat="43.4354677" lon="11.1850472"><ele>182.0</ele><time>2026-04-18T06:54:48.248Z</time></trkpt><trkpt lat="43.4355374" lon="11.1850601"><ele>182.0</ele><time>2026-04-18T06:54:51.226Z</time></trkpt><trkpt lat="43.435605" lon="11.1850207"><ele>182.0</ele><time>2026-04-18T06:54:55.316Z</time></trkpt><trkpt lat="43.4356931" lon="11.1850563"><ele>182.16666666666666</ele><time>2026-04-18T06:54:58.256Z</time></trkpt><trkpt lat="43.4357741" lon="11.1850755"><ele>182.33333333333331</ele><time>2026-04-18T06:55:01.238Z</time></trkpt><trkpt lat="43.4358511" lon="11.1850906"><ele>182.5</ele><time>2026-04-18T06:55:04.262Z</time></trkpt><trkpt lat="43.4359256" lon="11.1851185"><ele>182.66666666666666</ele><time>2026-04-18T06:55:07.225Z</time></trkpt><trkpt lat="43.4360036" lon="11.1851364"><ele>182.83333333333334</ele><time>2026-04-18T06:55:10.255Z</time></trkpt><trkpt lat="43.436084" lon="11.1851438"><ele>183.0</ele><time>2026-04-18T06:55:13.257Z</time></trkpt><trkpt lat="43.436154" lon="11.1851609"><ele>183.0</ele><time>2026-04-18T06:55:16.253Z</time></trkpt><trkpt lat="43.4362172" lon="11.185186"><ele>183.0</ele><time>2026-04-18T06:55:19.246Z</time></trkpt><trkpt lat="43.4362806" lon="11.1852087"><ele>183.0</ele><time>2026-04-18T06:55:22.231Z</time></trkpt><trkpt lat="43.4363556" lon="11.185219"><ele>183.0</ele><time>2026-04-18T06:55:26.308Z</time></trkpt><trkpt lat="43.4364243" lon="11.1852388"><ele>183.0</ele><time>2026-04-18T06:55:29.25Z</time></trkpt><trkpt lat="43.4364905" lon="11.1852689"><ele>183.0</ele><time>2026-04-18T06:55:32.22Z</time></trkpt><trkpt lat="43.4365574" lon="11.1853153"><ele>183.0</ele><time>2026-04-18T06:55:34.241Z</time></trkpt><trkpt lat="43.4366419" lon="11.1853588"><ele>183.28571428571428</ele><time>2026-04-18T06:55:37.231Z</time></trkpt><trkpt lat="43.4367057" lon="11.1853713"><ele>183.57142857142858</ele><time>2026-04-18T06:55:39.23Z</time></trkpt><trkpt lat="43.4367804" lon="11.1853935"><ele>183.85714285714283</ele><time>2026-04-18T06:55:42.238Z</time></trkpt><trkpt lat="43.4368487" lon="11.1854183"><ele>184.14285714285714</ele><time>2026-04-18T06:55:45.241Z</time></trkpt><trkpt lat="43.4369248" lon="11.1854446"><ele>184.42857142857142</ele><time>2026-04-18T06:55:49.244Z</time></trkpt><trkpt lat="43.4369855" lon="11.1854758"><ele>184.7142857142857</ele><time>2026-04-18T06:55:52.246Z</time></trkpt><trkpt lat="43.437045" lon="11.1855091"><ele>185.0</ele><time>2026-04-18T06:55:55.241Z</time></trkpt><trkpt lat="43.4371165" lon="11.185557"><ele>185.33333333333331</ele><time>2026-04-18T06:55:59.241Z</time></trkpt><trkpt lat="43.4371921" lon="11.1856073"><ele>185.66666666666666</ele><time>2026-04-18T06:56:03.248Z</time></trkpt><trkpt lat="43.4372522" lon="11.1856477"><ele>186.0</ele><time>2026-04-18T06:56:06.243Z</time></trkpt><trkpt lat="43.4373255" lon="11.1856695"><ele>186.33333333333334</ele><time>2026-04-18T06:56:10.241Z</time></trkpt><trkpt lat="43.4374001" lon="11.185696"><ele>186.66666666666669</ele><time>2026-04-18T06:56:14.248Z</time></trkpt><trkpt lat="43.4374748" lon="11.185715"><ele>187.0</ele><time>2026-04-18T06:56:17.219Z</time></trkpt><trkpt lat="43.4375459" lon="11.1857563"><ele>189.83333333333334</ele><time>2026-04-18T06:56:20.237Z</time></trkpt><trkpt lat="43.4376176" lon="11.1857604"><ele>192.66666666666669</ele><time>2026-04-18T06:56:23.252Z</time></trkpt><trkpt lat="43.4376862" lon="11.1857524"><ele>195.5</ele><time>2026-04-18T06:56:26.225Z</time></trkpt><trkpt lat="43.4377658" lon="11.1857189"><ele>198.33333333333334</ele><time>2026-04-18T06:56:29.239Z</time></trkpt><trkpt lat="43.4378517" lon="11.1857103"><ele>201.16666666666666</ele><time>2026-04-18T06:56:32.236Z</time></trkpt><trkpt lat="43.43793" lon="11.1856994"><ele>204.0</ele><time>2026-04-18T06:56:35.238Z</time></trkpt><trkpt lat="43.4380116" lon="11.1856926"><ele>204.0</ele><time>2026-04-18T06:56:38.24Z</time></trkpt><trkpt lat="43.4380947" lon="11.1857018"><ele>204.0</ele><time>2026-04-18T06:56:41.246Z</time></trkpt><trkpt lat="43.4381836" lon="11.185696"><ele>204.0</ele><time>2026-04-18T06:56:44.245Z</time></trkpt><trkpt lat="43.4382497" lon="11.1856665"><ele>204.0</ele><time>2026-04-18T06:56:47.235Z</time></trkpt><trkpt lat="43.4383124" lon="11.1856441"><ele>204.0</ele><time>2026-04-18T06:56:50.251Z</time></trkpt><trkpt lat="43.4383769" lon="11.1856466"><ele>204.0</ele><time>2026-04-18T06:56:53.236Z</time></trkpt><trkpt lat="43.4384648" lon="11.1856476"><ele>202.16666666666666</ele><time>2026-04-18T06:56:57.247Z</time></trkpt><trkpt lat="43.4385473" lon="11.1856525"><ele>200.33333333333331</ele><time>2026-04-18T06:57:00.312Z</time></trkpt><trkpt lat="43.4386278" lon="11.1856421"><ele>198.5</ele><time>2026-04-18T06:57:03.221Z</time></trkpt><trkpt lat="43.4387073" lon="11.1856543"><ele>196.66666666666666</ele><time>2026-04-18T06:57:09.242Z</time></trkpt><trkpt lat="43.4387674" lon="11.1855914"><ele>194.83333333333331</ele><time>2026-04-18T06:57:12.314Z</time></trkpt><trkpt lat="43.438845" lon="11.1855171"><ele>193.0</ele><time>2026-04-18T06:57:15.252Z</time></trkpt><trkpt lat="43.4389032" lon="11.1854561"><ele>192.99999999999997</ele><time>2026-04-18T06:57:17.245Z</time></trkpt><trkpt lat="43.4389576" lon="11.1854017"><ele>193.0</ele><time>2026-04-18T06:57:19.249Z</time></trkpt><trkpt lat="43.439009" lon="11.1853363"><ele>193.0</ele><time>2026-04-18T06:57:21.321Z</time></trkpt><trkpt lat="43.4390706" lon="11.1852784"><ele>193.0</ele><time>2026-04-18T06:57:23.233Z</time></trkpt><trkpt lat="43.4391341" lon="11.185185"><ele>192.99999999999997</ele><time>2026-04-18T06:57:25.246Z</time></trkpt><trkpt lat="43.4391942" lon="11.1850793"><ele>193.0</ele><time>2026-04-18T06:57:27.237Z</time></trkpt><trkpt lat="43.4392615" lon="11.184992"><ele>193.0</ele><time>2026-04-18T06:57:29.223Z</time></trkpt><trkpt lat="43.4393271" lon="11.1848811"><ele>193.0</ele><time>2026-04-18T06:57:31.313Z</time></trkpt><trkpt lat="43.439397" lon="11.1847686"><ele>193.0</ele><time>2026-04-18T06:57:33.24Z</time></trkpt><trkpt lat="43.4394642" lon="11.1846583"><ele>193.0</ele><time>2026-04-18T06:57:35.252Z</time></trkpt><trkpt lat="43.4395227" lon="11.184544"><ele>193.0</ele><time>2026-04-18T06:57:37.307Z</time></trkpt><trkpt lat="43.4395762" lon="11.1844276"><ele>191.2</ele><time>2026-04-18T06:57:39.241Z</time></trkpt><trkpt lat="43.439647" lon="11.1843127"><ele>189.4</ele><time>2026-04-18T06:57:41.318Z</time></trkpt><trkpt lat="43.4397156" lon="11.1841962"><ele>187.6</ele><time>2026-04-18T06:57:43.25Z</time></trkpt><trkpt lat="43.4397772" lon="11.1840714"><ele>185.79999999999998</ele><time>2026-04-18T06:57:45.252Z</time></trkpt><trkpt lat="43.4398434" lon="11.183948"><ele>184.0</ele><time>2026-04-18T06:57:47.318Z</time></trkpt><trkpt lat="43.4399215" lon="11.1838124"><ele>183.6</ele><time>2026-04-18T06:57:49.227Z</time></trkpt><trkpt lat="43.439985" lon="11.1836806"><ele>183.2</ele><time>2026-04-18T06:57:51.305Z</time></trkpt><trkpt lat="43.4400433" lon="11.1835578"><ele>182.79999999999998</ele><time>2026-04-18T06:57:53.246Z</time></trkpt><trkpt lat="43.4401182" lon="11.1834272"><ele>182.39999999999998</ele><time>2026-04-18T06:57:55.247Z</time></trkpt><trkpt lat="43.4401617" lon="11.1833577"><ele>182.0</ele><time>2026-04-18T06:57:56.31Z</time></trkpt><trkpt lat="43.4402066" lon="11.1832774"><ele>182.0</ele><time>2026-04-18T06:57:57.306Z</time></trkpt><trkpt lat="43.4402573" lon="11.1831847"><ele>182.0</ele><time>2026-04-18T06:57:58.224Z</time></trkpt><trkpt lat="43.4402988" lon="11.1831111"><ele>182.0</ele><time>2026-04-18T06:57:59.242Z</time></trkpt><trkpt lat="43.4403567" lon="11.1830182"><ele>182.0</ele><time>2026-04-18T06:58:01.247Z</time></trkpt><trkpt lat="43.4404092" lon="11.1829124"><ele>182.0</ele><time>2026-04-18T06:58:03.234Z</time></trkpt><trkpt lat="43.4404615" lon="11.1828045"><ele>182.0</ele><time>2026-04-18T06:58:05.245Z</time></trkpt><trkpt lat="43.4405154" lon="11.1827009"><ele>181.83333333333331</ele><time>2026-04-18T06:58:07.306Z</time></trkpt><trkpt lat="43.4405728" lon="11.1826081"><ele>181.66666666666666</ele><time>2026-04-18T06:58:09.244Z</time></trkpt><trkpt lat="43.4406259" lon="11.1825144"><ele>181.5</ele><time>2026-04-18T06:58:11.237Z</time></trkpt><trkpt lat="43.4406817" lon="11.1824198"><ele>181.33333333333334</ele><time>2026-04-18T06:58:13.24Z</time></trkpt><trkpt lat="43.4407376" lon="11.1823222"><ele>181.16666666666669</ele><time>2026-04-18T06:58:15.237Z</time></trkpt><trkpt lat="43.4407913" lon="11.1822213"><ele>181.0</ele><time>2026-04-18T06:58:17.245Z</time></trkpt><trkpt lat="43.440843" lon="11.1821214"><ele>180.33333333333334</ele><time>2026-04-18T06:58:19.257Z</time></trkpt><trkpt lat="43.4408983" lon="11.1820445"><ele>179.66666666666669</ele><time>2026-04-18T06:58:21.317Z</time></trkpt><trkpt lat="43.4409452" lon="11.1819578"><ele>179.0</ele><time>2026-04-18T06:58:23.246Z</time></trkpt><trkpt lat="43.4409861" lon="11.1818721"><ele>178.33333333333334</ele><time>2026-04-18T06:58:25.237Z</time></trkpt><trkpt lat="43.4410283" lon="11.181788"><ele>177.66666666666666</ele><time>2026-04-18T06:58:27.32Z</time></trkpt><trkpt lat="43.4410767" lon="11.1817133"><ele>177.0</ele><time>2026-04-18T06:58:29.24Z</time></trkpt><trkpt lat="43.4411271" lon="11.1816252"><ele>177.0</ele><time>2026-04-18T06:58:31.324Z</time></trkpt><trkpt lat="43.4411802" lon="11.1815307"><ele>177.0</ele><time>2026-04-18T06:58:33.242Z</time></trkpt><trkpt lat="43.441237" lon="11.1814432"><ele>177.0</ele><time>2026-04-18T06:58:35.312Z</time></trkpt><trkpt lat="43.4413127" lon="11.1813556"><ele>177.0</ele><time>2026-04-18T06:58:37.241Z</time></trkpt><trkpt lat="43.4413728" lon="11.181281"><ele>177.0</ele><time>2026-04-18T06:58:39.245Z</time></trkpt><trkpt lat="43.4414384" lon="11.1812029"><ele>177.0</ele><time>2026-04-18T06:58:41.241Z</time></trkpt><trkpt lat="43.4414995" lon="11.181136"><ele>177.33333333333334</ele><time>2026-04-18T06:58:44.242Z</time></trkpt><trkpt lat="43.4415679" lon="11.181178"><ele>177.66666666666666</ele><time>2026-04-18T06:59:47.305Z</time></trkpt><trkpt lat="43.441634" lon="11.1811733"><ele>178.0</ele><time>2026-04-18T06:59:48.244Z</time></trkpt><trkpt lat="43.441642" lon="11.1810855"><ele>178.33333333333331</ele><time>2026-04-18T06:59:51.32Z</time></trkpt><trkpt lat="43.4416858" lon="11.1809946"><ele>178.66666666666666</ele><time>2026-04-18T06:59:55.242Z</time></trkpt><trkpt lat="43.4417457" lon="11.1808885"><ele>179.0</ele><time>2026-04-18T06:59:59.24Z</time></trkpt><trkpt lat="43.4417968" lon="11.1808105"><ele>179.00000000000003</ele><time>2026-04-18T07:00:02.246Z</time></trkpt><trkpt lat="43.4418571" lon="11.1807423"><ele>179.0</ele><time>2026-04-18T07:00:05.259Z</time></trkpt><trkpt lat="43.4419068" lon="11.1806859"><ele>179.0</ele><time>2026-04-18T07:00:07.245Z</time></trkpt><trkpt lat="43.4419519" lon="11.1806232"><ele>179.0</ele><time>2026-04-18T07:00:09.242Z</time></trkpt><trkpt lat="43.4420003" lon="11.180564"><ele>179.0</ele><time>2026-04-18T07:00:11.243Z</time></trkpt><trkpt lat="43.4420522" lon="11.1805072"><ele>179.00000000000003</ele><time>2026-04-18T07:00:13.237Z</time></trkpt><trkpt lat="43.4421055" lon="11.180441"><ele>179.0</ele><time>2026-04-18T07:00:15.305Z</time></trkpt><trkpt lat="43.442177" lon="11.1803746"><ele>178.85714285714286</ele><time>2026-04-18T07:00:17.237Z</time></trkpt><trkpt lat="43.4422243" lon="11.1803129"><ele>178.71428571428572</ele><time>2026-04-18T07:00:19.239Z</time></trkpt><trkpt lat="43.4422843" lon="11.1802522"><ele>178.57142857142856</ele><time>2026-04-18T07:00:21.24Z</time></trkpt><trkpt lat="43.4423404" lon="11.1801828"><ele>178.42857142857144</ele><time>2026-04-18T07:00:23.238Z</time></trkpt><trkpt lat="43.4423912" lon="11.18012"><ele>178.28571428571428</ele><time>2026-04-18T07:00:25.245Z</time></trkpt><trkpt lat="43.4424389" lon="11.1800606"><ele>178.14285714285714</ele><time>2026-04-18T07:00:27.251Z</time></trkpt><trkpt lat="43.4424864" lon="11.1799981"><ele>178.0</ele><time>2026-04-18T07:00:29.243Z</time></trkpt><trkpt lat="43.4425476" lon="11.1799283"><ele>177.99999999999997</ele><time>2026-04-18T07:00:32.237Z</time></trkpt><trkpt lat="43.4426087" lon="11.1798691"><ele>178.0</ele><time>2026-04-18T07:00:35.241Z</time></trkpt><trkpt lat="43.4426656" lon="11.1798017"><ele>178.0</ele><time>2026-04-18T07:00:38.24Z</time></trkpt><trkpt lat="43.4427215" lon="11.1797314"><ele>178.0</ele><time>2026-04-18T07:00:41.242Z</time></trkpt><trkpt lat="43.4427747" lon="11.1796536"><ele>178.0</ele><time>2026-04-18T07:00:44.235Z</time></trkpt><trkpt lat="43.4428245" lon="11.1795775"><ele>177.99999999999997</ele><time>2026-04-18T07:00:47.249Z</time></trkpt><trkpt lat="43.442859" lon="11.1794966"><ele>178.0</ele><time>2026-04-18T07:00:50.243Z</time></trkpt><trkpt lat="43.4428877" lon="11.1794142"><ele>178.0</ele><time>2026-04-18T07:00:53.234Z</time></trkpt><trkpt lat="43.4429132" lon="11.1793331"><ele>178.0</ele><time>2026-04-18T07:00:56.242Z</time></trkpt><trkpt lat="43.4429668" lon="11.1792592"><ele>178.0</ele><time>2026-04-18T07:00:59.244Z</time></trkpt><trkpt lat="43.4430498" lon="11.1791916"><ele>178.0</ele><time>2026-04-18T07:01:02.235Z</time></trkpt><trkpt lat="43.4431292" lon="11.1791471"><ele>178.0</ele><time>2026-04-18T07:01:04.299Z</time></trkpt><trkpt lat="43.4432087" lon="11.1791065"><ele>178.0</ele><time>2026-04-18T07:01:06.253Z</time></trkpt><trkpt lat="43.4433003" lon="11.1791438"><ele>178.16666666666669</ele><time>2026-04-18T07:01:09.238Z</time></trkpt><trkpt lat="43.4433446" lon="11.1792295"><ele>178.33333333333334</ele><time>2026-04-18T07:01:11.241Z</time></trkpt><trkpt lat="43.4433692" lon="11.1793223"><ele>178.5</ele><time>2026-04-18T07:01:13.253Z</time></trkpt><trkpt lat="43.4433726" lon="11.1794385"><ele>178.66666666666666</ele><time>2026-04-18T07:01:15.318Z</time></trkpt><trkpt lat="43.4433488" lon="11.1795558"><ele>178.83333333333331</ele><time>2026-04-18T07:01:17.246Z</time></trkpt><trkpt lat="43.4433329" lon="11.1796487"><ele>179.0</ele><time>2026-04-18T07:01:19.248Z</time></trkpt><trkpt lat="43.4433706" lon="11.1797794"><ele>177.25</ele><time>2026-04-18T07:01:21.242Z</time></trkpt><trkpt lat="43.4434261" lon="11.1799275"><ele>175.5</ele><time>2026-04-18T07:01:23.236Z</time></trkpt><trkpt lat="43.443528" lon="11.1801276"><ele>173.75</ele><time>2026-04-18T07:01:26.309Z</time></trkpt><trkpt lat="43.4435861" lon="11.1801897"><ele>172.0</ele><time>2026-04-18T07:01:27.314Z</time></trkpt><trkpt lat="43.4436187" lon="11.1803112"><ele>172.0</ele><time>2026-04-18T07:01:29.236Z</time></trkpt><trkpt lat="43.4436647" lon="11.1804376"><ele>172.0</ele><time>2026-04-18T07:01:31.318Z</time></trkpt><trkpt lat="43.4437824" lon="11.1808094"><ele>172.0</ele><time>2026-04-18T07:01:35.226Z</time></trkpt><trkpt lat="43.4438388" lon="11.1808732"><ele>168.5</ele><time>2026-04-18T07:01:37.249Z</time></trkpt><trkpt lat="43.4439049" lon="11.1810071"><ele>165.0</ele><time>2026-04-18T07:01:39.24Z</time></trkpt><trkpt lat="43.4439365" lon="11.1811049"><ele>161.5</ele><time>2026-04-18T07:01:40.313Z</time></trkpt><trkpt lat="43.4439622" lon="11.1812038"><ele>158.0</ele><time>2026-04-18T07:01:41.235Z</time></trkpt><trkpt lat="43.4440434" lon="11.1817058"><ele>157.20000000000002</ele><time>2026-04-18T07:01:45.235Z</time></trkpt><trkpt lat="43.4440232" lon="11.1818028"><ele>156.4</ele><time>2026-04-18T07:01:46.164Z</time></trkpt><trkpt lat="43.4440336" lon="11.1819047"><ele>155.60000000000002</ele><time>2026-04-18T07:01:47.291Z</time></trkpt><trkpt lat="43.4440985" lon="11.1820517"><ele>154.8</ele><time>2026-04-18T07:01:48.214Z</time></trkpt><trkpt lat="43.4441611" lon="11.1821768"><ele>154.0</ele><time>2026-04-18T07:01:50.223Z</time></trkpt><trkpt lat="43.4442491" lon="11.1822856"><ele>154.0</ele><time>2026-04-18T07:01:52.222Z</time></trkpt><trkpt lat="43.4443015" lon="11.1823363"><ele>154.0</ele><time>2026-04-18T07:01:53.22Z</time></trkpt><trkpt lat="43.4443528" lon="11.1824078"><ele>154.0</ele><time>2026-04-18T07:01:54.232Z</time></trkpt><trkpt lat="43.4444025" lon="11.1825172"><ele>154.0</ele><time>2026-04-18T07:01:55.306Z</time></trkpt><trkpt lat="43.4444356" lon="11.1826455"><ele>154.0</ele><time>2026-04-18T07:01:56.23Z</time></trkpt><trkpt lat="43.4444546" lon="11.1827559"><ele>154.0</ele><time>2026-04-18T07:01:57.226Z</time></trkpt><trkpt lat="43.4444828" lon="11.1828532"><ele>153.5</ele><time>2026-04-18T07:01:58.226Z</time></trkpt><trkpt lat="43.4445251" lon="11.1829341"><ele>153.0</ele><time>2026-04-18T07:01:59.226Z</time></trkpt><trkpt lat="43.444574" lon="11.1830042"><ele>152.5</ele><time>2026-04-18T07:02:00.302Z</time></trkpt><trkpt lat="43.4446348" lon="11.183052"><ele>152.0</ele><time>2026-04-18T07:02:01.294Z</time></trkpt><trkpt lat="43.4447063" lon="11.1830906"><ele>151.5</ele><time>2026-04-18T07:02:02.292Z</time></trkpt><trkpt lat="43.4447921" lon="11.1830895"><ele>151.0</ele><time>2026-04-18T07:02:03.212Z</time></trkpt><trkpt lat="43.4448895" lon="11.1830416"><ele>148.6</ele><time>2026-04-18T07:02:04.213Z</time></trkpt><trkpt lat="43.444971" lon="11.1829505"><ele>146.2</ele><time>2026-04-18T07:02:05.219Z</time></trkpt><trkpt lat="43.4450527" lon="11.1828608"><ele>143.8</ele><time>2026-04-18T07:02:06.226Z</time></trkpt><trkpt lat="43.4451364" lon="11.1827697"><ele>141.4</ele><time>2026-04-18T07:02:07.298Z</time></trkpt><trkpt lat="43.4451991" lon="11.1826723"><ele>139.0</ele><time>2026-04-18T07:02:08.203Z</time></trkpt><trkpt lat="43.4452626" lon="11.1825698"><ele>139.0</ele><time>2026-04-18T07:02:09.212Z</time></trkpt><trkpt lat="43.4453401" lon="11.1824739"><ele>139.0</ele><time>2026-04-18T07:02:10.282Z</time></trkpt><trkpt lat="43.4454186" lon="11.1823503"><ele>139.0</ele><time>2026-04-18T07:02:11.284Z</time></trkpt><trkpt lat="43.4454901" lon="11.1822658"><ele>139.0</ele><time>2026-04-18T07:02:12.271Z</time></trkpt><trkpt lat="43.4455898" lon="11.1822471"><ele>139.0</ele><time>2026-04-18T07:02:13.226Z</time></trkpt><trkpt lat="43.4456897" lon="11.1822672"><ele>137.83333333333334</ele><time>2026-04-18T07:02:14.231Z</time></trkpt><trkpt lat="43.4457646" lon="11.1823062"><ele>136.66666666666669</ele><time>2026-04-18T07:02:15.224Z</time></trkpt><trkpt lat="43.4458247" lon="11.1823709"><ele>135.5</ele><time>2026-04-18T07:02:16.306Z</time></trkpt><trkpt lat="43.4458845" lon="11.1824284"><ele>134.33333333333334</ele><time>2026-04-18T07:02:17.228Z</time></trkpt><trkpt lat="43.4459523" lon="11.1824855"><ele>133.16666666666666</ele><time>2026-04-18T07:02:18.215Z</time></trkpt><trkpt lat="43.4460154" lon="11.1825457"><ele>132.0</ele><time>2026-04-18T07:02:19.216Z</time></trkpt><trkpt lat="43.4460779" lon="11.1826104"><ele>132.0</ele><time>2026-04-18T07:02:20.221Z</time></trkpt><trkpt lat="43.4461372" lon="11.1826688"><ele>132.0</ele><time>2026-04-18T07:02:21.22Z</time></trkpt><trkpt lat="43.4462389" lon="11.1827541"><ele>132.0</ele><time>2026-04-18T07:02:23.223Z</time></trkpt><trkpt lat="43.4463284" lon="11.1828019"><ele>132.0</ele><time>2026-04-18T07:02:25.216Z</time></trkpt><trkpt lat="43.446353" lon="11.1828848"><ele>132.0</ele><time>2026-04-18T07:02:29.218Z</time></trkpt><trkpt lat="43.4463373" lon="11.1829879"><ele>132.0</ele><time>2026-04-18T07:02:33.227Z</time></trkpt><trkpt lat="43.4463239" lon="11.1830773"><ele>132.14285714285714</ele><time>2026-04-18T07:02:37.29Z</time></trkpt><trkpt lat="43.4463142" lon="11.1831645"><ele>132.28571428571428</ele><time>2026-04-18T07:02:41.229Z</time></trkpt><trkpt lat="43.4462912" lon="11.1832613"><ele>132.42857142857144</ele><time>2026-04-18T07:02:46.283Z</time></trkpt><trkpt lat="43.4462703" lon="11.1833578"><ele>132.57142857142856</ele><time>2026-04-18T07:02:51.296Z</time></trkpt><trkpt lat="43.4462613" lon="11.1834463"><ele>132.71428571428572</ele><time>2026-04-18T07:02:55.229Z</time></trkpt><trkpt lat="43.4462282" lon="11.1835454"><ele>132.85714285714286</ele><time>2026-04-18T07:02:59.242Z</time></trkpt><trkpt lat="43.446203" lon="11.1836363"><ele>133.0</ele><time>2026-04-18T07:03:02.214Z</time></trkpt><trkpt lat="43.446183" lon="11.1837236"><ele>133.0</ele><time>2026-04-18T07:03:05.221Z</time></trkpt><trkpt lat="43.4461697" lon="11.18381"><ele>133.0</ele><time>2026-04-18T07:03:08.224Z</time></trkpt><trkpt lat="43.4461498" lon="11.1839163"><ele>133.0</ele><time>2026-04-18T07:03:12.22Z</time></trkpt><trkpt lat="43.4461325" lon="11.1840264"><ele>133.0</ele><time>2026-04-18T07:03:16.227Z</time></trkpt><trkpt lat="43.4461186" lon="11.184116"><ele>133.0</ele><time>2026-04-18T07:03:19.228Z</time></trkpt><trkpt lat="43.4461118" lon="11.1842042"><ele>133.0</ele><time>2026-04-18T07:03:22.223Z</time></trkpt><trkpt lat="43.4461033" lon="11.1843041"><ele>133.0</ele><time>2026-04-18T07:03:26.212Z</time></trkpt><trkpt lat="43.4460782" lon="11.1844095"><ele>133.71428571428572</ele><time>2026-04-18T07:03:30.221Z</time></trkpt><trkpt lat="43.4460651" lon="11.1845137"><ele>134.42857142857144</ele><time>2026-04-18T07:03:34.229Z</time></trkpt><trkpt lat="43.4460624" lon="11.1846088"><ele>135.14285714285714</ele><time>2026-04-18T07:03:38.23Z</time></trkpt><trkpt lat="43.4460499" lon="11.1847012"><ele>135.85714285714286</ele><time>2026-04-18T07:03:42.225Z</time></trkpt><trkpt lat="43.4460329" lon="11.1848044"><ele>136.57142857142858</ele><time>2026-04-18T07:03:46.2Z</time></trkpt><trkpt lat="43.4460171" lon="11.184896"><ele>137.28571428571428</ele><time>2026-04-18T07:03:50.23Z</time></trkpt><trkpt lat="43.4460131" lon="11.1849835"><ele>138.0</ele><time>2026-04-18T07:03:54.223Z</time></trkpt><trkpt lat="43.4460439" lon="11.1850931"><ele>139.14285714285714</ele><time>2026-04-18T07:04:01.297Z</time></trkpt><trkpt lat="43.4460476" lon="11.1852066"><ele>140.2857142857143</ele><time>2026-04-18T07:04:04.233Z</time></trkpt><trkpt lat="43.4460057" lon="11.1852933"><ele>141.42857142857144</ele><time>2026-04-18T07:04:08.219Z</time></trkpt><trkpt lat="43.4459809" lon="11.1853905"><ele>142.57142857142858</ele><time>2026-04-18T07:04:13.223Z</time></trkpt><trkpt lat="43.4459709" lon="11.1854765"><ele>143.71428571428572</ele><time>2026-04-18T07:04:17.207Z</time></trkpt><trkpt lat="43.4459215" lon="11.1855388"><ele>144.85714285714286</ele><time>2026-04-18T07:04:21.223Z</time></trkpt><trkpt lat="43.4459141" lon="11.1856295"><ele>146.0</ele><time>2026-04-18T07:04:25.228Z</time></trkpt><trkpt lat="43.4459044" lon="11.1857208"><ele>147.28571428571428</ele><time>2026-04-18T07:04:29.227Z</time></trkpt><trkpt lat="43.445887" lon="11.1858099"><ele>148.57142857142858</ele><time>2026-04-18T07:04:34.226Z</time></trkpt><trkpt lat="43.4458408" lon="11.1858767"><ele>149.85714285714286</ele><time>2026-04-18T07:04:43.255Z</time></trkpt><trkpt lat="43.4458252" lon="11.1859695"><ele>151.14285714285714</ele><time>2026-04-18T07:04:49.251Z</time></trkpt><trkpt lat="43.4458085" lon="11.1860544"><ele>152.42857142857142</ele><time>2026-04-18T07:04:54.259Z</time></trkpt><trkpt lat="43.445804" lon="11.1861579"><ele>153.71428571428572</ele><time>2026-04-18T07:05:00.25Z</time></trkpt><trkpt lat="43.4457819" lon="11.1862576"><ele>155.0</ele><time>2026-04-18T07:05:05.25Z</time></trkpt><trkpt lat="43.4457372" lon="11.1863273"><ele>155.0</ele><time>2026-04-18T07:05:09.248Z</time></trkpt><trkpt lat="43.4457261" lon="11.1864375"><ele>155.0</ele><time>2026-04-18T07:05:13.244Z</time></trkpt><trkpt lat="43.4457279" lon="11.1865432"><ele>155.0</ele><time>2026-04-18T07:05:17.233Z</time></trkpt><trkpt lat="43.4457267" lon="11.1866537"><ele>155.0</ele><time>2026-04-18T07:05:21.312Z</time></trkpt><trkpt lat="43.4457173" lon="11.1867618"><ele>155.0</ele><time>2026-04-18T07:05:25.254Z</time></trkpt><trkpt lat="43.445715" lon="11.1868509"><ele>155.0</ele><time>2026-04-18T07:05:29.247Z</time></trkpt><trkpt lat="43.4457087" lon="11.1869375"><ele>155.0</ele><time>2026-04-18T07:05:32.249Z</time></trkpt><trkpt lat="43.4456795" lon="11.1870379"><ele>156.0</ele><time>2026-04-18T07:05:35.241Z</time></trkpt><trkpt lat="43.4456804" lon="11.1871352"><ele>157.0</ele><time>2026-04-18T07:05:39.244Z</time></trkpt><trkpt lat="43.4456735" lon="11.1872349"><ele>158.0</ele><time>2026-04-18T07:05:43.218Z</time></trkpt><trkpt lat="43.4456566" lon="11.1873263"><ele>159.0</ele><time>2026-04-18T07:05:46.255Z</time></trkpt><trkpt lat="43.445648" lon="11.187428"><ele>160.0</ele><time>2026-04-18T07:05:49.253Z</time></trkpt><trkpt lat="43.4456489" lon="11.1875321"><ele>161.0</ele><time>2026-04-18T07:05:53.238Z</time></trkpt><trkpt lat="43.4456545" lon="11.1876408"><ele>162.0</ele><time>2026-04-18T07:05:57.244Z</time></trkpt><trkpt lat="43.4456519" lon="11.1877457"><ele>162.28571428571428</ele><time>2026-04-18T07:06:01.315Z</time></trkpt><trkpt lat="43.4456121" lon="11.1878419"><ele>162.57142857142856</ele><time>2026-04-18T07:06:06.314Z</time></trkpt><trkpt lat="43.4456159" lon="11.1879558"><ele>162.85714285714283</ele><time>2026-04-18T07:06:10.243Z</time></trkpt><trkpt lat="43.4455862" lon="11.1880513"><ele>163.14285714285714</ele><time>2026-04-18T07:06:14.239Z</time></trkpt><trkpt lat="43.4455846" lon="11.188139"><ele>163.42857142857142</ele><time>2026-04-18T07:06:17.307Z</time></trkpt><trkpt lat="43.4455932" lon="11.1882307"><ele>163.7142857142857</ele><time>2026-04-18T07:06:20.246Z</time></trkpt><trkpt lat="43.4455787" lon="11.1883246"><ele>164.0</ele><time>2026-04-18T07:06:23.244Z</time></trkpt><trkpt lat="43.4455767" lon="11.188434"><ele>164.66666666666666</ele><time>2026-04-18T07:06:27.228Z</time></trkpt><trkpt lat="43.4455625" lon="11.1885401"><ele>165.33333333333331</ele><time>2026-04-18T07:06:31.247Z</time></trkpt><trkpt lat="43.4455429" lon="11.1886436"><ele>166.0</ele><time>2026-04-18T07:06:35.248Z</time></trkpt><trkpt lat="43.4455279" lon="11.1887562"><ele>166.66666666666666</ele><time>2026-04-18T07:06:39.247Z</time></trkpt><trkpt lat="43.445511" lon="11.1888578"><ele>167.33333333333334</ele><time>2026-04-18T07:06:43.255Z</time></trkpt><trkpt lat="43.4454937" lon="11.1889675"><ele>168.0</ele><time>2026-04-18T07:06:47.313Z</time></trkpt><trkpt lat="43.4454706" lon="11.1890491"><ele>168.33333333333334</ele><time>2026-04-18T07:06:50.267Z</time></trkpt><trkpt lat="43.4454655" lon="11.1891431"><ele>168.66666666666666</ele><time>2026-04-18T07:06:54.25Z</time></trkpt><trkpt lat="43.4454499" lon="11.1892356"><ele>169.0</ele><time>2026-04-18T07:06:57.299Z</time></trkpt><trkpt lat="43.445426" lon="11.1893491"><ele>169.33333333333331</ele><time>2026-04-18T07:07:01.239Z</time></trkpt><trkpt lat="43.4454025" lon="11.1894525"><ele>169.66666666666666</ele><time>2026-04-18T07:07:05.304Z</time></trkpt><trkpt lat="43.4453871" lon="11.1895692"><ele>170.0</ele><time>2026-04-18T07:07:09.247Z</time></trkpt><trkpt lat="43.445369" lon="11.1896746"><ele>170.42857142857144</ele><time>2026-04-18T07:07:13.241Z</time></trkpt><trkpt lat="43.4453309" lon="11.1897673"><ele>170.85714285714283</ele><time>2026-04-18T07:07:17.248Z</time></trkpt><trkpt lat="43.4452904" lon="11.1898506"><ele>171.28571428571428</ele><time>2026-04-18T07:07:21.246Z</time></trkpt><trkpt lat="43.4452794" lon="11.1899395"><ele>171.71428571428572</ele><time>2026-04-18T07:07:24.246Z</time></trkpt><trkpt lat="43.4452618" lon="11.1900278"><ele>172.14285714285717</ele><time>2026-04-18T07:07:27.312Z</time></trkpt><trkpt lat="43.4452461" lon="11.190115"><ele>172.57142857142856</ele><time>2026-04-18T07:07:30.232Z</time></trkpt><trkpt lat="43.445212" lon="11.1902011"><ele>173.0</ele><time>2026-04-18T07:07:35.318Z</time></trkpt><trkpt lat="43.4451929" lon="11.1902944"><ele>173.85714285714286</ele><time>2026-04-18T07:07:38.258Z</time></trkpt><trkpt lat="43.4451684" lon="11.1903913"><ele>174.71428571428572</ele><time>2026-04-18T07:07:42.317Z</time></trkpt><trkpt lat="43.4451613" lon="11.1904913"><ele>175.57142857142858</ele><time>2026-04-18T07:07:45.242Z</time></trkpt><trkpt lat="43.4451516" lon="11.1905794"><ele>176.42857142857144</ele><time>2026-04-18T07:07:48.249Z</time></trkpt><trkpt lat="43.4451304" lon="11.1906938"><ele>177.28571428571428</ele><time>2026-04-18T07:07:52.226Z</time></trkpt><trkpt lat="43.4451064" lon="11.1907804"><ele>178.14285714285717</ele><time>2026-04-18T07:07:55.248Z</time></trkpt><trkpt lat="43.4450809" lon="11.1908902"><ele>179.0</ele><time>2026-04-18T07:07:59.252Z</time></trkpt><trkpt lat="43.4450633" lon="11.1909768"><ele>179.71428571428572</ele><time>2026-04-18T07:08:02.228Z</time></trkpt><trkpt lat="43.4450455" lon="11.1910735"><ele>180.42857142857144</ele><time>2026-04-18T07:08:05.251Z</time></trkpt><trkpt lat="43.4450258" lon="11.1911614"><ele>181.14285714285717</ele><time>2026-04-18T07:08:08.255Z</time></trkpt><trkpt lat="43.4450102" lon="11.1912518"><ele>181.85714285714286</ele><time>2026-04-18T07:08:11.313Z</time></trkpt><trkpt lat="43.4450107" lon="11.1913582"><ele>182.57142857142856</ele><time>2026-04-18T07:08:14.254Z</time></trkpt><trkpt lat="43.4449812" lon="11.1914448"><ele>183.2857142857143</ele><time>2026-04-18T07:08:18.232Z</time></trkpt><trkpt lat="43.4449589" lon="11.1915468"><ele>184.0</ele><time>2026-04-18T07:08:22.306Z</time></trkpt><trkpt lat="43.4449392" lon="11.1916518"><ele>184.0</ele><time>2026-04-18T07:08:26.244Z</time></trkpt><trkpt lat="43.4449311" lon="11.1917441"><ele>184.0</ele><time>2026-04-18T07:08:30.292Z</time></trkpt><trkpt lat="43.4449242" lon="11.1918497"><ele>184.0</ele><time>2026-04-18T07:08:34.249Z</time></trkpt><trkpt lat="43.4449105" lon="11.1919412"><ele>184.0</ele><time>2026-04-18T07:08:37.32Z</time></trkpt><trkpt lat="43.4448883" lon="11.1920531"><ele>184.0</ele><time>2026-04-18T07:08:41.228Z</time></trkpt><trkpt lat="43.44488" lon="11.192141"><ele>184.0</ele><time>2026-04-18T07:08:44.245Z</time></trkpt><trkpt lat="43.4448746" lon="11.192228"><ele>184.0</ele><time>2026-04-18T07:08:47.324Z</time></trkpt><trkpt lat="43.4448729" lon="11.1923151"><ele>184.14285714285714</ele><time>2026-04-18T07:08:50.249Z</time></trkpt><trkpt lat="43.4448625" lon="11.1924012"><ele>184.28571428571428</ele><time>2026-04-18T07:08:53.235Z</time></trkpt><trkpt lat="43.4448574" lon="11.192508"><ele>184.42857142857142</ele><time>2026-04-18T07:08:57.318Z</time></trkpt><trkpt lat="43.4448543" lon="11.1926167"><ele>184.57142857142856</ele><time>2026-04-18T07:09:01.316Z</time></trkpt><trkpt lat="43.4448032" lon="11.1926964"><ele>184.71428571428572</ele><time>2026-04-18T07:09:05.312Z</time></trkpt><trkpt lat="43.444793" lon="11.192786"><ele>184.85714285714283</ele><time>2026-04-18T07:09:09.246Z</time></trkpt><trkpt lat="43.4447793" lon="11.1928861"><ele>185.0</ele><time>2026-04-18T07:09:12.25Z</time></trkpt><trkpt lat="43.4447467" lon="11.1929904"><ele>184.99999999999997</ele><time>2026-04-18T07:09:16.32Z</time></trkpt><trkpt lat="43.444717" lon="11.1930678"><ele>185.0</ele><time>2026-04-18T07:09:19.244Z</time></trkpt><trkpt lat="43.4446891" lon="11.193147"><ele>185.0</ele><time>2026-04-18T07:09:22.248Z</time></trkpt><trkpt lat="43.4446637" lon="11.1932319"><ele>185.0</ele><time>2026-04-18T07:09:25.253Z</time></trkpt><trkpt lat="43.4446289" lon="11.1933377"><ele>185.0</ele><time>2026-04-18T07:09:29.245Z</time></trkpt><trkpt lat="43.4445911" lon="11.1934211"><ele>184.99999999999997</ele><time>2026-04-18T07:09:33.235Z</time></trkpt><trkpt lat="43.4445735" lon="11.1935076"><ele>185.0</ele><time>2026-04-18T07:09:36.303Z</time></trkpt><trkpt lat="43.4445551" lon="11.1936163"><ele>186.33333333333331</ele><time>2026-04-18T07:09:40.245Z</time></trkpt><trkpt lat="43.4445385" lon="11.1937213"><ele>187.66666666666666</ele><time>2026-04-18T07:09:44.242Z</time></trkpt><trkpt lat="43.4445257" lon="11.1938112"><ele>189.0</ele><time>2026-04-18T07:09:48.237Z</time></trkpt><trkpt lat="43.4445153" lon="11.1939019"><ele>190.33333333333331</ele><time>2026-04-18T07:09:51.247Z</time></trkpt><trkpt lat="43.4445104" lon="11.1940138"><ele>191.66666666666666</ele><time>2026-04-18T07:09:55.228Z</time></trkpt><trkpt lat="43.4445011" lon="11.194126"><ele>193.0</ele><time>2026-04-18T07:09:59.257Z</time></trkpt><trkpt lat="43.4445014" lon="11.1942381"><ele>193.66666666666666</ele><time>2026-04-18T07:10:03.246Z</time></trkpt><trkpt lat="43.4445324" lon="11.1943203"><ele>194.33333333333331</ele><time>2026-04-18T07:10:06.221Z</time></trkpt><trkpt lat="43.4445122" lon="11.1944251"><ele>195.0</ele><time>2026-04-18T07:10:09.266Z</time></trkpt><trkpt lat="43.4444952" lon="11.1946016"><ele>195.66666666666669</ele><time>2026-04-18T07:10:15.251Z</time></trkpt><trkpt lat="43.4444855" lon="11.1947048"><ele>196.33333333333334</ele><time>2026-04-18T07:10:19.239Z</time></trkpt><trkpt lat="43.4445117" lon="11.1947931"><ele>197.0</ele><time>2026-04-18T07:10:22.306Z</time></trkpt><trkpt lat="43.444545" lon="11.1948975"><ele>196.57142857142858</ele><time>2026-04-18T07:10:26.246Z</time></trkpt><trkpt lat="43.4445723" lon="11.1949925"><ele>196.14285714285717</ele><time>2026-04-18T07:10:29.245Z</time></trkpt><trkpt lat="43.4446054" lon="11.1950955"><ele>195.71428571428572</ele><time>2026-04-18T07:10:32.305Z</time></trkpt><trkpt lat="43.4446264" lon="11.1951859"><ele>195.28571428571428</ele><time>2026-04-18T07:10:35.247Z</time></trkpt><trkpt lat="43.4446462" lon="11.1952995"><ele>194.85714285714286</ele><time>2026-04-18T07:10:39.244Z</time></trkpt><trkpt lat="43.444661" lon="11.1953957"><ele>194.42857142857142</ele><time>2026-04-18T07:10:43.255Z</time></trkpt><trkpt lat="43.4446882" lon="11.1954771"><ele>194.0</ele><time>2026-04-18T07:10:46.304Z</time></trkpt><trkpt lat="43.4446912" lon="11.1955892"><ele>195.14285714285714</ele><time>2026-04-18T07:10:50.247Z</time></trkpt><trkpt lat="43.4446942" lon="11.1956838"><ele>196.2857142857143</ele><time>2026-04-18T07:10:53.235Z</time></trkpt><trkpt lat="43.4447111" lon="11.1957762"><ele>197.42857142857144</ele><time>2026-04-18T07:10:57.25Z</time></trkpt><trkpt lat="43.4447263" lon="11.1958618"><ele>198.57142857142856</ele><time>2026-04-18T07:11:01.247Z</time></trkpt><trkpt lat="43.4447387" lon="11.1959722"><ele>199.71428571428572</ele><time>2026-04-18T07:11:05.226Z</time></trkpt><trkpt lat="43.4447545" lon="11.196057"><ele>200.85714285714286</ele><time>2026-04-18T07:11:08.235Z</time></trkpt><trkpt lat="43.4447653" lon="11.1961673"><ele>202.0</ele><time>2026-04-18T07:11:12.32Z</time></trkpt><trkpt lat="43.4447746" lon="11.1962545"><ele>202.0</ele><time>2026-04-18T07:11:16.311Z</time></trkpt><trkpt lat="43.4447977" lon="11.1963462"><ele>202.0</ele><time>2026-04-18T07:11:21.326Z</time></trkpt><trkpt lat="43.4448215" lon="11.1964303"><ele>202.0</ele><time>2026-04-18T07:11:24.241Z</time></trkpt><trkpt lat="43.4448419" lon="11.1965185"><ele>202.0</ele><time>2026-04-18T07:11:27.307Z</time></trkpt><trkpt lat="43.4448618" lon="11.196618"><ele>202.0</ele><time>2026-04-18T07:11:31.31Z</time></trkpt><trkpt lat="43.4448785" lon="11.1967121"><ele>202.0</ele><time>2026-04-18T07:11:34.252Z</time></trkpt><trkpt lat="43.4449074" lon="11.1967939"><ele>202.0</ele><time>2026-04-18T07:11:37.256Z</time></trkpt><trkpt lat="43.4449379" lon="11.1968717"><ele>203.28571428571428</ele><time>2026-04-18T07:11:40.253Z</time></trkpt><trkpt lat="43.4449671" lon="11.1969492"><ele>204.57142857142856</ele><time>2026-04-18T07:11:43.24Z</time></trkpt><trkpt lat="43.4450051" lon="11.197047"><ele>205.85714285714286</ele><time>2026-04-18T07:11:47.245Z</time></trkpt><trkpt lat="43.4450358" lon="11.1971281"><ele>207.14285714285714</ele><time>2026-04-18T07:11:50.233Z</time></trkpt><trkpt lat="43.4450653" lon="11.1972248"><ele>208.42857142857144</ele><time>2026-04-18T07:11:54.248Z</time></trkpt><trkpt lat="43.4450603" lon="11.1973255"><ele>209.71428571428572</ele><time>2026-04-18T07:11:59.242Z</time></trkpt><trkpt lat="43.4450543" lon="11.1974182"><ele>211.0</ele><time>2026-04-18T07:12:02.312Z</time></trkpt><trkpt lat="43.4450505" lon="11.1975085"><ele>211.85714285714286</ele><time>2026-04-18T07:12:05.318Z</time></trkpt><trkpt lat="43.4450729" lon="11.1975946"><ele>212.71428571428572</ele><time>2026-04-18T07:12:08.231Z</time></trkpt><trkpt lat="43.4450961" lon="11.1977058"><ele>213.57142857142856</ele><time>2026-04-18T07:12:11.255Z</time></trkpt><trkpt lat="43.4451067" lon="11.1977956"><ele>214.42857142857144</ele><time>2026-04-18T07:12:14.242Z</time></trkpt><trkpt lat="43.4450757" lon="11.1978945"><ele>215.28571428571428</ele><time>2026-04-18T07:12:18.259Z</time></trkpt><trkpt lat="43.4450763" lon="11.198002"><ele>216.14285714285714</ele><time>2026-04-18T07:12:21.249Z</time></trkpt><trkpt lat="43.4450882" lon="11.1980941"><ele>217.0</ele><time>2026-04-18T07:12:24.242Z</time></trkpt><trkpt lat="43.4450742" lon="11.1981982"><ele>217.14285714285714</ele><time>2026-04-18T07:12:28.24Z</time></trkpt><trkpt lat="43.4450439" lon="11.1982977"><ele>217.28571428571428</ele><time>2026-04-18T07:12:32.251Z</time></trkpt><trkpt lat="43.445" lon="11.1983785"><ele>217.42857142857144</ele><time>2026-04-18T07:12:36.241Z</time></trkpt><trkpt lat="43.4449457" lon="11.1984287"><ele>217.57142857142856</ele><time>2026-04-18T07:12:40.301Z</time></trkpt><trkpt lat="43.4448712" lon="11.1984715"><ele>217.71428571428572</ele><time>2026-04-18T07:12:44.233Z</time></trkpt><trkpt lat="43.4448102" lon="11.1985131"><ele>217.85714285714286</ele><time>2026-04-18T07:12:47.321Z</time></trkpt><trkpt lat="43.4447427" lon="11.1985329"><ele>218.0</ele><time>2026-04-18T07:12:51.226Z</time></trkpt><trkpt lat="43.4446885" lon="11.1986149"><ele>218.0</ele><time>2026-04-18T07:12:56.305Z</time></trkpt><trkpt lat="43.4446397" lon="11.1986982"><ele>218.0</ele><time>2026-04-18T07:13:00.247Z</time></trkpt><trkpt lat="43.4445374" lon="11.1988621"><ele>218.0</ele><time>2026-04-18T07:13:05.209Z</time></trkpt><trkpt lat="43.4444911" lon="11.1989618"><ele>218.0</ele><time>2026-04-18T07:13:08.24Z</time></trkpt><trkpt lat="43.444469" lon="11.1990524"><ele>218.0</ele><time>2026-04-18T07:13:12.243Z</time></trkpt><trkpt lat="43.4444444" lon="11.1991406"><ele>219.0</ele><time>2026-04-18T07:13:16.235Z</time></trkpt><trkpt lat="43.444415" lon="11.1992352"><ele>220.0</ele><time>2026-04-18T07:13:20.241Z</time></trkpt><trkpt lat="43.4444202" lon="11.1993341"><ele>221.0</ele><time>2026-04-18T07:13:25.328Z</time></trkpt><trkpt lat="43.4444285" lon="11.1994372"><ele>222.0</ele><time>2026-04-18T07:13:28.249Z</time></trkpt><trkpt lat="43.4444362" lon="11.1995361"><ele>223.0</ele><time>2026-04-18T07:13:31.246Z</time></trkpt><trkpt lat="43.4444418" lon="11.1996233"><ele>224.00000000000003</ele><time>2026-04-18T07:13:34.254Z</time></trkpt><trkpt lat="43.4444604" lon="11.1997203"><ele>225.00000000000003</ele><time>2026-04-18T07:13:38.238Z</time></trkpt><trkpt lat="43.4444989" lon="11.1997922"><ele>225.33333333333334</ele><time>2026-04-18T07:13:41.235Z</time></trkpt><trkpt lat="43.4445155" lon="11.1998951"><ele>225.66666666666669</ele><time>2026-04-18T07:13:44.25Z</time></trkpt><trkpt lat="43.444532" lon="11.1999873"><ele>226.0</ele><time>2026-04-18T07:13:47.239Z</time></trkpt><trkpt lat="43.4445497" lon="11.2000949"><ele>226.33333333333334</ele><time>2026-04-18T07:13:51.248Z</time></trkpt><trkpt lat="43.4445608" lon="11.2002002"><ele>226.66666666666669</ele><time>2026-04-18T07:13:55.251Z</time></trkpt><trkpt lat="43.4445751" lon="11.200302"><ele>227.0</ele><time>2026-04-18T07:13:59.236Z</time></trkpt><trkpt lat="43.4445771" lon="11.2004043"><ele>227.0</ele><time>2026-04-18T07:14:03.241Z</time></trkpt><trkpt lat="43.4446445" lon="11.2006496"><ele>227.0</ele><time>2026-04-18T07:14:10.215Z</time></trkpt><trkpt lat="43.4446537" lon="11.2008679"><ele>227.0</ele><time>2026-04-18T07:14:18.24Z</time></trkpt><trkpt lat="43.4446763" lon="11.2009714"><ele>227.0</ele><time>2026-04-18T07:14:21.229Z</time></trkpt><trkpt lat="43.4446959" lon="11.2010759"><ele>227.00000000000003</ele><time>2026-04-18T07:14:25.313Z</time></trkpt><trkpt lat="43.4447158" lon="11.2011806"><ele>227.0</ele><time>2026-04-18T07:14:28.224Z</time></trkpt><trkpt lat="43.4447457" lon="11.2012848"><ele>227.0</ele><time>2026-04-18T07:14:31.232Z</time></trkpt><trkpt lat="43.4447758" lon="11.2013708"><ele>227.0</ele><time>2026-04-18T07:14:34.254Z</time></trkpt><trkpt lat="43.4447888" lon="11.2014566"><ele>227.00000000000003</ele><time>2026-04-18T07:14:37.245Z</time></trkpt><trkpt lat="43.4447951" lon="11.2015884"><ele>227.0</ele><time>2026-04-18T07:14:40.3Z</time></trkpt><trkpt lat="43.4448015" lon="11.201687"><ele>226.85714285714286</ele><time>2026-04-18T07:14:42.312Z</time></trkpt><trkpt lat="43.4447855" lon="11.2018019"><ele>226.71428571428572</ele><time>2026-04-18T07:14:44.254Z</time></trkpt><trkpt lat="43.4447774" lon="11.2019087"><ele>226.57142857142858</ele><time>2026-04-18T07:14:46.254Z</time></trkpt><trkpt lat="43.444808" lon="11.2020158"><ele>226.42857142857144</ele><time>2026-04-18T07:14:48.251Z</time></trkpt><trkpt lat="43.444817" lon="11.2021088"><ele>226.28571428571428</ele><time>2026-04-18T07:14:50.243Z</time></trkpt><trkpt lat="43.4448102" lon="11.2022032"><ele>226.14285714285717</ele><time>2026-04-18T07:14:52.309Z</time></trkpt><trkpt lat="43.4447922" lon="11.2022903"><ele>226.0</ele><time>2026-04-18T07:14:54.253Z</time></trkpt><trkpt lat="43.4447564" lon="11.2024047"><ele>225.8</ele><time>2026-04-18T07:14:57.332Z</time></trkpt><trkpt lat="43.4447101" lon="11.2024987"><ele>225.60000000000002</ele><time>2026-04-18T07:15:00.231Z</time></trkpt><trkpt lat="43.4446696" lon="11.2025795"><ele>225.4</ele><time>2026-04-18T07:15:03.246Z</time></trkpt><trkpt lat="43.4446288" lon="11.2026674"><ele>225.2</ele><time>2026-04-18T07:15:06.324Z</time></trkpt><trkpt lat="43.4445674" lon="11.2027473"><ele>225.0</ele><time>2026-04-18T07:15:12.21Z</time></trkpt><trkpt lat="43.4444633" lon="11.2026102"><ele>224.8</ele><time>2026-04-18T07:15:13.262Z</time></trkpt><trkpt lat="43.4443816" lon="11.2026653"><ele>224.6</ele><time>2026-04-18T07:15:15.273Z</time></trkpt><trkpt lat="43.4443929" lon="11.202758"><ele>224.39999999999998</ele><time>2026-04-18T07:15:18.288Z</time></trkpt><trkpt lat="43.4443884" lon="11.2028627"><ele>224.2</ele><time>2026-04-18T07:15:20.291Z</time></trkpt><trkpt lat="43.4443799" lon="11.2029707"><ele>224.0</ele><time>2026-04-18T07:15:23.356Z</time></trkpt><trkpt lat="43.4444452" lon="11.2032259"><ele>224.0</ele><time>2026-04-18T07:15:27.266Z</time></trkpt><trkpt lat="43.4445409" lon="11.203529"><ele>224.0</ele><time>2026-04-18T07:15:31.304Z</time></trkpt><trkpt lat="43.4445756" lon="11.20362"><ele>224.0</ele><time>2026-04-18T07:15:34.245Z</time></trkpt><trkpt lat="43.4445987" lon="11.2037229"><ele>224.0</ele><time>2026-04-18T07:15:36.242Z</time></trkpt><trkpt lat="43.4446184" lon="11.2038077"><ele>224.0</ele><time>2026-04-18T07:15:38.238Z</time></trkpt><trkpt lat="43.444642" lon="11.2039031"><ele>224.0</ele><time>2026-04-18T07:15:40.245Z</time></trkpt><trkpt lat="43.4446714" lon="11.2040027"><ele>224.0</ele><time>2026-04-18T07:15:42.237Z</time></trkpt><trkpt lat="43.4446888" lon="11.2040925"><ele>224.0</ele><time>2026-04-18T07:15:44.253Z</time></trkpt><trkpt lat="43.4447063" lon="11.2042151"><ele>224.0</ele><time>2026-04-18T07:15:47.309Z</time></trkpt><trkpt lat="43.4447084" lon="11.2043037"><ele>224.0</ele><time>2026-04-18T07:15:49.255Z</time></trkpt><trkpt lat="43.4447132" lon="11.2044071"><ele>224.0</ele><time>2026-04-18T07:15:51.318Z</time></trkpt><trkpt lat="43.4447197" lon="11.2045252"><ele>223.83333333333334</ele><time>2026-04-18T07:15:53.231Z</time></trkpt><trkpt lat="43.444711" lon="11.204624"><ele>223.66666666666669</ele><time>2026-04-18T07:15:55.255Z</time></trkpt><trkpt lat="43.4446989" lon="11.204742"><ele>223.5</ele><time>2026-04-18T07:15:58.225Z</time></trkpt><trkpt lat="43.4446843" lon="11.2048522"><ele>223.33333333333331</ele><time>2026-04-18T07:16:01.239Z</time></trkpt><trkpt lat="43.4446684" lon="11.2049728"><ele>223.16666666666666</ele><time>2026-04-18T07:16:04.247Z</time></trkpt><trkpt lat="43.4446596" lon="11.2050977"><ele>223.0</ele><time>2026-04-18T07:16:07.253Z</time></trkpt><trkpt lat="43.4446544" lon="11.205186"><ele>222.99999999999997</ele><time>2026-04-18T07:16:09.246Z</time></trkpt><trkpt lat="43.4446468" lon="11.2052966"><ele>223.0</ele><time>2026-04-18T07:16:12.254Z</time></trkpt><trkpt lat="43.4446332" lon="11.2054835"><ele>223.0</ele><time>2026-04-18T07:16:17.308Z</time></trkpt><trkpt lat="43.4446392" lon="11.2055804"><ele>223.0</ele><time>2026-04-18T07:16:21.248Z</time></trkpt><trkpt lat="43.4446254" lon="11.2056783"><ele>222.99999999999997</ele><time>2026-04-18T07:16:23.25Z</time></trkpt><trkpt lat="43.4446215" lon="11.2057856"><ele>223.0</ele><time>2026-04-18T07:16:26.25Z</time></trkpt><trkpt lat="43.4446278" lon="11.2058995"><ele>223.49999999999997</ele><time>2026-04-18T07:16:29.267Z</time></trkpt><trkpt lat="43.4446346" lon="11.2060137"><ele>224.0</ele><time>2026-04-18T07:16:32.244Z</time></trkpt><trkpt lat="43.4446761" lon="11.2061135"><ele>224.5</ele><time>2026-04-18T07:16:36.238Z</time></trkpt><trkpt lat="43.4447125" lon="11.2062035"><ele>225.0</ele><time>2026-04-18T07:16:39.249Z</time></trkpt><trkpt lat="43.4447519" lon="11.2063047"><ele>225.49999999999997</ele><time>2026-04-18T07:16:42.247Z</time></trkpt><trkpt lat="43.4447917" lon="11.2064037"><ele>226.0</ele><time>2026-04-18T07:16:45.247Z</time></trkpt><trkpt lat="43.4448234" lon="11.2064914"><ele>226.42857142857144</ele><time>2026-04-18T07:16:48.255Z</time></trkpt><trkpt lat="43.4448598" lon="11.2065881"><ele>226.85714285714283</ele><time>2026-04-18T07:16:52.249Z</time></trkpt><trkpt lat="43.4448927" lon="11.2066626"><ele>227.28571428571428</ele><time>2026-04-18T07:16:55.249Z</time></trkpt><trkpt lat="43.4449276" lon="11.2067389"><ele>227.71428571428572</ele><time>2026-04-18T07:16:58.308Z</time></trkpt><trkpt lat="43.444982" lon="11.2068229"><ele>228.14285714285717</ele><time>2026-04-18T07:17:02.24Z</time></trkpt><trkpt lat="43.445008" lon="11.2069098"><ele>228.57142857142856</ele><time>2026-04-18T07:17:05.255Z</time></trkpt><trkpt lat="43.4450376" lon="11.2070041"><ele>229.0</ele><time>2026-04-18T07:17:08.225Z</time></trkpt><trkpt lat="43.4450728" lon="11.2071176"><ele>228.99999999999997</ele><time>2026-04-18T07:17:11.228Z</time></trkpt><trkpt lat="43.4451138" lon="11.2072279"><ele>229.0</ele><time>2026-04-18T07:17:14.26Z</time></trkpt><trkpt lat="43.4451454" lon="11.2073164"><ele>229.0</ele><time>2026-04-18T07:17:17.329Z</time></trkpt><trkpt lat="43.4451543" lon="11.2074214"><ele>229.0</ele><time>2026-04-18T07:17:22.252Z</time></trkpt><trkpt lat="43.4451737" lon="11.2075163"><ele>228.99999999999997</ele><time>2026-04-18T07:17:26.252Z</time></trkpt><trkpt lat="43.4451838" lon="11.2076119"><ele>229.0</ele><time>2026-04-18T07:17:30.253Z</time></trkpt><trkpt lat="43.4451905" lon="11.20772"><ele>228.85714285714283</ele><time>2026-04-18T07:17:35.241Z</time></trkpt><trkpt lat="43.4451883" lon="11.2078176"><ele>228.71428571428572</ele><time>2026-04-18T07:17:39.236Z</time></trkpt><trkpt lat="43.4451883" lon="11.207934"><ele>228.57142857142856</ele><time>2026-04-18T07:17:43.28Z</time></trkpt><trkpt lat="43.4451781" lon="11.2080491"><ele>228.42857142857142</ele><time>2026-04-18T07:17:46.25Z</time></trkpt><trkpt lat="43.445176" lon="11.2081362"><ele>228.28571428571428</ele><time>2026-04-18T07:17:48.252Z</time></trkpt><trkpt lat="43.4451628" lon="11.2082382"><ele>228.14285714285714</ele><time>2026-04-18T07:17:50.252Z</time></trkpt><trkpt lat="43.445149" lon="11.20833"><ele>228.0</ele><time>2026-04-18T07:17:52.245Z</time></trkpt><trkpt lat="43.4451338" lon="11.2084458"><ele>227.5</ele><time>2026-04-18T07:17:55.235Z</time></trkpt><trkpt lat="43.4451163" lon="11.2085428"><ele>227.0</ele><time>2026-04-18T07:17:58.239Z</time></trkpt><trkpt lat="43.4450883" lon="11.2086532"><ele>226.5</ele><time>2026-04-18T07:18:01.246Z</time></trkpt><trkpt lat="43.4450719" lon="11.2087484"><ele>226.0</ele><time>2026-04-18T07:18:03.234Z</time></trkpt><trkpt lat="43.4450573" lon="11.2088854"><ele>225.5</ele><time>2026-04-18T07:18:05.256Z</time></trkpt><trkpt lat="43.4450426" lon="11.2089784"><ele>225.0</ele><time>2026-04-18T07:18:06.254Z</time></trkpt><trkpt lat="43.4450218" lon="11.2090797"><ele>224.66666666666666</ele><time>2026-04-18T07:18:07.258Z</time></trkpt><trkpt lat="43.4449975" lon="11.2091897"><ele>224.33333333333331</ele><time>2026-04-18T07:18:08.243Z</time></trkpt><trkpt lat="43.4449738" lon="11.2093014"><ele>224.0</ele><time>2026-04-18T07:18:09.255Z</time></trkpt><trkpt lat="43.4449519" lon="11.2094122"><ele>223.66666666666666</ele><time>2026-04-18T07:18:10.257Z</time></trkpt><trkpt lat="43.4449325" lon="11.2095277"><ele>223.33333333333331</ele><time>2026-04-18T07:18:11.258Z</time></trkpt><trkpt lat="43.44491" lon="11.2096422"><ele>223.0</ele><time>2026-04-18T07:18:12.257Z</time></trkpt><trkpt lat="43.4448862" lon="11.2097532"><ele>222.33333333333331</ele><time>2026-04-18T07:18:13.255Z</time></trkpt><trkpt lat="43.4448633" lon="11.2098616"><ele>221.66666666666666</ele><time>2026-04-18T07:18:14.248Z</time></trkpt><trkpt lat="43.4448404" lon="11.2099721"><ele>221.0</ele><time>2026-04-18T07:18:15.252Z</time></trkpt><trkpt lat="43.4448171" lon="11.2100798"><ele>220.33333333333331</ele><time>2026-04-18T07:18:16.222Z</time></trkpt><trkpt lat="43.4447909" lon="11.2101888"><ele>219.66666666666666</ele><time>2026-04-18T07:18:17.306Z</time></trkpt><trkpt lat="43.444759" lon="11.2102859"><ele>219.0</ele><time>2026-04-18T07:18:18.239Z</time></trkpt><trkpt lat="43.4447163" lon="11.2103821"><ele>219.0</ele><time>2026-04-18T07:18:19.241Z</time></trkpt><trkpt lat="43.4446852" lon="11.2104813"><ele>219.0</ele><time>2026-04-18T07:18:20.244Z</time></trkpt><trkpt lat="43.4446669" lon="11.2105908"><ele>219.0</ele><time>2026-04-18T07:18:21.244Z</time></trkpt><trkpt lat="43.4446539" lon="11.2107108"><ele>219.0</ele><time>2026-04-18T07:18:22.235Z</time></trkpt><trkpt lat="43.4446416" lon="11.2108184"><ele>219.0</ele><time>2026-04-18T07:18:23.258Z</time></trkpt><trkpt lat="43.4446215" lon="11.2109265"><ele>219.0</ele><time>2026-04-18T07:18:24.241Z</time></trkpt><trkpt lat="43.4446006" lon="11.2110268"><ele>218.83333333333334</ele><time>2026-04-18T07:18:25.248Z</time></trkpt><trkpt lat="43.4445807" lon="11.2111227"><ele>218.66666666666669</ele><time>2026-04-18T07:18:26.254Z</time></trkpt><trkpt lat="43.4445597" lon="11.2112064"><ele>218.5</ele><time>2026-04-18T07:18:27.235Z</time></trkpt><trkpt lat="43.4445166" lon="11.2113522"><ele>218.33333333333334</ele><time>2026-04-18T07:18:29.253Z</time></trkpt><trkpt lat="43.4444744" lon="11.2114722"><ele>218.16666666666669</ele><time>2026-04-18T07:18:31.258Z</time></trkpt><trkpt lat="43.4444328" lon="11.211578"><ele>218.0</ele><time>2026-04-18T07:18:33.243Z</time></trkpt><trkpt lat="43.4443963" lon="11.2116688"><ele>218.00000000000003</ele><time>2026-04-18T07:18:35.249Z</time></trkpt><trkpt lat="43.4443633" lon="11.2117532"><ele>218.0</ele><time>2026-04-18T07:18:37.238Z</time></trkpt><trkpt lat="43.4443349" lon="11.2118397"><ele>218.0</ele><time>2026-04-18T07:18:39.252Z</time></trkpt><trkpt lat="43.4443187" lon="11.2119311"><ele>218.0</ele><time>2026-04-18T07:18:41.253Z</time></trkpt><trkpt lat="43.4443054" lon="11.212054"><ele>218.00000000000003</ele><time>2026-04-18T07:18:44.255Z</time></trkpt><trkpt lat="43.4443063" lon="11.2121428"><ele>218.0</ele><time>2026-04-18T07:18:46.245Z</time></trkpt><trkpt lat="43.4443098" lon="11.2122673"><ele>219.16666666666669</ele><time>2026-04-18T07:18:49.25Z</time></trkpt><trkpt lat="43.4443265" lon="11.2123771"><ele>220.33333333333334</ele><time>2026-04-18T07:18:52.253Z</time></trkpt><trkpt lat="43.4443297" lon="11.2124717"><ele>221.5</ele><time>2026-04-18T07:18:55.245Z</time></trkpt><trkpt lat="43.4443293" lon="11.2125667"><ele>222.66666666666669</ele><time>2026-04-18T07:18:58.252Z</time></trkpt><trkpt lat="43.4443337" lon="11.2126784"><ele>223.83333333333334</ele><time>2026-04-18T07:19:02.251Z</time></trkpt><trkpt lat="43.4443355" lon="11.2127875"><ele>225.0</ele><time>2026-04-18T07:19:06.249Z</time></trkpt><trkpt lat="43.4443464" lon="11.2128987"><ele>225.00000000000003</ele><time>2026-04-18T07:19:10.258Z</time></trkpt><trkpt lat="43.444348" lon="11.2130047"><ele>225.0</ele><time>2026-04-18T07:19:14.25Z</time></trkpt><trkpt lat="43.4443327" lon="11.2130962"><ele>225.00000000000003</ele><time>2026-04-18T07:19:18.253Z</time></trkpt><trkpt lat="43.4442924" lon="11.2131805"><ele>225.00000000000003</ele><time>2026-04-18T07:19:22.258Z</time></trkpt><trkpt lat="43.4442441" lon="11.2132618"><ele>225.0</ele><time>2026-04-18T07:19:26.253Z</time></trkpt><trkpt lat="43.4442058" lon="11.2133356"><ele>225.00000000000003</ele><time>2026-04-18T07:19:30.252Z</time></trkpt><trkpt lat="43.4441535" lon="11.2134179"><ele>225.00000000000003</ele><time>2026-04-18T07:19:34.256Z</time></trkpt><trkpt lat="43.4441227" lon="11.2134999"><ele>225.00000000000003</ele><time>2026-04-18T07:19:37.256Z</time></trkpt><trkpt lat="43.444064" lon="11.2135838"><ele>225.0</ele><time>2026-04-18T07:19:41.24Z</time></trkpt><trkpt lat="43.4440102" lon="11.2136401"><ele>225.00000000000003</ele><time>2026-04-18T07:19:44.251Z</time></trkpt><trkpt lat="43.4439571" lon="11.2136963"><ele>225.00000000000003</ele><time>2026-04-18T07:19:47.254Z</time></trkpt><trkpt lat="43.4438912" lon="11.2137344"><ele>225.0</ele><time>2026-04-18T07:19:50.243Z</time></trkpt><trkpt lat="43.4438188" lon="11.2137722"><ele>225.00000000000003</ele><time>2026-04-18T07:19:53.253Z</time></trkpt><trkpt lat="43.4437536" lon="11.2138322"><ele>225.00000000000003</ele><time>2026-04-18T07:19:56.241Z</time></trkpt><trkpt lat="43.4436913" lon="11.2139108"><ele>225.71428571428575</ele><time>2026-04-18T07:19:59.252Z</time></trkpt><trkpt lat="43.4436438" lon="11.214005"><ele>226.42857142857144</ele><time>2026-04-18T07:20:02.253Z</time></trkpt><trkpt lat="43.4436004" lon="11.2140997"><ele>227.14285714285714</ele><time>2026-04-18T07:20:05.227Z</time></trkpt><trkpt lat="43.4435452" lon="11.2141829"><ele>227.85714285714286</ele><time>2026-04-18T07:20:08.233Z</time></trkpt><trkpt lat="43.4434984" lon="11.2142611"><ele>228.57142857142856</ele><time>2026-04-18T07:20:11.247Z</time></trkpt><trkpt lat="43.4434684" lon="11.2143375"><ele>229.28571428571425</ele><time>2026-04-18T07:20:14.251Z</time></trkpt><trkpt lat="43.4434344" lon="11.2144145"><ele>229.99999999999997</ele><time>2026-04-18T07:20:17.245Z</time></trkpt><trkpt lat="43.4433979" lon="11.2145033"><ele>229.99999999999997</ele><time>2026-04-18T07:20:21.239Z</time></trkpt><trkpt lat="43.4433594" lon="11.214596"><ele>230.0</ele><time>2026-04-18T07:20:25.245Z</time></trkpt><trkpt lat="43.4433255" lon="11.2146861"><ele>229.99999999999997</ele><time>2026-04-18T07:20:29.249Z</time></trkpt><trkpt lat="43.4433053" lon="11.21477"><ele>229.99999999999997</ele><time>2026-04-18T07:20:32.247Z</time></trkpt><trkpt lat="43.4432813" lon="11.2148562"><ele>230.0</ele><time>2026-04-18T07:20:35.231Z</time></trkpt><trkpt lat="43.4432648" lon="11.2149609"><ele>229.99999999999997</ele><time>2026-04-18T07:20:39.241Z</time></trkpt><trkpt lat="43.4432396" lon="11.2150522"><ele>229.99999999999997</ele><time>2026-04-18T07:20:43.255Z</time></trkpt><trkpt lat="43.4432083" lon="11.2151472"><ele>230.83333333333334</ele><time>2026-04-18T07:20:47.242Z</time></trkpt><trkpt lat="43.443204" lon="11.2152526"><ele>231.66666666666669</ele><time>2026-04-18T07:20:51.245Z</time></trkpt><trkpt lat="43.4431713" lon="11.2153515"><ele>232.5</ele><time>2026-04-18T07:20:55.256Z</time></trkpt><trkpt lat="43.443151" lon="11.2154522"><ele>233.33333333333331</ele><time>2026-04-18T07:20:59.241Z</time></trkpt><trkpt lat="43.4431319" lon="11.2155583"><ele>234.16666666666666</ele><time>2026-04-18T07:21:03.254Z</time></trkpt><trkpt lat="43.4431128" lon="11.2156575"><ele>235.0</ele><time>2026-04-18T07:21:07.245Z</time></trkpt><trkpt lat="43.4430874" lon="11.2157475"><ele>235.7142857142857</ele><time>2026-04-18T07:21:11.252Z</time></trkpt><trkpt lat="43.4430635" lon="11.21585"><ele>236.4285714285714</ele><time>2026-04-18T07:21:15.264Z</time></trkpt><trkpt lat="43.4430404" lon="11.2159495"><ele>237.14285714285714</ele><time>2026-04-18T07:21:19.239Z</time></trkpt><trkpt lat="43.4430281" lon="11.2160355"><ele>237.85714285714283</ele><time>2026-04-18T07:21:23.248Z</time></trkpt><trkpt lat="43.4430043" lon="11.216142"><ele>238.57142857142856</ele><time>2026-04-18T07:21:28.26Z</time></trkpt><trkpt lat="43.4429868" lon="11.2162285"><ele>239.28571428571428</ele><time>2026-04-18T07:21:32.255Z</time></trkpt><trkpt lat="43.4429793" lon="11.2163272"><ele>240.0</ele><time>2026-04-18T07:21:36.244Z</time></trkpt><trkpt lat="43.4429654" lon="11.2164355"><ele>240.42857142857144</ele><time>2026-04-18T07:21:40.244Z</time></trkpt><trkpt lat="43.4429669" lon="11.2165451"><ele>240.85714285714283</ele><time>2026-04-18T07:21:44.24Z</time></trkpt><trkpt lat="43.4429672" lon="11.216638"><ele>241.28571428571428</ele><time>2026-04-18T07:21:47.25Z</time></trkpt><trkpt lat="43.4429671" lon="11.2167302"><ele>241.71428571428572</ele><time>2026-04-18T07:21:50.253Z</time></trkpt><trkpt lat="43.4429756" lon="11.2168163"><ele>242.14285714285717</ele><time>2026-04-18T07:21:53.247Z</time></trkpt><trkpt lat="43.4429824" lon="11.2169149"><ele>242.57142857142856</ele><time>2026-04-18T07:21:56.259Z</time></trkpt><trkpt lat="43.4429894" lon="11.2170088"><ele>243.0</ele><time>2026-04-18T07:21:59.256Z</time></trkpt><trkpt lat="43.4430082" lon="11.2171009"><ele>243.0</ele><time>2026-04-18T07:22:02.257Z</time></trkpt><trkpt lat="43.4430202" lon="11.2172097"><ele>243.0</ele><time>2026-04-18T07:22:05.247Z</time></trkpt><trkpt lat="43.4430371" lon="11.2173205"><ele>243.0</ele><time>2026-04-18T07:22:08.26Z</time></trkpt><trkpt lat="43.4430576" lon="11.2174322"><ele>243.0</ele><time>2026-04-18T07:22:11.25Z</time></trkpt><trkpt lat="43.4430726" lon="11.2175165"><ele>243.0</ele><time>2026-04-18T07:22:13.256Z</time></trkpt><trkpt lat="43.443097" lon="11.2176429"><ele>243.0</ele><time>2026-04-18T07:22:16.244Z</time></trkpt><trkpt lat="43.443112" lon="11.2177274"><ele>243.0</ele><time>2026-04-18T07:22:18.243Z</time></trkpt><trkpt lat="43.4431261" lon="11.2178187"><ele>243.0</ele><time>2026-04-18T07:22:20.248Z</time></trkpt><trkpt lat="43.4431413" lon="11.2179134"><ele>243.0</ele><time>2026-04-18T07:22:22.243Z</time></trkpt><trkpt lat="43.4431671" lon="11.2180058"><ele>243.0</ele><time>2026-04-18T07:22:24.255Z</time></trkpt><trkpt lat="43.4431844" lon="11.2181012"><ele>243.0</ele><time>2026-04-18T07:22:26.245Z</time></trkpt><trkpt lat="43.4431978" lon="11.2181955"><ele>243.0</ele><time>2026-04-18T07:22:28.243Z</time></trkpt><trkpt lat="43.4432114" lon="11.2182872"><ele>243.0</ele><time>2026-04-18T07:22:30.247Z</time></trkpt><trkpt lat="43.4432264" lon="11.2183766"><ele>242.42857142857142</ele><time>2026-04-18T07:22:32.249Z</time></trkpt><trkpt lat="43.4432419" lon="11.2184732"><ele>241.8571428571429</ele><time>2026-04-18T07:22:34.248Z</time></trkpt><trkpt lat="43.4432624" lon="11.21857"><ele>241.2857142857143</ele><time>2026-04-18T07:22:36.245Z</time></trkpt><trkpt lat="43.4432795" lon="11.2186621"><ele>240.71428571428572</ele><time>2026-04-18T07:22:38.25Z</time></trkpt><trkpt lat="43.4432934" lon="11.2187527"><ele>240.14285714285717</ele><time>2026-04-18T07:22:40.252Z</time></trkpt><trkpt lat="43.4433097" lon="11.2188567"><ele>239.5714285714286</ele><time>2026-04-18T07:22:42.244Z</time></trkpt><trkpt lat="43.4433337" lon="11.2189646"><ele>239.00000000000003</ele><time>2026-04-18T07:22:44.248Z</time></trkpt><trkpt lat="43.4433607" lon="11.2190686"><ele>238.16666666666669</ele><time>2026-04-18T07:22:46.247Z</time></trkpt><trkpt lat="43.4433824" lon="11.2191738"><ele>237.33333333333334</ele><time>2026-04-18T07:22:48.247Z</time></trkpt><trkpt lat="43.4434055" lon="11.2192782"><ele>236.5</ele><time>2026-04-18T07:22:50.248Z</time></trkpt><trkpt lat="43.4434254" lon="11.2193964"><ele>235.66666666666669</ele><time>2026-04-18T07:22:52.26Z</time></trkpt><trkpt lat="43.4434282" lon="11.2195211"><ele>234.83333333333334</ele><time>2026-04-18T07:22:54.242Z</time></trkpt><trkpt lat="43.4434234" lon="11.2196489"><ele>234.0</ele><time>2026-04-18T07:22:56.244Z</time></trkpt><trkpt lat="43.4434051" lon="11.2197788"><ele>233.2</ele><time>2026-04-18T07:22:58.256Z</time></trkpt><trkpt lat="43.4433971" lon="11.2199074"><ele>232.39999999999998</ele><time>2026-04-18T07:23:00.248Z</time></trkpt><trkpt lat="43.4433861" lon="11.2200273"><ele>231.6</ele><time>2026-04-18T07:23:02.258Z</time></trkpt><trkpt lat="43.443376" lon="11.2201618"><ele>230.8</ele><time>2026-04-18T07:23:04.253Z</time></trkpt><trkpt lat="43.4433672" lon="11.2203058"><ele>230.0</ele><time>2026-04-18T07:23:06.244Z</time></trkpt><trkpt lat="43.4433575" lon="11.2204491"><ele>230.0</ele><time>2026-04-18T07:23:08.245Z</time></trkpt><trkpt lat="43.4433496" lon="11.2205963"><ele>230.0</ele><time>2026-04-18T07:23:10.262Z</time></trkpt><trkpt lat="43.4433429" lon="11.2207378"><ele>230.0</ele><time>2026-04-18T07:23:12.255Z</time></trkpt><trkpt lat="43.4433434" lon="11.2208808"><ele>230.0</ele><time>2026-04-18T07:23:14.243Z</time></trkpt><trkpt lat="43.4433363" lon="11.2210284"><ele>230.0</ele><time>2026-04-18T07:23:16.245Z</time></trkpt><trkpt lat="43.4433299" lon="11.2211765"><ele>229.6</ele><time>2026-04-18T07:23:18.242Z</time></trkpt><trkpt lat="43.4433208" lon="11.221322"><ele>229.2</ele><time>2026-04-18T07:23:20.25Z</time></trkpt><trkpt lat="43.4433129" lon="11.2214728"><ele>228.8</ele><time>2026-04-18T07:23:22.244Z</time></trkpt><trkpt lat="43.443306" lon="11.2216167"><ele>228.4</ele><time>2026-04-18T07:23:24.251Z</time></trkpt><trkpt lat="43.4432988" lon="11.2217334"><ele>228.0</ele><time>2026-04-18T07:23:26.241Z</time></trkpt><trkpt lat="43.4432924" lon="11.2218774"><ele>227.5</ele><time>2026-04-18T07:23:28.245Z</time></trkpt><trkpt lat="43.4432808" lon="11.2220116"><ele>227.0</ele><time>2026-04-18T07:23:30.24Z</time></trkpt><trkpt lat="43.4432665" lon="11.2221334"><ele>226.5</ele><time>2026-04-18T07:23:32.248Z</time></trkpt><trkpt lat="43.443259" lon="11.2222486"><ele>226.0</ele><time>2026-04-18T07:23:34.246Z</time></trkpt><trkpt lat="43.4432535" lon="11.2223573"><ele>225.5</ele><time>2026-04-18T07:23:36.225Z</time></trkpt><trkpt lat="43.4432469" lon="11.2224678"><ele>225.0</ele><time>2026-04-18T07:23:38.251Z</time></trkpt><trkpt lat="43.4432477" lon="11.2225835"><ele>225.0</ele><time>2026-04-18T07:23:40.246Z</time></trkpt><trkpt lat="43.4432383" lon="11.2227021"><ele>225.0</ele><time>2026-04-18T07:23:42.244Z</time></trkpt><trkpt lat="43.4432297" lon="11.2228158"><ele>225.0</ele><time>2026-04-18T07:23:44.25Z</time></trkpt><trkpt lat="43.4432232" lon="11.2229304"><ele>225.0</ele><time>2026-04-18T07:23:46.251Z</time></trkpt><trkpt lat="43.443217" lon="11.2230384"><ele>225.0</ele><time>2026-04-18T07:23:48.24Z</time></trkpt><trkpt lat="43.4432228" lon="11.2231446"><ele>225.0</ele><time>2026-04-18T07:23:50.238Z</time></trkpt><trkpt lat="43.4432182" lon="11.2232506"><ele>225.0</ele><time>2026-04-18T07:23:52.252Z</time></trkpt><trkpt lat="43.4432167" lon="11.2233402"><ele>225.0</ele><time>2026-04-18T07:23:54.246Z</time></trkpt><trkpt lat="43.4432151" lon="11.2234292"><ele>225.0</ele><time>2026-04-18T07:23:56.259Z</time></trkpt><trkpt lat="43.4431916" lon="11.2235356"><ele>225.0</ele><time>2026-04-18T07:23:58.239Z</time></trkpt><trkpt lat="43.4431714" lon="11.2236554"><ele>225.0</ele><time>2026-04-18T07:24:00.251Z</time></trkpt><trkpt lat="43.4431593" lon="11.2237669"><ele>225.0</ele><time>2026-04-18T07:24:02.228Z</time></trkpt><trkpt lat="43.4431518" lon="11.2238735"><ele>225.00000000000003</ele><time>2026-04-18T07:24:04.221Z</time></trkpt><trkpt lat="43.4431435" lon="11.2239784"><ele>225.0</ele><time>2026-04-18T07:24:06.261Z</time></trkpt><trkpt lat="43.4431318" lon="11.2240747"><ele>225.00000000000003</ele><time>2026-04-18T07:24:08.245Z</time></trkpt><trkpt lat="43.4431226" lon="11.2241644"><ele>225.00000000000003</ele><time>2026-04-18T07:24:10.246Z</time></trkpt><trkpt lat="43.4431157" lon="11.2242517"><ele>225.0</ele><time>2026-04-18T07:24:12.241Z</time></trkpt><trkpt lat="43.4431066" lon="11.2243462"><ele>225.00000000000003</ele><time>2026-04-18T07:24:14.244Z</time></trkpt><trkpt lat="43.4430993" lon="11.2244374"><ele>225.00000000000003</ele><time>2026-04-18T07:24:16.244Z</time></trkpt><trkpt lat="43.4430917" lon="11.2245255"><ele>225.5</ele><time>2026-04-18T07:24:18.25Z</time></trkpt><trkpt lat="43.443073" lon="11.2246444"><ele>226.0</ele><time>2026-04-18T07:24:21.25Z</time></trkpt><trkpt lat="43.4430365" lon="11.2247457"><ele>226.5</ele><time>2026-04-18T07:24:24.254Z</time></trkpt><trkpt lat="43.4429967" lon="11.224857"><ele>227.0</ele><time>2026-04-18T07:24:27.239Z</time></trkpt><trkpt lat="43.4429686" lon="11.2249732"><ele>227.5</ele><time>2026-04-18T07:24:30.251Z</time></trkpt><trkpt lat="43.4429593" lon="11.2250886"><ele>228.0</ele><time>2026-04-18T07:24:33.321Z</time></trkpt><trkpt lat="43.4429481" lon="11.2251989"><ele>228.0</ele><time>2026-04-18T07:24:36.241Z</time></trkpt><trkpt lat="43.4429273" lon="11.2253064"><ele>228.0</ele><time>2026-04-18T07:24:39.249Z</time></trkpt><trkpt lat="43.4428959" lon="11.225409"><ele>228.0</ele><time>2026-04-18T07:24:42.246Z</time></trkpt><trkpt lat="43.4428833" lon="11.2254961"><ele>228.0</ele><time>2026-04-18T07:24:44.245Z</time></trkpt><trkpt lat="43.4428694" lon="11.2256087"><ele>228.0</ele><time>2026-04-18T07:24:48.334Z</time></trkpt><trkpt lat="43.4428697" lon="11.2257061"><ele>228.0</ele><time>2026-04-18T07:24:51.233Z</time></trkpt><trkpt lat="43.4429097" lon="11.2258292"><ele>228.2</ele><time>2026-04-18T07:24:54.243Z</time></trkpt><trkpt lat="43.4429789" lon="11.2258991"><ele>228.4</ele><time>2026-04-18T07:24:56.226Z</time></trkpt><trkpt lat="43.443073" lon="11.225923"><ele>228.59999999999997</ele><time>2026-04-18T07:24:58.248Z</time></trkpt><trkpt lat="43.4431723" lon="11.2259502"><ele>228.79999999999998</ele><time>2026-04-18T07:25:00.242Z</time></trkpt><trkpt lat="43.4432737" lon="11.2259828"><ele>229.0</ele><time>2026-04-18T07:25:02.241Z</time></trkpt><trkpt lat="43.4433911" lon="11.226016"><ele>229.0</ele><time>2026-04-18T07:25:04.242Z</time></trkpt><trkpt lat="43.4435043" lon="11.2260458"><ele>228.99999999999997</ele><time>2026-04-18T07:25:06.255Z</time></trkpt><trkpt lat="43.4436179" lon="11.2260783"><ele>228.99999999999997</ele><time>2026-04-18T07:25:08.244Z</time></trkpt><trkpt lat="43.4436831" lon="11.2261002"><ele>229.0</ele><time>2026-04-18T07:25:09.223Z</time></trkpt><trkpt lat="43.443747" lon="11.2261195"><ele>229.0</ele><time>2026-04-18T07:25:10.236Z</time></trkpt><trkpt lat="43.4438625" lon="11.2261523"><ele>226.5</ele><time>2026-04-18T07:25:12.243Z</time></trkpt><trkpt lat="43.4439817" lon="11.2261845"><ele>224.0</ele><time>2026-04-18T07:25:14.228Z</time></trkpt><trkpt lat="43.4440973" lon="11.2262249"><ele>221.5</ele><time>2026-04-18T07:25:16.25Z</time></trkpt><trkpt lat="43.444218" lon="11.2262588"><ele>219.0</ele><time>2026-04-18T07:25:18.314Z</time></trkpt><trkpt lat="43.4443454" lon="11.2263002"><ele>219.0</ele><time>2026-04-18T07:25:20.245Z</time></trkpt><trkpt lat="43.4444217" lon="11.2263239"><ele>219.0</ele><time>2026-04-18T07:25:21.226Z</time></trkpt><trkpt lat="43.4445009" lon="11.2263453"><ele>219.0</ele><time>2026-04-18T07:25:22.305Z</time></trkpt><trkpt lat="43.444581" lon="11.2263777"><ele>219.0</ele><time>2026-04-18T07:25:23.247Z</time></trkpt><trkpt lat="43.444651" lon="11.2264175"><ele>219.0</ele><time>2026-04-18T07:25:24.248Z</time></trkpt><trkpt lat="43.4447209" lon="11.2264419"><ele>219.0</ele><time>2026-04-18T07:25:25.24Z</time></trkpt><trkpt lat="43.4447827" lon="11.2264606"><ele>218.0</ele><time>2026-04-18T07:25:26.215Z</time></trkpt><trkpt lat="43.4448483" lon="11.2264654"><ele>216.99999999999997</ele><time>2026-04-18T07:25:27.324Z</time></trkpt><trkpt lat="43.4449736" lon="11.2264968"><ele>215.99999999999997</ele><time>2026-04-18T07:25:29.256Z</time></trkpt><trkpt lat="43.4450404" lon="11.2265194"><ele>215.0</ele><time>2026-04-18T07:25:30.248Z</time></trkpt><trkpt lat="43.4451068" lon="11.2265374"><ele>214.0</ele><time>2026-04-18T07:25:31.253Z</time></trkpt><trkpt lat="43.4452235" lon="11.226577"><ele>213.2</ele><time>2026-04-18T07:25:33.244Z</time></trkpt><trkpt lat="43.4453077" lon="11.2266228"><ele>212.39999999999998</ele><time>2026-04-18T07:25:35.24Z</time></trkpt><trkpt lat="43.4453868" lon="11.2266854"><ele>211.6</ele><time>2026-04-18T07:25:37.245Z</time></trkpt><trkpt lat="43.4454504" lon="11.2267921"><ele>210.8</ele><time>2026-04-18T07:25:39.245Z</time></trkpt><trkpt lat="43.4455112" lon="11.2269028"><ele>210.0</ele><time>2026-04-18T07:25:41.31Z</time></trkpt><trkpt lat="43.4455909" lon="11.227016"><ele>208.6</ele><time>2026-04-18T07:25:43.234Z</time></trkpt><trkpt lat="43.4457018" lon="11.2270897"><ele>207.2</ele><time>2026-04-18T07:25:45.245Z</time></trkpt><trkpt lat="43.4457768" lon="11.2271192"><ele>205.8</ele><time>2026-04-18T07:25:46.233Z</time></trkpt><trkpt lat="43.4458638" lon="11.2271424"><ele>204.4</ele><time>2026-04-18T07:25:47.333Z</time></trkpt><trkpt lat="43.4459527" lon="11.2271477"><ele>203.0</ele><time>2026-04-18T07:25:48.319Z</time></trkpt><trkpt lat="43.44604" lon="11.2271448"><ele>203.00000000000003</ele><time>2026-04-18T07:25:49.243Z</time></trkpt><trkpt lat="43.4461251" lon="11.2271396"><ele>203.0</ele><time>2026-04-18T07:25:50.245Z</time></trkpt><trkpt lat="43.4462036" lon="11.2271396"><ele>203.0</ele><time>2026-04-18T07:25:51.242Z</time></trkpt><trkpt lat="43.446279" lon="11.2271418"><ele>203.0</ele><time>2026-04-18T07:25:52.317Z</time></trkpt><trkpt lat="43.4463528" lon="11.2271512"><ele>203.00000000000003</ele><time>2026-04-18T07:25:53.248Z</time></trkpt><trkpt lat="43.4464258" lon="11.2271517"><ele>203.0</ele><time>2026-04-18T07:25:54.232Z</time></trkpt><trkpt lat="43.4464905" lon="11.2271457"><ele>200.83333333333334</ele><time>2026-04-18T07:25:55.245Z</time></trkpt><trkpt lat="43.4465549" lon="11.2271521"><ele>198.66666666666669</ele><time>2026-04-18T07:25:56.314Z</time></trkpt><trkpt lat="43.4466221" lon="11.2271604"><ele>196.5</ele><time>2026-04-18T07:25:57.233Z</time></trkpt><trkpt lat="43.4466961" lon="11.22717"><ele>194.33333333333334</ele><time>2026-04-18T07:25:58.241Z</time></trkpt><trkpt lat="43.4467603" lon="11.2271814"><ele>192.16666666666669</ele><time>2026-04-18T07:25:59.248Z</time></trkpt><trkpt lat="43.446868" lon="11.227141"><ele>190.0</ele><time>2026-04-18T07:26:01.321Z</time></trkpt><trkpt lat="43.4469318" lon="11.2270996"><ele>190.0</ele><time>2026-04-18T07:26:03.226Z</time></trkpt><trkpt lat="43.4470195" lon="11.2270566"><ele>190.0</ele><time>2026-04-18T07:26:05.245Z</time></trkpt><trkpt lat="43.447081" lon="11.2270812"><ele>190.0</ele><time>2026-04-18T07:26:07.233Z</time></trkpt><trkpt lat="43.4471507" lon="11.2271432"><ele>190.0</ele><time>2026-04-18T07:26:09.237Z</time></trkpt><trkpt lat="43.4471941" lon="11.2272286"><ele>190.0</ele><time>2026-04-18T07:26:11.239Z</time></trkpt><trkpt lat="43.4472103" lon="11.227328"><ele>190.0</ele><time>2026-04-18T07:26:13.238Z</time></trkpt><trkpt lat="43.4472096" lon="11.2274285"><ele>190.14285714285714</ele><time>2026-04-18T07:26:15.245Z</time></trkpt><trkpt lat="43.4472142" lon="11.2275261"><ele>190.28571428571428</ele><time>2026-04-18T07:26:17.328Z</time></trkpt><trkpt lat="43.4472225" lon="11.2276129"><ele>190.42857142857144</ele><time>2026-04-18T07:26:19.236Z</time></trkpt><trkpt lat="43.4472227" lon="11.227726"><ele>190.57142857142856</ele><time>2026-04-18T07:26:21.247Z</time></trkpt><trkpt lat="43.4472323" lon="11.2278211"><ele>190.7142857142857</ele><time>2026-04-18T07:26:23.237Z</time></trkpt><trkpt lat="43.4472466" lon="11.2279144"><ele>190.85714285714286</ele><time>2026-04-18T07:26:25.246Z</time></trkpt><trkpt lat="43.4472534" lon="11.2280064"><ele>191.0</ele><time>2026-04-18T07:26:27.319Z</time></trkpt><trkpt lat="43.4472572" lon="11.2281009"><ele>191.16666666666666</ele><time>2026-04-18T07:26:29.245Z</time></trkpt><trkpt lat="43.4472672" lon="11.2281917"><ele>191.33333333333331</ele><time>2026-04-18T07:26:31.243Z</time></trkpt><trkpt lat="43.4473126" lon="11.2282897"><ele>191.5</ele><time>2026-04-18T07:26:34.244Z</time></trkpt><trkpt lat="43.4473826" lon="11.2283451"><ele>191.66666666666666</ele><time>2026-04-18T07:26:37.235Z</time></trkpt><trkpt lat="43.4474454" lon="11.2283533"><ele>191.83333333333334</ele><time>2026-04-18T07:26:39.246Z</time></trkpt><trkpt lat="43.4475328" lon="11.2283381"><ele>192.0</ele><time>2026-04-18T07:26:42.321Z</time></trkpt><trkpt lat="43.4476052" lon="11.228326"><ele>192.0</ele><time>2026-04-18T07:26:45.254Z</time></trkpt><trkpt lat="43.4476849" lon="11.2283029"><ele>192.0</ele><time>2026-04-18T07:26:48.33Z</time></trkpt><trkpt lat="43.4477728" lon="11.2282856"><ele>192.0</ele><time>2026-04-18T07:26:51.24Z</time></trkpt><trkpt lat="43.4478374" lon="11.2282832"><ele>192.0</ele><time>2026-04-18T07:26:54.254Z</time></trkpt><trkpt lat="43.4479149" lon="11.228263"><ele>192.0</ele><time>2026-04-18T07:26:58.243Z</time></trkpt><trkpt lat="43.4479871" lon="11.2282564"><ele>192.0</ele><time>2026-04-18T07:27:02.249Z</time></trkpt><trkpt lat="43.4480641" lon="11.2282431"><ele>193.14285714285714</ele><time>2026-04-18T07:27:07.252Z</time></trkpt><trkpt lat="43.4481311" lon="11.2282362"><ele>194.28571428571428</ele><time>2026-04-18T07:27:11.248Z</time></trkpt><trkpt lat="43.4482093" lon="11.2282294"><ele>195.42857142857144</ele><time>2026-04-18T07:27:16.239Z</time></trkpt><trkpt lat="43.4482856" lon="11.228219"><ele>196.57142857142856</ele><time>2026-04-18T07:27:21.255Z</time></trkpt><trkpt lat="43.4483512" lon="11.2282206"><ele>197.71428571428572</ele><time>2026-04-18T07:27:25.249Z</time></trkpt><trkpt lat="43.448423" lon="11.2282197"><ele>198.85714285714286</ele><time>2026-04-18T07:27:29.226Z</time></trkpt><trkpt lat="43.4484904" lon="11.2281916"><ele>200.0</ele><time>2026-04-18T07:27:37.247Z</time></trkpt><trkpt lat="43.4485541" lon="11.2281847"><ele>200.00000000000003</ele><time>2026-04-18T07:27:42.236Z</time></trkpt><trkpt lat="43.4486187" lon="11.2281801"><ele>200.0</ele><time>2026-04-18T07:27:47.234Z</time></trkpt><trkpt lat="43.4486855" lon="11.2281682"><ele>200.0</ele><time>2026-04-18T07:27:52.25Z</time></trkpt><trkpt lat="43.4487523" lon="11.2281548"><ele>200.0</ele><time>2026-04-18T07:27:57.324Z</time></trkpt><trkpt lat="43.4488183" lon="11.2281397"><ele>200.0</ele><time>2026-04-18T07:28:02.326Z</time></trkpt><trkpt lat="43.448897" lon="11.2281463"><ele>200.00000000000003</ele><time>2026-04-18T07:28:05.239Z</time></trkpt><trkpt lat="43.4489681" lon="11.2281371"><ele>200.0</ele><time>2026-04-18T07:28:11.219Z</time></trkpt><trkpt lat="43.4490419" lon="11.2281113"><ele>201.2857142857143</ele><time>2026-04-18T07:28:19.245Z</time></trkpt><trkpt lat="43.449112" lon="11.2281026"><ele>202.57142857142858</ele><time>2026-04-18T07:28:25.245Z</time></trkpt><trkpt lat="43.4491783" lon="11.2280936"><ele>203.85714285714286</ele><time>2026-04-18T07:28:30.252Z</time></trkpt><trkpt lat="43.4492482" lon="11.2280832"><ele>205.14285714285717</ele><time>2026-04-18T07:28:35.224Z</time></trkpt><trkpt lat="43.4493133" lon="11.2280674"><ele>206.42857142857142</ele><time>2026-04-18T07:28:40.243Z</time></trkpt><trkpt lat="43.4493888" lon="11.2280631"><ele>207.71428571428572</ele><time>2026-04-18T07:28:45.239Z</time></trkpt><trkpt lat="43.4494632" lon="11.2280583"><ele>209.0</ele><time>2026-04-18T07:28:50.244Z</time></trkpt><trkpt lat="43.4495226" lon="11.228015"><ele>209.0</ele><time>2026-04-18T07:28:54.218Z</time></trkpt><trkpt lat="43.4495915" lon="11.228006"><ele>209.0</ele><time>2026-04-18T07:29:00.248Z</time></trkpt><trkpt lat="43.4496626" lon="11.2280172"><ele>209.0</ele><time>2026-04-18T07:29:04.239Z</time></trkpt><trkpt lat="43.4497273" lon="11.2280078"><ele>209.0</ele><time>2026-04-18T07:29:08.243Z</time></trkpt><trkpt lat="43.4497939" lon="11.2279991"><ele>209.0</ele><time>2026-04-18T07:29:12.244Z</time></trkpt><trkpt lat="43.449856" lon="11.2280163"><ele>209.0</ele><time>2026-04-18T07:29:16.312Z</time></trkpt><trkpt lat="43.4499213" lon="11.2280065"><ele>209.0</ele><time>2026-04-18T07:29:20.245Z</time></trkpt><trkpt lat="43.4500005" lon="11.2280006"><ele>210.57142857142856</ele><time>2026-04-18T07:29:25.24Z</time></trkpt><trkpt lat="43.4500788" lon="11.2279716"><ele>212.14285714285714</ele><time>2026-04-18T07:29:31.259Z</time></trkpt><trkpt lat="43.4501476" lon="11.2279705"><ele>213.71428571428572</ele><time>2026-04-18T07:29:35.251Z</time></trkpt><trkpt lat="43.450221" lon="11.2279404"><ele>215.28571428571428</ele><time>2026-04-18T07:29:40.238Z</time></trkpt><trkpt lat="43.4502884" lon="11.2279256"><ele>216.85714285714286</ele><time>2026-04-18T07:29:45.248Z</time></trkpt><trkpt lat="43.4503561" lon="11.2279117"><ele>218.42857142857142</ele><time>2026-04-18T07:29:50.253Z</time></trkpt><trkpt lat="43.4504256" lon="11.2279066"><ele>220.0</ele><time>2026-04-18T07:29:55.243Z</time></trkpt><trkpt lat="43.4504933" lon="11.2278974"><ele>221.42857142857142</ele><time>2026-04-18T07:30:00.257Z</time></trkpt><trkpt lat="43.4505592" lon="11.2278867"><ele>222.85714285714283</ele><time>2026-04-18T07:30:05.24Z</time></trkpt><trkpt lat="43.4506257" lon="11.2278738"><ele>224.28571428571428</ele><time>2026-04-18T07:30:10.245Z</time></trkpt><trkpt lat="43.4507008" lon="11.2278641"><ele>225.7142857142857</ele><time>2026-04-18T07:30:16.249Z</time></trkpt><trkpt lat="43.4507658" lon="11.2278261"><ele>227.14285714285714</ele><time>2026-04-18T07:30:21.25Z</time></trkpt><trkpt lat="43.4508356" lon="11.2278003"><ele>228.57142857142853</ele><time>2026-04-18T07:30:26.251Z</time></trkpt><trkpt lat="43.4508947" lon="11.2277675"><ele>229.99999999999997</ele><time>2026-04-18T07:30:30.252Z</time></trkpt><trkpt lat="43.450966" lon="11.2277404"><ele>229.99999999999997</ele><time>2026-04-18T07:30:35.249Z</time></trkpt><trkpt lat="43.4510232" lon="11.2277027"><ele>230.0</ele><time>2026-04-18T07:30:39.254Z</time></trkpt><trkpt lat="43.4510956" lon="11.2276824"><ele>229.99999999999997</ele><time>2026-04-18T07:30:44.263Z</time></trkpt><trkpt lat="43.4511559" lon="11.2276528"><ele>229.99999999999997</ele><time>2026-04-18T07:30:48.246Z</time></trkpt><trkpt lat="43.4512246" lon="11.2276242"><ele>230.0</ele><time>2026-04-18T07:30:53.251Z</time></trkpt><trkpt lat="43.4512925" lon="11.2275955"><ele>229.99999999999997</ele><time>2026-04-18T07:30:58.246Z</time></trkpt><trkpt lat="43.451353" lon="11.2275707"><ele>229.99999999999997</ele><time>2026-04-18T07:31:03.251Z</time></trkpt><trkpt lat="43.4514153" lon="11.2275494"><ele>231.99999999999997</ele><time>2026-04-18T07:31:08.241Z</time></trkpt><trkpt lat="43.451485" lon="11.2275202"><ele>234.0</ele><time>2026-04-18T07:31:14.24Z</time></trkpt><trkpt lat="43.4515524" lon="11.2274785"><ele>235.99999999999997</ele><time>2026-04-18T07:31:20.244Z</time></trkpt><trkpt lat="43.451621" lon="11.2274512"><ele>237.99999999999997</ele><time>2026-04-18T07:31:27.247Z</time></trkpt><trkpt lat="43.4516865" lon="11.2274392"><ele>240.0</ele><time>2026-04-18T07:31:33.252Z</time></trkpt><trkpt lat="43.4517494" lon="11.227416"><ele>241.99999999999997</ele><time>2026-04-18T07:31:39.257Z</time></trkpt><trkpt lat="43.4518216" lon="11.2273843"><ele>243.99999999999997</ele><time>2026-04-18T07:31:45.249Z</time></trkpt><trkpt lat="43.4518895" lon="11.2273604"><ele>243.99999999999997</ele><time>2026-04-18T07:31:51.245Z</time></trkpt><trkpt lat="43.4519499" lon="11.2273355"><ele>244.0</ele><time>2026-04-18T07:31:57.243Z</time></trkpt><trkpt lat="43.4520101" lon="11.2273081"><ele>243.99999999999997</ele><time>2026-04-18T07:32:03.241Z</time></trkpt><trkpt lat="43.4520814" lon="11.2272822"><ele>243.99999999999997</ele><time>2026-04-18T07:32:11.254Z</time></trkpt><trkpt lat="43.4521449" lon="11.2272519"><ele>244.0</ele><time>2026-04-18T07:32:18.253Z</time></trkpt><trkpt lat="43.4522066" lon="11.2272197"><ele>243.99999999999997</ele><time>2026-04-18T07:32:24.239Z</time></trkpt><trkpt lat="43.4522689" lon="11.2271884"><ele>243.99999999999997</ele><time>2026-04-18T07:32:31.245Z</time></trkpt><trkpt lat="43.4523325" lon="11.2271623"><ele>246.28571428571425</ele><time>2026-04-18T07:32:38.236Z</time></trkpt><trkpt lat="43.4523963" lon="11.2271285"><ele>248.57142857142856</ele><time>2026-04-18T07:32:45.242Z</time></trkpt><trkpt lat="43.4524593" lon="11.2270962"><ele>250.85714285714286</ele><time>2026-04-18T07:32:51.246Z</time></trkpt><trkpt lat="43.452519" lon="11.2270676"><ele>253.14285714285714</ele><time>2026-04-18T07:32:57.245Z</time></trkpt><trkpt lat="43.4525877" lon="11.2270371"><ele>255.42857142857144</ele><time>2026-04-18T07:33:04.244Z</time></trkpt><trkpt lat="43.4526563" lon="11.2270042"><ele>257.7142857142857</ele><time>2026-04-18T07:33:11.248Z</time></trkpt><trkpt lat="43.4527173" lon="11.2269731"><ele>260.0</ele><time>2026-04-18T07:33:18.255Z</time></trkpt><trkpt lat="43.452783" lon="11.2269257"><ele>260.00000000000006</ele><time>2026-04-18T07:33:25.24Z</time></trkpt><trkpt lat="43.452844" lon="11.2268772"><ele>260.0</ele><time>2026-04-18T07:33:32.251Z</time></trkpt><trkpt lat="43.4529053" lon="11.2268455"><ele>260.0</ele><time>2026-04-18T07:33:38.246Z</time></trkpt><trkpt lat="43.4529634" lon="11.2267983"><ele>260.0</ele><time>2026-04-18T07:33:45.251Z</time></trkpt><trkpt lat="43.4530264" lon="11.2267954"><ele>260.0</ele><time>2026-04-18T07:33:52.247Z</time></trkpt><trkpt lat="43.4530884" lon="11.2267588"><ele>260.00000000000006</ele><time>2026-04-18T07:33:58.247Z</time></trkpt><trkpt lat="43.4531531" lon="11.2267753"><ele>260.0</ele><time>2026-04-18T07:37:15.24Z</time></trkpt><trkpt lat="43.4532068" lon="11.2268497"><ele>262.7142857142857</ele><time>2026-04-18T07:37:21.254Z</time></trkpt><trkpt lat="43.4532651" lon="11.2269212"><ele>265.42857142857144</ele><time>2026-04-18T07:37:26.246Z</time></trkpt><trkpt lat="43.4533245" lon="11.2269859"><ele>268.1428571428571</ele><time>2026-04-18T07:37:30.245Z</time></trkpt><trkpt lat="43.4533732" lon="11.227047"><ele>270.8571428571429</ele><time>2026-04-18T07:37:34.232Z</time></trkpt><trkpt lat="43.4534272" lon="11.2270989"><ele>273.57142857142856</ele><time>2026-04-18T07:37:38.249Z</time></trkpt><trkpt lat="43.4534893" lon="11.2271453"><ele>276.2857142857143</ele><time>2026-04-18T07:37:43.236Z</time></trkpt><trkpt lat="43.4535539" lon="11.2271821"><ele>279.0</ele><time>2026-04-18T07:37:48.245Z</time></trkpt><trkpt lat="43.4536242" lon="11.2272148"><ele>278.99999999999994</ele><time>2026-04-18T07:37:53.226Z</time></trkpt><trkpt lat="43.4536997" lon="11.2272227"><ele>279.0</ele><time>2026-04-18T07:37:58.245Z</time></trkpt><trkpt lat="43.4537734" lon="11.2272384"><ele>279.0</ele><time>2026-04-18T07:38:03.316Z</time></trkpt><trkpt lat="43.4538498" lon="11.2272305"><ele>279.0</ele><time>2026-04-18T07:38:08.254Z</time></trkpt><trkpt lat="43.4539165" lon="11.2272345"><ele>279.0</ele><time>2026-04-18T07:38:12.241Z</time></trkpt><trkpt lat="43.4539805" lon="11.2272263"><ele>278.99999999999994</ele><time>2026-04-18T07:38:16.248Z</time></trkpt><trkpt lat="43.4540574" lon="11.2272221"><ele>279.0</ele><time>2026-04-18T07:38:21.256Z</time></trkpt><trkpt lat="43.4541282" lon="11.2272196"><ele>280.57142857142856</ele><time>2026-04-18T07:38:25.255Z</time></trkpt><trkpt lat="43.4541995" lon="11.2272304"><ele>282.1428571428571</ele><time>2026-04-18T07:38:29.251Z</time></trkpt><trkpt lat="43.4542836" lon="11.2272312"><ele>283.7142857142857</ele><time>2026-04-18T07:38:33.247Z</time></trkpt><trkpt lat="43.4543513" lon="11.2272264"><ele>285.2857142857143</ele><time>2026-04-18T07:38:36.246Z</time></trkpt><trkpt lat="43.4544272" lon="11.2272307"><ele>286.8571428571429</ele><time>2026-04-18T07:38:41.244Z</time></trkpt><trkpt lat="43.4544902" lon="11.227254"><ele>288.42857142857144</ele><time>2026-04-18T07:38:45.244Z</time></trkpt><trkpt lat="43.4545597" lon="11.2272739"><ele>290.0</ele><time>2026-04-18T07:38:49.244Z</time></trkpt><trkpt lat="43.4546569" lon="11.2272982"><ele>289.1666666666667</ele><time>2026-04-18T07:38:52.249Z</time></trkpt><trkpt lat="43.4547318" lon="11.2273192"><ele>288.33333333333337</ele><time>2026-04-18T07:38:54.253Z</time></trkpt><trkpt lat="43.4548038" lon="11.2273386"><ele>287.5</ele><time>2026-04-18T07:38:56.258Z</time></trkpt><trkpt lat="43.4548712" lon="11.2273518"><ele>286.6666666666667</ele><time>2026-04-18T07:38:58.249Z</time></trkpt><trkpt lat="43.4549455" lon="11.2273673"><ele>285.8333333333333</ele><time>2026-04-18T07:39:00.243Z</time></trkpt><trkpt lat="43.4550302" lon="11.2273884"><ele>285.0</ele><time>2026-04-18T07:39:02.242Z</time></trkpt><trkpt lat="43.4551154" lon="11.2274146"><ele>285.0</ele><time>2026-04-18T07:39:04.249Z</time></trkpt><trkpt lat="43.4552061" lon="11.2274393"><ele>285.0</ele><time>2026-04-18T07:39:06.249Z</time></trkpt><trkpt lat="43.4552931" lon="11.2274663"><ele>285.0</ele><time>2026-04-18T07:39:08.243Z</time></trkpt><trkpt lat="43.4553767" lon="11.227514"><ele>285.0</ele><time>2026-04-18T07:39:10.245Z</time></trkpt><trkpt lat="43.4554577" lon="11.2275671"><ele>285.0</ele><time>2026-04-18T07:39:12.236Z</time></trkpt><trkpt lat="43.4555305" lon="11.2276035"><ele>285.0</ele><time>2026-04-18T07:39:14.243Z</time></trkpt><trkpt lat="43.455611" lon="11.2276572"><ele>285.0</ele><time>2026-04-18T07:39:17.243Z</time></trkpt><trkpt lat="43.4556756" lon="11.2277328"><ele>285.0</ele><time>2026-04-18T07:39:20.239Z</time></trkpt><trkpt lat="43.4557162" lon="11.2278026"><ele>285.0</ele><time>2026-04-18T07:39:22.252Z</time></trkpt><trkpt lat="43.4557737" lon="11.2278958"><ele>285.0</ele><time>2026-04-18T07:39:25.248Z</time></trkpt><trkpt lat="43.4558311" lon="11.2279813"><ele>285.0</ele><time>2026-04-18T07:39:28.243Z</time></trkpt><trkpt lat="43.4558963" lon="11.2280622"><ele>285.0</ele><time>2026-04-18T07:39:31.251Z</time></trkpt><trkpt lat="43.4559574" lon="11.2281512"><ele>285.2</ele><time>2026-04-18T07:39:34.249Z</time></trkpt><trkpt lat="43.4560195" lon="11.2282436"><ele>285.4</ele><time>2026-04-18T07:39:37.259Z</time></trkpt><trkpt lat="43.4560829" lon="11.2283349"><ele>285.6</ele><time>2026-04-18T07:39:40.247Z</time></trkpt><trkpt lat="43.4561462" lon="11.228427"><ele>285.8</ele><time>2026-04-18T07:39:43.25Z</time></trkpt><trkpt lat="43.4562085" lon="11.2285149"><ele>286.0</ele><time>2026-04-18T07:39:46.24Z</time></trkpt><trkpt lat="43.4562721" lon="11.2286022"><ele>286.0</ele><time>2026-04-18T07:39:49.248Z</time></trkpt><trkpt lat="43.456338" lon="11.2286929"><ele>286.0</ele><time>2026-04-18T07:39:52.244Z</time></trkpt><trkpt lat="43.4563974" lon="11.2287726"><ele>286.0</ele><time>2026-04-18T07:39:55.242Z</time></trkpt><trkpt lat="43.4564555" lon="11.2288524"><ele>286.0</ele><time>2026-04-18T07:39:58.243Z</time></trkpt><trkpt lat="43.4565131" lon="11.2289333"><ele>286.0</ele><time>2026-04-18T07:40:01.251Z</time></trkpt><trkpt lat="43.4565664" lon="11.2290128"><ele>286.0</ele><time>2026-04-18T07:40:04.25Z</time></trkpt><trkpt lat="43.4566177" lon="11.2290832"><ele>286.71428571428567</ele><time>2026-04-18T07:40:07.253Z</time></trkpt><trkpt lat="43.4566706" lon="11.2291516"><ele>287.42857142857144</ele><time>2026-04-18T07:40:11.239Z</time></trkpt><trkpt lat="43.4567118" lon="11.2292224"><ele>288.1428571428571</ele><time>2026-04-18T07:40:16.238Z</time></trkpt><trkpt lat="43.4567447" lon="11.2293014"><ele>288.85714285714283</ele><time>2026-04-18T07:40:20.247Z</time></trkpt><trkpt lat="43.4567764" lon="11.2293895"><ele>289.57142857142856</ele><time>2026-04-18T07:40:24.243Z</time></trkpt><trkpt lat="43.4568022" lon="11.229495"><ele>290.2857142857143</ele><time>2026-04-18T07:40:28.234Z</time></trkpt><trkpt lat="43.4568389" lon="11.2295957"><ele>291.0</ele><time>2026-04-18T07:40:32.248Z</time></trkpt><trkpt lat="43.456856" lon="11.2296908"><ele>291.0</ele><time>2026-04-18T07:40:35.246Z</time></trkpt><trkpt lat="43.4568937" lon="11.2297761"><ele>291.0</ele><time>2026-04-18T07:40:39.24Z</time></trkpt><trkpt lat="43.4569168" lon="11.2298762"><ele>291.0</ele><time>2026-04-18T07:40:43.24Z</time></trkpt><trkpt lat="43.4569468" lon="11.2299605"><ele>291.0</ele><time>2026-04-18T07:40:46.311Z</time></trkpt><trkpt lat="43.4569798" lon="11.2300602"><ele>291.0</ele><time>2026-04-18T07:40:50.233Z</time></trkpt><trkpt lat="43.4570147" lon="11.2301611"><ele>291.0</ele><time>2026-04-18T07:40:53.246Z</time></trkpt><trkpt lat="43.4570486" lon="11.2302436"><ele>291.0</ele><time>2026-04-18T07:40:56.227Z</time></trkpt><trkpt lat="43.457079" lon="11.2303196"><ele>290.85714285714283</ele><time>2026-04-18T07:40:58.318Z</time></trkpt><trkpt lat="43.4571069" lon="11.2304158"><ele>290.71428571428567</ele><time>2026-04-18T07:41:02.24Z</time></trkpt><trkpt lat="43.457144" lon="11.2304859"><ele>290.57142857142856</ele><time>2026-04-18T07:41:06.244Z</time></trkpt><trkpt lat="43.4571776" lon="11.2305773"><ele>290.42857142857144</ele><time>2026-04-18T07:41:11.246Z</time></trkpt><trkpt lat="43.4572218" lon="11.2306434"><ele>290.28571428571433</ele><time>2026-04-18T07:41:15.259Z</time></trkpt><trkpt lat="43.4572692" lon="11.2307021"><ele>290.14285714285717</ele><time>2026-04-18T07:41:18.237Z</time></trkpt><trkpt lat="43.4573271" lon="11.2307592"><ele>290.0</ele><time>2026-04-18T07:41:21.261Z</time></trkpt><trkpt lat="43.4573907" lon="11.2308246"><ele>290.42857142857144</ele><time>2026-04-18T07:41:24.239Z</time></trkpt><trkpt lat="43.4574608" lon="11.2308981"><ele>290.8571428571429</ele><time>2026-04-18T07:41:27.239Z</time></trkpt><trkpt lat="43.4575324" lon="11.2309781"><ele>291.2857142857143</ele><time>2026-04-18T07:41:30.248Z</time></trkpt><trkpt lat="43.4575838" lon="11.2310306"><ele>291.7142857142857</ele><time>2026-04-18T07:41:32.241Z</time></trkpt><trkpt lat="43.4576317" lon="11.2310875"><ele>292.1428571428571</ele><time>2026-04-18T07:41:34.239Z</time></trkpt><trkpt lat="43.4576859" lon="11.2311431"><ele>292.57142857142856</ele><time>2026-04-18T07:41:36.247Z</time></trkpt><trkpt lat="43.4577353" lon="11.2311976"><ele>293.0</ele><time>2026-04-18T07:41:38.258Z</time></trkpt><trkpt lat="43.4578057" lon="11.2312759"><ele>292.99999999999994</ele><time>2026-04-18T07:41:41.243Z</time></trkpt><trkpt lat="43.4578593" lon="11.2313327"><ele>293.0</ele><time>2026-04-18T07:41:43.255Z</time></trkpt><trkpt lat="43.4579127" lon="11.231391"><ele>293.0</ele><time>2026-04-18T07:41:45.25Z</time></trkpt><trkpt lat="43.4579613" lon="11.2314482"><ele>293.0</ele><time>2026-04-18T07:41:47.244Z</time></trkpt><trkpt lat="43.4580232" lon="11.2315205"><ele>293.0</ele><time>2026-04-18T07:41:49.314Z</time></trkpt><trkpt lat="43.4580729" lon="11.2315854"><ele>292.99999999999994</ele><time>2026-04-18T07:41:51.248Z</time></trkpt><trkpt lat="43.4581443" lon="11.2316524"><ele>293.0</ele><time>2026-04-18T07:41:53.244Z</time></trkpt><trkpt lat="43.458213" lon="11.2317036"><ele>292.1666666666667</ele><time>2026-04-18T07:41:55.247Z</time></trkpt><trkpt lat="43.4582779" lon="11.2317483"><ele>291.33333333333337</ele><time>2026-04-18T07:41:57.33Z</time></trkpt><trkpt lat="43.4583474" lon="11.2317726"><ele>290.5</ele><time>2026-04-18T07:41:59.241Z</time></trkpt><trkpt lat="43.4584153" lon="11.2317591"><ele>289.6666666666667</ele><time>2026-04-18T07:42:01.243Z</time></trkpt><trkpt lat="43.458478" lon="11.2317434"><ele>288.8333333333333</ele><time>2026-04-18T07:42:03.232Z</time></trkpt><trkpt lat="43.4585637" lon="11.231698"><ele>288.0</ele><time>2026-04-18T07:42:06.239Z</time></trkpt><trkpt lat="43.4586657" lon="11.2316446"><ele>288.0</ele><time>2026-04-18T07:42:08.319Z</time></trkpt><trkpt lat="43.4587657" lon="11.2315988"><ele>288.0</ele><time>2026-04-18T07:42:10.249Z</time></trkpt><trkpt lat="43.4588711" lon="11.2315508"><ele>288.0</ele><time>2026-04-18T07:42:12.236Z</time></trkpt><trkpt lat="43.4589591" lon="11.2314999"><ele>288.0</ele><time>2026-04-18T07:42:14.243Z</time></trkpt><trkpt lat="43.4590497" lon="11.231438"><ele>288.0</ele><time>2026-04-18T07:42:16.255Z</time></trkpt><trkpt lat="43.4591659" lon="11.2313651"><ele>285.8333333333333</ele><time>2026-04-18T07:42:18.306Z</time></trkpt><trkpt lat="43.4592916" lon="11.2313043"><ele>283.6666666666667</ele><time>2026-04-18T07:42:20.237Z</time></trkpt><trkpt lat="43.45936" lon="11.2312821"><ele>281.5</ele><time>2026-04-18T07:42:21.253Z</time></trkpt><trkpt lat="43.4594212" lon="11.231256"><ele>279.33333333333337</ele><time>2026-04-18T07:42:22.241Z</time></trkpt><trkpt lat="43.4594887" lon="11.2312237"><ele>277.1666666666667</ele><time>2026-04-18T07:42:23.237Z</time></trkpt><trkpt lat="43.4595515" lon="11.231187"><ele>275.0</ele><time>2026-04-18T07:42:24.246Z</time></trkpt><trkpt lat="43.4596148" lon="11.2311566"><ele>274.7142857142857</ele><time>2026-04-18T07:42:25.249Z</time></trkpt><trkpt lat="43.4596789" lon="11.2311267"><ele>274.42857142857144</ele><time>2026-04-18T07:42:26.243Z</time></trkpt><trkpt lat="43.4597462" lon="11.2310955"><ele>274.1428571428571</ele><time>2026-04-18T07:42:27.244Z</time></trkpt><trkpt lat="43.4598115" lon="11.2310657"><ele>273.8571428571429</ele><time>2026-04-18T07:42:28.244Z</time></trkpt><trkpt lat="43.4598763" lon="11.2310353"><ele>273.57142857142856</ele><time>2026-04-18T07:42:29.244Z</time></trkpt><trkpt lat="43.459938" lon="11.2310055"><ele>273.2857142857143</ele><time>2026-04-18T07:42:30.261Z</time></trkpt><trkpt lat="43.4599979" lon="11.2309781"><ele>273.0</ele><time>2026-04-18T07:42:31.25Z</time></trkpt><trkpt lat="43.460114" lon="11.230919"><ele>273.0</ele><time>2026-04-18T07:42:33.259Z</time></trkpt><trkpt lat="43.4602166" lon="11.2308698"><ele>273.0</ele><time>2026-04-18T07:42:35.242Z</time></trkpt><trkpt lat="43.4603073" lon="11.2308174"><ele>273.0</ele><time>2026-04-18T07:42:37.246Z</time></trkpt><trkpt lat="43.460388" lon="11.2307691"><ele>273.0</ele><time>2026-04-18T07:42:39.245Z</time></trkpt><trkpt lat="43.4604634" lon="11.230763"><ele>273.0</ele><time>2026-04-18T07:42:41.241Z</time></trkpt><trkpt lat="43.4605253" lon="11.2307818"><ele>273.0</ele><time>2026-04-18T07:42:44.25Z</time></trkpt><trkpt lat="43.4605511" lon="11.2308702"><ele>273.1666666666667</ele><time>2026-04-18T07:42:48.242Z</time></trkpt><trkpt lat="43.4605458" lon="11.2309718"><ele>273.3333333333333</ele><time>2026-04-18T07:42:51.242Z</time></trkpt><trkpt lat="43.4605704" lon="11.2310868"><ele>273.5</ele><time>2026-04-18T07:42:54.241Z</time></trkpt><trkpt lat="43.4605979" lon="11.231168"><ele>273.66666666666663</ele><time>2026-04-18T07:42:56.253Z</time></trkpt><trkpt lat="43.460626" lon="11.2312568"><ele>273.8333333333333</ele><time>2026-04-18T07:42:58.317Z</time></trkpt><trkpt lat="43.4606602" lon="11.2313684"><ele>274.0</ele><time>2026-04-18T07:43:00.253Z</time></trkpt><trkpt lat="43.4606837" lon="11.2314913"><ele>274.0</ele><time>2026-04-18T07:43:03.249Z</time></trkpt><trkpt lat="43.4607102" lon="11.2315794"><ele>274.0</ele><time>2026-04-18T07:43:05.235Z</time></trkpt><trkpt lat="43.4607316" lon="11.2316707"><ele>274.0</ele><time>2026-04-18T07:43:07.243Z</time></trkpt><trkpt lat="43.460744" lon="11.2317584"><ele>274.0</ele><time>2026-04-18T07:43:09.247Z</time></trkpt><trkpt lat="43.4607668" lon="11.2318768"><ele>274.0</ele><time>2026-04-18T07:43:12.258Z</time></trkpt><trkpt lat="43.4607905" lon="11.2319833"><ele>274.0</ele><time>2026-04-18T07:43:15.257Z</time></trkpt><trkpt lat="43.4608168" lon="11.2320965"><ele>274.0</ele><time>2026-04-18T07:43:18.325Z</time></trkpt><trkpt lat="43.4608373" lon="11.2322045"><ele>274.0</ele><time>2026-04-18T07:43:21.243Z</time></trkpt><trkpt lat="43.4608586" lon="11.2323178"><ele>274.0</ele><time>2026-04-18T07:43:24.227Z</time></trkpt><trkpt lat="43.4608853" lon="11.2324154"><ele>274.0</ele><time>2026-04-18T07:43:27.238Z</time></trkpt><trkpt lat="43.4609161" lon="11.2325168"><ele>274.0</ele><time>2026-04-18T07:43:30.254Z</time></trkpt><trkpt lat="43.4609417" lon="11.2326163"><ele>274.0</ele><time>2026-04-18T07:43:33.317Z</time></trkpt><trkpt lat="43.4609632" lon="11.2327051"><ele>274.8571428571429</ele><time>2026-04-18T07:43:36.243Z</time></trkpt><trkpt lat="43.4609769" lon="11.232793"><ele>275.7142857142857</ele><time>2026-04-18T07:43:40.252Z</time></trkpt><trkpt lat="43.4610063" lon="11.232901"><ele>276.57142857142856</ele><time>2026-04-18T07:43:44.25Z</time></trkpt><trkpt lat="43.4610279" lon="11.2329833"><ele>277.42857142857144</ele><time>2026-04-18T07:43:47.259Z</time></trkpt><trkpt lat="43.4610483" lon="11.2330865"><ele>278.2857142857143</ele><time>2026-04-18T07:43:51.242Z</time></trkpt><trkpt lat="43.4610699" lon="11.2331851"><ele>279.14285714285717</ele><time>2026-04-18T07:43:55.24Z</time></trkpt><trkpt lat="43.4610856" lon="11.2332809"><ele>280.0</ele><time>2026-04-18T07:43:59.24Z</time></trkpt><trkpt lat="43.4611147" lon="11.2333647"><ele>280.2857142857143</ele><time>2026-04-18T07:44:03.246Z</time></trkpt><trkpt lat="43.4611315" lon="11.2334492"><ele>280.57142857142856</ele><time>2026-04-18T07:44:07.26Z</time></trkpt><trkpt lat="43.4611518" lon="11.2335436"><ele>280.8571428571429</ele><time>2026-04-18T07:44:12.311Z</time></trkpt><trkpt lat="43.4612113" lon="11.2336142"><ele>281.1428571428571</ele><time>2026-04-18T07:44:15.244Z</time></trkpt><trkpt lat="43.4611983" lon="11.2337024"><ele>281.42857142857144</ele><time>2026-04-18T07:44:20.242Z</time></trkpt><trkpt lat="43.4612249" lon="11.233791"><ele>281.7142857142857</ele><time>2026-04-18T07:44:25.239Z</time></trkpt><trkpt lat="43.4612757" lon="11.2338507"><ele>282.0</ele><time>2026-04-18T07:44:28.313Z</time></trkpt><trkpt lat="43.4613205" lon="11.2339192"><ele>283.14285714285717</ele><time>2026-04-18T07:44:32.219Z</time></trkpt><trkpt lat="43.461362" lon="11.2339913"><ele>284.2857142857143</ele><time>2026-04-18T07:44:36.255Z</time></trkpt><trkpt lat="43.4613992" lon="11.2340843"><ele>285.42857142857144</ele><time>2026-04-18T07:44:41.225Z</time></trkpt><trkpt lat="43.4614403" lon="11.2341613"><ele>286.57142857142856</ele><time>2026-04-18T07:44:45.251Z</time></trkpt><trkpt lat="43.4614775" lon="11.2342411"><ele>287.7142857142857</ele><time>2026-04-18T07:44:49.226Z</time></trkpt><trkpt lat="43.4615182" lon="11.2343176"><ele>288.8571428571429</ele><time>2026-04-18T07:44:53.238Z</time></trkpt><trkpt lat="43.4615596" lon="11.2343849"><ele>290.0</ele><time>2026-04-18T07:44:57.237Z</time></trkpt><trkpt lat="43.4616425" lon="11.2344043"><ele>290.0</ele><time>2026-04-18T07:45:01.244Z</time></trkpt><trkpt lat="43.4616754" lon="11.23448"><ele>290.0</ele><time>2026-04-18T07:45:04.249Z</time></trkpt><trkpt lat="43.4617278" lon="11.2345606"><ele>290.0</ele><time>2026-04-18T07:45:08.25Z</time></trkpt><trkpt lat="43.4617788" lon="11.2346456"><ele>290.0</ele><time>2026-04-18T07:45:12.238Z</time></trkpt><trkpt lat="43.4618315" lon="11.2346989"><ele>290.0</ele><time>2026-04-18T07:45:15.247Z</time></trkpt><trkpt lat="43.46188" lon="11.2347748"><ele>290.0</ele><time>2026-04-18T07:45:19.246Z</time></trkpt><trkpt lat="43.4618952" lon="11.2348645"><ele>290.0</ele><time>2026-04-18T07:45:22.256Z</time></trkpt><trkpt lat="43.4618935" lon="11.2349695"><ele>290.1666666666667</ele><time>2026-04-18T07:45:25.239Z</time></trkpt><trkpt lat="43.4618879" lon="11.23508"><ele>290.33333333333337</ele><time>2026-04-18T07:45:28.253Z</time></trkpt><trkpt lat="43.4618791" lon="11.2352034"><ele>290.5</ele><time>2026-04-18T07:45:31.254Z</time></trkpt><trkpt lat="43.4618734" lon="11.2352918"><ele>290.6666666666667</ele><time>2026-04-18T07:45:33.257Z</time></trkpt><trkpt lat="43.4618666" lon="11.235381"><ele>290.8333333333333</ele><time>2026-04-18T07:45:35.22Z</time></trkpt><trkpt lat="43.4618549" lon="11.2355017"><ele>291.0</ele><time>2026-04-18T07:45:38.244Z</time></trkpt><trkpt lat="43.4618447" lon="11.2356099"><ele>291.5</ele><time>2026-04-18T07:45:44.241Z</time></trkpt><trkpt lat="43.4618414" lon="11.2357124"><ele>292.0</ele><time>2026-04-18T07:45:47.236Z</time></trkpt><trkpt lat="43.4618236" lon="11.235818"><ele>292.5</ele><time>2026-04-18T07:45:50.249Z</time></trkpt><trkpt lat="43.4618137" lon="11.2359289"><ele>293.0</ele><time>2026-04-18T07:45:54.251Z</time></trkpt><trkpt lat="43.4618058" lon="11.2360404"><ele>293.5</ele><time>2026-04-18T07:45:58.236Z</time></trkpt><trkpt lat="43.4617834" lon="11.2361439"><ele>294.0</ele><time>2026-04-18T07:46:01.246Z</time></trkpt><trkpt lat="43.461769" lon="11.2362718"><ele>294.0</ele><time>2026-04-18T07:46:04.248Z</time></trkpt><trkpt lat="43.4617547" lon="11.236402"><ele>294.0</ele><time>2026-04-18T07:46:07.239Z</time></trkpt><trkpt lat="43.4617436" lon="11.2364915"><ele>294.0</ele><time>2026-04-18T07:46:09.245Z</time></trkpt><trkpt lat="43.4617196" lon="11.2365944"><ele>294.0</ele><time>2026-04-18T07:46:11.26Z</time></trkpt><trkpt lat="43.4616757" lon="11.2367132"><ele>294.0</ele><time>2026-04-18T07:46:13.25Z</time></trkpt><trkpt lat="43.4616236" lon="11.2367816"><ele>294.0</ele><time>2026-04-18T07:46:14.242Z</time></trkpt><trkpt lat="43.4615505" lon="11.2368494"><ele>294.2</ele><time>2026-04-18T07:46:15.25Z</time></trkpt><trkpt lat="43.4614662" lon="11.236917"><ele>294.4</ele><time>2026-04-18T07:46:16.243Z</time></trkpt><trkpt lat="43.4613784" lon="11.2369903"><ele>294.6</ele><time>2026-04-18T07:46:17.242Z</time></trkpt><trkpt lat="43.4612899" lon="11.2370666"><ele>294.8</ele><time>2026-04-18T07:46:18.224Z</time></trkpt><trkpt lat="43.4611973" lon="11.2371491"><ele>295.0</ele><time>2026-04-18T07:46:19.235Z</time></trkpt><trkpt lat="43.4611023" lon="11.2372293"><ele>292.25</ele><time>2026-04-18T07:46:20.228Z</time></trkpt><trkpt lat="43.4610059" lon="11.2373074"><ele>289.5</ele><time>2026-04-18T07:46:21.225Z</time></trkpt><trkpt lat="43.4609077" lon="11.2373933"><ele>286.75</ele><time>2026-04-18T07:46:22.249Z</time></trkpt><trkpt lat="43.460809" lon="11.2374805"><ele>284.0</ele><time>2026-04-18T07:46:23.24Z</time></trkpt><trkpt lat="43.4607087" lon="11.2375771"><ele>284.0</ele><time>2026-04-18T07:46:24.239Z</time></trkpt><trkpt lat="43.4606135" lon="11.2376728"><ele>284.0</ele><time>2026-04-18T07:46:25.247Z</time></trkpt><trkpt lat="43.4605246" lon="11.2377606"><ele>284.0</ele><time>2026-04-18T07:46:26.239Z</time></trkpt><trkpt lat="43.4604331" lon="11.2378365"><ele>284.0</ele><time>2026-04-18T07:46:27.251Z</time></trkpt><trkpt lat="43.4603401" lon="11.237896"><ele>284.0</ele><time>2026-04-18T07:46:28.245Z</time></trkpt><trkpt lat="43.4602397" lon="11.2379294"><ele>283.0</ele><time>2026-04-18T07:46:29.243Z</time></trkpt><trkpt lat="43.4601339" lon="11.2379309"><ele>282.0</ele><time>2026-04-18T07:46:30.259Z</time></trkpt><trkpt lat="43.4600289" lon="11.2379152"><ele>281.0</ele><time>2026-04-18T07:46:31.252Z</time></trkpt><trkpt lat="43.4599265" lon="11.2378915"><ele>280.0</ele><time>2026-04-18T07:46:32.259Z</time></trkpt><trkpt lat="43.4598334" lon="11.2378671"><ele>279.0</ele><time>2026-04-18T07:46:33.24Z</time></trkpt><trkpt lat="43.4597485" lon="11.2378609"><ele>279.0</ele><time>2026-04-18T07:46:34.257Z</time></trkpt><trkpt lat="43.4596708" lon="11.2378874"><ele>279.0</ele><time>2026-04-18T07:46:35.249Z</time></trkpt><trkpt lat="43.4595959" lon="11.2379475"><ele>279.0</ele><time>2026-04-18T07:46:36.246Z</time></trkpt><trkpt lat="43.4595322" lon="11.2380442"><ele>279.0</ele><time>2026-04-18T07:46:37.236Z</time></trkpt><trkpt lat="43.4594837" lon="11.2381599"><ele>279.0</ele><time>2026-04-18T07:46:38.251Z</time></trkpt><trkpt lat="43.4594553" lon="11.2382778"><ele>279.0</ele><time>2026-04-18T07:46:39.252Z</time></trkpt><trkpt lat="43.4594417" lon="11.2383963"><ele>276.59999999999997</ele><time>2026-04-18T07:46:40.25Z</time></trkpt><trkpt lat="43.4594418" lon="11.2385167"><ele>274.2</ele><time>2026-04-18T07:46:41.237Z</time></trkpt><trkpt lat="43.4594554" lon="11.2386373"><ele>271.79999999999995</ele><time>2026-04-18T07:46:42.241Z</time></trkpt><trkpt lat="43.4594858" lon="11.2387593"><ele>269.4</ele><time>2026-04-18T07:46:43.254Z</time></trkpt><trkpt lat="43.4595359" lon="11.2388761"><ele>267.0</ele><time>2026-04-18T07:46:44.246Z</time></trkpt><trkpt lat="43.4596018" lon="11.2389978"><ele>268.0</ele><time>2026-04-18T07:46:45.237Z</time></trkpt><trkpt lat="43.4596696" lon="11.2391222"><ele>269.0</ele><time>2026-04-18T07:46:46.258Z</time></trkpt><trkpt lat="43.4597335" lon="11.2392444"><ele>270.0</ele><time>2026-04-18T07:46:47.233Z</time></trkpt><trkpt lat="43.4597938" lon="11.2393662"><ele>271.0</ele><time>2026-04-18T07:46:48.244Z</time></trkpt><trkpt lat="43.4598512" lon="11.2394819"><ele>272.0</ele><time>2026-04-18T07:46:49.257Z</time></trkpt><trkpt lat="43.4599107" lon="11.2395888"><ele>272.0</ele><time>2026-04-18T07:46:50.244Z</time></trkpt><trkpt lat="43.4599828" lon="11.2396882"><ele>272.0</ele><time>2026-04-18T07:46:51.255Z</time></trkpt><trkpt lat="43.4600729" lon="11.2397756"><ele>272.0</ele><time>2026-04-18T07:46:52.226Z</time></trkpt><trkpt lat="43.4601773" lon="11.2398636"><ele>272.0</ele><time>2026-04-18T07:46:53.24Z</time></trkpt><trkpt lat="43.4602809" lon="11.2399654"><ele>269.8</ele><time>2026-04-18T07:46:54.257Z</time></trkpt><trkpt lat="43.4603697" lon="11.2400787"><ele>267.6</ele><time>2026-04-18T07:46:55.234Z</time></trkpt><trkpt lat="43.4604444" lon="11.2401974"><ele>265.40000000000003</ele><time>2026-04-18T07:46:56.241Z</time></trkpt><trkpt lat="43.4605053" lon="11.2403055"><ele>263.2</ele><time>2026-04-18T07:46:57.254Z</time></trkpt><trkpt lat="43.4605625" lon="11.2404143"><ele>261.0</ele><time>2026-04-18T07:46:58.232Z</time></trkpt><trkpt lat="43.4606251" lon="11.2405144"><ele>261.0</ele><time>2026-04-18T07:46:59.254Z</time></trkpt><trkpt lat="43.4606868" lon="11.2406074"><ele>261.0</ele><time>2026-04-18T07:47:00.241Z</time></trkpt><trkpt lat="43.4607271" lon="11.2407138"><ele>261.0</ele><time>2026-04-18T07:47:01.238Z</time></trkpt><trkpt lat="43.4607092" lon="11.2408228"><ele>261.0</ele><time>2026-04-18T07:47:02.246Z</time></trkpt><trkpt lat="43.4606686" lon="11.2409209"><ele>261.0</ele><time>2026-04-18T07:47:03.243Z</time></trkpt><trkpt lat="43.4606188" lon="11.2410136"><ele>261.0</ele><time>2026-04-18T07:47:04.229Z</time></trkpt><trkpt lat="43.4605723" lon="11.2411101"><ele>260.3333333333333</ele><time>2026-04-18T07:47:05.238Z</time></trkpt><trkpt lat="43.4605294" lon="11.2411964"><ele>259.6666666666667</ele><time>2026-04-18T07:47:06.244Z</time></trkpt><trkpt lat="43.4604874" lon="11.2412727"><ele>259.0</ele><time>2026-04-18T07:47:07.25Z</time></trkpt><trkpt lat="43.4604211" lon="11.241391"><ele>258.33333333333337</ele><time>2026-04-18T07:47:09.244Z</time></trkpt><trkpt lat="43.4603726" lon="11.2414818"><ele>257.6666666666667</ele><time>2026-04-18T07:47:11.22Z</time></trkpt><trkpt lat="43.4603225" lon="11.2415774"><ele>257.0</ele><time>2026-04-18T07:47:14.241Z</time></trkpt><trkpt lat="43.4602829" lon="11.2416681"><ele>257.0</ele><time>2026-04-18T07:47:17.242Z</time></trkpt><trkpt lat="43.4602623" lon="11.241763"><ele>257.0</ele><time>2026-04-18T07:47:21.245Z</time></trkpt><trkpt lat="43.460238" lon="11.241861"><ele>257.0</ele><time>2026-04-18T07:47:26.226Z</time></trkpt><trkpt lat="43.4601852" lon="11.2419374"><ele>257.0</ele><time>2026-04-18T07:47:30.216Z</time></trkpt><trkpt lat="43.4602394" lon="11.2419932"><ele>257.0</ele><time>2026-04-18T07:47:33.232Z</time></trkpt><trkpt lat="43.4602453" lon="11.2420816"><ele>257.0</ele><time>2026-04-18T07:47:39.245Z</time></trkpt><trkpt lat="43.4602341" lon="11.2421793"><ele>257.0</ele><time>2026-04-18T07:47:47.249Z</time></trkpt><trkpt lat="43.4602421" lon="11.2422765"><ele>257.0</ele><time>2026-04-18T07:47:58.24Z</time></trkpt><trkpt lat="43.4602322" lon="11.2423752"><ele>257.0</ele><time>2026-04-18T07:48:03.243Z</time></trkpt><trkpt lat="43.4601744" lon="11.2424293"><ele>257.0</ele><time>2026-04-18T07:48:15.235Z</time></trkpt><trkpt lat="43.4601074" lon="11.2424009"><ele>257.0</ele><time>2026-04-18T07:48:21.238Z</time></trkpt><trkpt lat="43.4600529" lon="11.2423395"><ele>257.0</ele><time>2026-04-18T07:48:28.291Z</time></trkpt><trkpt lat="43.4599892" lon="11.2422852"><ele>257.0</ele><time>2026-04-18T07:48:34.219Z</time></trkpt><trkpt lat="43.4599179" lon="11.2422594"><ele>257.0</ele><time>2026-04-18T07:48:39.237Z</time></trkpt><trkpt lat="43.4598501" lon="11.2422491"><ele>257.0</ele><time>2026-04-18T07:48:44.239Z</time></trkpt><trkpt lat="43.459783" lon="11.2422384"><ele>257.0</ele><time>2026-04-18T07:48:50.256Z</time></trkpt><trkpt lat="43.4597111" lon="11.2422306"><ele>257.0</ele><time>2026-04-18T07:48:57.25Z</time></trkpt><trkpt lat="43.459644" lon="11.2422368"><ele>257.0</ele><time>2026-04-18T07:49:02.218Z</time></trkpt><trkpt lat="43.4595692" lon="11.242224"><ele>257.0</ele><time>2026-04-18T07:49:08.219Z</time></trkpt><trkpt lat="43.4595033" lon="11.2422023"><ele>257.0</ele><time>2026-04-18T07:49:15.242Z</time></trkpt><trkpt lat="43.4594122" lon="11.2421494"><ele>257.0</ele><time>2026-04-18T07:49:26.247Z</time></trkpt><trkpt lat="43.4593466" lon="11.2421123"><ele>259.42857142857144</ele><time>2026-04-18T07:49:33.248Z</time></trkpt><trkpt lat="43.4592728" lon="11.2420555"><ele>261.8571428571429</ele><time>2026-04-18T07:49:40.247Z</time></trkpt><trkpt lat="43.4592114" lon="11.2420168"><ele>264.28571428571433</ele><time>2026-04-18T07:49:45.237Z</time></trkpt><trkpt lat="43.4591537" lon="11.2419721"><ele>266.7142857142857</ele><time>2026-04-18T07:49:50.237Z</time></trkpt><trkpt lat="43.459089" lon="11.2419598"><ele>269.14285714285717</ele><time>2026-04-18T07:49:55.223Z</time></trkpt><trkpt lat="43.4590138" lon="11.24197"><ele>271.5714285714286</ele><time>2026-04-18T07:50:01.22Z</time></trkpt><trkpt lat="43.458954" lon="11.2420219"><ele>274.0</ele><time>2026-04-18T07:50:06.248Z</time></trkpt><trkpt lat="43.4589115" lon="11.2421001"><ele>274.00000000000006</ele><time>2026-04-18T07:50:13.219Z</time></trkpt><trkpt lat="43.458892" lon="11.2421958"><ele>274.0</ele><time>2026-04-18T07:50:19.316Z</time></trkpt><trkpt lat="43.4588771" lon="11.2423052"><ele>274.0</ele><time>2026-04-18T07:50:28.238Z</time></trkpt><trkpt lat="43.4588352" lon="11.2423793"><ele>274.0</ele><time>2026-04-18T07:50:33.242Z</time></trkpt><trkpt lat="43.4587691" lon="11.242401"><ele>274.0</ele><time>2026-04-18T07:50:39.253Z</time></trkpt><trkpt lat="43.4587124" lon="11.2423504"><ele>274.00000000000006</ele><time>2026-04-18T07:50:48.333Z</time></trkpt><trkpt lat="43.4586636" lon="11.2422901"><ele>274.0</ele><time>2026-04-18T07:50:54.319Z</time></trkpt><trkpt lat="43.4586034" lon="11.242224"><ele>277.00000000000006</ele><time>2026-04-18T07:51:00.248Z</time></trkpt><trkpt lat="43.4585449" lon="11.2421613"><ele>280.0</ele><time>2026-04-18T07:51:05.233Z</time></trkpt><trkpt lat="43.4585011" lon="11.2420982"><ele>283.0</ele><time>2026-04-18T07:51:10.252Z</time></trkpt><trkpt lat="43.4584195" lon="11.2420547"><ele>286.0</ele><time>2026-04-18T07:51:16.247Z</time></trkpt><trkpt lat="43.4583488" lon="11.2420485"><ele>289.0</ele><time>2026-04-18T07:51:21.24Z</time></trkpt><trkpt lat="43.4582792" lon="11.2420742"><ele>292.00000000000006</ele><time>2026-04-18T07:51:26.256Z</time></trkpt><trkpt lat="43.4582225" lon="11.2421414"><ele>295.0</ele><time>2026-04-18T07:51:31.239Z</time></trkpt><trkpt lat="43.4581897" lon="11.2422259"><ele>296.00000000000006</ele><time>2026-04-18T07:51:36.253Z</time></trkpt><trkpt lat="43.4581587" lon="11.2423278"><ele>297.0</ele><time>2026-04-18T07:51:42.229Z</time></trkpt><trkpt lat="43.458138" lon="11.2424154"><ele>298.0</ele><time>2026-04-18T07:51:46.258Z</time></trkpt><trkpt lat="43.4581183" lon="11.2425113"><ele>299.0</ele><time>2026-04-18T07:51:50.22Z</time></trkpt><trkpt lat="43.458099" lon="11.2426068"><ele>300.0</ele><time>2026-04-18T07:51:54.325Z</time></trkpt><trkpt lat="43.4580752" lon="11.2426891"><ele>301.00000000000006</ele><time>2026-04-18T07:51:58.307Z</time></trkpt><trkpt lat="43.4580696" lon="11.2427808"><ele>302.0</ele><time>2026-04-18T07:52:03.329Z</time></trkpt><trkpt lat="43.4580871" lon="11.2428732"><ele>302.00000000000006</ele><time>2026-04-18T07:52:07.24Z</time></trkpt><trkpt lat="43.4581157" lon="11.2429805"><ele>302.0</ele><time>2026-04-18T07:52:11.242Z</time></trkpt><trkpt lat="43.4581305" lon="11.2430659"><ele>302.0</ele><time>2026-04-18T07:52:13.231Z</time></trkpt><trkpt lat="43.4581467" lon="11.24315"><ele>302.0</ele><time>2026-04-18T07:52:15.24Z</time></trkpt><trkpt lat="43.4581758" lon="11.243239"><ele>302.0</ele><time>2026-04-18T07:52:18.242Z</time></trkpt><trkpt lat="43.4582069" lon="11.2433339"><ele>302.00000000000006</ele><time>2026-04-18T07:52:21.239Z</time></trkpt><trkpt lat="43.458241" lon="11.2434183"><ele>302.0</ele><time>2026-04-18T07:52:24.249Z</time></trkpt><trkpt lat="43.4582788" lon="11.2435014"><ele>302.33333333333337</ele><time>2026-04-18T07:52:27.238Z</time></trkpt><trkpt lat="43.4583048" lon="11.2435836"><ele>302.6666666666667</ele><time>2026-04-18T07:52:30.253Z</time></trkpt><trkpt lat="43.4583365" lon="11.2436814"><ele>303.0</ele><time>2026-04-18T07:52:34.231Z</time></trkpt><trkpt lat="43.4583657" lon="11.2437902"><ele>303.3333333333333</ele><time>2026-04-18T07:52:38.242Z</time></trkpt><trkpt lat="43.4583958" lon="11.2438857"><ele>303.66666666666663</ele><time>2026-04-18T07:52:41.238Z</time></trkpt><trkpt lat="43.4584313" lon="11.2439858"><ele>304.0</ele><time>2026-04-18T07:52:44.232Z</time></trkpt><trkpt lat="43.4584844" lon="11.2440645"><ele>304.0</ele><time>2026-04-18T07:52:48.242Z</time></trkpt><trkpt lat="43.4585192" lon="11.244146"><ele>304.0</ele><time>2026-04-18T07:52:51.241Z</time></trkpt><trkpt lat="43.4585488" lon="11.2442245"><ele>304.0</ele><time>2026-04-18T07:52:55.276Z</time></trkpt><trkpt lat="43.4585983" lon="11.2442904"><ele>304.0</ele><time>2026-04-18T07:53:00.234Z</time></trkpt><trkpt lat="43.4586346" lon="11.2443618"><ele>304.0</ele><time>2026-04-18T07:53:04.248Z</time></trkpt><trkpt lat="43.4586972" lon="11.2444252"><ele>304.0</ele><time>2026-04-18T07:53:08.241Z</time></trkpt><trkpt lat="43.4587592" lon="11.2444868"><ele>304.0</ele><time>2026-04-18T07:53:12.243Z</time></trkpt><trkpt lat="43.4588193" lon="11.2445397"><ele>303.1428571428571</ele><time>2026-04-18T07:53:16.236Z</time></trkpt><trkpt lat="43.458871" lon="11.2446026"><ele>302.28571428571433</ele><time>2026-04-18T07:53:20.249Z</time></trkpt><trkpt lat="43.4589186" lon="11.2446706"><ele>301.42857142857144</ele><time>2026-04-18T07:53:24.244Z</time></trkpt><trkpt lat="43.4589535" lon="11.2447461"><ele>300.57142857142856</ele><time>2026-04-18T07:53:28.241Z</time></trkpt><trkpt lat="43.4589815" lon="11.2448278"><ele>299.71428571428567</ele><time>2026-04-18T07:53:32.244Z</time></trkpt><trkpt lat="43.4590283" lon="11.2449022"><ele>298.85714285714283</ele><time>2026-04-18T07:53:36.234Z</time></trkpt><trkpt lat="43.4590539" lon="11.2449889"><ele>298.0</ele><time>2026-04-18T07:53:40.228Z</time></trkpt><trkpt lat="43.4590865" lon="11.2450784"><ele>300.1428571428571</ele><time>2026-04-18T07:53:44.24Z</time></trkpt><trkpt lat="43.4591157" lon="11.2451618"><ele>302.2857142857143</ele><time>2026-04-18T07:53:48.228Z</time></trkpt><trkpt lat="43.4591456" lon="11.2452398"><ele>304.42857142857144</ele><time>2026-04-18T07:53:52.254Z</time></trkpt><trkpt lat="43.4591754" lon="11.2453394"><ele>306.57142857142856</ele><time>2026-04-18T07:53:57.242Z</time></trkpt><trkpt lat="43.4592052" lon="11.2454322"><ele>308.7142857142857</ele><time>2026-04-18T07:54:02.242Z</time></trkpt><trkpt lat="43.4592464" lon="11.2455153"><ele>310.85714285714283</ele><time>2026-04-18T07:54:06.245Z</time></trkpt><trkpt lat="43.4592794" lon="11.2455946"><ele>313.0</ele><time>2026-04-18T07:54:10.246Z</time></trkpt><trkpt lat="43.4593085" lon="11.2456769"><ele>312.85714285714283</ele><time>2026-04-18T07:54:14.229Z</time></trkpt><trkpt lat="43.4593487" lon="11.2457513"><ele>312.7142857142857</ele><time>2026-04-18T07:54:18.232Z</time></trkpt><trkpt lat="43.459358" lon="11.2458419"><ele>312.57142857142856</ele><time>2026-04-18T07:54:22.262Z</time></trkpt><trkpt lat="43.4594123" lon="11.2459119"><ele>312.42857142857144</ele><time>2026-04-18T07:54:27.242Z</time></trkpt><trkpt lat="43.4594654" lon="11.24596"><ele>312.2857142857143</ele><time>2026-04-18T07:54:32.235Z</time></trkpt><trkpt lat="43.4595333" lon="11.2460095"><ele>312.14285714285717</ele><time>2026-04-18T07:54:35.234Z</time></trkpt><trkpt lat="43.4595992" lon="11.246065"><ele>312.0</ele><time>2026-04-18T07:54:40.238Z</time></trkpt><trkpt lat="43.459656" lon="11.2461333"><ele>312.0</ele><time>2026-04-18T07:54:45.244Z</time></trkpt><trkpt lat="43.4597094" lon="11.2461857"><ele>312.0</ele><time>2026-04-18T07:54:49.233Z</time></trkpt><trkpt lat="43.4597503" lon="11.2462569"><ele>312.0</ele><time>2026-04-18T07:54:53.322Z</time></trkpt><trkpt lat="43.4597918" lon="11.246346"><ele>312.0</ele><time>2026-04-18T07:54:57.248Z</time></trkpt><trkpt lat="43.4598322" lon="11.2464443"><ele>312.0</ele><time>2026-04-18T07:55:02.235Z</time></trkpt><trkpt lat="43.4598379" lon="11.2465368"><ele>312.0</ele><time>2026-04-18T07:55:05.236Z</time></trkpt><trkpt lat="43.4598839" lon="11.2466151"><ele>312.0</ele><time>2026-04-18T07:55:10.225Z</time></trkpt><trkpt lat="43.459898" lon="11.2467214"><ele>314.0</ele><time>2026-04-18T07:55:15.239Z</time></trkpt><trkpt lat="43.4599212" lon="11.2468069"><ele>316.0</ele><time>2026-04-18T07:55:20.223Z</time></trkpt><trkpt lat="43.4599483" lon="11.2469031"><ele>318.0</ele><time>2026-04-18T07:55:25.243Z</time></trkpt><trkpt lat="43.4599814" lon="11.2469863"><ele>320.0</ele><time>2026-04-18T07:55:30.255Z</time></trkpt><trkpt lat="43.4600063" lon="11.2470711"><ele>322.0</ele><time>2026-04-18T07:55:35.258Z</time></trkpt><trkpt lat="43.4599919" lon="11.2471704"><ele>324.0</ele><time>2026-04-18T07:55:42.238Z</time></trkpt><trkpt lat="43.4600007" lon="11.2472564"><ele>326.0</ele><time>2026-04-18T07:55:46.239Z</time></trkpt><trkpt lat="43.4600428" lon="11.2473383"><ele>327.14285714285717</ele><time>2026-04-18T07:55:49.31Z</time></trkpt><trkpt lat="43.4600682" lon="11.2474204"><ele>328.2857142857143</ele><time>2026-04-18T07:55:53.333Z</time></trkpt><trkpt lat="43.4601042" lon="11.2475204"><ele>329.42857142857144</ele><time>2026-04-18T07:55:58.317Z</time></trkpt><trkpt lat="43.4601358" lon="11.2476157"><ele>330.57142857142856</ele><time>2026-04-18T07:56:05.251Z</time></trkpt><trkpt lat="43.4601063" lon="11.2477038"><ele>331.7142857142857</ele><time>2026-04-18T07:56:12.24Z</time></trkpt><trkpt lat="43.460118" lon="11.2478011"><ele>332.85714285714283</ele><time>2026-04-18T07:56:15.235Z</time></trkpt><trkpt lat="43.4601516" lon="11.2478888"><ele>334.0</ele><time>2026-04-18T07:56:17.319Z</time></trkpt><trkpt lat="43.4601892" lon="11.2479881"><ele>334.0</ele><time>2026-04-18T07:56:19.239Z</time></trkpt><trkpt lat="43.4602229" lon="11.2480635"><ele>334.0</ele><time>2026-04-18T07:56:20.241Z</time></trkpt><trkpt lat="43.460284" lon="11.2481799"><ele>334.0</ele><time>2026-04-18T07:56:22.237Z</time></trkpt><trkpt lat="43.460332" lon="11.2482867"><ele>334.0</ele><time>2026-04-18T07:56:24.248Z</time></trkpt><trkpt lat="43.4603787" lon="11.2483682"><ele>334.0</ele><time>2026-04-18T07:56:26.232Z</time></trkpt><trkpt lat="43.4604127" lon="11.2484426"><ele>334.0</ele><time>2026-04-18T07:56:28.304Z</time></trkpt><trkpt lat="43.460454" lon="11.2485278"><ele>333.8333333333333</ele><time>2026-04-18T07:56:32.23Z</time></trkpt><trkpt lat="43.4605167" lon="11.248613"><ele>333.66666666666663</ele><time>2026-04-18T07:56:38.216Z</time></trkpt><trkpt lat="43.4605545" lon="11.2487021"><ele>333.5</ele><time>2026-04-18T07:56:41.234Z</time></trkpt><trkpt lat="43.4605907" lon="11.2487819"><ele>333.3333333333333</ele><time>2026-04-18T07:56:45.244Z</time></trkpt><trkpt lat="43.4606299" lon="11.2488721"><ele>333.1666666666667</ele><time>2026-04-18T07:56:49.243Z</time></trkpt><trkpt lat="43.4606655" lon="11.2489687"><ele>333.0</ele><time>2026-04-18T07:56:53.224Z</time></trkpt><trkpt lat="43.4607046" lon="11.249045"><ele>333.8571428571429</ele><time>2026-04-18T07:56:57.316Z</time></trkpt><trkpt lat="43.4607475" lon="11.249133"><ele>334.71428571428567</ele><time>2026-04-18T07:57:01.247Z</time></trkpt><trkpt lat="43.4607902" lon="11.2492085"><ele>335.57142857142856</ele><time>2026-04-18T07:57:05.231Z</time></trkpt><trkpt lat="43.460834" lon="11.2492864"><ele>336.42857142857144</ele><time>2026-04-18T07:57:09.32Z</time></trkpt><trkpt lat="43.4608798" lon="11.2493723"><ele>337.28571428571433</ele><time>2026-04-18T07:57:13.317Z</time></trkpt><trkpt lat="43.4609182" lon="11.2494471"><ele>338.1428571428571</ele><time>2026-04-18T07:57:18.31Z</time></trkpt><trkpt lat="43.4609804" lon="11.2495109"><ele>339.0</ele><time>2026-04-18T07:57:22.238Z</time></trkpt><trkpt lat="43.4610317" lon="11.249575"><ele>339.0</ele><time>2026-04-18T07:57:27.246Z</time></trkpt><trkpt lat="43.4610855" lon="11.2496274"><ele>339.0</ele><time>2026-04-18T07:57:31.253Z</time></trkpt><trkpt lat="43.4611418" lon="11.2496751"><ele>339.0</ele><time>2026-04-18T07:57:34.234Z</time></trkpt><trkpt lat="43.4612139" lon="11.2497457"><ele>339.0</ele><time>2026-04-18T07:57:37.236Z</time></trkpt><trkpt lat="43.4612884" lon="11.2498229"><ele>339.0</ele><time>2026-04-18T07:57:40.228Z</time></trkpt><trkpt lat="43.4614899" lon="11.249972"><ele>339.8333333333333</ele><time>2026-04-18T07:57:46.239Z</time></trkpt><trkpt lat="43.4615672" lon="11.2500132"><ele>340.6666666666667</ele><time>2026-04-18T07:57:48.274Z</time></trkpt><trkpt lat="43.461644" lon="11.2500583"><ele>341.5</ele><time>2026-04-18T07:57:50.243Z</time></trkpt><trkpt lat="43.4617098" lon="11.250107"><ele>342.33333333333337</ele><time>2026-04-18T07:57:52.232Z</time></trkpt><trkpt lat="43.4617858" lon="11.2501569"><ele>343.1666666666667</ele><time>2026-04-18T07:57:54.236Z</time></trkpt><trkpt lat="43.4618707" lon="11.2502136"><ele>344.0</ele><time>2026-04-18T07:57:56.25Z</time></trkpt><trkpt lat="43.4619569" lon="11.250281"><ele>344.0</ele><time>2026-04-18T07:57:58.229Z</time></trkpt><trkpt lat="43.4620356" lon="11.2503494"><ele>344.0</ele><time>2026-04-18T07:58:00.217Z</time></trkpt><trkpt lat="43.4621036" lon="11.250421"><ele>344.0</ele><time>2026-04-18T07:58:02.234Z</time></trkpt><trkpt lat="43.4621601" lon="11.2504849"><ele>344.0</ele><time>2026-04-18T07:58:04.237Z</time></trkpt><trkpt lat="43.4622106" lon="11.2505501"><ele>344.0</ele><time>2026-04-18T07:58:06.243Z</time></trkpt><trkpt lat="43.4622628" lon="11.2506276"><ele>344.0</ele><time>2026-04-18T07:58:09.219Z</time></trkpt><trkpt lat="43.4623194" lon="11.250702"><ele>344.83333333333337</ele><time>2026-04-18T07:58:12.257Z</time></trkpt><trkpt lat="43.4623824" lon="11.2507876"><ele>345.6666666666667</ele><time>2026-04-18T07:58:15.243Z</time></trkpt><trkpt lat="43.4624381" lon="11.2508684"><ele>346.5</ele><time>2026-04-18T07:58:18.233Z</time></trkpt><trkpt lat="43.4625001" lon="11.2509474"><ele>347.3333333333333</ele><time>2026-04-18T07:58:21.242Z</time></trkpt><trkpt lat="43.4625619" lon="11.2510241"><ele>348.16666666666663</ele><time>2026-04-18T07:58:24.235Z</time></trkpt><trkpt lat="43.4626112" lon="11.2510948"><ele>349.0</ele><time>2026-04-18T07:58:27.232Z</time></trkpt><trkpt lat="43.4626702" lon="11.2511577"><ele>349.0</ele><time>2026-04-18T07:58:30.242Z</time></trkpt><trkpt lat="43.4627382" lon="11.2512378"><ele>349.0</ele><time>2026-04-18T07:58:33.232Z</time></trkpt><trkpt lat="43.4627943" lon="11.2513324"><ele>349.0</ele><time>2026-04-18T07:58:36.225Z</time></trkpt><trkpt lat="43.4628356" lon="11.2514408"><ele>349.0</ele><time>2026-04-18T07:58:39.258Z</time></trkpt><trkpt lat="43.4628601" lon="11.2515218"><ele>349.0</ele><time>2026-04-18T07:58:41.247Z</time></trkpt><trkpt lat="43.4628924" lon="11.2516374"><ele>349.0</ele><time>2026-04-18T07:58:43.225Z</time></trkpt><trkpt lat="43.4629095" lon="11.2517568"><ele>350.4</ele><time>2026-04-18T07:58:45.239Z</time></trkpt><trkpt lat="43.4629205" lon="11.2518926"><ele>351.79999999999995</ele><time>2026-04-18T07:58:47.24Z</time></trkpt><trkpt lat="43.4629375" lon="11.2520323"><ele>353.20000000000005</ele><time>2026-04-18T07:58:49.237Z</time></trkpt><trkpt lat="43.4629422" lon="11.2521686"><ele>354.6</ele><time>2026-04-18T07:58:51.241Z</time></trkpt><trkpt lat="43.4629379" lon="11.2523147"><ele>356.0</ele><time>2026-04-18T07:58:53.24Z</time></trkpt><trkpt lat="43.4629302" lon="11.2524426"><ele>356.5</ele><time>2026-04-18T07:58:55.226Z</time></trkpt><trkpt lat="43.4629172" lon="11.2525488"><ele>357.0</ele><time>2026-04-18T07:58:57.224Z</time></trkpt><trkpt lat="43.4628971" lon="11.2526356"><ele>357.5</ele><time>2026-04-18T07:58:59.244Z</time></trkpt><trkpt lat="43.4628537" lon="11.2527364"><ele>358.0</ele><time>2026-04-18T07:59:02.22Z</time></trkpt><trkpt lat="43.462827" lon="11.2528423"><ele>358.5</ele><time>2026-04-18T07:59:05.25Z</time></trkpt><trkpt lat="43.4628076" lon="11.2529432"><ele>359.0</ele><time>2026-04-18T07:59:08.31Z</time></trkpt><trkpt lat="43.462801" lon="11.2530461"><ele>360.0</ele><time>2026-04-18T07:59:11.235Z</time></trkpt><trkpt lat="43.4628083" lon="11.2531508"><ele>361.0</ele><time>2026-04-18T07:59:14.324Z</time></trkpt><trkpt lat="43.4628453" lon="11.2532404"><ele>362.0</ele><time>2026-04-18T07:59:18.308Z</time></trkpt><trkpt lat="43.4628939" lon="11.2533425"><ele>363.0</ele><time>2026-04-18T07:59:23.3Z</time></trkpt><trkpt lat="43.4629496" lon="11.2534217"><ele>364.0</ele><time>2026-04-18T07:59:28.314Z</time></trkpt><trkpt lat="43.4629983" lon="11.2535013"><ele>365.0</ele><time>2026-04-18T07:59:32.234Z</time></trkpt><trkpt lat="43.4630516" lon="11.2535568"><ele>364.00000000000006</ele><time>2026-04-18T07:59:36.235Z</time></trkpt><trkpt lat="43.4630935" lon="11.2536371"><ele>363.0</ele><time>2026-04-18T07:59:41.247Z</time></trkpt><trkpt lat="43.463159" lon="11.2536964"><ele>362.0</ele><time>2026-04-18T07:59:45.236Z</time></trkpt><trkpt lat="43.4631809" lon="11.2537893"><ele>361.0</ele><time>2026-04-18T07:59:50.243Z</time></trkpt><trkpt lat="43.4631941" lon="11.2538804"><ele>360.0</ele><time>2026-04-18T07:59:56.239Z</time></trkpt><trkpt lat="43.4632065" lon="11.25398"><ele>359.00000000000006</ele><time>2026-04-18T08:00:02.247Z</time></trkpt><trkpt lat="43.463219" lon="11.2540673"><ele>358.0</ele><time>2026-04-18T08:00:12.314Z</time></trkpt><trkpt lat="43.4632292" lon="11.2541726"><ele>358.00000000000006</ele><time>2026-04-18T08:00:16.238Z</time></trkpt><trkpt lat="43.4632229" lon="11.2542673"><ele>358.0</ele><time>2026-04-18T08:00:20.222Z</time></trkpt><trkpt lat="43.463221" lon="11.2543617"><ele>358.0</ele><time>2026-04-18T08:00:24.232Z</time></trkpt><trkpt lat="43.4632312" lon="11.2544494"><ele>358.0</ele><time>2026-04-18T08:00:29.308Z</time></trkpt><trkpt lat="43.4632164" lon="11.2545463"><ele>358.0</ele><time>2026-04-18T08:00:37.314Z</time></trkpt><trkpt lat="43.4632011" lon="11.2546354"><ele>358.00000000000006</ele><time>2026-04-18T08:00:43.229Z</time></trkpt><trkpt lat="43.4631873" lon="11.2547254"><ele>358.0</ele><time>2026-04-18T08:00:51.253Z</time></trkpt><trkpt lat="43.4631781" lon="11.254845"><ele>358.8571428571429</ele><time>2026-04-18T08:01:02.25Z</time></trkpt><trkpt lat="43.4631743" lon="11.2549335"><ele>359.7142857142857</ele><time>2026-04-18T08:01:06.25Z</time></trkpt><trkpt lat="43.4631673" lon="11.2550315"><ele>360.57142857142856</ele><time>2026-04-18T08:01:13.292Z</time></trkpt><trkpt lat="43.4631709" lon="11.2551191"><ele>361.42857142857144</ele><time>2026-04-18T08:01:18.248Z</time></trkpt><trkpt lat="43.463165" lon="11.255217"><ele>362.2857142857143</ele><time>2026-04-18T08:01:27.238Z</time></trkpt><trkpt lat="43.4631496" lon="11.2553418"><ele>363.14285714285717</ele><time>2026-04-18T08:01:36.244Z</time></trkpt><trkpt lat="43.463146" lon="11.2554328"><ele>364.0</ele><time>2026-04-18T08:01:40.224Z</time></trkpt><trkpt lat="43.4631364" lon="11.2555617"><ele>365.66666666666663</ele><time>2026-04-18T08:01:51.236Z</time></trkpt><trkpt lat="43.4631379" lon="11.2557063"><ele>367.3333333333333</ele><time>2026-04-18T08:02:19.314Z</time></trkpt><trkpt lat="43.463189" lon="11.2557872"><ele>369.0</ele><time>2026-04-18T08:02:21.239Z</time></trkpt><trkpt lat="43.463166" lon="11.2558804"><ele>370.6666666666667</ele><time>2026-04-18T08:02:23.324Z</time></trkpt><trkpt lat="43.4631578" lon="11.2559666"><ele>372.33333333333337</ele><time>2026-04-18T08:02:25.244Z</time></trkpt><trkpt lat="43.4631264" lon="11.256062"><ele>374.0</ele><time>2026-04-18T08:02:28.31Z</time></trkpt><trkpt lat="43.4631101" lon="11.2561722"><ele>374.0</ele><time>2026-04-18T08:02:33.31Z</time></trkpt><trkpt lat="43.4630838" lon="11.2562596"><ele>374.0</ele><time>2026-04-18T08:02:38.244Z</time></trkpt><trkpt lat="43.4630537" lon="11.2563666"><ele>374.0</ele><time>2026-04-18T08:02:44.253Z</time></trkpt><trkpt lat="43.4630433" lon="11.256455"><ele>374.0</ele><time>2026-04-18T08:02:51.247Z</time></trkpt><trkpt lat="43.4630209" lon="11.256557"><ele>374.0</ele><time>2026-04-18T08:02:59.31Z</time></trkpt><trkpt lat="43.462958" lon="11.2565309"><ele>374.0</ele><time>2026-04-18T08:03:01.239Z</time></trkpt><trkpt lat="43.462937" lon="11.2566178"><ele>374.0</ele><time>2026-04-18T08:03:10.222Z</time></trkpt><trkpt lat="43.4629366" lon="11.2567084"><ele>379.1428571428571</ele><time>2026-04-18T08:03:16.237Z</time></trkpt><trkpt lat="43.4628853" lon="11.256766"><ele>384.28571428571433</ele><time>2026-04-18T08:03:19.311Z</time></trkpt><trkpt lat="43.4628356" lon="11.2568275"><ele>389.42857142857144</ele><time>2026-04-18T08:03:23.248Z</time></trkpt><trkpt lat="43.462817" lon="11.2569123"><ele>394.57142857142856</ele><time>2026-04-18T08:03:30.253Z</time></trkpt><trkpt lat="43.4627964" lon="11.2569963"><ele>399.71428571428567</ele><time>2026-04-18T08:03:35.225Z</time></trkpt><trkpt lat="43.4627555" lon="11.2570982"><ele>404.8571428571429</ele><time>2026-04-18T08:03:53.297Z</time></trkpt><trkpt lat="43.4627298" lon="11.2571783"><ele>410.0</ele><time>2026-04-18T08:03:56.251Z</time></trkpt><trkpt lat="43.4626984" lon="11.2572576"><ele>409.66666666666663</ele><time>2026-04-18T08:04:00.242Z</time></trkpt><trkpt lat="43.4626826" lon="11.2573622"><ele>409.3333333333333</ele><time>2026-04-18T08:04:08.237Z</time></trkpt><trkpt lat="43.4626344" lon="11.2574386"><ele>409.0</ele><time>2026-04-18T08:04:12.246Z</time></trkpt><trkpt lat="43.4625999" lon="11.2575292"><ele>408.66666666666663</ele><time>2026-04-18T08:04:23.229Z</time></trkpt><trkpt lat="43.4625674" lon="11.2576114"><ele>408.3333333333333</ele><time>2026-04-18T08:04:27.235Z</time></trkpt><trkpt lat="43.4625474" lon="11.2577175"><ele>408.0</ele><time>2026-04-18T08:04:31.257Z</time></trkpt><trkpt lat="43.462546" lon="11.2578274"><ele>408.0</ele><time>2026-04-18T08:04:34.306Z</time></trkpt><trkpt lat="43.4625745" lon="11.257915"><ele>408.0</ele><time>2026-04-18T08:04:40.249Z</time></trkpt><trkpt lat="43.4625493" lon="11.2580066"><ele>408.0</ele><time>2026-04-18T08:04:45.254Z</time></trkpt><trkpt lat="43.4625266" lon="11.2581025"><ele>408.0</ele><time>2026-04-18T08:04:49.308Z</time></trkpt><trkpt lat="43.4625241" lon="11.2582106"><ele>408.0</ele><time>2026-04-18T08:04:54.237Z</time></trkpt><trkpt lat="43.4625011" lon="11.258303"><ele>408.0</ele><time>2026-04-18T08:05:00.236Z</time></trkpt><trkpt lat="43.4624659" lon="11.2583956"><ele>408.0</ele><time>2026-04-18T08:05:03.235Z</time></trkpt><trkpt lat="43.4624415" lon="11.2585008"><ele>407.3333333333333</ele><time>2026-04-18T08:05:07.318Z</time></trkpt><trkpt lat="43.462389" lon="11.2585899"><ele>406.66666666666663</ele><time>2026-04-18T08:05:10.242Z</time></trkpt><trkpt lat="43.4623171" lon="11.258648"><ele>406.0</ele><time>2026-04-18T08:05:12.306Z</time></trkpt><trkpt lat="43.4622655" lon="11.2586984"><ele>405.3333333333333</ele><time>2026-04-18T08:05:19.312Z</time></trkpt><trkpt lat="43.4623388" lon="11.2587722"><ele>404.66666666666663</ele><time>2026-04-18T08:08:23.288Z</time></trkpt><trkpt lat="43.4622547" lon="11.2588374"><ele>404.0</ele><time>2026-04-18T08:08:28.222Z</time></trkpt><trkpt lat="43.4623035" lon="11.2587787"><ele>404.0</ele><time>2026-04-18T08:08:57.279Z</time></trkpt><trkpt lat="43.4623547" lon="11.2587271"><ele>404.0</ele><time>2026-04-18T08:09:03.282Z</time></trkpt><trkpt lat="43.4622898" lon="11.2587686"><ele>404.0</ele><time>2026-04-18T08:09:35.204Z</time></trkpt><trkpt lat="43.4622317" lon="11.2587305"><ele>404.0</ele><time>2026-04-18T08:09:44.294Z</time></trkpt><trkpt lat="43.4622807" lon="11.2587919"><ele>404.0</ele><time>2026-04-18T08:10:20.224Z</time></trkpt><trkpt lat="43.4623375" lon="11.2588404"><ele>404.0</ele><time>2026-04-18T08:11:15.201Z</time></trkpt><trkpt lat="43.4623158" lon="11.2589219"><ele>404.0</ele><time>2026-04-18T08:12:05.222Z</time></trkpt><trkpt lat="43.462283" lon="11.2590006"><ele>403.3333333333333</ele><time>2026-04-18T08:12:09.224Z</time></trkpt><trkpt lat="43.4623005" lon="11.2591487"><ele>402.66666666666663</ele><time>2026-04-18T08:12:12.198Z</time></trkpt><trkpt lat="43.4623238" lon="11.259242"><ele>402.0</ele><time>2026-04-18T08:12:14.288Z</time></trkpt><trkpt lat="43.4623596" lon="11.2593603"><ele>401.33333333333337</ele><time>2026-04-18T08:12:16.232Z</time></trkpt><trkpt lat="43.4623554" lon="11.2594543"><ele>400.6666666666667</ele><time>2026-04-18T08:12:17.215Z</time></trkpt><trkpt lat="43.462376" lon="11.2595721"><ele>400.0</ele><time>2026-04-18T08:12:19.297Z</time></trkpt><trkpt lat="43.4623925" lon="11.2596876"><ele>401.14285714285717</ele><time>2026-04-18T08:12:22.232Z</time></trkpt><trkpt lat="43.462407" lon="11.2597936"><ele>402.2857142857143</ele><time>2026-04-18T08:12:25.218Z</time></trkpt><trkpt lat="43.46243" lon="11.2598748"><ele>403.42857142857144</ele><time>2026-04-18T08:12:28.299Z</time></trkpt><trkpt lat="43.4624592" lon="11.2599646"><ele>404.57142857142856</ele><time>2026-04-18T08:12:32.22Z</time></trkpt><trkpt lat="43.4624977" lon="11.2600418"><ele>405.7142857142857</ele><time>2026-04-18T08:12:36.22Z</time></trkpt><trkpt lat="43.4625528" lon="11.2601026"><ele>406.8571428571429</ele><time>2026-04-18T08:12:39.227Z</time></trkpt><trkpt lat="43.4625702" lon="11.2601869"><ele>408.0</ele><time>2026-04-18T08:12:45.211Z</time></trkpt><trkpt lat="43.4625567" lon="11.2602894"><ele>408.0</ele><time>2026-04-18T08:12:51.216Z</time></trkpt><trkpt lat="43.462587" lon="11.2603728"><ele>408.0</ele><time>2026-04-18T08:12:59.217Z</time></trkpt><trkpt lat="43.4626109" lon="11.2604718"><ele>408.0</ele><time>2026-04-18T08:13:06.238Z</time></trkpt><trkpt lat="43.4626485" lon="11.2605547"><ele>408.0</ele><time>2026-04-18T08:13:15.241Z</time></trkpt><trkpt lat="43.4626802" lon="11.2606392"><ele>408.0</ele><time>2026-04-18T08:13:22.227Z</time></trkpt><trkpt lat="43.4626945" lon="11.2607475"><ele>408.0</ele><time>2026-04-18T08:13:29.287Z</time></trkpt><trkpt lat="43.4626937" lon="11.2608386"><ele>408.0</ele><time>2026-04-18T08:13:36.222Z</time></trkpt><trkpt lat="43.4627006" lon="11.2609318"><ele>410.0</ele><time>2026-04-18T08:13:41.228Z</time></trkpt><trkpt lat="43.4626805" lon="11.2610348"><ele>412.0</ele><time>2026-04-18T08:13:49.299Z</time></trkpt><trkpt lat="43.4626494" lon="11.2611307"><ele>414.0</ele><time>2026-04-18T08:13:53.221Z</time></trkpt><trkpt lat="43.4625906" lon="11.261181"><ele>416.0</ele><time>2026-04-18T08:14:00.228Z</time></trkpt><trkpt lat="43.4625532" lon="11.2612528"><ele>418.0</ele><time>2026-04-18T08:14:04.237Z</time></trkpt><trkpt lat="43.462515" lon="11.2613389"><ele>420.0</ele><time>2026-04-18T08:14:14.223Z</time></trkpt><trkpt lat="43.4624109" lon="11.261362"><ele>420.0</ele><time>2026-04-18T08:14:20.216Z</time></trkpt><trkpt lat="43.4623374" lon="11.2613893"><ele>420.0</ele><time>2026-04-18T08:14:22.217Z</time></trkpt><trkpt lat="43.4622672" lon="11.2614147"><ele>420.0</ele><time>2026-04-18T08:14:26.221Z</time></trkpt><trkpt lat="43.4621942" lon="11.2614165"><ele>420.0</ele><time>2026-04-18T08:14:37.237Z</time></trkpt><trkpt lat="43.4621262" lon="11.2614348"><ele>420.0</ele><time>2026-04-18T08:14:41.22Z</time></trkpt><trkpt lat="43.4620553" lon="11.2614443"><ele>420.0</ele><time>2026-04-18T08:14:46.214Z</time></trkpt><trkpt lat="43.4619781" lon="11.2614411"><ele>420.0</ele><time>2026-04-18T08:14:51.213Z</time></trkpt><trkpt lat="43.461912" lon="11.2614565"><ele>421.7142857142857</ele><time>2026-04-18T08:14:55.222Z</time></trkpt><trkpt lat="43.4618461" lon="11.2614617"><ele>423.42857142857144</ele><time>2026-04-18T08:15:00.229Z</time></trkpt><trkpt lat="43.4617792" lon="11.2614794"><ele>425.1428571428571</ele><time>2026-04-18T08:15:05.218Z</time></trkpt><trkpt lat="43.461708" lon="11.2614697"><ele>426.8571428571429</ele><time>2026-04-18T08:15:12.221Z</time></trkpt><trkpt lat="43.4616307" lon="11.2614912"><ele>428.57142857142856</ele><time>2026-04-18T08:15:17.206Z</time></trkpt><trkpt lat="43.4615716" lon="11.2615451"><ele>430.2857142857143</ele><time>2026-04-18T08:15:23.222Z</time></trkpt><trkpt lat="43.4615269" lon="11.261607"><ele>432.0</ele><time>2026-04-18T08:15:26.209Z</time></trkpt><trkpt lat="43.4614739" lon="11.261685"><ele>432.0</ele><time>2026-04-18T08:15:30.201Z</time></trkpt><trkpt lat="43.4614233" lon="11.2617708"><ele>432.0</ele><time>2026-04-18T08:15:34.219Z</time></trkpt><trkpt lat="43.4614054" lon="11.2618627"><ele>432.0</ele><time>2026-04-18T08:15:37.219Z</time></trkpt><trkpt lat="43.4613707" lon="11.2619549"><ele>432.0</ele><time>2026-04-18T08:15:41.208Z</time></trkpt><trkpt lat="43.4613872" lon="11.2620609"><ele>432.0</ele><time>2026-04-18T08:15:45.216Z</time></trkpt><trkpt lat="43.4613968" lon="11.2621645"><ele>432.0</ele><time>2026-04-18T08:15:48.317Z</time></trkpt><trkpt lat="43.4614051" lon="11.262261"><ele>433.1428571428571</ele><time>2026-04-18T08:15:52.228Z</time></trkpt><trkpt lat="43.4614315" lon="11.2623434"><ele>434.2857142857143</ele><time>2026-04-18T08:15:56.217Z</time></trkpt><trkpt lat="43.4614542" lon="11.2624346"><ele>435.42857142857144</ele><time>2026-04-18T08:16:00.219Z</time></trkpt><trkpt lat="43.4614694" lon="11.2625217"><ele>436.57142857142856</ele><time>2026-04-18T08:16:04.275Z</time></trkpt><trkpt lat="43.4615018" lon="11.2626112"><ele>437.7142857142857</ele><time>2026-04-18T08:16:08.211Z</time></trkpt><trkpt lat="43.4615233" lon="11.2627023"><ele>438.85714285714283</ele><time>2026-04-18T08:16:12.213Z</time></trkpt><trkpt lat="43.4615391" lon="11.2628037"><ele>440.0</ele><time>2026-04-18T08:16:16.213Z</time></trkpt><trkpt lat="43.4615673" lon="11.2629047"><ele>439.99999999999994</ele><time>2026-04-18T08:16:20.219Z</time></trkpt><trkpt lat="43.4615987" lon="11.2629873"><ele>440.0</ele><time>2026-04-18T08:16:24.294Z</time></trkpt><trkpt lat="43.4616251" lon="11.2630724"><ele>440.0</ele><time>2026-04-18T08:16:28.213Z</time></trkpt><trkpt lat="43.4616567" lon="11.2631644"><ele>440.0</ele><time>2026-04-18T08:16:32.227Z</time></trkpt><trkpt lat="43.4616945" lon="11.2632449"><ele>440.0</ele><time>2026-04-18T08:16:37.228Z</time></trkpt><trkpt lat="43.4617342" lon="11.2633282"><ele>439.99999999999994</ele><time>2026-04-18T08:16:40.215Z</time></trkpt><trkpt lat="43.4617924" lon="11.2633827"><ele>440.0</ele><time>2026-04-18T08:16:44.221Z</time></trkpt><trkpt lat="43.4618464" lon="11.2634482"><ele>440.3333333333333</ele><time>2026-04-18T08:16:49.291Z</time></trkpt><trkpt lat="43.4618574" lon="11.2635523"><ele>440.66666666666663</ele><time>2026-04-18T08:16:52.225Z</time></trkpt><trkpt lat="43.4618931" lon="11.2636389"><ele>441.0</ele><time>2026-04-18T08:16:56.216Z</time></trkpt><trkpt lat="43.4619265" lon="11.2637135"><ele>441.33333333333337</ele><time>2026-04-18T08:17:00.21Z</time></trkpt><trkpt lat="43.4619636" lon="11.2637976"><ele>441.6666666666667</ele><time>2026-04-18T08:17:05.215Z</time></trkpt><trkpt lat="43.462026" lon="11.2638848"><ele>442.0</ele><time>2026-04-18T08:17:12.231Z</time></trkpt><trkpt lat="43.462068" lon="11.2639827"><ele>443.5714285714286</ele><time>2026-04-18T08:17:16.209Z</time></trkpt><trkpt lat="43.4621281" lon="11.2640172"><ele>445.1428571428571</ele><time>2026-04-18T08:17:20.19Z</time></trkpt><trkpt lat="43.4621815" lon="11.2640658"><ele>446.71428571428567</ele><time>2026-04-18T08:17:24.207Z</time></trkpt><trkpt lat="43.4622386" lon="11.2641518"><ele>448.2857142857143</ele><time>2026-04-18T08:17:33.205Z</time></trkpt><trkpt lat="43.4622951" lon="11.2642327"><ele>449.85714285714283</ele><time>2026-04-18T08:17:36.213Z</time></trkpt><trkpt lat="43.4623401" lon="11.2643062"><ele>451.4285714285714</ele><time>2026-04-18T08:17:39.287Z</time></trkpt><trkpt lat="43.4623969" lon="11.2643833"><ele>452.99999999999994</ele><time>2026-04-18T08:17:43.22Z</time></trkpt><trkpt lat="43.4624459" lon="11.2644554"><ele>453.0</ele><time>2026-04-18T08:17:47.276Z</time></trkpt><trkpt lat="43.462486" lon="11.2645473"><ele>453.0</ele><time>2026-04-18T08:17:52.231Z</time></trkpt><trkpt lat="43.46253" lon="11.2646144"><ele>453.0</ele><time>2026-04-18T08:17:55.196Z</time></trkpt><trkpt lat="43.4625614" lon="11.2647163"><ele>453.0</ele><time>2026-04-18T08:17:59.3Z</time></trkpt><trkpt lat="43.4625763" lon="11.2648333"><ele>453.0</ele><time>2026-04-18T08:18:03.276Z</time></trkpt><trkpt lat="43.4625902" lon="11.2649239"><ele>453.0</ele><time>2026-04-18T08:18:07.217Z</time></trkpt><trkpt lat="43.4625951" lon="11.2650255"><ele>453.5714285714285</ele><time>2026-04-18T08:18:12.236Z</time></trkpt><trkpt lat="43.4625557" lon="11.2650971"><ele>454.1428571428571</ele><time>2026-04-18T08:18:17.227Z</time></trkpt><trkpt lat="43.4625245" lon="11.2651938"><ele>454.7142857142857</ele><time>2026-04-18T08:18:20.217Z</time></trkpt><trkpt lat="43.4625576" lon="11.2652766"><ele>455.2857142857143</ele><time>2026-04-18T08:18:23.225Z</time></trkpt><trkpt lat="43.4625894" lon="11.2653727"><ele>455.8571428571429</ele><time>2026-04-18T08:18:27.234Z</time></trkpt><trkpt lat="43.4626053" lon="11.2654642"><ele>456.4285714285715</ele><time>2026-04-18T08:18:31.219Z</time></trkpt><trkpt lat="43.462621" lon="11.265551"><ele>457.00000000000006</ele><time>2026-04-18T08:18:35.222Z</time></trkpt><trkpt lat="43.4626373" lon="11.2656377"><ele>458.50000000000006</ele><time>2026-04-18T08:18:40.228Z</time></trkpt><trkpt lat="43.4625635" lon="11.2657925"><ele>460.0</ele><time>2026-04-18T08:18:47.211Z</time></trkpt><trkpt lat="43.4626246" lon="11.2658214"><ele>461.5</ele><time>2026-04-18T08:18:51.215Z</time></trkpt><trkpt lat="43.4626124" lon="11.2659087"><ele>463.0</ele><time>2026-04-18T08:18:57.222Z</time></trkpt><trkpt lat="43.4626002" lon="11.2660054"><ele>464.50000000000006</ele><time>2026-04-18T08:19:02.206Z</time></trkpt><trkpt lat="43.4626231" lon="11.2660964"><ele>466.0</ele><time>2026-04-18T08:19:07.222Z</time></trkpt><trkpt lat="43.4626266" lon="11.2661912"><ele>466.00000000000006</ele><time>2026-04-18T08:19:12.222Z</time></trkpt><trkpt lat="43.4626028" lon="11.2662796"><ele>466.0</ele><time>2026-04-18T08:19:18.215Z</time></trkpt><trkpt lat="43.4625937" lon="11.2663733"><ele>466.0</ele><time>2026-04-18T08:19:24.304Z</time></trkpt><trkpt lat="43.46258" lon="11.2664618"><ele>466.0</ele><time>2026-04-18T08:19:29.209Z</time></trkpt><trkpt lat="43.4624479" lon="11.2665026"><ele>466.00000000000006</ele><time>2026-04-18T08:19:37.203Z</time></trkpt><trkpt lat="43.4625101" lon="11.2666154"><ele>466.0</ele><time>2026-04-18T08:19:41.216Z</time></trkpt><trkpt lat="43.4625222" lon="11.2667224"><ele>467.0</ele><time>2026-04-18T08:19:51.217Z</time></trkpt><trkpt lat="43.4625098" lon="11.2668363"><ele>468.0</ele><time>2026-04-18T08:19:59.215Z</time></trkpt><trkpt lat="43.4625095" lon="11.2669358"><ele>469.0</ele><time>2026-04-18T08:20:03.211Z</time></trkpt><trkpt lat="43.4625089" lon="11.2670351"><ele>470.0</ele><time>2026-04-18T08:20:08.198Z</time></trkpt><trkpt lat="43.4625155" lon="11.2671254"><ele>471.0</ele><time>2026-04-18T08:20:14.228Z</time></trkpt><trkpt lat="43.4625218" lon="11.2672248"><ele>472.0</ele><time>2026-04-18T08:20:19.279Z</time></trkpt><trkpt lat="43.462543" lon="11.267313"><ele>473.0</ele><time>2026-04-18T08:20:24.308Z</time></trkpt><trkpt lat="43.4625632" lon="11.2674064"><ele>474.0</ele><time>2026-04-18T08:20:32.224Z</time></trkpt><trkpt lat="43.4626129" lon="11.2674787"><ele>475.0</ele><time>2026-04-18T08:20:36.219Z</time></trkpt><trkpt lat="43.4626154" lon="11.2675736"><ele>476.0</ele><time>2026-04-18T08:20:40.296Z</time></trkpt><trkpt lat="43.4626326" lon="11.2676574"><ele>477.0</ele><time>2026-04-18T08:20:44.227Z</time></trkpt><trkpt lat="43.4626848" lon="11.2677292"><ele>478.0</ele><time>2026-04-18T08:20:49.294Z</time></trkpt><trkpt lat="43.4627311" lon="11.2677935"><ele>479.0</ele><time>2026-04-18T08:20:54.192Z</time></trkpt><trkpt lat="43.4627752" lon="11.2678635"><ele>480.0</ele><time>2026-04-18T08:20:59.297Z</time></trkpt><trkpt lat="43.4628506" lon="11.2678727"><ele>480.0</ele><time>2026-04-18T08:21:03.287Z</time></trkpt><trkpt lat="43.4628832" lon="11.2679512"><ele>480.0</ele><time>2026-04-18T08:21:07.215Z</time></trkpt><trkpt lat="43.4629341" lon="11.2680115"><ele>480.0</ele><time>2026-04-18T08:21:12.224Z</time></trkpt><trkpt lat="43.462979" lon="11.2680799"><ele>480.0</ele><time>2026-04-18T08:21:16.222Z</time></trkpt><trkpt lat="43.4630452" lon="11.2681628"><ele>480.0</ele><time>2026-04-18T08:21:20.217Z</time></trkpt><trkpt lat="43.4630921" lon="11.2682394"><ele>480.0</ele><time>2026-04-18T08:21:23.241Z</time></trkpt><trkpt lat="43.4631293" lon="11.2683161"><ele>480.0</ele><time>2026-04-18T08:21:27.228Z</time></trkpt><trkpt lat="43.4631721" lon="11.2684037"><ele>480.57142857142856</ele><time>2026-04-18T08:21:31.21Z</time></trkpt><trkpt lat="43.4632294" lon="11.2684799"><ele>481.1428571428571</ele><time>2026-04-18T08:21:35.2Z</time></trkpt><trkpt lat="43.4632692" lon="11.268558"><ele>481.71428571428567</ele><time>2026-04-18T08:21:38.217Z</time></trkpt><trkpt lat="43.4633081" lon="11.2686315"><ele>482.2857142857143</ele><time>2026-04-18T08:21:41.232Z</time></trkpt><trkpt lat="43.4633752" lon="11.2687027"><ele>482.8571428571428</ele><time>2026-04-18T08:21:48.312Z</time></trkpt><trkpt lat="43.4634415" lon="11.2687607"><ele>483.4285714285714</ele><time>2026-04-18T08:21:51.235Z</time></trkpt><trkpt lat="43.4634925" lon="11.2688289"><ele>484.0</ele><time>2026-04-18T08:21:54.244Z</time></trkpt><trkpt lat="43.4634774" lon="11.2689285"><ele>483.6666666666667</ele><time>2026-04-18T08:21:57.245Z</time></trkpt><trkpt lat="43.4635407" lon="11.2690013"><ele>483.33333333333337</ele><time>2026-04-18T08:22:00.231Z</time></trkpt><trkpt lat="43.4636112" lon="11.2690703"><ele>483.0</ele><time>2026-04-18T08:22:02.255Z</time></trkpt><trkpt lat="43.4636816" lon="11.2691403"><ele>482.66666666666663</ele><time>2026-04-18T08:22:04.309Z</time></trkpt><trkpt lat="43.4637848" lon="11.2692325"><ele>482.3333333333333</ele><time>2026-04-18T08:22:06.239Z</time></trkpt><trkpt lat="43.4638446" lon="11.269284"><ele>482.0</ele><time>2026-04-18T08:22:07.233Z</time></trkpt><trkpt lat="43.463906" lon="11.2693412"><ele>481.49999999999994</ele><time>2026-04-18T08:22:08.234Z</time></trkpt><trkpt lat="43.4639731" lon="11.2694052"><ele>481.0</ele><time>2026-04-18T08:22:09.242Z</time></trkpt><trkpt lat="43.464039" lon="11.2694674"><ele>480.5</ele><time>2026-04-18T08:22:10.245Z</time></trkpt><trkpt lat="43.4641084" lon="11.2695258"><ele>480.0</ele><time>2026-04-18T08:22:11.251Z</time></trkpt><trkpt lat="43.4641771" lon="11.2695805"><ele>479.49999999999994</ele><time>2026-04-18T08:22:12.316Z</time></trkpt><trkpt lat="43.4642451" lon="11.2696355"><ele>479.0</ele><time>2026-04-18T08:22:13.312Z</time></trkpt><trkpt lat="43.4643085" lon="11.2696917"><ele>478.99999999999994</ele><time>2026-04-18T08:22:14.23Z</time></trkpt><trkpt lat="43.4643665" lon="11.2697433"><ele>479.0</ele><time>2026-04-18T08:22:15.231Z</time></trkpt><trkpt lat="43.464459" lon="11.2698317"><ele>479.0</ele><time>2026-04-18T08:22:17.247Z</time></trkpt><trkpt lat="43.4645183" lon="11.2698919"><ele>479.0</ele><time>2026-04-18T08:22:19.317Z</time></trkpt><trkpt lat="43.4645763" lon="11.2699525"><ele>478.99999999999994</ele><time>2026-04-18T08:22:22.257Z</time></trkpt><trkpt lat="43.4646119" lon="11.2700349"><ele>479.0</ele><time>2026-04-18T08:22:27.238Z</time></trkpt><trkpt lat="43.4646336" lon="11.2701164"><ele>480.42857142857144</ele><time>2026-04-18T08:22:31.246Z</time></trkpt><trkpt lat="43.4646273" lon="11.2702146"><ele>481.8571428571429</ele><time>2026-04-18T08:22:36.241Z</time></trkpt><trkpt lat="43.464645" lon="11.2703034"><ele>483.28571428571433</ele><time>2026-04-18T08:22:41.245Z</time></trkpt><trkpt lat="43.464681" lon="11.2703877"><ele>484.7142857142857</ele><time>2026-04-18T08:22:45.226Z</time></trkpt><trkpt lat="43.4647256" lon="11.2704744"><ele>486.1428571428572</ele><time>2026-04-18T08:22:49.296Z</time></trkpt><trkpt lat="43.4647614" lon="11.2705487"><ele>487.5714285714286</ele><time>2026-04-18T08:22:54.241Z</time></trkpt><trkpt lat="43.4648035" lon="11.2706179"><ele>489.0</ele><time>2026-04-18T08:22:57.235Z</time></trkpt><trkpt lat="43.4648571" lon="11.2706926"><ele>489.6666666666667</ele><time>2026-04-18T08:23:02.236Z</time></trkpt><trkpt lat="43.4649289" lon="11.2707291"><ele>490.33333333333337</ele><time>2026-04-18T08:23:10.298Z</time></trkpt><trkpt lat="43.4650026" lon="11.2707656"><ele>491.0</ele><time>2026-04-18T08:23:16.245Z</time></trkpt><trkpt lat="43.4650676" lon="11.2707771"><ele>491.6666666666667</ele><time>2026-04-18T08:23:20.239Z</time></trkpt><trkpt lat="43.4651475" lon="11.2707211"><ele>492.33333333333337</ele><time>2026-04-18T08:23:30.229Z</time></trkpt><trkpt lat="43.4652137" lon="11.2706804"><ele>493.0</ele><time>2026-04-18T08:23:34.246Z</time></trkpt><trkpt lat="43.4652905" lon="11.2706841"><ele>493.00000000000006</ele><time>2026-04-18T08:23:46.231Z</time></trkpt><trkpt lat="43.465362" lon="11.2707062"><ele>493.0</ele><time>2026-04-18T08:23:51.246Z</time></trkpt><trkpt lat="43.4654299" lon="11.2707338"><ele>493.0</ele><time>2026-04-18T08:23:57.235Z</time></trkpt><trkpt lat="43.4655069" lon="11.27074"><ele>493.0</ele><time>2026-04-18T08:24:01.234Z</time></trkpt><trkpt lat="43.4655916" lon="11.2707759"><ele>493.00000000000006</ele><time>2026-04-18T08:24:08.238Z</time></trkpt><trkpt lat="43.4656701" lon="11.2708005"><ele>493.0</ele><time>2026-04-18T08:24:13.323Z</time></trkpt><trkpt lat="43.4657342" lon="11.2708217"><ele>494.50000000000006</ele><time>2026-04-18T08:24:17.249Z</time></trkpt><trkpt lat="43.4657957" lon="11.2708419"><ele>496.0</ele><time>2026-04-18T08:24:21.242Z</time></trkpt><trkpt lat="43.4658575" lon="11.270863"><ele>497.5</ele><time>2026-04-18T08:24:25.242Z</time></trkpt><trkpt lat="43.465928" lon="11.2708933"><ele>499.0</ele><time>2026-04-18T08:24:30.232Z</time></trkpt><trkpt lat="43.4660027" lon="11.2709191"><ele>500.50000000000006</ele><time>2026-04-18T08:24:34.304Z</time></trkpt><trkpt lat="43.4660943" lon="11.2709548"><ele>502.0</ele><time>2026-04-18T08:24:37.234Z</time></trkpt><trkpt lat="43.4661994" lon="11.2710041"><ele>502.0</ele><time>2026-04-18T08:24:39.304Z</time></trkpt><trkpt lat="43.4662568" lon="11.2710511"><ele>502.00000000000006</ele><time>2026-04-18T08:24:40.314Z</time></trkpt><trkpt lat="43.4663597" lon="11.2711662"><ele>502.00000000000006</ele><time>2026-04-18T08:24:42.241Z</time></trkpt><trkpt lat="43.466415" lon="11.2712315"><ele>502.0</ele><time>2026-04-18T08:24:43.251Z</time></trkpt><trkpt lat="43.4665023" lon="11.2713516"><ele>502.0</ele><time>2026-04-18T08:24:45.24Z</time></trkpt><trkpt lat="43.4665499" lon="11.2714188"><ele>502.40000000000003</ele><time>2026-04-18T08:24:46.244Z</time></trkpt><trkpt lat="43.4666266" lon="11.2715515"><ele>502.80000000000007</ele><time>2026-04-18T08:24:48.322Z</time></trkpt><trkpt lat="43.4666785" lon="11.2716071"><ele>503.2</ele><time>2026-04-18T08:24:49.32Z</time></trkpt><trkpt lat="43.4667551" lon="11.2717138"><ele>503.6</ele><time>2026-04-18T08:24:51.234Z</time></trkpt><trkpt lat="43.4668308" lon="11.2717998"><ele>504.0</ele><time>2026-04-18T08:24:53.259Z</time></trkpt><trkpt lat="43.466884" lon="11.2718842"><ele>504.0</ele><time>2026-04-18T08:24:55.231Z</time></trkpt><trkpt lat="43.4669269" lon="11.271958"><ele>504.0</ele><time>2026-04-18T08:24:57.23Z</time></trkpt><trkpt lat="43.4669748" lon="11.2720183"><ele>504.0</ele><time>2026-04-18T08:24:59.296Z</time></trkpt><trkpt lat="43.4670117" lon="11.2720914"><ele>504.0</ele><time>2026-04-18T08:25:01.236Z</time></trkpt><trkpt lat="43.4670826" lon="11.2721532"><ele>504.0</ele><time>2026-04-18T08:25:04.236Z</time></trkpt><trkpt lat="43.4671474" lon="11.2722206"><ele>504.0</ele><time>2026-04-18T08:25:07.229Z</time></trkpt><trkpt lat="43.4672162" lon="11.272302"><ele>504.42857142857144</ele><time>2026-04-18T08:25:10.237Z</time></trkpt><trkpt lat="43.4672719" lon="11.2723568"><ele>504.8571428571429</ele><time>2026-04-18T08:25:12.244Z</time></trkpt><trkpt lat="43.4673296" lon="11.2724103"><ele>505.2857142857143</ele><time>2026-04-18T08:25:14.224Z</time></trkpt><trkpt lat="43.467391" lon="11.2724534"><ele>505.7142857142857</ele><time>2026-04-18T08:25:16.239Z</time></trkpt><trkpt lat="43.4674507" lon="11.2724842"><ele>506.14285714285717</ele><time>2026-04-18T08:25:18.333Z</time></trkpt><trkpt lat="43.4675121" lon="11.2725058"><ele>506.57142857142856</ele><time>2026-04-18T08:25:20.242Z</time></trkpt><trkpt lat="43.4676021" lon="11.2725339"><ele>507.0</ele><time>2026-04-18T08:25:23.218Z</time></trkpt><trkpt lat="43.4676777" lon="11.272542"><ele>507.0</ele><time>2026-04-18T08:25:26.249Z</time></trkpt><trkpt lat="43.4677448" lon="11.2725578"><ele>507.0</ele><time>2026-04-18T08:25:29.237Z</time></trkpt><trkpt lat="43.4678093" lon="11.2725744"><ele>507.0</ele><time>2026-04-18T08:25:32.248Z</time></trkpt><trkpt lat="43.4678743" lon="11.2725933"><ele>507.0</ele><time>2026-04-18T08:25:36.245Z</time></trkpt><trkpt lat="43.4679469" lon="11.2726145"><ele>507.0</ele><time>2026-04-18T08:25:40.26Z</time></trkpt><trkpt lat="43.4680165" lon="11.2726439"><ele>507.0</ele><time>2026-04-18T08:25:44.311Z</time></trkpt><trkpt lat="43.4680687" lon="11.2726981"><ele>507.0</ele><time>2026-04-18T08:25:49.247Z</time></trkpt><trkpt lat="43.4681344" lon="11.2727258"><ele>507.2857142857143</ele><time>2026-04-18T08:25:52.238Z</time></trkpt><trkpt lat="43.4682103" lon="11.2727433"><ele>507.57142857142856</ele><time>2026-04-18T08:25:57.233Z</time></trkpt><trkpt lat="43.4682687" lon="11.2728004"><ele>507.85714285714283</ele><time>2026-04-18T08:26:01.233Z</time></trkpt><trkpt lat="43.4683286" lon="11.2728347"><ele>508.1428571428571</ele><time>2026-04-18T08:26:04.307Z</time></trkpt><trkpt lat="43.4683979" lon="11.2728635"><ele>508.42857142857144</ele><time>2026-04-18T08:26:07.237Z</time></trkpt><trkpt lat="43.4684685" lon="11.2728924"><ele>508.71428571428567</ele><time>2026-04-18T08:26:11.223Z</time></trkpt><trkpt lat="43.4685175" lon="11.2729471"><ele>508.99999999999994</ele><time>2026-04-18T08:26:16.235Z</time></trkpt><trkpt lat="43.4685572" lon="11.2730276"><ele>508.99999999999994</ele><time>2026-04-18T08:26:21.244Z</time></trkpt><trkpt lat="43.4686152" lon="11.2730674"><ele>509.0</ele><time>2026-04-18T08:26:27.236Z</time></trkpt><trkpt lat="43.4686726" lon="11.2731237"><ele>508.99999999999994</ele><time>2026-04-18T08:26:32.222Z</time></trkpt><trkpt lat="43.468727" lon="11.2731907"><ele>508.99999999999994</ele><time>2026-04-18T08:26:37.242Z</time></trkpt><trkpt lat="43.4687716" lon="11.2732549"><ele>509.0</ele><time>2026-04-18T08:26:42.236Z</time></trkpt><trkpt lat="43.4688151" lon="11.2733208"><ele>508.99999999999994</ele><time>2026-04-18T08:26:47.245Z</time></trkpt><trkpt lat="43.4688685" lon="11.2733987"><ele>508.99999999999994</ele><time>2026-04-18T08:26:54.238Z</time></trkpt><trkpt lat="43.4689102" lon="11.2734723"><ele>511.49999999999994</ele><time>2026-04-18T08:27:01.239Z</time></trkpt><trkpt lat="43.4690026" lon="11.2736312"><ele>514.0</ele><time>2026-04-18T08:27:12.232Z</time></trkpt><trkpt lat="43.4690114" lon="11.2737259"><ele>516.5</ele><time>2026-04-18T08:27:19.234Z</time></trkpt><trkpt lat="43.4690567" lon="11.2738048"><ele>519.0</ele><time>2026-04-18T08:27:28.232Z</time></trkpt><trkpt lat="43.4690921" lon="11.27388"><ele>521.5</ele><time>2026-04-18T08:27:35.225Z</time></trkpt><trkpt lat="43.4691247" lon="11.2739666"><ele>524.0</ele><time>2026-04-18T08:27:42.228Z</time></trkpt><trkpt lat="43.4691766" lon="11.2740694"><ele>525.4285714285714</ele><time>2026-04-18T08:27:51.237Z</time></trkpt><trkpt lat="43.4692335" lon="11.2741271"><ele>526.8571428571429</ele><time>2026-04-18T08:27:56.245Z</time></trkpt><trkpt lat="43.4692735" lon="11.2742047"><ele>528.2857142857143</ele><time>2026-04-18T08:28:02.23Z</time></trkpt><trkpt lat="43.4693128" lon="11.2742763"><ele>529.7142857142858</ele><time>2026-04-18T08:28:12.235Z</time></trkpt><trkpt lat="43.4693644" lon="11.2743439"><ele>531.1428571428571</ele><time>2026-04-18T08:28:19.221Z</time></trkpt><trkpt lat="43.469426" lon="11.2744085"><ele>532.5714285714287</ele><time>2026-04-18T08:28:29.322Z</time></trkpt><trkpt lat="43.4694838" lon="11.2744548"><ele>534.0</ele><time>2026-04-18T08:28:35.313Z</time></trkpt><trkpt lat="43.4695469" lon="11.2744802"><ele>534.7142857142858</ele><time>2026-04-18T08:28:39.228Z</time></trkpt><trkpt lat="43.4696282" lon="11.2744986"><ele>535.4285714285714</ele><time>2026-04-18T08:28:46.255Z</time></trkpt><trkpt lat="43.4696819" lon="11.2745582"><ele>536.1428571428571</ele><time>2026-04-18T08:29:01.246Z</time></trkpt><trkpt lat="43.4697477" lon="11.2746026"><ele>536.8571428571429</ele><time>2026-04-18T08:29:07.242Z</time></trkpt><trkpt lat="43.4697861" lon="11.2746808"><ele>537.5714285714286</ele><time>2026-04-18T08:29:12.239Z</time></trkpt><trkpt lat="43.4698649" lon="11.2747123"><ele>538.2857142857143</ele><time>2026-04-18T08:29:18.245Z</time></trkpt><trkpt lat="43.4699133" lon="11.2747711"><ele>539.0</ele><time>2026-04-18T08:29:23.241Z</time></trkpt><trkpt lat="43.4699777" lon="11.2748412"><ele>540.7142857142857</ele><time>2026-04-18T08:29:32.227Z</time></trkpt><trkpt lat="43.4700342" lon="11.2748966"><ele>542.4285714285714</ele><time>2026-04-18T08:29:38.241Z</time></trkpt><trkpt lat="43.4700748" lon="11.274975"><ele>544.1428571428571</ele><time>2026-04-18T08:29:46.233Z</time></trkpt><trkpt lat="43.4701306" lon="11.2750372"><ele>545.8571428571429</ele><time>2026-04-18T08:29:51.236Z</time></trkpt><trkpt lat="43.4701953" lon="11.2751166"><ele>547.5714285714286</ele><time>2026-04-18T08:29:58.318Z</time></trkpt><trkpt lat="43.4702466" lon="11.2751858"><ele>549.2857142857142</ele><time>2026-04-18T08:30:05.227Z</time></trkpt><trkpt lat="43.4703117" lon="11.2752262"><ele>551.0</ele><time>2026-04-18T08:30:09.31Z</time></trkpt><trkpt lat="43.4703963" lon="11.2752079"><ele>551.5714285714286</ele><time>2026-04-18T08:30:12.234Z</time></trkpt><trkpt lat="43.470468" lon="11.2752323"><ele>552.1428571428571</ele><time>2026-04-18T08:30:17.221Z</time></trkpt><trkpt lat="43.4705329" lon="11.2752382"><ele>552.7142857142858</ele><time>2026-04-18T08:30:21.239Z</time></trkpt><trkpt lat="43.4706114" lon="11.275252"><ele>553.2857142857142</ele><time>2026-04-18T08:30:25.237Z</time></trkpt><trkpt lat="43.4706727" lon="11.2752745"><ele>553.8571428571429</ele><time>2026-04-18T08:30:29.255Z</time></trkpt><trkpt lat="43.4707309" lon="11.2753236"><ele>554.4285714285714</ele><time>2026-04-18T08:30:33.226Z</time></trkpt><trkpt lat="43.4707959" lon="11.2753317"><ele>555.0</ele><time>2026-04-18T08:30:36.241Z</time></trkpt><trkpt lat="43.4708462" lon="11.2753879"><ele>555.0</ele><time>2026-04-18T08:30:40.317Z</time></trkpt><trkpt lat="43.4708942" lon="11.2754631"><ele>555.0</ele><time>2026-04-18T08:30:44.216Z</time></trkpt><trkpt lat="43.470936" lon="11.2755434"><ele>555.0</ele><time>2026-04-18T08:30:48.249Z</time></trkpt><trkpt lat="43.4709868" lon="11.2756304"><ele>555.0</ele><time>2026-04-18T08:30:53.216Z</time></trkpt><trkpt lat="43.4710401" lon="11.2757119"><ele>555.0</ele><time>2026-04-18T08:30:57.234Z</time></trkpt><trkpt lat="43.4710912" lon="11.2757814"><ele>555.0</ele><time>2026-04-18T08:31:03.244Z</time></trkpt><trkpt lat="43.471171" lon="11.2758219"><ele>555.1428571428572</ele><time>2026-04-18T08:31:07.234Z</time></trkpt><trkpt lat="43.4712347" lon="11.2758624"><ele>555.2857142857143</ele><time>2026-04-18T08:31:12.247Z</time></trkpt><trkpt lat="43.4712971" lon="11.275892"><ele>555.4285714285714</ele><time>2026-04-18T08:31:17.246Z</time></trkpt><trkpt lat="43.4713598" lon="11.2759153"><ele>555.5714285714287</ele><time>2026-04-18T08:31:22.239Z</time></trkpt><trkpt lat="43.4714217" lon="11.2759371"><ele>555.7142857142858</ele><time>2026-04-18T08:31:28.244Z</time></trkpt><trkpt lat="43.4714875" lon="11.2759789"><ele>555.8571428571429</ele><time>2026-04-18T08:31:34.221Z</time></trkpt><trkpt lat="43.4715481" lon="11.2760165"><ele>556.0</ele><time>2026-04-18T08:31:38.24Z</time></trkpt><trkpt lat="43.4716087" lon="11.2760423"><ele>557.4285714285714</ele><time>2026-04-18T08:31:43.237Z</time></trkpt><trkpt lat="43.4716799" lon="11.2760308"><ele>558.8571428571429</ele><time>2026-04-18T08:31:47.223Z</time></trkpt><trkpt lat="43.4717488" lon="11.2760173"><ele>560.2857142857143</ele><time>2026-04-18T08:31:51.238Z</time></trkpt><trkpt lat="43.4718274" lon="11.275977"><ele>561.7142857142858</ele><time>2026-04-18T08:31:55.25Z</time></trkpt><trkpt lat="43.4718389" lon="11.2758776"><ele>563.1428571428572</ele><time>2026-04-18T08:32:00.233Z</time></trkpt><trkpt lat="43.4718529" lon="11.2757926"><ele>564.5714285714286</ele><time>2026-04-18T08:32:03.305Z</time></trkpt><trkpt lat="43.4718549" lon="11.2756912"><ele>566.0</ele><time>2026-04-18T08:32:06.24Z</time></trkpt><trkpt lat="43.4718558" lon="11.2755894"><ele>566.0</ele><time>2026-04-18T08:32:09.219Z</time></trkpt><trkpt lat="43.4718785" lon="11.2754894"><ele>566.0</ele><time>2026-04-18T08:32:12.247Z</time></trkpt><trkpt lat="43.4718856" lon="11.2753876"><ele>566.0</ele><time>2026-04-18T08:32:14.228Z</time></trkpt><trkpt lat="43.4718947" lon="11.2752681"><ele>566.0</ele><time>2026-04-18T08:32:17.24Z</time></trkpt><trkpt lat="43.4719188" lon="11.2751784"><ele>566.0</ele><time>2026-04-18T08:32:19.247Z</time></trkpt><trkpt lat="43.471932" lon="11.2750481"><ele>566.0</ele><time>2026-04-18T08:32:22.255Z</time></trkpt><trkpt lat="43.4719432" lon="11.2749582"><ele>566.0</ele><time>2026-04-18T08:32:24.227Z</time></trkpt><trkpt lat="43.4719896" lon="11.2748548"><ele>566.0</ele><time>2026-04-18T08:32:27.237Z</time></trkpt><trkpt lat="43.4720539" lon="11.2748857"><ele>566.0</ele><time>2026-04-18T08:32:30.33Z</time></trkpt><trkpt lat="43.4721053" lon="11.2749548"><ele>566.0</ele><time>2026-04-18T08:32:33.233Z</time></trkpt><trkpt lat="43.4721478" lon="11.2750367"><ele>566.0</ele><time>2026-04-18T08:32:37.241Z</time></trkpt><trkpt lat="43.4721847" lon="11.2751181"><ele>566.0</ele><time>2026-04-18T08:32:41.226Z</time></trkpt><trkpt lat="43.4722268" lon="11.2751914"><ele>566.0</ele><time>2026-04-18T08:32:45.245Z</time></trkpt><trkpt lat="43.4722714" lon="11.2752608"><ele>568.8571428571429</ele><time>2026-04-18T08:32:49.322Z</time></trkpt><trkpt lat="43.4723038" lon="11.2753429"><ele>571.7142857142858</ele><time>2026-04-18T08:32:53.247Z</time></trkpt><trkpt lat="43.4723417" lon="11.2754256"><ele>574.5714285714286</ele><time>2026-04-18T08:32:57.224Z</time></trkpt><trkpt lat="43.4723686" lon="11.2755142"><ele>577.4285714285714</ele><time>2026-04-18T08:33:01.246Z</time></trkpt><trkpt lat="43.4723927" lon="11.2755983"><ele>580.2857142857142</ele><time>2026-04-18T08:33:05.231Z</time></trkpt><trkpt lat="43.4724078" lon="11.2756833"><ele>583.1428571428571</ele><time>2026-04-18T08:33:09.313Z</time></trkpt><trkpt lat="43.4724378" lon="11.2757642"><ele>586.0</ele><time>2026-04-18T08:33:13.225Z</time></trkpt><trkpt lat="43.4724548" lon="11.275851"><ele>585.9999999999999</ele><time>2026-04-18T08:33:18.237Z</time></trkpt><trkpt lat="43.4724742" lon="11.2759471"><ele>586.0</ele><time>2026-04-18T08:33:23.222Z</time></trkpt><trkpt lat="43.4725135" lon="11.2760271"><ele>586.0</ele><time>2026-04-18T08:33:27.238Z</time></trkpt><trkpt lat="43.4725518" lon="11.2761288"><ele>586.0</ele><time>2026-04-18T08:33:32.243Z</time></trkpt><trkpt lat="43.4725774" lon="11.2762286"><ele>586.0</ele><time>2026-04-18T08:33:37.23Z</time></trkpt><trkpt lat="43.4726116" lon="11.276322"><ele>585.9999999999999</ele><time>2026-04-18T08:33:42.25Z</time></trkpt><trkpt lat="43.4726393" lon="11.2764094"><ele>586.0</ele><time>2026-04-18T08:33:46.239Z</time></trkpt><trkpt lat="43.4726751" lon="11.2764839"><ele>585.4285714285713</ele><time>2026-04-18T08:33:49.311Z</time></trkpt><trkpt lat="43.4727238" lon="11.276552"><ele>584.8571428571429</ele><time>2026-04-18T08:33:54.312Z</time></trkpt><trkpt lat="43.4727663" lon="11.2766365"><ele>584.2857142857142</ele><time>2026-04-18T08:33:58.234Z</time></trkpt><trkpt lat="43.4728073" lon="11.2767234"><ele>583.7142857142857</ele><time>2026-04-18T08:34:03.251Z</time></trkpt><trkpt lat="43.4728438" lon="11.2767965"><ele>583.1428571428571</ele><time>2026-04-18T08:34:07.223Z</time></trkpt><trkpt lat="43.4728873" lon="11.2768764"><ele>582.5714285714286</ele><time>2026-04-18T08:34:11.243Z</time></trkpt><trkpt lat="43.4729358" lon="11.2769572"><ele>582.0</ele><time>2026-04-18T08:34:16.225Z</time></trkpt><trkpt lat="43.4729775" lon="11.2770359"><ele>584.2857142857142</ele><time>2026-04-18T08:34:20.225Z</time></trkpt><trkpt lat="43.4730211" lon="11.2771097"><ele>586.5714285714286</ele><time>2026-04-18T08:34:24.226Z</time></trkpt><trkpt lat="43.4730573" lon="11.2771879"><ele>588.8571428571429</ele><time>2026-04-18T08:34:28.237Z</time></trkpt><trkpt lat="43.4731004" lon="11.2772602"><ele>591.1428571428571</ele><time>2026-04-18T08:34:32.238Z</time></trkpt><trkpt lat="43.4731531" lon="11.2773429"><ele>593.4285714285714</ele><time>2026-04-18T08:34:37.227Z</time></trkpt><trkpt lat="43.4732116" lon="11.2773995"><ele>595.7142857142857</ele><time>2026-04-18T08:34:41.229Z</time></trkpt><trkpt lat="43.4732673" lon="11.2774624"><ele>598.0</ele><time>2026-04-18T08:34:45.237Z</time></trkpt><trkpt lat="43.4733427" lon="11.277483"><ele>598.0</ele><time>2026-04-18T08:34:50.242Z</time></trkpt><trkpt lat="43.4734217" lon="11.2774907"><ele>598.0</ele><time>2026-04-18T08:34:55.242Z</time></trkpt><trkpt lat="43.4734883" lon="11.2774673"><ele>598.0</ele><time>2026-04-18T08:35:00.238Z</time></trkpt><trkpt lat="43.4735598" lon="11.2774421"><ele>598.0</ele><time>2026-04-18T08:35:06.231Z</time></trkpt><trkpt lat="43.4736205" lon="11.2774089"><ele>598.0</ele><time>2026-04-18T08:35:11.241Z</time></trkpt><trkpt lat="43.473678" lon="11.2773687"><ele>598.0</ele><time>2026-04-18T08:35:16.252Z</time></trkpt><trkpt lat="43.4737468" lon="11.2773249"><ele>598.0</ele><time>2026-04-18T08:35:21.239Z</time></trkpt><trkpt lat="43.4738192" lon="11.2773274"><ele>599.2857142857142</ele><time>2026-04-18T08:35:26.231Z</time></trkpt><trkpt lat="43.473883" lon="11.2773377"><ele>600.5714285714286</ele><time>2026-04-18T08:35:32.24Z</time></trkpt><trkpt lat="43.4739436" lon="11.2773788"><ele>601.8571428571429</ele><time>2026-04-18T08:35:39.24Z</time></trkpt><trkpt lat="43.4739916" lon="11.2774475"><ele>603.1428571428571</ele><time>2026-04-18T08:35:43.233Z</time></trkpt><trkpt lat="43.4740318" lon="11.2775281"><ele>604.4285714285714</ele><time>2026-04-18T08:35:48.241Z</time></trkpt><trkpt lat="43.474073" lon="11.2775937"><ele>605.7142857142857</ele><time>2026-04-18T08:35:52.236Z</time></trkpt><trkpt lat="43.474114" lon="11.277666"><ele>607.0</ele><time>2026-04-18T08:35:57.251Z</time></trkpt><trkpt lat="43.4741523" lon="11.2777459"><ele>607.0</ele><time>2026-04-18T08:36:03.235Z</time></trkpt><trkpt lat="43.4741676" lon="11.2778438"><ele>607.0</ele><time>2026-04-18T08:36:06.234Z</time></trkpt><trkpt lat="43.4741485" lon="11.2779467"><ele>607.0</ele><time>2026-04-18T08:36:08.214Z</time></trkpt><trkpt lat="43.474105" lon="11.2780453"><ele>607.0</ele><time>2026-04-18T08:36:10.304Z</time></trkpt><trkpt lat="43.474016" lon="11.2781639"><ele>607.0</ele><time>2026-04-18T08:36:12.254Z</time></trkpt><trkpt lat="43.4739674" lon="11.2782577"><ele>607.0</ele><time>2026-04-18T08:36:13.238Z</time></trkpt><trkpt lat="43.4739265" lon="11.2783718"><ele>606.1666666666667</ele><time>2026-04-18T08:36:14.224Z</time></trkpt><trkpt lat="43.4738793" lon="11.278459"><ele>605.3333333333334</ele><time>2026-04-18T08:36:15.321Z</time></trkpt><trkpt lat="43.473832" lon="11.2785458"><ele>604.5</ele><time>2026-04-18T08:36:16.223Z</time></trkpt><trkpt lat="43.4737797" lon="11.2786441"><ele>603.6666666666666</ele><time>2026-04-18T08:36:17.235Z</time></trkpt><trkpt lat="43.4737187" lon="11.2787425"><ele>602.8333333333333</ele><time>2026-04-18T08:36:18.25Z</time></trkpt><trkpt lat="43.4736543" lon="11.2788463"><ele>602.0</ele><time>2026-04-18T08:36:19.305Z</time></trkpt><trkpt lat="43.4735794" lon="11.2789411"><ele>600.4</ele><time>2026-04-18T08:36:20.248Z</time></trkpt><trkpt lat="43.4735002" lon="11.2790371"><ele>598.8000000000001</ele><time>2026-04-18T08:36:21.228Z</time></trkpt><trkpt lat="43.4734263" lon="11.2791496"><ele>597.2</ele><time>2026-04-18T08:36:22.242Z</time></trkpt><trkpt lat="43.473352" lon="11.2792699"><ele>595.6</ele><time>2026-04-18T08:36:23.241Z</time></trkpt><trkpt lat="43.4732889" lon="11.2793766"><ele>594.0</ele><time>2026-04-18T08:36:24.309Z</time></trkpt><trkpt lat="43.4732374" lon="11.2794848"><ele>594.0</ele><time>2026-04-18T08:36:25.245Z</time></trkpt><trkpt lat="43.4731947" lon="11.2796097"><ele>594.0</ele><time>2026-04-18T08:36:26.246Z</time></trkpt><trkpt lat="43.4731612" lon="11.2797477"><ele>594.0</ele><time>2026-04-18T08:36:27.236Z</time></trkpt><trkpt lat="43.4731362" lon="11.2798949"><ele>594.0</ele><time>2026-04-18T08:36:28.247Z</time></trkpt><trkpt lat="43.4731122" lon="11.2800277"><ele>594.0</ele><time>2026-04-18T08:36:29.245Z</time></trkpt><trkpt lat="43.4730821" lon="11.2801593"><ele>592.6</ele><time>2026-04-18T08:36:30.304Z</time></trkpt><trkpt lat="43.4730475" lon="11.280294"><ele>591.2</ele><time>2026-04-18T08:36:31.24Z</time></trkpt><trkpt lat="43.47301" lon="11.2804231"><ele>589.8000000000001</ele><time>2026-04-18T08:36:32.236Z</time></trkpt><trkpt lat="43.472965" lon="11.2805419"><ele>588.4</ele><time>2026-04-18T08:36:33.249Z</time></trkpt><trkpt lat="43.4729151" lon="11.2806417"><ele>587.0</ele><time>2026-04-18T08:36:34.239Z</time></trkpt><trkpt lat="43.4728663" lon="11.2807376"><ele>586.8571428571429</ele><time>2026-04-18T08:36:35.234Z</time></trkpt><trkpt lat="43.4728215" lon="11.2808312"><ele>586.7142857142858</ele><time>2026-04-18T08:36:36.245Z</time></trkpt><trkpt lat="43.4727805" lon="11.2809184"><ele>586.5714285714286</ele><time>2026-04-18T08:36:37.241Z</time></trkpt><trkpt lat="43.4727429" lon="11.2810029"><ele>586.4285714285714</ele><time>2026-04-18T08:36:38.242Z</time></trkpt><trkpt lat="43.4727012" lon="11.2810835"><ele>586.2857142857142</ele><time>2026-04-18T08:36:39.239Z</time></trkpt><trkpt lat="43.4726525" lon="11.2811539"><ele>586.1428571428571</ele><time>2026-04-18T08:36:40.316Z</time></trkpt><trkpt lat="43.4726041" lon="11.2812169"><ele>586.0</ele><time>2026-04-18T08:36:41.237Z</time></trkpt><trkpt lat="43.4725083" lon="11.2813286"><ele>586.0</ele><time>2026-04-18T08:36:43.248Z</time></trkpt><trkpt lat="43.4724602" lon="11.2813878"><ele>586.0</ele><time>2026-04-18T08:36:44.234Z</time></trkpt><trkpt lat="43.4723834" lon="11.2814858"><ele>586.0</ele><time>2026-04-18T08:36:46.249Z</time></trkpt><trkpt lat="43.4723186" lon="11.2815598"><ele>586.0</ele><time>2026-04-18T08:36:48.217Z</time></trkpt><trkpt lat="43.4722767" lon="11.2816404"><ele>586.0</ele><time>2026-04-18T08:36:50.232Z</time></trkpt><trkpt lat="43.4722258" lon="11.281707"><ele>586.0</ele><time>2026-04-18T08:36:52.233Z</time></trkpt><trkpt lat="43.4721796" lon="11.2818067"><ele>586.4</ele><time>2026-04-18T08:36:55.319Z</time></trkpt><trkpt lat="43.4721418" lon="11.281884"><ele>586.8</ele><time>2026-04-18T08:36:57.234Z</time></trkpt><trkpt lat="43.4721113" lon="11.2819725"><ele>587.1999999999999</ele><time>2026-04-18T08:36:59.223Z</time></trkpt><trkpt lat="43.4720829" lon="11.2820936"><ele>587.6</ele><time>2026-04-18T08:37:01.224Z</time></trkpt><trkpt lat="43.4720443" lon="11.2822484"><ele>588.0</ele><time>2026-04-18T08:37:03.241Z</time></trkpt><trkpt lat="43.4720148" lon="11.2824039"><ele>587.1999999999999</ele><time>2026-04-18T08:37:05.242Z</time></trkpt><trkpt lat="43.4719845" lon="11.282551"><ele>586.4</ele><time>2026-04-18T08:37:07.236Z</time></trkpt><trkpt lat="43.4719704" lon="11.2827032"><ele>585.5999999999999</ele><time>2026-04-18T08:37:09.307Z</time></trkpt><trkpt lat="43.4719358" lon="11.2828804"><ele>584.8</ele><time>2026-04-18T08:37:11.242Z</time></trkpt><trkpt lat="43.4719081" lon="11.2829773"><ele>584.0</ele><time>2026-04-18T08:37:12.248Z</time></trkpt><trkpt lat="43.4718775" lon="11.2830933"><ele>583.3333333333333</ele><time>2026-04-18T08:37:13.228Z</time></trkpt><trkpt lat="43.4718486" lon="11.2832041"><ele>582.6666666666666</ele><time>2026-04-18T08:37:14.236Z</time></trkpt><trkpt lat="43.4718174" lon="11.283315"><ele>582.0</ele><time>2026-04-18T08:37:15.25Z</time></trkpt><trkpt lat="43.4717901" lon="11.2834295"><ele>581.3333333333334</ele><time>2026-04-18T08:37:16.241Z</time></trkpt><trkpt lat="43.4717638" lon="11.2835455"><ele>580.6666666666667</ele><time>2026-04-18T08:37:17.256Z</time></trkpt><trkpt lat="43.4717333" lon="11.2836697"><ele>580.0</ele><time>2026-04-18T08:37:18.325Z</time></trkpt><trkpt lat="43.4716777" lon="11.2839155"><ele>579.8</ele><time>2026-04-18T08:37:20.241Z</time></trkpt><trkpt lat="43.4716537" lon="11.2840444"><ele>579.6</ele><time>2026-04-18T08:37:21.242Z</time></trkpt><trkpt lat="43.4716269" lon="11.2841739"><ele>579.4</ele><time>2026-04-18T08:37:22.24Z</time></trkpt><trkpt lat="43.4716079" lon="11.2843009"><ele>579.2</ele><time>2026-04-18T08:37:23.245Z</time></trkpt><trkpt lat="43.4715929" lon="11.2844164"><ele>579.0</ele><time>2026-04-18T08:37:24.305Z</time></trkpt><trkpt lat="43.4715847" lon="11.2845223"><ele>579.0</ele><time>2026-04-18T08:37:25.31Z</time></trkpt><trkpt lat="43.4715815" lon="11.2846254"><ele>579.0</ele><time>2026-04-18T08:37:26.231Z</time></trkpt><trkpt lat="43.471573" lon="11.2847335"><ele>579.0</ele><time>2026-04-18T08:37:27.23Z</time></trkpt><trkpt lat="43.4715693" lon="11.2848461"><ele>579.0</ele><time>2026-04-18T08:37:28.235Z</time></trkpt><trkpt lat="43.4715577" lon="11.2849491"><ele>579.0</ele><time>2026-04-18T08:37:29.297Z</time></trkpt><trkpt lat="43.4715498" lon="11.2850353"><ele>579.0</ele><time>2026-04-18T08:37:30.227Z</time></trkpt><trkpt lat="43.4715297" lon="11.2851708"><ele>578.5714285714286</ele><time>2026-04-18T08:37:32.24Z</time></trkpt><trkpt lat="43.4714955" lon="11.2852787"><ele>578.1428571428571</ele><time>2026-04-18T08:37:34.303Z</time></trkpt><trkpt lat="43.4714573" lon="11.2853508"><ele>577.7142857142858</ele><time>2026-04-18T08:37:37.231Z</time></trkpt><trkpt lat="43.4713928" lon="11.285402"><ele>577.2857142857142</ele><time>2026-04-18T08:37:39.318Z</time></trkpt><trkpt lat="43.4714489" lon="11.2853473"><ele>576.8571428571429</ele><time>2026-04-18T08:37:55.313Z</time></trkpt><trkpt lat="43.4714231" lon="11.2854508"><ele>576.4285714285714</ele><time>2026-04-18T08:40:19.279Z</time></trkpt><trkpt lat="43.471488" lon="11.2854488"><ele>576.0</ele><time>2026-04-18T08:40:52.216Z</time></trkpt><trkpt lat="43.4715029" lon="11.2855352"><ele>575.4285714285714</ele><time>2026-04-18T08:41:31.21Z</time></trkpt><trkpt lat="43.4715149" lon="11.2856228"><ele>574.8571428571429</ele><time>2026-04-18T08:41:35.227Z</time></trkpt><trkpt lat="43.4715774" lon="11.2856659"><ele>574.2857142857142</ele><time>2026-04-18T08:41:39.296Z</time></trkpt><trkpt lat="43.4716412" lon="11.2856932"><ele>573.7142857142858</ele><time>2026-04-18T08:41:45.29Z</time></trkpt><trkpt lat="43.4717069" lon="11.2857044"><ele>573.1428571428571</ele><time>2026-04-18T08:41:49.292Z</time></trkpt><trkpt lat="43.471777" lon="11.2856767"><ele>572.5714285714286</ele><time>2026-04-18T08:41:57.215Z</time></trkpt><trkpt lat="43.4718452" lon="11.2856963"><ele>572.0</ele><time>2026-04-18T08:42:01.21Z</time></trkpt><trkpt lat="43.4719126" lon="11.2857308"><ele>571.9999999999999</ele><time>2026-04-18T08:42:04.214Z</time></trkpt><trkpt lat="43.4719742" lon="11.2857594"><ele>572.0</ele><time>2026-04-18T08:42:07.199Z</time></trkpt><trkpt lat="43.472039" lon="11.2857759"><ele>572.0</ele><time>2026-04-18T08:42:11.218Z</time></trkpt><trkpt lat="43.4721042" lon="11.2858099"><ele>572.0</ele><time>2026-04-18T08:42:16.203Z</time></trkpt><trkpt lat="43.4721668" lon="11.285849"><ele>572.0</ele><time>2026-04-18T08:42:20.288Z</time></trkpt><trkpt lat="43.4722313" lon="11.2858818"><ele>571.9999999999999</ele><time>2026-04-18T08:42:24.285Z</time></trkpt><trkpt lat="43.4723023" lon="11.2858673"><ele>572.0</ele><time>2026-04-18T08:42:28.22Z</time></trkpt><trkpt lat="43.4723757" lon="11.2858878"><ele>572.8571428571428</ele><time>2026-04-18T08:42:31.194Z</time></trkpt><trkpt lat="43.4724491" lon="11.2859193"><ele>573.7142857142857</ele><time>2026-04-18T08:42:34.286Z</time></trkpt><trkpt lat="43.472518" lon="11.2859336"><ele>574.5714285714286</ele><time>2026-04-18T08:42:36.215Z</time></trkpt><trkpt lat="43.4726033" lon="11.2859484"><ele>575.4285714285713</ele><time>2026-04-18T08:42:39.218Z</time></trkpt><trkpt lat="43.472675" lon="11.2859675"><ele>576.2857142857142</ele><time>2026-04-18T08:42:42.2Z</time></trkpt><trkpt lat="43.4727356" lon="11.2860195"><ele>577.1428571428571</ele><time>2026-04-18T08:42:46.216Z</time></trkpt><trkpt lat="43.4727835" lon="11.2860859"><ele>578.0</ele><time>2026-04-18T08:42:48.225Z</time></trkpt><trkpt lat="43.4728403" lon="11.2861445"><ele>578.0</ele><time>2026-04-18T08:42:51.206Z</time></trkpt><trkpt lat="43.472878" lon="11.2862232"><ele>578.0</ele><time>2026-04-18T08:42:53.217Z</time></trkpt><trkpt lat="43.4729036" lon="11.2863206"><ele>578.0</ele><time>2026-04-18T08:42:55.22Z</time></trkpt><trkpt lat="43.4729576" lon="11.2864259"><ele>578.0</ele><time>2026-04-18T08:42:57.219Z</time></trkpt><trkpt lat="43.4729952" lon="11.2865433"><ele>578.0</ele><time>2026-04-18T08:42:59.209Z</time></trkpt><trkpt lat="43.4730394" lon="11.2866641"><ele>578.0</ele><time>2026-04-18T08:43:01.216Z</time></trkpt><trkpt lat="43.4730818" lon="11.2868127"><ele>576.8333333333333</ele><time>2026-04-18T08:43:03.209Z</time></trkpt><trkpt lat="43.4730937" lon="11.2869556"><ele>575.6666666666666</ele><time>2026-04-18T08:43:05.224Z</time></trkpt><trkpt lat="43.4730884" lon="11.287105"><ele>574.5</ele><time>2026-04-18T08:43:07.232Z</time></trkpt><trkpt lat="43.4730823" lon="11.2872011"><ele>573.3333333333334</ele><time>2026-04-18T08:43:08.213Z</time></trkpt><trkpt lat="43.4730739" lon="11.2872912"><ele>572.1666666666667</ele><time>2026-04-18T08:43:09.215Z</time></trkpt><trkpt lat="43.4730637" lon="11.2873943"><ele>571.0</ele><time>2026-04-18T08:43:10.293Z</time></trkpt><trkpt lat="43.4730494" lon="11.2874867"><ele>570.8333333333334</ele><time>2026-04-18T08:43:11.234Z</time></trkpt><trkpt lat="43.4730416" lon="11.2875793"><ele>570.6666666666667</ele><time>2026-04-18T08:43:12.214Z</time></trkpt><trkpt lat="43.4730295" lon="11.2876731"><ele>570.5</ele><time>2026-04-18T08:43:13.208Z</time></trkpt><trkpt lat="43.473016" lon="11.2877689"><ele>570.3333333333334</ele><time>2026-04-18T08:43:14.204Z</time></trkpt><trkpt lat="43.4730064" lon="11.2878664"><ele>570.1666666666666</ele><time>2026-04-18T08:43:15.305Z</time></trkpt><trkpt lat="43.4729839" lon="11.2880688"><ele>570.0</ele><time>2026-04-18T08:43:17.212Z</time></trkpt><trkpt lat="43.4729723" lon="11.2881694"><ele>569.5714285714286</ele><time>2026-04-18T08:43:18.233Z</time></trkpt><trkpt lat="43.4729628" lon="11.2882718"><ele>569.1428571428571</ele><time>2026-04-18T08:43:19.29Z</time></trkpt><trkpt lat="43.4729471" lon="11.2883746"><ele>568.7142857142858</ele><time>2026-04-18T08:43:20.234Z</time></trkpt><trkpt lat="43.4729312" lon="11.2884704"><ele>568.2857142857142</ele><time>2026-04-18T08:43:21.213Z</time></trkpt><trkpt lat="43.4729145" lon="11.288564"><ele>567.8571428571429</ele><time>2026-04-18T08:43:22.206Z</time></trkpt><trkpt lat="43.4729057" lon="11.2886539"><ele>567.4285714285714</ele><time>2026-04-18T08:43:23.212Z</time></trkpt><trkpt lat="43.4729338" lon="11.2887383"><ele>567.0</ele><time>2026-04-18T08:43:24.221Z</time></trkpt><trkpt lat="43.4729835" lon="11.2888117"><ele>567.0</ele><time>2026-04-18T08:43:25.223Z</time></trkpt><trkpt lat="43.4730424" lon="11.2888678"><ele>567.0</ele><time>2026-04-18T08:43:26.233Z</time></trkpt><trkpt lat="43.4731084" lon="11.2889028"><ele>567.0</ele><time>2026-04-18T08:43:27.216Z</time></trkpt><trkpt lat="43.4731782" lon="11.2889262"><ele>567.0</ele><time>2026-04-18T08:43:28.214Z</time></trkpt><trkpt lat="43.4732503" lon="11.2889225"><ele>567.0</ele><time>2026-04-18T08:43:29.203Z</time></trkpt><trkpt lat="43.4733243" lon="11.2888986"><ele>567.0</ele><time>2026-04-18T08:43:30.3Z</time></trkpt><trkpt lat="43.4734009" lon="11.2888826"><ele>567.0</ele><time>2026-04-18T08:43:31.211Z</time></trkpt><trkpt lat="43.4734709" lon="11.2888173"><ele>567.0</ele><time>2026-04-18T08:43:32.212Z</time></trkpt><trkpt lat="43.4735122" lon="11.2886785"><ele>567.0</ele><time>2026-04-18T08:43:33.201Z</time></trkpt><trkpt lat="43.4735656" lon="11.2885565"><ele>567.0</ele><time>2026-04-18T08:43:34.216Z</time></trkpt><trkpt lat="43.4736175" lon="11.2884456"><ele>567.0</ele><time>2026-04-18T08:43:35.208Z</time></trkpt><trkpt lat="43.4736623" lon="11.2883314"><ele>567.0</ele><time>2026-04-18T08:43:36.221Z</time></trkpt><trkpt lat="43.473701" lon="11.2882126"><ele>567.0</ele><time>2026-04-18T08:43:37.202Z</time></trkpt><trkpt lat="43.4737375" lon="11.2880988"><ele>567.0</ele><time>2026-04-18T08:43:38.219Z</time></trkpt><trkpt lat="43.4737658" lon="11.2879801"><ele>567.0</ele><time>2026-04-18T08:43:39.296Z</time></trkpt><trkpt lat="43.4737944" lon="11.2878435"><ele>567.0</ele><time>2026-04-18T08:43:40.212Z</time></trkpt><trkpt lat="43.4738167" lon="11.2877088"><ele>567.0</ele><time>2026-04-18T08:43:41.218Z</time></trkpt><trkpt lat="43.4738386" lon="11.2875744"><ele>564.4</ele><time>2026-04-18T08:43:42.228Z</time></trkpt><trkpt lat="43.4738521" lon="11.2874402"><ele>561.8000000000001</ele><time>2026-04-18T08:43:43.215Z</time></trkpt><trkpt lat="43.4738801" lon="11.2872939"><ele>559.2</ele><time>2026-04-18T08:43:44.217Z</time></trkpt><trkpt lat="43.4739056" lon="11.2871769"><ele>556.6</ele><time>2026-04-18T08:43:45.206Z</time></trkpt><trkpt lat="43.473919" lon="11.2870483"><ele>554.0</ele><time>2026-04-18T08:43:46.219Z</time></trkpt><trkpt lat="43.4739341" lon="11.2869155"><ele>554.0</ele><time>2026-04-18T08:43:47.23Z</time></trkpt><trkpt lat="43.4739515" lon="11.2867797"><ele>554.0</ele><time>2026-04-18T08:43:48.304Z</time></trkpt><trkpt lat="43.473958" lon="11.286653"><ele>554.0</ele><time>2026-04-18T08:43:49.288Z</time></trkpt><trkpt lat="43.47397" lon="11.2865272"><ele>554.0</ele><time>2026-04-18T08:43:50.218Z</time></trkpt><trkpt lat="43.4739919" lon="11.2863908"><ele>554.0</ele><time>2026-04-18T08:43:51.213Z</time></trkpt><trkpt lat="43.4740311" lon="11.2862584"><ele>554.25</ele><time>2026-04-18T08:43:52.223Z</time></trkpt><trkpt lat="43.4740925" lon="11.2861464"><ele>554.5</ele><time>2026-04-18T08:43:53.292Z</time></trkpt><trkpt lat="43.4741801" lon="11.2860662"><ele>554.75</ele><time>2026-04-18T08:43:54.296Z</time></trkpt><trkpt lat="43.4742821" lon="11.2860264"><ele>555.0</ele><time>2026-04-18T08:43:55.29Z</time></trkpt><trkpt lat="43.4745322" lon="11.2860417"><ele>555.0</ele><time>2026-04-18T08:43:58.187Z</time></trkpt><trkpt lat="43.4745935" lon="11.286203"><ele>555.0</ele><time>2026-04-18T08:44:00.223Z</time></trkpt><trkpt lat="43.474617" lon="11.2863856"><ele>555.0</ele><time>2026-04-18T08:44:01.225Z</time></trkpt><trkpt lat="43.4746446" lon="11.2865792"><ele>555.0</ele><time>2026-04-18T08:44:02.222Z</time></trkpt><trkpt lat="43.4746643" lon="11.2867304"><ele>555.4</ele><time>2026-04-18T08:44:03.298Z</time></trkpt><trkpt lat="43.4746747" lon="11.2868732"><ele>555.8</ele><time>2026-04-18T08:44:04.304Z</time></trkpt><trkpt lat="43.4746914" lon="11.2870102"><ele>556.2</ele><time>2026-04-18T08:44:05.303Z</time></trkpt><trkpt lat="43.4747117" lon="11.2871333"><ele>556.6</ele><time>2026-04-18T08:44:06.22Z</time></trkpt><trkpt lat="43.4747362" lon="11.2872715"><ele>557.0</ele><time>2026-04-18T08:44:07.232Z</time></trkpt><trkpt lat="43.4747588" lon="11.287409"><ele>557.0</ele><time>2026-04-18T08:44:08.244Z</time></trkpt><trkpt lat="43.4747778" lon="11.2875443"><ele>557.0</ele><time>2026-04-18T08:44:09.245Z</time></trkpt><trkpt lat="43.4747998" lon="11.2876824"><ele>557.0</ele><time>2026-04-18T08:44:10.237Z</time></trkpt><trkpt lat="43.4748254" lon="11.2878187"><ele>557.0</ele><time>2026-04-18T08:44:11.237Z</time></trkpt><trkpt lat="43.4748481" lon="11.2879471"><ele>557.0</ele><time>2026-04-18T08:44:12.237Z</time></trkpt><trkpt lat="43.4748836" lon="11.2880698"><ele>555.0</ele><time>2026-04-18T08:44:13.253Z</time></trkpt><trkpt lat="43.4749328" lon="11.2881871"><ele>553.0</ele><time>2026-04-18T08:44:14.228Z</time></trkpt><trkpt lat="43.4749952" lon="11.288303"><ele>551.0</ele><time>2026-04-18T08:44:15.23Z</time></trkpt><trkpt lat="43.4750695" lon="11.2884082"><ele>549.0</ele><time>2026-04-18T08:44:16.237Z</time></trkpt><trkpt lat="43.4751558" lon="11.2884984"><ele>547.0</ele><time>2026-04-18T08:44:17.245Z</time></trkpt><trkpt lat="43.4752518" lon="11.2885677"><ele>547.0</ele><time>2026-04-18T08:44:18.247Z</time></trkpt><trkpt lat="43.4753558" lon="11.2886082"><ele>547.0</ele><time>2026-04-18T08:44:19.235Z</time></trkpt><trkpt lat="43.4754619" lon="11.2886388"><ele>547.0</ele><time>2026-04-18T08:44:20.245Z</time></trkpt><trkpt lat="43.4755649" lon="11.2886673"><ele>547.0</ele><time>2026-04-18T08:44:21.241Z</time></trkpt><trkpt lat="43.4756652" lon="11.2886978"><ele>547.0</ele><time>2026-04-18T08:44:22.232Z</time></trkpt><trkpt lat="43.4757633" lon="11.2887344"><ele>547.8000000000001</ele><time>2026-04-18T08:44:23.321Z</time></trkpt><trkpt lat="43.4758582" lon="11.2887851"><ele>548.6</ele><time>2026-04-18T08:44:24.321Z</time></trkpt><trkpt lat="43.4759534" lon="11.2888623"><ele>549.4000000000001</ele><time>2026-04-18T08:44:25.303Z</time></trkpt><trkpt lat="43.4760481" lon="11.2889391"><ele>550.2</ele><time>2026-04-18T08:44:26.225Z</time></trkpt><trkpt lat="43.4761224" lon="11.2890349"><ele>551.0</ele><time>2026-04-18T08:44:27.236Z</time></trkpt><trkpt lat="43.4761725" lon="11.2891485"><ele>549.6</ele><time>2026-04-18T08:44:28.24Z</time></trkpt><trkpt lat="43.4762118" lon="11.2892785"><ele>548.2</ele><time>2026-04-18T08:44:29.25Z</time></trkpt><trkpt lat="43.4762387" lon="11.2894094"><ele>546.8</ele><time>2026-04-18T08:44:30.235Z</time></trkpt><trkpt lat="43.4762558" lon="11.2895374"><ele>545.4</ele><time>2026-04-18T08:44:31.221Z</time></trkpt><trkpt lat="43.4762797" lon="11.2896444"><ele>544.0</ele><time>2026-04-18T08:44:32.249Z</time></trkpt><trkpt lat="43.4762975" lon="11.2897542"><ele>544.3333333333334</ele><time>2026-04-18T08:44:33.241Z</time></trkpt><trkpt lat="43.4763142" lon="11.2898592"><ele>544.6666666666667</ele><time>2026-04-18T08:44:34.294Z</time></trkpt><trkpt lat="43.4763246" lon="11.2899513"><ele>545.0</ele><time>2026-04-18T08:44:35.228Z</time></trkpt><trkpt lat="43.4763438" lon="11.2901098"><ele>545.3333333333334</ele><time>2026-04-18T08:44:37.232Z</time></trkpt><trkpt lat="43.4763581" lon="11.2901983"><ele>545.6666666666666</ele><time>2026-04-18T08:44:38.234Z</time></trkpt><trkpt lat="43.4763761" lon="11.2903601"><ele>546.0</ele><time>2026-04-18T08:44:40.304Z</time></trkpt><trkpt lat="43.4763971" lon="11.2905091"><ele>546.0</ele><time>2026-04-18T08:44:42.256Z</time></trkpt><trkpt lat="43.4764328" lon="11.290634"><ele>546.0</ele><time>2026-04-18T08:44:44.21Z</time></trkpt><trkpt lat="43.4764555" lon="11.2907619"><ele>546.0</ele><time>2026-04-18T08:44:46.231Z</time></trkpt><trkpt lat="43.4764809" lon="11.2908854"><ele>546.0</ele><time>2026-04-18T08:44:48.233Z</time></trkpt><trkpt lat="43.4764998" lon="11.2909706"><ele>546.0</ele><time>2026-04-18T08:44:50.223Z</time></trkpt><trkpt lat="43.4764777" lon="11.2910583"><ele>546.0</ele><time>2026-04-18T08:44:52.234Z</time></trkpt><trkpt lat="43.4764089" lon="11.2911486"><ele>546.0</ele><time>2026-04-18T08:44:54.231Z</time></trkpt><trkpt lat="43.4763449" lon="11.291209"><ele>546.0</ele><time>2026-04-18T08:44:56.239Z</time></trkpt><trkpt lat="43.476281" lon="11.2912504"><ele>546.0</ele><time>2026-04-18T08:44:58.235Z</time></trkpt><trkpt lat="43.4761965" lon="11.2913055"><ele>546.0</ele><time>2026-04-18T08:45:01.218Z</time></trkpt><trkpt lat="43.4761174" lon="11.2913539"><ele>546.0</ele><time>2026-04-18T08:45:04.237Z</time></trkpt><trkpt lat="43.4760353" lon="11.2914159"><ele>546.0</ele><time>2026-04-18T08:45:07.237Z</time></trkpt><trkpt lat="43.4759794" lon="11.2914698"><ele>545.8571428571429</ele><time>2026-04-18T08:45:09.327Z</time></trkpt><trkpt lat="43.4759229" lon="11.291536"><ele>545.7142857142858</ele><time>2026-04-18T08:45:11.241Z</time></trkpt><trkpt lat="43.4758718" lon="11.2916027"><ele>545.5714285714286</ele><time>2026-04-18T08:45:13.236Z</time></trkpt><trkpt lat="43.4758271" lon="11.2916695"><ele>545.4285714285714</ele><time>2026-04-18T08:45:15.238Z</time></trkpt><trkpt lat="43.4757703" lon="11.2917398"><ele>545.2857142857143</ele><time>2026-04-18T08:45:17.238Z</time></trkpt><trkpt lat="43.4757237" lon="11.2918109"><ele>545.1428571428571</ele><time>2026-04-18T08:45:19.252Z</time></trkpt><trkpt lat="43.4756672" lon="11.2919058"><ele>545.0</ele><time>2026-04-18T08:45:22.238Z</time></trkpt><trkpt lat="43.4756112" lon="11.2919955"><ele>545.0</ele><time>2026-04-18T08:45:25.321Z</time></trkpt><trkpt lat="43.4755629" lon="11.2920878"><ele>545.0</ele><time>2026-04-18T08:45:28.248Z</time></trkpt><trkpt lat="43.4755087" lon="11.2921876"><ele>545.0</ele><time>2026-04-18T08:45:31.238Z</time></trkpt><trkpt lat="43.4754687" lon="11.2922787"><ele>545.0</ele><time>2026-04-18T08:45:34.304Z</time></trkpt><trkpt lat="43.4754293" lon="11.2923787"><ele>545.0</ele><time>2026-04-18T08:45:37.214Z</time></trkpt><trkpt lat="43.4754055" lon="11.2924817"><ele>545.0</ele><time>2026-04-18T08:45:40.308Z</time></trkpt><trkpt lat="43.4753611" lon="11.2925723"><ele>544.1666666666666</ele><time>2026-04-18T08:45:42.24Z</time></trkpt><trkpt lat="43.4753518" lon="11.292659"><ele>543.3333333333333</ele><time>2026-04-18T08:45:45.239Z</time></trkpt><trkpt lat="43.4753345" lon="11.2927621"><ele>542.5</ele><time>2026-04-18T08:45:48.252Z</time></trkpt><trkpt lat="43.4753501" lon="11.2928632"><ele>541.6666666666666</ele><time>2026-04-18T08:45:51.234Z</time></trkpt><trkpt lat="43.4753265" lon="11.2929694"><ele>540.8333333333334</ele><time>2026-04-18T08:45:54.231Z</time></trkpt><trkpt lat="43.475321" lon="11.293063"><ele>540.0</ele><time>2026-04-18T08:45:57.23Z</time></trkpt><trkpt lat="43.4753026" lon="11.2931821"><ele>540.0</ele><time>2026-04-18T08:46:00.232Z</time></trkpt><trkpt lat="43.4752832" lon="11.2933059"><ele>540.0</ele><time>2026-04-18T08:46:03.287Z</time></trkpt><trkpt lat="43.4752826" lon="11.2934194"><ele>540.0</ele><time>2026-04-18T08:46:06.317Z</time></trkpt><trkpt lat="43.4752978" lon="11.2935313"><ele>540.0</ele><time>2026-04-18T08:46:09.328Z</time></trkpt><trkpt lat="43.4752642" lon="11.2936534"><ele>540.0</ele><time>2026-04-18T08:46:12.238Z</time></trkpt><trkpt lat="43.4752643" lon="11.2937483"><ele>540.0</ele><time>2026-04-18T08:46:15.326Z</time></trkpt><trkpt lat="43.4752508" lon="11.2938502"><ele>541.1428571428571</ele><time>2026-04-18T08:46:18.251Z</time></trkpt><trkpt lat="43.475242" lon="11.2939483"><ele>542.2857142857142</ele><time>2026-04-18T08:46:21.236Z</time></trkpt><trkpt lat="43.4752314" lon="11.2940637"><ele>543.4285714285714</ele><time>2026-04-18T08:46:25.249Z</time></trkpt><trkpt lat="43.4752238" lon="11.2941574"><ele>544.5714285714286</ele><time>2026-04-18T08:46:28.238Z</time></trkpt><trkpt lat="43.4752142" lon="11.2942522"><ele>545.7142857142858</ele><time>2026-04-18T08:46:31.231Z</time></trkpt><trkpt lat="43.4752043" lon="11.2943467"><ele>546.8571428571429</ele><time>2026-04-18T08:46:34.242Z</time></trkpt><trkpt lat="43.475199" lon="11.2944429"><ele>548.0</ele><time>2026-04-18T08:46:37.243Z</time></trkpt><trkpt lat="43.4751924" lon="11.2945388"><ele>548.0000000000001</ele><time>2026-04-18T08:46:40.244Z</time></trkpt><trkpt lat="43.4751836" lon="11.2946371"><ele>548.0</ele><time>2026-04-18T08:46:43.231Z</time></trkpt><trkpt lat="43.4751749" lon="11.2947352"><ele>548.0</ele><time>2026-04-18T08:46:46.237Z</time></trkpt><trkpt lat="43.4751653" lon="11.2948341"><ele>548.0</ele><time>2026-04-18T08:46:49.253Z</time></trkpt><trkpt lat="43.4751584" lon="11.2949281"><ele>548.0</ele><time>2026-04-18T08:46:52.234Z</time></trkpt><trkpt lat="43.475148" lon="11.2950271"><ele>548.0000000000001</ele><time>2026-04-18T08:46:55.245Z</time></trkpt><trkpt lat="43.4751422" lon="11.2951199"><ele>548.0</ele><time>2026-04-18T08:46:58.303Z</time></trkpt><trkpt lat="43.4751249" lon="11.2952267"><ele>548.1666666666666</ele><time>2026-04-18T08:47:00.213Z</time></trkpt><trkpt lat="43.4751445" lon="11.2953367"><ele>548.3333333333333</ele><time>2026-04-18T08:47:04.304Z</time></trkpt><trkpt lat="43.4751524" lon="11.2954316"><ele>548.5</ele><time>2026-04-18T08:47:07.245Z</time></trkpt><trkpt lat="43.4751597" lon="11.2955446"><ele>548.6666666666666</ele><time>2026-04-18T08:47:10.218Z</time></trkpt><trkpt lat="43.4751737" lon="11.2956509"><ele>548.8333333333334</ele><time>2026-04-18T08:47:13.229Z</time></trkpt><trkpt lat="43.4752013" lon="11.2957568"><ele>549.0</ele><time>2026-04-18T08:47:16.215Z</time></trkpt><trkpt lat="43.4752323" lon="11.2958553"><ele>549.0</ele><time>2026-04-18T08:47:19.297Z</time></trkpt><trkpt lat="43.475277" lon="11.2959542"><ele>549.0</ele><time>2026-04-18T08:47:22.253Z</time></trkpt><trkpt lat="43.4753185" lon="11.2960405"><ele>549.0</ele><time>2026-04-18T08:47:25.301Z</time></trkpt><trkpt lat="43.4753658" lon="11.2961292"><ele>549.0</ele><time>2026-04-18T08:47:28.26Z</time></trkpt><trkpt lat="43.4754085" lon="11.2962357"><ele>549.0</ele><time>2026-04-18T08:47:31.23Z</time></trkpt><trkpt lat="43.4754583" lon="11.2963193"><ele>549.0</ele><time>2026-04-18T08:47:34.306Z</time></trkpt><trkpt lat="43.4755166" lon="11.2964102"><ele>551.1666666666666</ele><time>2026-04-18T08:47:37.225Z</time></trkpt><trkpt lat="43.4755725" lon="11.2964768"><ele>553.3333333333334</ele><time>2026-04-18T08:47:40.314Z</time></trkpt><trkpt lat="43.4756375" lon="11.2965403"><ele>555.5</ele><time>2026-04-18T08:47:43.243Z</time></trkpt><trkpt lat="43.4757284" lon="11.2966072"><ele>557.6666666666667</ele><time>2026-04-18T08:47:47.239Z</time></trkpt><trkpt lat="43.4758001" lon="11.2966642"><ele>559.8333333333334</ele><time>2026-04-18T08:47:50.306Z</time></trkpt><trkpt lat="43.4758724" lon="11.2967037"><ele>562.0</ele><time>2026-04-18T08:47:53.237Z</time></trkpt><trkpt lat="43.4759455" lon="11.2967475"><ele>562.0</ele><time>2026-04-18T08:47:56.239Z</time></trkpt><trkpt lat="43.4760096" lon="11.2967667"><ele>562.0</ele><time>2026-04-18T08:47:59.25Z</time></trkpt><trkpt lat="43.4760929" lon="11.2968007"><ele>562.0</ele><time>2026-04-18T08:48:02.24Z</time></trkpt><trkpt lat="43.4761767" lon="11.2968304"><ele>562.0</ele><time>2026-04-18T08:48:05.252Z</time></trkpt><trkpt lat="43.4762504" lon="11.2968736"><ele>562.0</ele><time>2026-04-18T08:48:08.239Z</time></trkpt><trkpt lat="43.4763291" lon="11.2969112"><ele>562.0</ele><time>2026-04-18T08:48:11.236Z</time></trkpt><trkpt lat="43.4764069" lon="11.2969575"><ele>562.8333333333334</ele><time>2026-04-18T08:48:14.249Z</time></trkpt><trkpt lat="43.4764828" lon="11.29701"><ele>563.6666666666667</ele><time>2026-04-18T08:48:17.247Z</time></trkpt><trkpt lat="43.4765508" lon="11.2970768"><ele>564.5</ele><time>2026-04-18T08:48:20.232Z</time></trkpt><trkpt lat="43.4766114" lon="11.2971604"><ele>565.3333333333334</ele><time>2026-04-18T08:48:23.241Z</time></trkpt><trkpt lat="43.4766643" lon="11.2972531"><ele>566.1666666666666</ele><time>2026-04-18T08:48:26.255Z</time></trkpt><trkpt lat="43.4767059" lon="11.2973484"><ele>567.0</ele><time>2026-04-18T08:48:29.237Z</time></trkpt><trkpt lat="43.4767521" lon="11.2974408"><ele>567.0</ele><time>2026-04-18T08:48:32.243Z</time></trkpt><trkpt lat="43.4767976" lon="11.2975344"><ele>567.0</ele><time>2026-04-18T08:48:35.234Z</time></trkpt><trkpt lat="43.4768425" lon="11.2976217"><ele>567.0</ele><time>2026-04-18T08:48:38.243Z</time></trkpt><trkpt lat="43.4768818" lon="11.2976899"><ele>567.0</ele><time>2026-04-18T08:48:40.316Z</time></trkpt><trkpt lat="43.4769201" lon="11.2977956"><ele>567.0</ele><time>2026-04-18T08:48:43.239Z</time></trkpt><trkpt lat="43.4769564" lon="11.2979017"><ele>567.0</ele><time>2026-04-18T08:48:46.224Z</time></trkpt><trkpt lat="43.4769724" lon="11.2980011"><ele>567.0</ele><time>2026-04-18T08:48:49.301Z</time></trkpt><trkpt lat="43.4770156" lon="11.298081"><ele>567.0</ele><time>2026-04-18T08:48:52.242Z</time></trkpt><trkpt lat="43.4770305" lon="11.298188"><ele>567.0</ele><time>2026-04-18T08:48:55.235Z</time></trkpt><trkpt lat="43.4770542" lon="11.298286"><ele>567.0</ele><time>2026-04-18T08:48:58.247Z</time></trkpt><trkpt lat="43.4770829" lon="11.2983791"><ele>567.0</ele><time>2026-04-18T08:49:01.237Z</time></trkpt><trkpt lat="43.4771099" lon="11.2984784"><ele>567.0</ele><time>2026-04-18T08:49:04.247Z</time></trkpt><trkpt lat="43.4771747" lon="11.298564"><ele>567.1666666666666</ele><time>2026-04-18T08:49:07.259Z</time></trkpt><trkpt lat="43.4771669" lon="11.2986843"><ele>567.3333333333334</ele><time>2026-04-18T08:49:10.307Z</time></trkpt><trkpt lat="43.4771959" lon="11.2987767"><ele>567.5</ele><time>2026-04-18T08:49:13.301Z</time></trkpt><trkpt lat="43.4772215" lon="11.2988821"><ele>567.6666666666667</ele><time>2026-04-18T08:49:17.238Z</time></trkpt><trkpt lat="43.4772509" lon="11.2989726"><ele>567.8333333333334</ele><time>2026-04-18T08:49:20.316Z</time></trkpt><trkpt lat="43.4772781" lon="11.2990679"><ele>568.0</ele><time>2026-04-18T08:49:23.241Z</time></trkpt><trkpt lat="43.4772933" lon="11.2991715"><ele>568.0</ele><time>2026-04-18T08:49:27.241Z</time></trkpt><trkpt lat="43.4772865" lon="11.2992697"><ele>568.0</ele><time>2026-04-18T08:49:29.242Z</time></trkpt><trkpt lat="43.4772848" lon="11.2993588"><ele>568.0</ele><time>2026-04-18T08:49:31.233Z</time></trkpt><trkpt lat="43.477275" lon="11.2994727"><ele>568.0</ele><time>2026-04-18T08:49:34.219Z</time></trkpt><trkpt lat="43.4772769" lon="11.2995723"><ele>568.0</ele><time>2026-04-18T08:49:37.235Z</time></trkpt><trkpt lat="43.4772452" lon="11.2996504"><ele>568.0</ele><time>2026-04-18T08:49:40.244Z</time></trkpt><trkpt lat="43.477216" lon="11.2997546"><ele>568.0</ele><time>2026-04-18T08:49:43.32Z</time></trkpt><trkpt lat="43.4771851" lon="11.2998428"><ele>568.6666666666667</ele><time>2026-04-18T08:49:46.221Z</time></trkpt><trkpt lat="43.4771519" lon="11.2999463"><ele>569.3333333333334</ele><time>2026-04-18T08:49:50.251Z</time></trkpt><trkpt lat="43.4771349" lon="11.3000659"><ele>570.0</ele><time>2026-04-18T08:49:53.235Z</time></trkpt><trkpt lat="43.4771099" lon="11.3001609"><ele>570.6666666666666</ele><time>2026-04-18T08:49:55.3Z</time></trkpt><trkpt lat="43.4770872" lon="11.3002801"><ele>571.3333333333333</ele><time>2026-04-18T08:49:57.238Z</time></trkpt><trkpt lat="43.4770699" lon="11.3003856"><ele>572.0</ele><time>2026-04-18T08:50:01.22Z</time></trkpt><trkpt lat="43.4770516" lon="11.300501"><ele>574.5</ele><time>2026-04-18T08:50:04.314Z</time></trkpt><trkpt lat="43.477026" lon="11.3006157"><ele>577.0</ele><time>2026-04-18T08:50:07.243Z</time></trkpt><trkpt lat="43.47701" lon="11.3007325"><ele>579.5</ele><time>2026-04-18T08:50:11.22Z</time></trkpt><trkpt lat="43.4769853" lon="11.3008556"><ele>582.0</ele><time>2026-04-18T08:50:15.233Z</time></trkpt><trkpt lat="43.4769669" lon="11.3009499"><ele>584.5</ele><time>2026-04-18T08:50:18.237Z</time></trkpt><trkpt lat="43.4769383" lon="11.3010502"><ele>587.0</ele><time>2026-04-18T08:50:21.3Z</time></trkpt><trkpt lat="43.4769144" lon="11.3011613"><ele>587.0</ele><time>2026-04-18T08:50:25.219Z</time></trkpt><trkpt lat="43.4769352" lon="11.3012803"><ele>587.0</ele><time>2026-04-18T08:50:28.235Z</time></trkpt><trkpt lat="43.4769676" lon="11.3013762"><ele>587.0</ele><time>2026-04-18T08:50:31.215Z</time></trkpt><trkpt lat="43.4769973" lon="11.3014706"><ele>587.0</ele><time>2026-04-18T08:50:34.237Z</time></trkpt><trkpt lat="43.4770506" lon="11.3015562"><ele>587.0</ele><time>2026-04-18T08:50:37.21Z</time></trkpt><trkpt lat="43.4771035" lon="11.3016033"><ele>587.0</ele><time>2026-04-18T08:50:39.252Z</time></trkpt><trkpt lat="43.4771623" lon="11.3016484"><ele>586.0</ele><time>2026-04-18T08:50:41.243Z</time></trkpt><trkpt lat="43.4772249" lon="11.3016919"><ele>585.0</ele><time>2026-04-18T08:50:43.252Z</time></trkpt><trkpt lat="43.4772841" lon="11.3017296"><ele>584.0</ele><time>2026-04-18T08:50:45.305Z</time></trkpt><trkpt lat="43.4773658" lon="11.3017766"><ele>583.0</ele><time>2026-04-18T08:50:48.314Z</time></trkpt><trkpt lat="43.4774408" lon="11.3018309"><ele>582.0</ele><time>2026-04-18T08:50:51.218Z</time></trkpt><trkpt lat="43.4775178" lon="11.3018764"><ele>581.0</ele><time>2026-04-18T08:50:54.238Z</time></trkpt><trkpt lat="43.4775928" lon="11.301928"><ele>581.0</ele><time>2026-04-18T08:50:57.241Z</time></trkpt><trkpt lat="43.4776729" lon="11.3019731"><ele>581.0</ele><time>2026-04-18T08:51:00.318Z</time></trkpt><trkpt lat="43.4777334" lon="11.301998"><ele>581.0</ele><time>2026-04-18T08:51:02.24Z</time></trkpt><trkpt lat="43.4777837" lon="11.3020512"><ele>581.0</ele><time>2026-04-18T08:51:05.249Z</time></trkpt><trkpt lat="43.4778429" lon="11.3021105"><ele>581.0</ele><time>2026-04-18T08:51:08.241Z</time></trkpt><trkpt lat="43.4779001" lon="11.3021687"><ele>581.0</ele><time>2026-04-18T08:51:11.239Z</time></trkpt><trkpt lat="43.4779546" lon="11.3022252"><ele>581.0</ele><time>2026-04-18T08:51:14.231Z</time></trkpt><trkpt lat="43.4780011" lon="11.3022852"><ele>582.1666666666666</ele><time>2026-04-18T08:51:17.248Z</time></trkpt><trkpt lat="43.4780505" lon="11.3023784"><ele>583.3333333333333</ele><time>2026-04-18T08:51:20.238Z</time></trkpt><trkpt lat="43.4781022" lon="11.3024721"><ele>584.5</ele><time>2026-04-18T08:51:23.237Z</time></trkpt><trkpt lat="43.4781444" lon="11.3025631"><ele>585.6666666666666</ele><time>2026-04-18T08:51:26.242Z</time></trkpt><trkpt lat="43.4781767" lon="11.3026604"><ele>586.8333333333334</ele><time>2026-04-18T08:51:29.222Z</time></trkpt><trkpt lat="43.4782181" lon="11.3027642"><ele>588.0</ele><time>2026-04-18T08:51:31.219Z</time></trkpt><trkpt lat="43.4782647" lon="11.3028432"><ele>588.0</ele><time>2026-04-18T08:51:33.259Z</time></trkpt><trkpt lat="43.4782672" lon="11.302939"><ele>588.0</ele><time>2026-04-18T08:51:36.243Z</time></trkpt><trkpt lat="43.4782768" lon="11.3030493"><ele>588.0</ele><time>2026-04-18T08:51:39.239Z</time></trkpt><trkpt lat="43.478299" lon="11.3031481"><ele>588.0</ele><time>2026-04-18T08:51:42.251Z</time></trkpt><trkpt lat="43.4783201" lon="11.3032305"><ele>588.0</ele><time>2026-04-18T08:51:44.221Z</time></trkpt><trkpt lat="43.4783458" lon="11.3033127"><ele>588.0</ele><time>2026-04-18T08:51:46.259Z</time></trkpt><trkpt lat="43.4783878" lon="11.3033905"><ele>588.0</ele><time>2026-04-18T08:51:48.242Z</time></trkpt><trkpt lat="43.4784367" lon="11.3034876"><ele>587.8333333333334</ele><time>2026-04-18T08:51:51.237Z</time></trkpt><trkpt lat="43.4784907" lon="11.3035857"><ele>587.6666666666666</ele><time>2026-04-18T08:51:54.247Z</time></trkpt><trkpt lat="43.4785489" lon="11.3036733"><ele>587.5</ele><time>2026-04-18T08:51:57.225Z</time></trkpt><trkpt lat="43.4786083" lon="11.3037561"><ele>587.3333333333333</ele><time>2026-04-18T08:52:00.24Z</time></trkpt><trkpt lat="43.4786675" lon="11.3038375"><ele>587.1666666666666</ele><time>2026-04-18T08:52:03.233Z</time></trkpt><trkpt lat="43.4787261" lon="11.303929"><ele>587.0</ele><time>2026-04-18T08:52:06.238Z</time></trkpt><trkpt lat="43.4787844" lon="11.30401"><ele>586.5</ele><time>2026-04-18T08:52:09.307Z</time></trkpt><trkpt lat="43.4788401" lon="11.3040866"><ele>586.0</ele><time>2026-04-18T08:52:12.254Z</time></trkpt><trkpt lat="43.478896" lon="11.304164"><ele>585.5</ele><time>2026-04-18T08:52:15.225Z</time></trkpt><trkpt lat="43.4789472" lon="11.3042665"><ele>585.0</ele><time>2026-04-18T08:52:18.243Z</time></trkpt><trkpt lat="43.4789782" lon="11.3043457"><ele>584.5</ele><time>2026-04-18T08:52:20.305Z</time></trkpt><trkpt lat="43.4790249" lon="11.3044726"><ele>584.0</ele><time>2026-04-18T08:52:23.234Z</time></trkpt><trkpt lat="43.4790593" lon="11.304554"><ele>584.0</ele><time>2026-04-18T08:52:25.309Z</time></trkpt><trkpt lat="43.4791117" lon="11.3046104"><ele>584.0</ele><time>2026-04-18T08:52:26.241Z</time></trkpt><trkpt lat="43.4791654" lon="11.3046724"><ele>584.0</ele><time>2026-04-18T08:52:27.238Z</time></trkpt><trkpt lat="43.4792577" lon="11.3047868"><ele>584.0</ele><time>2026-04-18T08:52:29.24Z</time></trkpt><trkpt lat="43.4793472" lon="11.3049081"><ele>584.0</ele><time>2026-04-18T08:52:31.248Z</time></trkpt><trkpt lat="43.4793985" lon="11.3049652"><ele>583.8571428571429</ele><time>2026-04-18T08:52:32.239Z</time></trkpt><trkpt lat="43.4794487" lon="11.3050238"><ele>583.7142857142858</ele><time>2026-04-18T08:52:33.249Z</time></trkpt><trkpt lat="43.4795021" lon="11.3050818"><ele>583.5714285714287</ele><time>2026-04-18T08:52:34.223Z</time></trkpt><trkpt lat="43.4795568" lon="11.3051361"><ele>583.4285714285714</ele><time>2026-04-18T08:52:35.222Z</time></trkpt><trkpt lat="43.4796149" lon="11.305191"><ele>583.2857142857143</ele><time>2026-04-18T08:52:36.243Z</time></trkpt><trkpt lat="43.479684" lon="11.3052533"><ele>583.1428571428572</ele><time>2026-04-18T08:52:37.228Z</time></trkpt><trkpt lat="43.4797497" lon="11.3053154"><ele>583.0</ele><time>2026-04-18T08:52:38.249Z</time></trkpt><trkpt lat="43.479813" lon="11.3053841"><ele>582.3333333333334</ele><time>2026-04-18T08:52:39.242Z</time></trkpt><trkpt lat="43.4798791" lon="11.3054519"><ele>581.6666666666667</ele><time>2026-04-18T08:52:40.24Z</time></trkpt><trkpt lat="43.479952" lon="11.3055178"><ele>581.0</ele><time>2026-04-18T08:52:41.256Z</time></trkpt><trkpt lat="43.4800208" lon="11.3055815"><ele>580.3333333333334</ele><time>2026-04-18T08:52:42.243Z</time></trkpt><trkpt lat="43.4800957" lon="11.3056408"><ele>579.6666666666666</ele><time>2026-04-18T08:52:43.236Z</time></trkpt><trkpt lat="43.4801729" lon="11.305695"><ele>579.0</ele><time>2026-04-18T08:52:44.243Z</time></trkpt><trkpt lat="43.4802535" lon="11.3057412"><ele>578.8571428571428</ele><time>2026-04-18T08:52:45.233Z</time></trkpt><trkpt lat="43.4803333" lon="11.3057813"><ele>578.7142857142857</ele><time>2026-04-18T08:52:46.254Z</time></trkpt><trkpt lat="43.480414" lon="11.3057955"><ele>578.5714285714286</ele><time>2026-04-18T08:52:47.235Z</time></trkpt><trkpt lat="43.4804874" lon="11.3057773"><ele>578.4285714285713</ele><time>2026-04-18T08:52:48.239Z</time></trkpt><trkpt lat="43.4805484" lon="11.3057311"><ele>578.2857142857142</ele><time>2026-04-18T08:52:49.229Z</time></trkpt><trkpt lat="43.4806069" lon="11.3056875"><ele>578.1428571428571</ele><time>2026-04-18T08:52:50.311Z</time></trkpt><trkpt lat="43.4806647" lon="11.3056514"><ele>578.0</ele><time>2026-04-18T08:52:51.225Z</time></trkpt><trkpt lat="43.4807583" lon="11.3055791"><ele>577.8333333333333</ele><time>2026-04-18T08:52:53.238Z</time></trkpt><trkpt lat="43.4808419" lon="11.305536"><ele>577.6666666666666</ele><time>2026-04-18T08:52:55.282Z</time></trkpt><trkpt lat="43.4809226" lon="11.3055332"><ele>577.5</ele><time>2026-04-18T08:52:57.249Z</time></trkpt><trkpt lat="43.4809917" lon="11.3056009"><ele>577.3333333333334</ele><time>2026-04-18T08:53:00.239Z</time></trkpt><trkpt lat="43.4810402" lon="11.3056723"><ele>577.1666666666667</ele><time>2026-04-18T08:53:04.3Z</time></trkpt><trkpt lat="43.4810556" lon="11.3057789"><ele>577.0</ele><time>2026-04-18T08:53:08.251Z</time></trkpt><trkpt lat="43.4810786" lon="11.3058766"><ele>577.7142857142857</ele><time>2026-04-18T08:53:12.255Z</time></trkpt><trkpt lat="43.4810677" lon="11.3059775"><ele>578.4285714285714</ele><time>2026-04-18T08:53:16.238Z</time></trkpt><trkpt lat="43.4810653" lon="11.3060866"><ele>579.1428571428571</ele><time>2026-04-18T08:53:20.307Z</time></trkpt><trkpt lat="43.4810666" lon="11.3061825"><ele>579.8571428571429</ele><time>2026-04-18T08:53:23.238Z</time></trkpt><trkpt lat="43.4810437" lon="11.3062655"><ele>580.5714285714286</ele><time>2026-04-18T08:53:27.249Z</time></trkpt><trkpt lat="43.4810126" lon="11.3063524"><ele>581.2857142857142</ele><time>2026-04-18T08:53:30.237Z</time></trkpt><trkpt lat="43.4809962" lon="11.3064415"><ele>582.0</ele><time>2026-04-18T08:53:33.323Z</time></trkpt><trkpt lat="43.4809906" lon="11.3065284"><ele>582.7142857142857</ele><time>2026-04-18T08:53:36.248Z</time></trkpt><trkpt lat="43.4809944" lon="11.306638"><ele>583.4285714285713</ele><time>2026-04-18T08:53:40.318Z</time></trkpt><trkpt lat="43.4810255" lon="11.3067228"><ele>584.1428571428571</ele><time>2026-04-18T08:53:43.233Z</time></trkpt><trkpt lat="43.4810581" lon="11.3068119"><ele>584.8571428571429</ele><time>2026-04-18T08:53:47.24Z</time></trkpt><trkpt lat="43.4810787" lon="11.3068972"><ele>585.5714285714287</ele><time>2026-04-18T08:53:52.235Z</time></trkpt><trkpt lat="43.4810688" lon="11.3070073"><ele>586.2857142857143</ele><time>2026-04-18T08:53:55.306Z</time></trkpt><trkpt lat="43.4810578" lon="11.3071079"><ele>587.0</ele><time>2026-04-18T08:53:59.231Z</time></trkpt><trkpt lat="43.4810407" lon="11.3072164"><ele>588.0</ele><time>2026-04-18T08:54:03.229Z</time></trkpt><trkpt lat="43.4810465" lon="11.3073158"><ele>589.0</ele><time>2026-04-18T08:54:07.24Z</time></trkpt><trkpt lat="43.4810527" lon="11.3074188"><ele>590.0</ele><time>2026-04-18T08:54:11.238Z</time></trkpt><trkpt lat="43.4810693" lon="11.3075276"><ele>591.0</ele><time>2026-04-18T08:54:15.257Z</time></trkpt><trkpt lat="43.4810892" lon="11.3076267"><ele>592.0</ele><time>2026-04-18T08:54:19.32Z</time></trkpt><trkpt lat="43.4811129" lon="11.3077153"><ele>593.0</ele><time>2026-04-18T08:54:23.237Z</time></trkpt><trkpt lat="43.4811276" lon="11.3078072"><ele>594.0</ele><time>2026-04-18T08:54:26.224Z</time></trkpt><trkpt lat="43.4811389" lon="11.3078936"><ele>594.0</ele><time>2026-04-18T08:54:29.23Z</time></trkpt><trkpt lat="43.4811617" lon="11.3079995"><ele>594.0</ele><time>2026-04-18T08:54:33.234Z</time></trkpt><trkpt lat="43.4811512" lon="11.3081041"><ele>594.0</ele><time>2026-04-18T08:54:37.245Z</time></trkpt><trkpt lat="43.4811932" lon="11.3081851"><ele>594.0</ele><time>2026-04-18T08:54:41.251Z</time></trkpt><trkpt lat="43.4812518" lon="11.308278"><ele>594.0</ele><time>2026-04-18T08:54:45.246Z</time></trkpt><trkpt lat="43.4812922" lon="11.3083546"><ele>594.0</ele><time>2026-04-18T08:54:48.241Z</time></trkpt><trkpt lat="43.4813222" lon="11.3084354"><ele>595.3333333333334</ele><time>2026-04-18T08:54:51.235Z</time></trkpt><trkpt lat="43.4813672" lon="11.3085329"><ele>596.6666666666666</ele><time>2026-04-18T08:54:55.243Z</time></trkpt><trkpt lat="43.4814067" lon="11.3086338"><ele>598.0</ele><time>2026-04-18T08:54:59.215Z</time></trkpt><trkpt lat="43.4814346" lon="11.3087164"><ele>599.3333333333333</ele><time>2026-04-18T08:55:02.218Z</time></trkpt><trkpt lat="43.4814585" lon="11.3088041"><ele>600.6666666666666</ele><time>2026-04-18T08:55:05.243Z</time></trkpt><trkpt lat="43.4814772" lon="11.3089276"><ele>602.0</ele><time>2026-04-18T08:55:09.319Z</time></trkpt><trkpt lat="43.481497" lon="11.3090184"><ele>602.3333333333333</ele><time>2026-04-18T08:55:12.244Z</time></trkpt><trkpt lat="43.4815158" lon="11.3091295"><ele>602.6666666666666</ele><time>2026-04-18T08:55:16.247Z</time></trkpt><trkpt lat="43.4815152" lon="11.3092246"><ele>603.0</ele><time>2026-04-18T08:55:19.305Z</time></trkpt><trkpt lat="43.4815166" lon="11.3093471"><ele>603.3333333333334</ele><time>2026-04-18T08:55:22.234Z</time></trkpt><trkpt lat="43.4815149" lon="11.3094552"><ele>603.6666666666667</ele><time>2026-04-18T08:55:26.237Z</time></trkpt><trkpt lat="43.4815034" lon="11.3095428"><ele>604.0</ele><time>2026-04-18T08:55:29.246Z</time></trkpt><trkpt lat="43.4814916" lon="11.3096533"><ele>604.2857142857143</ele><time>2026-04-18T08:55:33.253Z</time></trkpt><trkpt lat="43.4814835" lon="11.3097441"><ele>604.5714285714286</ele><time>2026-04-18T08:55:36.241Z</time></trkpt><trkpt lat="43.4814727" lon="11.3098574"><ele>604.8571428571429</ele><time>2026-04-18T08:55:40.249Z</time></trkpt><trkpt lat="43.4814612" lon="11.309951"><ele>605.1428571428571</ele><time>2026-04-18T08:55:43.252Z</time></trkpt><trkpt lat="43.4814452" lon="11.3100397"><ele>605.4285714285714</ele><time>2026-04-18T08:55:46.242Z</time></trkpt><trkpt lat="43.4814304" lon="11.3101313"><ele>605.7142857142858</ele><time>2026-04-18T08:55:49.311Z</time></trkpt><trkpt lat="43.4813964" lon="11.3102276"><ele>606.0</ele><time>2026-04-18T08:55:52.245Z</time></trkpt><trkpt lat="43.4813525" lon="11.310312"><ele>606.0</ele><time>2026-04-18T08:55:55.245Z</time></trkpt><trkpt lat="43.4813018" lon="11.3103861"><ele>606.0</ele><time>2026-04-18T08:55:58.226Z</time></trkpt><trkpt lat="43.481215" lon="11.3104613"><ele>606.0</ele><time>2026-04-18T08:56:01.307Z</time></trkpt><trkpt lat="43.4811538" lon="11.3105107"><ele>606.0</ele><time>2026-04-18T08:56:04.243Z</time></trkpt><trkpt lat="43.4811194" lon="11.3106168"><ele>606.0</ele><time>2026-04-18T08:56:08.238Z</time></trkpt><trkpt lat="43.4810821" lon="11.3107204"><ele>606.0</ele><time>2026-04-18T08:56:12.215Z</time></trkpt><trkpt lat="43.4810562" lon="11.3108131"><ele>606.0</ele><time>2026-04-18T08:56:15.239Z</time></trkpt><trkpt lat="43.4810538" lon="11.3109363"><ele>606.0</ele><time>2026-04-18T08:56:19.235Z</time></trkpt><trkpt lat="43.4810775" lon="11.3110497"><ele>606.0</ele><time>2026-04-18T08:56:22.218Z</time></trkpt><trkpt lat="43.4811268" lon="11.3111478"><ele>606.0</ele><time>2026-04-18T08:56:25.239Z</time></trkpt><trkpt lat="43.4811796" lon="11.3112335"><ele>606.0</ele><time>2026-04-18T08:56:28.235Z</time></trkpt><trkpt lat="43.4812415" lon="11.3112979"><ele>606.0</ele><time>2026-04-18T08:56:30.324Z</time></trkpt><trkpt lat="43.4812955" lon="11.3113701"><ele>606.0</ele><time>2026-04-18T08:56:32.251Z</time></trkpt><trkpt lat="43.4813468" lon="11.3114399"><ele>606.0</ele><time>2026-04-18T08:56:34.295Z</time></trkpt><trkpt lat="43.4814159" lon="11.31153"><ele>606.0</ele><time>2026-04-18T08:56:37.23Z</time></trkpt><trkpt lat="43.4814642" lon="11.3115859"><ele>606.0</ele><time>2026-04-18T08:56:39.316Z</time></trkpt><trkpt lat="43.4815116" lon="11.3116469"><ele>606.0</ele><time>2026-04-18T08:56:41.233Z</time></trkpt><trkpt lat="43.4815744" lon="11.3117228"><ele>606.0</ele><time>2026-04-18T08:56:44.225Z</time></trkpt><trkpt lat="43.4816311" lon="11.3117713"><ele>606.0</ele><time>2026-04-18T08:56:46.302Z</time></trkpt><trkpt lat="43.4817059" lon="11.3118642"><ele>606.0</ele><time>2026-04-18T08:56:49.242Z</time></trkpt><trkpt lat="43.4817551" lon="11.31193"><ele>606.0</ele><time>2026-04-18T08:56:51.236Z</time></trkpt><trkpt lat="43.4818225" lon="11.3119703"><ele>606.0</ele><time>2026-04-18T08:56:53.24Z</time></trkpt><trkpt lat="43.4818922" lon="11.3120198"><ele>606.0</ele><time>2026-04-18T08:56:55.237Z</time></trkpt><trkpt lat="43.4819579" lon="11.3120578"><ele>606.0</ele><time>2026-04-18T08:56:57.241Z</time></trkpt><trkpt lat="43.4820178" lon="11.3120905"><ele>606.0</ele><time>2026-04-18T08:56:59.317Z</time></trkpt><trkpt lat="43.4821027" lon="11.3121315"><ele>606.0</ele><time>2026-04-18T08:57:02.237Z</time></trkpt><trkpt lat="43.4821807" lon="11.3121677"><ele>605.6666666666666</ele><time>2026-04-18T08:57:05.321Z</time></trkpt><trkpt lat="43.482253" lon="11.3121819"><ele>605.3333333333334</ele><time>2026-04-18T08:57:07.243Z</time></trkpt><trkpt lat="43.4823229" lon="11.3121993"><ele>605.0</ele><time>2026-04-18T08:57:09.217Z</time></trkpt><trkpt lat="43.4824024" lon="11.3122225"><ele>604.6666666666667</ele><time>2026-04-18T08:57:11.237Z</time></trkpt><trkpt lat="43.4824755" lon="11.3122383"><ele>604.3333333333334</ele><time>2026-04-18T08:57:13.245Z</time></trkpt><trkpt lat="43.4825463" lon="11.3122633"><ele>604.0</ele><time>2026-04-18T08:57:15.309Z</time></trkpt><trkpt lat="43.482617" lon="11.3123099"><ele>604.0</ele><time>2026-04-18T08:57:17.242Z</time></trkpt><trkpt lat="43.4826832" lon="11.3123597"><ele>604.0</ele><time>2026-04-18T08:57:19.317Z</time></trkpt><trkpt lat="43.4827495" lon="11.3124182"><ele>604.0</ele><time>2026-04-18T08:57:21.309Z</time></trkpt><trkpt lat="43.4828076" lon="11.312482"><ele>604.0</ele><time>2026-04-18T08:57:23.234Z</time></trkpt><trkpt lat="43.4828845" lon="11.3125457"><ele>604.0</ele><time>2026-04-18T08:57:25.309Z</time></trkpt><trkpt lat="43.482945" lon="11.3126146"><ele>604.0</ele><time>2026-04-18T08:57:27.248Z</time></trkpt><trkpt lat="43.4830012" lon="11.3126911"><ele>603.0</ele><time>2026-04-18T08:57:29.221Z</time></trkpt><trkpt lat="43.4830567" lon="11.3127728"><ele>602.0</ele><time>2026-04-18T08:57:31.317Z</time></trkpt><trkpt lat="43.4831205" lon="11.3128623"><ele>601.0</ele><time>2026-04-18T08:57:33.332Z</time></trkpt><trkpt lat="43.4831903" lon="11.3129444"><ele>600.0</ele><time>2026-04-18T08:57:35.232Z</time></trkpt><trkpt lat="43.4832655" lon="11.3130099"><ele>599.0</ele><time>2026-04-18T08:57:37.233Z</time></trkpt><trkpt lat="43.4833523" lon="11.313095"><ele>599.0</ele><time>2026-04-18T08:57:39.228Z</time></trkpt><trkpt lat="43.4834469" lon="11.3131583"><ele>599.0</ele><time>2026-04-18T08:57:41.239Z</time></trkpt><trkpt lat="43.4835382" lon="11.3132135"><ele>599.0</ele><time>2026-04-18T08:57:43.241Z</time></trkpt><trkpt lat="43.4836418" lon="11.3132541"><ele>599.0</ele><time>2026-04-18T08:57:45.236Z</time></trkpt><trkpt lat="43.4837532" lon="11.3132778"><ele>599.0</ele><time>2026-04-18T08:57:47.232Z</time></trkpt><trkpt lat="43.4838626" lon="11.3132913"><ele>600.6</ele><time>2026-04-18T08:57:49.318Z</time></trkpt><trkpt lat="43.4839917" lon="11.3132763"><ele>602.2</ele><time>2026-04-18T08:57:51.252Z</time></trkpt><trkpt lat="43.4841032" lon="11.3132958"><ele>603.8000000000001</ele><time>2026-04-18T08:57:53.245Z</time></trkpt><trkpt lat="43.4842209" lon="11.3133319"><ele>605.4</ele><time>2026-04-18T08:57:55.229Z</time></trkpt><trkpt lat="43.4842826" lon="11.3133545"><ele>607.0</ele><time>2026-04-18T08:57:56.242Z</time></trkpt><trkpt lat="43.4843429" lon="11.3133882"><ele>606.9999999999999</ele><time>2026-04-18T08:57:57.299Z</time></trkpt><trkpt lat="43.4843975" lon="11.3134321"><ele>607.0</ele><time>2026-04-18T08:57:58.242Z</time></trkpt><trkpt lat="43.4844536" lon="11.3134859"><ele>607.0</ele><time>2026-04-18T08:57:59.315Z</time></trkpt><trkpt lat="43.4845058" lon="11.3135421"><ele>607.0</ele><time>2026-04-18T08:58:00.239Z</time></trkpt><trkpt lat="43.484561" lon="11.3136077"><ele>607.0</ele><time>2026-04-18T08:58:01.309Z</time></trkpt><trkpt lat="43.4846072" lon="11.3136746"><ele>606.9999999999999</ele><time>2026-04-18T08:58:02.228Z</time></trkpt><trkpt lat="43.4846455" lon="11.3137479"><ele>607.0</ele><time>2026-04-18T08:58:03.228Z</time></trkpt><trkpt lat="43.4846732" lon="11.3138275"><ele>608.4</ele><time>2026-04-18T08:58:04.305Z</time></trkpt><trkpt lat="43.48471" lon="11.3139868"><ele>609.8000000000001</ele><time>2026-04-18T08:58:06.239Z</time></trkpt><trkpt lat="43.4847324" lon="11.3141533"><ele>611.2</ele><time>2026-04-18T08:58:08.241Z</time></trkpt><trkpt lat="43.4847407" lon="11.3142401"><ele>612.6</ele><time>2026-04-18T08:58:09.31Z</time></trkpt><trkpt lat="43.4847503" lon="11.3143927"><ele>614.0</ele><time>2026-04-18T08:58:11.237Z</time></trkpt><trkpt lat="43.4847606" lon="11.314552"><ele>614.0</ele><time>2026-04-18T08:58:13.228Z</time></trkpt><trkpt lat="43.4847831" lon="11.3147094"><ele>614.0</ele><time>2026-04-18T08:58:15.229Z</time></trkpt><trkpt lat="43.4848067" lon="11.3148319"><ele>614.0</ele><time>2026-04-18T08:58:17.235Z</time></trkpt><trkpt lat="43.4848489" lon="11.3149698"><ele>614.0</ele><time>2026-04-18T08:58:19.241Z</time></trkpt><trkpt lat="43.4848799" lon="11.3150516"><ele>614.0</ele><time>2026-04-18T08:58:20.224Z</time></trkpt><trkpt lat="43.4849278" lon="11.3151282"><ele>612.5714285714286</ele><time>2026-04-18T08:58:21.241Z</time></trkpt><trkpt lat="43.4849755" lon="11.3152001"><ele>611.1428571428571</ele><time>2026-04-18T08:58:22.244Z</time></trkpt><trkpt lat="43.485024" lon="11.3152749"><ele>609.7142857142858</ele><time>2026-04-18T08:58:23.244Z</time></trkpt><trkpt lat="43.4850695" lon="11.3153487"><ele>608.2857142857142</ele><time>2026-04-18T08:58:24.248Z</time></trkpt><trkpt lat="43.4851253" lon="11.3154128"><ele>606.8571428571429</ele><time>2026-04-18T08:58:25.238Z</time></trkpt><trkpt lat="43.4851868" lon="11.3154756"><ele>605.4285714285714</ele><time>2026-04-18T08:58:26.231Z</time></trkpt><trkpt lat="43.4852557" lon="11.3155369"><ele>604.0</ele><time>2026-04-18T08:58:27.246Z</time></trkpt><trkpt lat="43.4853235" lon="11.3155957"><ele>605.5</ele><time>2026-04-18T08:58:28.237Z</time></trkpt><trkpt lat="43.4853862" lon="11.3156662"><ele>607.0</ele><time>2026-04-18T08:58:29.23Z</time></trkpt><trkpt lat="43.485438" lon="11.3157492"><ele>608.5</ele><time>2026-04-18T08:58:30.243Z</time></trkpt><trkpt lat="43.4854714" lon="11.3158582"><ele>610.0</ele><time>2026-04-18T08:58:31.242Z</time></trkpt><trkpt lat="43.485484" lon="11.3159819"><ele>611.5</ele><time>2026-04-18T08:58:32.247Z</time></trkpt><trkpt lat="43.4854891" lon="11.3161076"><ele>613.0</ele><time>2026-04-18T08:58:33.242Z</time></trkpt><trkpt lat="43.485488" lon="11.3162339"><ele>613.0</ele><time>2026-04-18T08:58:34.226Z</time></trkpt><trkpt lat="43.4854883" lon="11.3163572"><ele>613.0</ele><time>2026-04-18T08:58:35.254Z</time></trkpt><trkpt lat="43.4854926" lon="11.3164744"><ele>613.0</ele><time>2026-04-18T08:58:36.247Z</time></trkpt><trkpt lat="43.4855073" lon="11.3165869"><ele>613.0</ele><time>2026-04-18T08:58:37.248Z</time></trkpt><trkpt lat="43.4855305" lon="11.3166923"><ele>613.0</ele><time>2026-04-18T08:58:38.24Z</time></trkpt><trkpt lat="43.4855627" lon="11.316794"><ele>613.0</ele><time>2026-04-18T08:58:39.247Z</time></trkpt><trkpt lat="43.4856016" lon="11.316892"><ele>611.8333333333334</ele><time>2026-04-18T08:58:40.233Z</time></trkpt><trkpt lat="43.4856455" lon="11.3169859"><ele>610.6666666666667</ele><time>2026-04-18T08:58:41.255Z</time></trkpt><trkpt lat="43.4856895" lon="11.3170772"><ele>609.5</ele><time>2026-04-18T08:58:42.226Z</time></trkpt><trkpt lat="43.485736" lon="11.3171584"><ele>608.3333333333334</ele><time>2026-04-18T08:58:43.24Z</time></trkpt><trkpt lat="43.4857851" lon="11.3172372"><ele>607.1666666666666</ele><time>2026-04-18T08:58:44.24Z</time></trkpt><trkpt lat="43.4858345" lon="11.3173089"><ele>606.0</ele><time>2026-04-18T08:58:45.261Z</time></trkpt><trkpt lat="43.4858873" lon="11.3173743"><ele>604.5</ele><time>2026-04-18T08:58:46.3Z</time></trkpt><trkpt lat="43.4859356" lon="11.3174371"><ele>603.0</ele><time>2026-04-18T08:58:47.233Z</time></trkpt><trkpt lat="43.485976" lon="11.3175077"><ele>601.5</ele><time>2026-04-18T08:58:48.24Z</time></trkpt><trkpt lat="43.4860246" lon="11.3176709"><ele>600.0</ele><time>2026-04-18T08:58:50.21Z</time></trkpt><trkpt lat="43.4860296" lon="11.3177649"><ele>598.5</ele><time>2026-04-18T08:58:51.242Z</time></trkpt><trkpt lat="43.4860177" lon="11.3178518"><ele>597.0</ele><time>2026-04-18T08:58:52.241Z</time></trkpt><trkpt lat="43.4859573" lon="11.3179584"><ele>597.0</ele><time>2026-04-18T08:58:54.241Z</time></trkpt><trkpt lat="43.4858828" lon="11.3180511"><ele>597.0</ele><time>2026-04-18T08:58:56.224Z</time></trkpt><trkpt lat="43.4858144" lon="11.3181407"><ele>597.0</ele><time>2026-04-18T08:58:58.227Z</time></trkpt><trkpt lat="43.4857558" lon="11.3182424"><ele>597.0</ele><time>2026-04-18T08:59:00.329Z</time></trkpt><trkpt lat="43.4856893" lon="11.3183225"><ele>597.0</ele><time>2026-04-18T08:59:02.239Z</time></trkpt><trkpt lat="43.4856274" lon="11.3184011"><ele>596.7142857142858</ele><time>2026-04-18T08:59:04.242Z</time></trkpt><trkpt lat="43.4855819" lon="11.318479"><ele>596.4285714285714</ele><time>2026-04-18T08:59:06.257Z</time></trkpt><trkpt lat="43.4855333" lon="11.3185659"><ele>596.1428571428571</ele><time>2026-04-18T08:59:08.245Z</time></trkpt><trkpt lat="43.4854893" lon="11.3186458"><ele>595.8571428571429</ele><time>2026-04-18T08:59:10.235Z</time></trkpt><trkpt lat="43.485445" lon="11.3187265"><ele>595.5714285714286</ele><time>2026-04-18T08:59:12.234Z</time></trkpt><trkpt lat="43.4854023" lon="11.31881"><ele>595.2857142857143</ele><time>2026-04-18T08:59:14.239Z</time></trkpt><trkpt lat="43.4853661" lon="11.3189004"><ele>595.0</ele><time>2026-04-18T08:59:16.238Z</time></trkpt><trkpt lat="43.4853285" lon="11.3189927"><ele>596.5714285714286</ele><time>2026-04-18T08:59:18.229Z</time></trkpt><trkpt lat="43.4852949" lon="11.3190913"><ele>598.1428571428571</ele><time>2026-04-18T08:59:20.222Z</time></trkpt><trkpt lat="43.4852661" lon="11.3191862"><ele>599.7142857142858</ele><time>2026-04-18T08:59:22.232Z</time></trkpt><trkpt lat="43.4852401" lon="11.3192799"><ele>601.2857142857142</ele><time>2026-04-18T08:59:24.221Z</time></trkpt><trkpt lat="43.485215" lon="11.3193707"><ele>602.8571428571429</ele><time>2026-04-18T08:59:26.234Z</time></trkpt><trkpt lat="43.4851961" lon="11.3194591"><ele>604.4285714285714</ele><time>2026-04-18T08:59:28.236Z</time></trkpt><trkpt lat="43.4851814" lon="11.3195521"><ele>606.0</ele><time>2026-04-18T08:59:30.316Z</time></trkpt><trkpt lat="43.4851552" lon="11.3196326"><ele>606.0</ele><time>2026-04-18T08:59:32.236Z</time></trkpt><trkpt lat="43.4851613" lon="11.3197297"><ele>606.0</ele><time>2026-04-18T08:59:34.238Z</time></trkpt><trkpt lat="43.485178" lon="11.3198356"><ele>606.0</ele><time>2026-04-18T08:59:36.244Z</time></trkpt><trkpt lat="43.4852021" lon="11.3199465"><ele>606.0</ele><time>2026-04-18T08:59:38.239Z</time></trkpt><trkpt lat="43.4852146" lon="11.3200691"><ele>606.0</ele><time>2026-04-18T08:59:40.304Z</time></trkpt><trkpt lat="43.4852231" lon="11.3201886"><ele>606.0</ele><time>2026-04-18T08:59:42.244Z</time></trkpt><trkpt lat="43.4852195" lon="11.3203236"><ele>606.5</ele><time>2026-04-18T08:59:44.311Z</time></trkpt><trkpt lat="43.4852073" lon="11.3204414"><ele>607.0</ele><time>2026-04-18T08:59:46.318Z</time></trkpt><trkpt lat="43.4851693" lon="11.3205443"><ele>607.5</ele><time>2026-04-18T08:59:48.238Z</time></trkpt><trkpt lat="43.4851399" lon="11.3206364"><ele>608.0</ele><time>2026-04-18T08:59:50.314Z</time></trkpt><trkpt lat="43.4851068" lon="11.3207487"><ele>608.5</ele><time>2026-04-18T08:59:52.232Z</time></trkpt><trkpt lat="43.4850792" lon="11.3208754"><ele>609.0</ele><time>2026-04-18T08:59:54.244Z</time></trkpt><trkpt lat="43.4850507" lon="11.3209875"><ele>607.4</ele><time>2026-04-18T08:59:56.248Z</time></trkpt><trkpt lat="43.485017" lon="11.3211058"><ele>605.8</ele><time>2026-04-18T08:59:58.261Z</time></trkpt><trkpt lat="43.4849724" lon="11.3212201"><ele>604.2</ele><time>2026-04-18T09:00:00.247Z</time></trkpt><trkpt lat="43.4849309" lon="11.3213311"><ele>602.6</ele><time>2026-04-18T09:00:02.258Z</time></trkpt><trkpt lat="43.4848942" lon="11.3214594"><ele>601.0</ele><time>2026-04-18T09:00:04.242Z</time></trkpt><trkpt lat="43.484853" lon="11.3215927"><ele>600.6</ele><time>2026-04-18T09:00:06.331Z</time></trkpt><trkpt lat="43.484806" lon="11.3216972"><ele>600.2</ele><time>2026-04-18T09:00:08.248Z</time></trkpt><trkpt lat="43.4847659" lon="11.3218268"><ele>599.8</ele><time>2026-04-18T09:00:10.248Z</time></trkpt><trkpt lat="43.4847274" lon="11.3219667"><ele>599.4</ele><time>2026-04-18T09:00:12.242Z</time></trkpt><trkpt lat="43.484694" lon="11.3221061"><ele>599.0</ele><time>2026-04-18T09:00:14.242Z</time></trkpt><trkpt lat="43.4846586" lon="11.3222434"><ele>600.0</ele><time>2026-04-18T09:00:16.318Z</time></trkpt><trkpt lat="43.4846227" lon="11.3223802"><ele>601.0</ele><time>2026-04-18T09:00:18.247Z</time></trkpt><trkpt lat="43.4845983" lon="11.322519"><ele>602.0</ele><time>2026-04-18T09:00:20.231Z</time></trkpt><trkpt lat="43.4845793" lon="11.3226475"><ele>603.0</ele><time>2026-04-18T09:00:22.248Z</time></trkpt><trkpt lat="43.4845595" lon="11.3227761"><ele>604.0</ele><time>2026-04-18T09:00:24.316Z</time></trkpt><trkpt lat="43.4845515" lon="11.3228904"><ele>602.0</ele><time>2026-04-18T09:00:26.238Z</time></trkpt><trkpt lat="43.4845483" lon="11.3230342"><ele>600.0</ele><time>2026-04-18T09:00:28.24Z</time></trkpt><trkpt lat="43.484522" lon="11.3231593"><ele>598.0</ele><time>2026-04-18T09:00:30.333Z</time></trkpt><trkpt lat="43.4845065" lon="11.3232965"><ele>596.0</ele><time>2026-04-18T09:00:32.241Z</time></trkpt><trkpt lat="43.4844859" lon="11.3234195"><ele>594.0</ele><time>2026-04-18T09:00:34.322Z</time></trkpt><trkpt lat="43.484504" lon="11.3235325"><ele>594.0</ele><time>2026-04-18T09:00:36.229Z</time></trkpt><trkpt lat="43.4844931" lon="11.3236553"><ele>594.0</ele><time>2026-04-18T09:00:38.238Z</time></trkpt><trkpt lat="43.484455" lon="11.323776"><ele>594.0</ele><time>2026-04-18T09:00:40.239Z</time></trkpt><trkpt lat="43.4844211" lon="11.3238954"><ele>594.0</ele><time>2026-04-18T09:00:42.23Z</time></trkpt><trkpt lat="43.4843924" lon="11.3240135"><ele>594.0</ele><time>2026-04-18T09:00:44.245Z</time></trkpt><trkpt lat="43.4843579" lon="11.3241238"><ele>595.0</ele><time>2026-04-18T09:00:46.231Z</time></trkpt><trkpt lat="43.4843224" lon="11.3242304"><ele>596.0</ele><time>2026-04-18T09:00:48.232Z</time></trkpt><trkpt lat="43.4842865" lon="11.3243309"><ele>597.0</ele><time>2026-04-18T09:00:50.237Z</time></trkpt><trkpt lat="43.4842581" lon="11.3244264"><ele>598.0</ele><time>2026-04-18T09:00:52.239Z</time></trkpt><trkpt lat="43.4842272" lon="11.3245104"><ele>599.0</ele><time>2026-04-18T09:00:54.237Z</time></trkpt><trkpt lat="43.4841916" lon="11.324603"><ele>600.0</ele><time>2026-04-18T09:00:56.241Z</time></trkpt><trkpt lat="43.4841479" lon="11.3246789"><ele>600.7142857142857</ele><time>2026-04-18T09:00:58.237Z</time></trkpt><trkpt lat="43.4841083" lon="11.3247511"><ele>601.4285714285714</ele><time>2026-04-18T09:01:00.234Z</time></trkpt><trkpt lat="43.4840637" lon="11.3248258"><ele>602.1428571428571</ele><time>2026-04-18T09:01:02.236Z</time></trkpt><trkpt lat="43.4840172" lon="11.3248988"><ele>602.8571428571429</ele><time>2026-04-18T09:01:04.244Z</time></trkpt><trkpt lat="43.4839664" lon="11.3249589"><ele>603.5714285714286</ele><time>2026-04-18T09:01:06.246Z</time></trkpt><trkpt lat="43.4839153" lon="11.325017"><ele>604.2857142857142</ele><time>2026-04-18T09:01:08.243Z</time></trkpt><trkpt lat="43.4838379" lon="11.325074"><ele>605.0</ele><time>2026-04-18T09:01:11.235Z</time></trkpt><trkpt lat="43.4837642" lon="11.3251311"><ele>605.7142857142857</ele><time>2026-04-18T09:01:14.246Z</time></trkpt><trkpt lat="43.4836961" lon="11.3251887"><ele>606.4285714285714</ele><time>2026-04-18T09:01:17.244Z</time></trkpt><trkpt lat="43.4836314" lon="11.3252233"><ele>607.1428571428571</ele><time>2026-04-18T09:01:20.31Z</time></trkpt><trkpt lat="43.4835675" lon="11.3252473"><ele>607.8571428571429</ele><time>2026-04-18T09:01:22.225Z</time></trkpt><trkpt lat="43.4834996" lon="11.3253028"><ele>608.5714285714286</ele><time>2026-04-18T09:01:25.241Z</time></trkpt><trkpt lat="43.4834393" lon="11.3253471"><ele>609.2857142857143</ele><time>2026-04-18T09:01:28.245Z</time></trkpt><trkpt lat="43.4833747" lon="11.3253926"><ele>610.0</ele><time>2026-04-18T09:01:31.307Z</time></trkpt><trkpt lat="43.4833095" lon="11.3254524"><ele>610.0</ele><time>2026-04-18T09:01:34.236Z</time></trkpt><trkpt lat="43.483245" lon="11.3254943"><ele>610.0</ele><time>2026-04-18T09:01:37.231Z</time></trkpt><trkpt lat="43.4831819" lon="11.3255212"><ele>610.0</ele><time>2026-04-18T09:01:40.305Z</time></trkpt><trkpt lat="43.4831052" lon="11.325551"><ele>610.0</ele><time>2026-04-18T09:01:44.24Z</time></trkpt><trkpt lat="43.4830436" lon="11.3255877"><ele>610.0</ele><time>2026-04-18T09:01:47.234Z</time></trkpt><trkpt lat="43.4829632" lon="11.3256182"><ele>610.0</ele><time>2026-04-18T09:01:51.324Z</time></trkpt><trkpt lat="43.482898" lon="11.3256269"><ele>610.0</ele><time>2026-04-18T09:01:55.319Z</time></trkpt><trkpt lat="43.4828362" lon="11.3256675"><ele>609.7142857142858</ele><time>2026-04-18T09:01:59.228Z</time></trkpt><trkpt lat="43.4827671" lon="11.3256453"><ele>609.4285714285713</ele><time>2026-04-18T09:02:03.249Z</time></trkpt><trkpt lat="43.48269" lon="11.3256449"><ele>609.1428571428571</ele><time>2026-04-18T09:02:06.225Z</time></trkpt><trkpt lat="43.4826174" lon="11.3256769"><ele>608.8571428571429</ele><time>2026-04-18T09:02:08.236Z</time></trkpt><trkpt lat="43.4825498" lon="11.3256616"><ele>608.5714285714287</ele><time>2026-04-18T09:02:11.243Z</time></trkpt><trkpt lat="43.4824928" lon="11.3256247"><ele>608.2857142857142</ele><time>2026-04-18T09:02:14.248Z</time></trkpt><trkpt lat="43.4824278" lon="11.3256033"><ele>608.0</ele><time>2026-04-18T09:02:17.221Z</time></trkpt><trkpt lat="43.482367" lon="11.3255748"><ele>609.5</ele><time>2026-04-18T09:02:20.24Z</time></trkpt><trkpt lat="43.4822887" lon="11.3255457"><ele>611.0</ele><time>2026-04-18T09:02:24.328Z</time></trkpt><trkpt lat="43.4822196" lon="11.3255329"><ele>612.5</ele><time>2026-04-18T09:02:27.248Z</time></trkpt><trkpt lat="43.4821449" lon="11.3255158"><ele>614.0</ele><time>2026-04-18T09:02:30.234Z</time></trkpt><trkpt lat="43.4820705" lon="11.325499"><ele>615.5</ele><time>2026-04-18T09:02:33.241Z</time></trkpt><trkpt lat="43.4819756" lon="11.3254786"><ele>617.0</ele><time>2026-04-18T09:02:36.229Z</time></trkpt><trkpt lat="43.4819088" lon="11.3254631"><ele>617.0</ele><time>2026-04-18T09:02:38.235Z</time></trkpt><trkpt lat="43.4818459" lon="11.3254577"><ele>617.0</ele><time>2026-04-18T09:02:40.32Z</time></trkpt><trkpt lat="43.481759" lon="11.3254438"><ele>617.0</ele><time>2026-04-18T09:02:43.237Z</time></trkpt><trkpt lat="43.4816675" lon="11.3254204"><ele>617.0</ele><time>2026-04-18T09:02:46.317Z</time></trkpt><trkpt lat="43.4816012" lon="11.325407"><ele>617.0</ele><time>2026-04-18T09:02:48.247Z</time></trkpt><trkpt lat="43.4815323" lon="11.3253904"><ele>617.0</ele><time>2026-04-18T09:02:50.208Z</time></trkpt><trkpt lat="43.4814696" lon="11.3253715"><ele>617.0</ele><time>2026-04-18T09:02:52.252Z</time></trkpt><trkpt lat="43.4813858" lon="11.3253527"><ele>617.0</ele><time>2026-04-18T09:02:54.237Z</time></trkpt><trkpt lat="43.4813082" lon="11.3253348"><ele>617.0</ele><time>2026-04-18T09:02:56.24Z</time></trkpt><trkpt lat="43.4812369" lon="11.3253306"><ele>617.0</ele><time>2026-04-18T09:02:58.26Z</time></trkpt><trkpt lat="43.4811777" lon="11.3253702"><ele>617.0</ele><time>2026-04-18T09:02:59.234Z</time></trkpt><trkpt lat="43.4810933" lon="11.3254493"><ele>617.0</ele><time>2026-04-18T09:03:01.25Z</time></trkpt><trkpt lat="43.4810294" lon="11.3255132"><ele>617.0</ele><time>2026-04-18T09:03:03.249Z</time></trkpt><trkpt lat="43.4809782" lon="11.3255918"><ele>616.8333333333333</ele><time>2026-04-18T09:03:05.237Z</time></trkpt><trkpt lat="43.4809329" lon="11.3256743"><ele>616.6666666666666</ele><time>2026-04-18T09:03:07.242Z</time></trkpt><trkpt lat="43.4808856" lon="11.3257668"><ele>616.5</ele><time>2026-04-18T09:03:09.258Z</time></trkpt><trkpt lat="43.4808348" lon="11.3258616"><ele>616.3333333333334</ele><time>2026-04-18T09:03:11.247Z</time></trkpt><trkpt lat="43.4807773" lon="11.3259706"><ele>616.1666666666667</ele><time>2026-04-18T09:03:13.249Z</time></trkpt><trkpt lat="43.4807161" lon="11.3260824"><ele>616.0</ele><time>2026-04-18T09:03:15.238Z</time></trkpt><trkpt lat="43.4806526" lon="11.3261923"><ele>616.0</ele><time>2026-04-18T09:03:17.239Z</time></trkpt><trkpt lat="43.4805924" lon="11.3263136"><ele>616.0</ele><time>2026-04-18T09:03:19.246Z</time></trkpt><trkpt lat="43.480523" lon="11.3264208"><ele>616.0</ele><time>2026-04-18T09:03:21.243Z</time></trkpt><trkpt lat="43.4804473" lon="11.3265301"><ele>616.0</ele><time>2026-04-18T09:03:23.253Z</time></trkpt><trkpt lat="43.4803686" lon="11.3266492"><ele>616.0</ele><time>2026-04-18T09:03:25.233Z</time></trkpt><trkpt lat="43.4802968" lon="11.3267809"><ele>615.1666666666667</ele><time>2026-04-18T09:03:27.243Z</time></trkpt><trkpt lat="43.4802721" lon="11.326862"><ele>614.3333333333334</ele><time>2026-04-18T09:03:28.241Z</time></trkpt><trkpt lat="43.480258" lon="11.3269508"><ele>613.5</ele><time>2026-04-18T09:03:29.252Z</time></trkpt><trkpt lat="43.4802547" lon="11.3270379"><ele>612.6666666666666</ele><time>2026-04-18T09:03:30.24Z</time></trkpt><trkpt lat="43.480268" lon="11.3272108"><ele>611.8333333333333</ele><time>2026-04-18T09:03:32.242Z</time></trkpt><trkpt lat="43.4802844" lon="11.3272985"><ele>611.0</ele><time>2026-04-18T09:03:33.246Z</time></trkpt><trkpt lat="43.4803083" lon="11.3273813"><ele>609.6</ele><time>2026-04-18T09:03:34.242Z</time></trkpt><trkpt lat="43.4803331" lon="11.327466"><ele>608.2</ele><time>2026-04-18T09:03:35.258Z</time></trkpt><trkpt lat="43.4803513" lon="11.3275511"><ele>606.8</ele><time>2026-04-18T09:03:36.254Z</time></trkpt><trkpt lat="43.480381" lon="11.3277068"><ele>605.4</ele><time>2026-04-18T09:03:38.242Z</time></trkpt><trkpt lat="43.4803984" lon="11.3278524"><ele>604.0</ele><time>2026-04-18T09:03:40.258Z</time></trkpt><trkpt lat="43.4804051" lon="11.3279847"><ele>604.6666666666667</ele><time>2026-04-18T09:03:42.228Z</time></trkpt><trkpt lat="43.4804088" lon="11.3281085"><ele>605.3333333333334</ele><time>2026-04-18T09:03:44.247Z</time></trkpt><trkpt lat="43.4804085" lon="11.3282341"><ele>606.0</ele><time>2026-04-18T09:03:46.253Z</time></trkpt><trkpt lat="43.4803888" lon="11.3283642"><ele>606.6666666666666</ele><time>2026-04-18T09:03:48.233Z</time></trkpt><trkpt lat="43.4803643" lon="11.3284792"><ele>607.3333333333333</ele><time>2026-04-18T09:03:50.237Z</time></trkpt><trkpt lat="43.4803318" lon="11.3285821"><ele>608.0</ele><time>2026-04-18T09:03:52.238Z</time></trkpt><trkpt lat="43.4802952" lon="11.328679"><ele>608.0</ele><time>2026-04-18T09:03:54.239Z</time></trkpt><trkpt lat="43.4802452" lon="11.3287732"><ele>608.0</ele><time>2026-04-18T09:03:56.242Z</time></trkpt><trkpt lat="43.480181" lon="11.328849"><ele>608.0</ele><time>2026-04-18T09:03:58.233Z</time></trkpt><trkpt lat="43.4801101" lon="11.3289011"><ele>608.0</ele><time>2026-04-18T09:04:00.243Z</time></trkpt><trkpt lat="43.4800277" lon="11.3289214"><ele>608.0</ele><time>2026-04-18T09:04:02.23Z</time></trkpt><trkpt lat="43.4799456" lon="11.3289325"><ele>608.0</ele><time>2026-04-18T09:04:04.25Z</time></trkpt><trkpt lat="43.4798731" lon="11.3289394"><ele>608.1666666666666</ele><time>2026-04-18T09:04:06.245Z</time></trkpt><trkpt lat="43.4798076" lon="11.3289488"><ele>608.3333333333333</ele><time>2026-04-18T09:04:08.237Z</time></trkpt><trkpt lat="43.4797213" lon="11.3289777"><ele>608.5</ele><time>2026-04-18T09:04:11.254Z</time></trkpt><trkpt lat="43.4796429" lon="11.3290315"><ele>608.6666666666666</ele><time>2026-04-18T09:04:14.24Z</time></trkpt><trkpt lat="43.4795705" lon="11.3291032"><ele>608.8333333333334</ele><time>2026-04-18T09:04:17.249Z</time></trkpt><trkpt lat="43.4795095" lon="11.3291935"><ele>609.0</ele><time>2026-04-18T09:04:20.217Z</time></trkpt><trkpt lat="43.4794575" lon="11.3292926"><ele>609.0</ele><time>2026-04-18T09:04:23.236Z</time></trkpt><trkpt lat="43.47941" lon="11.3293956"><ele>609.0</ele><time>2026-04-18T09:04:26.236Z</time></trkpt><trkpt lat="43.4793603" lon="11.3295046"><ele>609.0</ele><time>2026-04-18T09:04:29.233Z</time></trkpt><trkpt lat="43.4793369" lon="11.3295871"><ele>609.0</ele><time>2026-04-18T09:04:31.234Z</time></trkpt><trkpt lat="43.4793145" lon="11.3296765"><ele>609.0</ele><time>2026-04-18T09:04:33.248Z</time></trkpt><trkpt lat="43.4792865" lon="11.3297688"><ele>609.0</ele><time>2026-04-18T09:04:35.225Z</time></trkpt><trkpt lat="43.4792165" lon="11.3299463"><ele>610.5</ele><time>2026-04-18T09:04:39.242Z</time></trkpt><trkpt lat="43.4792298" lon="11.3300407"><ele>612.0</ele><time>2026-04-18T09:04:41.299Z</time></trkpt><trkpt lat="43.4791809" lon="11.3301285"><ele>613.5</ele><time>2026-04-18T09:04:44.245Z</time></trkpt><trkpt lat="43.4791499" lon="11.3302293"><ele>615.0</ele><time>2026-04-18T09:04:46.23Z</time></trkpt><trkpt lat="43.4791434" lon="11.3303325"><ele>616.5</ele><time>2026-04-18T09:04:48.227Z</time></trkpt><trkpt lat="43.4791419" lon="11.330423"><ele>618.0</ele><time>2026-04-18T09:04:50.243Z</time></trkpt><trkpt lat="43.4791378" lon="11.3305415"><ele>618.3333333333334</ele><time>2026-04-18T09:04:53.231Z</time></trkpt><trkpt lat="43.4791501" lon="11.3306523"><ele>618.6666666666666</ele><time>2026-04-18T09:04:55.306Z</time></trkpt><trkpt lat="43.4791588" lon="11.3307547"><ele>619.0</ele><time>2026-04-18T09:04:57.234Z</time></trkpt><trkpt lat="43.4791773" lon="11.330852"><ele>619.3333333333333</ele><time>2026-04-18T09:04:59.246Z</time></trkpt><trkpt lat="43.4791909" lon="11.3309512"><ele>619.6666666666666</ele><time>2026-04-18T09:05:01.312Z</time></trkpt><trkpt lat="43.4792056" lon="11.3310704"><ele>620.0</ele><time>2026-04-18T09:05:04.244Z</time></trkpt><trkpt lat="43.4792066" lon="11.3312077"><ele>620.0</ele><time>2026-04-18T09:05:06.241Z</time></trkpt><trkpt lat="43.4792005" lon="11.331368"><ele>620.0</ele><time>2026-04-18T09:05:08.244Z</time></trkpt><trkpt lat="43.47915" lon="11.3315176"><ele>620.0</ele><time>2026-04-18T09:05:10.309Z</time></trkpt><trkpt lat="43.4790754" lon="11.3316481"><ele>620.0</ele><time>2026-04-18T09:05:12.247Z</time></trkpt><trkpt lat="43.4789991" lon="11.3316968"><ele>620.0</ele><time>2026-04-18T09:05:13.247Z</time></trkpt><trkpt lat="43.4789043" lon="11.3317574"><ele>619.6</ele><time>2026-04-18T09:05:14.248Z</time></trkpt><trkpt lat="43.4788143" lon="11.3318026"><ele>619.2</ele><time>2026-04-18T09:05:15.24Z</time></trkpt><trkpt lat="43.4787328" lon="11.3318541"><ele>618.8</ele><time>2026-04-18T09:05:16.242Z</time></trkpt><trkpt lat="43.4786506" lon="11.3319127"><ele>618.4</ele><time>2026-04-18T09:05:17.218Z</time></trkpt><trkpt lat="43.4785641" lon="11.3319703"><ele>618.0</ele><time>2026-04-18T09:05:18.233Z</time></trkpt><trkpt lat="43.4784765" lon="11.3320339"><ele>618.0</ele><time>2026-04-18T09:05:19.242Z</time></trkpt><trkpt lat="43.4783896" lon="11.3320962"><ele>618.0</ele><time>2026-04-18T09:05:20.242Z</time></trkpt><trkpt lat="43.4783087" lon="11.3321701"><ele>618.0</ele><time>2026-04-18T09:05:21.312Z</time></trkpt><trkpt lat="43.4782307" lon="11.3322629"><ele>618.0</ele><time>2026-04-18T09:05:22.254Z</time></trkpt><trkpt lat="43.4781517" lon="11.3323514"><ele>618.0</ele><time>2026-04-18T09:05:23.248Z</time></trkpt><trkpt lat="43.4780713" lon="11.3324424"><ele>617.0</ele><time>2026-04-18T09:05:24.256Z</time></trkpt><trkpt lat="43.4779865" lon="11.3325257"><ele>616.0</ele><time>2026-04-18T09:05:25.305Z</time></trkpt><trkpt lat="43.4778989" lon="11.3326021"><ele>615.0</ele><time>2026-04-18T09:05:26.238Z</time></trkpt><trkpt lat="43.4778033" lon="11.3326753"><ele>614.0</ele><time>2026-04-18T09:05:27.249Z</time></trkpt><trkpt lat="43.4777086" lon="11.3327465"><ele>613.0</ele><time>2026-04-18T09:05:28.237Z</time></trkpt><trkpt lat="43.4776127" lon="11.3328162"><ele>613.0</ele><time>2026-04-18T09:05:29.238Z</time></trkpt><trkpt lat="43.4775247" lon="11.3328818"><ele>613.0</ele><time>2026-04-18T09:05:30.304Z</time></trkpt><trkpt lat="43.4774431" lon="11.332929"><ele>613.0</ele><time>2026-04-18T09:05:31.312Z</time></trkpt><trkpt lat="43.4773667" lon="11.3329678"><ele>613.0</ele><time>2026-04-18T09:05:32.241Z</time></trkpt><trkpt lat="43.4772697" lon="11.332988"><ele>613.0</ele><time>2026-04-18T09:05:33.24Z</time></trkpt><trkpt lat="43.4771621" lon="11.3329905"><ele>612.4</ele><time>2026-04-18T09:05:34.243Z</time></trkpt><trkpt lat="43.4770516" lon="11.3329883"><ele>611.8</ele><time>2026-04-18T09:05:35.214Z</time></trkpt><trkpt lat="43.4769442" lon="11.3329711"><ele>611.2</ele><time>2026-04-18T09:05:36.318Z</time></trkpt><trkpt lat="43.4768445" lon="11.3329393"><ele>610.6</ele><time>2026-04-18T09:05:37.232Z</time></trkpt><trkpt lat="43.476741" lon="11.3328993"><ele>610.0</ele><time>2026-04-18T09:05:38.239Z</time></trkpt><trkpt lat="43.4766402" lon="11.3328627"><ele>610.0</ele><time>2026-04-18T09:05:39.23Z</time></trkpt><trkpt lat="43.4765386" lon="11.3328419"><ele>610.0</ele><time>2026-04-18T09:05:40.3Z</time></trkpt><trkpt lat="43.4761988" lon="11.3329665"><ele>608.3333333333334</ele><time>2026-04-18T09:05:44.317Z</time></trkpt><trkpt lat="43.4760935" lon="11.3332695"><ele>606.6666666666666</ele><time>2026-04-18T09:05:46.231Z</time></trkpt><trkpt lat="43.4760295" lon="11.3333816"><ele>605.0</ele><time>2026-04-18T09:05:47.251Z</time></trkpt><trkpt lat="43.4759617" lon="11.3334991"><ele>605.0</ele><time>2026-04-18T09:05:48.243Z</time></trkpt><trkpt lat="43.4758843" lon="11.3335948"><ele>605.0</ele><time>2026-04-18T09:05:49.239Z</time></trkpt><trkpt lat="43.4757949" lon="11.3336594"><ele>605.0</ele><time>2026-04-18T09:05:50.224Z</time></trkpt><trkpt lat="43.4756939" lon="11.333693"><ele>605.0</ele><time>2026-04-18T09:05:51.311Z</time></trkpt><trkpt lat="43.4755833" lon="11.3336967"><ele>605.0</ele><time>2026-04-18T09:05:52.244Z</time></trkpt><trkpt lat="43.4754692" lon="11.3336941"><ele>604.4</ele><time>2026-04-18T09:05:53.24Z</time></trkpt><trkpt lat="43.4753589" lon="11.3336907"><ele>603.8</ele><time>2026-04-18T09:05:54.243Z</time></trkpt><trkpt lat="43.4752535" lon="11.3336797"><ele>603.2</ele><time>2026-04-18T09:05:55.241Z</time></trkpt><trkpt lat="43.4751485" lon="11.3336614"><ele>602.6</ele><time>2026-04-18T09:05:56.22Z</time></trkpt><trkpt lat="43.4750407" lon="11.3336566"><ele>602.0</ele><time>2026-04-18T09:05:57.243Z</time></trkpt><trkpt lat="43.4749325" lon="11.3336562"><ele>602.0</ele><time>2026-04-18T09:05:58.231Z</time></trkpt><trkpt lat="43.4748183" lon="11.3336558"><ele>602.0</ele><time>2026-04-18T09:05:59.255Z</time></trkpt><trkpt lat="43.474709" lon="11.333649"><ele>602.0</ele><time>2026-04-18T09:06:00.216Z</time></trkpt><trkpt lat="43.4746018" lon="11.3336407"><ele>602.0</ele><time>2026-04-18T09:06:01.222Z</time></trkpt><trkpt lat="43.4744939" lon="11.3336327"><ele>602.0</ele><time>2026-04-18T09:06:02.233Z</time></trkpt><trkpt lat="43.4743892" lon="11.3336205"><ele>601.6</ele><time>2026-04-18T09:06:03.24Z</time></trkpt><trkpt lat="43.4742857" lon="11.3336062"><ele>601.2</ele><time>2026-04-18T09:06:04.231Z</time></trkpt><trkpt lat="43.4741832" lon="11.3336193"><ele>600.8</ele><time>2026-04-18T09:06:05.24Z</time></trkpt><trkpt lat="43.4741006" lon="11.3337152"><ele>600.4</ele><time>2026-04-18T09:06:06.244Z</time></trkpt><trkpt lat="43.474049" lon="11.3338404"><ele>600.0</ele><time>2026-04-18T09:06:07.235Z</time></trkpt><trkpt lat="43.4740384" lon="11.3339809"><ele>599.3333333333334</ele><time>2026-04-18T09:06:08.239Z</time></trkpt><trkpt lat="43.4740685" lon="11.3341004"><ele>598.6666666666666</ele><time>2026-04-18T09:06:09.235Z</time></trkpt><trkpt lat="43.4741029" lon="11.334209"><ele>598.0</ele><time>2026-04-18T09:06:10.241Z</time></trkpt><trkpt lat="43.4741472" lon="11.3343038"><ele>597.3333333333333</ele><time>2026-04-18T09:06:11.317Z</time></trkpt><trkpt lat="43.4741825" lon="11.3344045"><ele>596.6666666666666</ele><time>2026-04-18T09:06:12.236Z</time></trkpt><trkpt lat="43.4742139" lon="11.334501"><ele>596.0</ele><time>2026-04-18T09:06:13.247Z</time></trkpt><trkpt lat="43.4742375" lon="11.3345935"><ele>596.0</ele><time>2026-04-18T09:06:14.238Z</time></trkpt><trkpt lat="43.4742672" lon="11.3346789"><ele>596.0</ele><time>2026-04-18T09:06:15.318Z</time></trkpt><trkpt lat="43.474296" lon="11.3347662"><ele>596.0</ele><time>2026-04-18T09:06:16.313Z</time></trkpt><trkpt lat="43.4743303" lon="11.3348498"><ele>596.0</ele><time>2026-04-18T09:06:17.225Z</time></trkpt><trkpt lat="43.4744049" lon="11.3349872"><ele>596.0</ele><time>2026-04-18T09:06:19.241Z</time></trkpt><trkpt lat="43.4744631" lon="11.3351248"><ele>596.0</ele><time>2026-04-18T09:06:21.305Z</time></trkpt><trkpt lat="43.474516" lon="11.3352518"><ele>595.0</ele><time>2026-04-18T09:06:23.233Z</time></trkpt><trkpt lat="43.4745743" lon="11.3353579"><ele>594.0</ele><time>2026-04-18T09:06:25.303Z</time></trkpt><trkpt lat="43.4746106" lon="11.3354591"><ele>593.0</ele><time>2026-04-18T09:06:27.228Z</time></trkpt><trkpt lat="43.4746486" lon="11.3355645"><ele>592.0</ele><time>2026-04-18T09:06:29.253Z</time></trkpt><trkpt lat="43.4746927" lon="11.3356945"><ele>591.0</ele><time>2026-04-18T09:06:31.25Z</time></trkpt><trkpt lat="43.4747526" lon="11.3358096"><ele>591.0</ele><time>2026-04-18T09:06:33.235Z</time></trkpt><trkpt lat="43.4748063" lon="11.3359268"><ele>591.0</ele><time>2026-04-18T09:06:35.278Z</time></trkpt><trkpt lat="43.4748591" lon="11.3360372"><ele>591.0</ele><time>2026-04-18T09:06:37.23Z</time></trkpt><trkpt lat="43.4749164" lon="11.3361469"><ele>591.0</ele><time>2026-04-18T09:06:39.246Z</time></trkpt><trkpt lat="43.4749788" lon="11.336249"><ele>591.0</ele><time>2026-04-18T09:06:41.229Z</time></trkpt><trkpt lat="43.4750375" lon="11.3363472"><ele>592.5</ele><time>2026-04-18T09:06:43.227Z</time></trkpt><trkpt lat="43.4750977" lon="11.3364378"><ele>594.0</ele><time>2026-04-18T09:06:45.238Z</time></trkpt><trkpt lat="43.4751538" lon="11.3365329"><ele>595.5</ele><time>2026-04-18T09:06:47.242Z</time></trkpt><trkpt lat="43.4752168" lon="11.3366028"><ele>597.0</ele><time>2026-04-18T09:06:49.23Z</time></trkpt><trkpt lat="43.4752682" lon="11.3366838"><ele>598.5</ele><time>2026-04-18T09:06:51.261Z</time></trkpt><trkpt lat="43.4753181" lon="11.336758"><ele>600.0</ele><time>2026-04-18T09:06:53.241Z</time></trkpt><trkpt lat="43.4753718" lon="11.3368333"><ele>600.0</ele><time>2026-04-18T09:06:55.315Z</time></trkpt><trkpt lat="43.4754153" lon="11.336911"><ele>600.0</ele><time>2026-04-18T09:06:57.236Z</time></trkpt><trkpt lat="43.4754722" lon="11.3370042"><ele>600.0</ele><time>2026-04-18T09:07:00.314Z</time></trkpt><trkpt lat="43.4754977" lon="11.3370965"><ele>600.0</ele><time>2026-04-18T09:07:03.225Z</time></trkpt><trkpt lat="43.4755495" lon="11.3371878"><ele>600.0</ele><time>2026-04-18T09:07:06.298Z</time></trkpt><trkpt lat="43.4756219" lon="11.3372793"><ele>600.0</ele><time>2026-04-18T09:07:09.317Z</time></trkpt><trkpt lat="43.4756802" lon="11.3373667"><ele>599.6666666666666</ele><time>2026-04-18T09:07:12.224Z</time></trkpt><trkpt lat="43.4757392" lon="11.3374784"><ele>599.3333333333334</ele><time>2026-04-18T09:07:15.313Z</time></trkpt><trkpt lat="43.4757975" lon="11.3375294"><ele>599.0</ele><time>2026-04-18T09:07:17.234Z</time></trkpt><trkpt lat="43.4758344" lon="11.3376193"><ele>598.6666666666667</ele><time>2026-04-18T09:07:20.242Z</time></trkpt><trkpt lat="43.4758708" lon="11.3377002"><ele>598.3333333333334</ele><time>2026-04-18T09:07:23.241Z</time></trkpt><trkpt lat="43.4759008" lon="11.3377949"><ele>598.0</ele><time>2026-04-18T09:07:26.241Z</time></trkpt><trkpt lat="43.4759278" lon="11.3378881"><ele>598.0</ele><time>2026-04-18T09:07:29.221Z</time></trkpt><trkpt lat="43.4759569" lon="11.3380008"><ele>598.0</ele><time>2026-04-18T09:07:32.255Z</time></trkpt><trkpt lat="43.4759991" lon="11.3381254"><ele>598.0</ele><time>2026-04-18T09:07:35.241Z</time></trkpt><trkpt lat="43.4760314" lon="11.3382337"><ele>598.0</ele><time>2026-04-18T09:07:37.239Z</time></trkpt><trkpt lat="43.4760494" lon="11.3383844"><ele>598.0</ele><time>2026-04-18T09:07:39.315Z</time></trkpt><trkpt lat="43.4760298" lon="11.3385521"><ele>597.5</ele><time>2026-04-18T09:07:41.229Z</time></trkpt><trkpt lat="43.4760067" lon="11.338724"><ele>597.0</ele><time>2026-04-18T09:07:43.238Z</time></trkpt><trkpt lat="43.4759884" lon="11.3388103"><ele>596.5</ele><time>2026-04-18T09:07:44.234Z</time></trkpt><trkpt lat="43.4759696" lon="11.3388969"><ele>596.0</ele><time>2026-04-18T09:07:45.229Z</time></trkpt><trkpt lat="43.4759561" lon="11.338986"><ele>595.5</ele><time>2026-04-18T09:07:46.301Z</time></trkpt><trkpt lat="43.4759172" lon="11.3390726"><ele>595.0</ele><time>2026-04-18T09:07:47.229Z</time></trkpt><trkpt lat="43.4758628" lon="11.3391642"><ele>594.2857142857143</ele><time>2026-04-18T09:07:48.233Z</time></trkpt><trkpt lat="43.475841" lon="11.3392625"><ele>593.5714285714286</ele><time>2026-04-18T09:07:49.318Z</time></trkpt><trkpt lat="43.4758317" lon="11.3393559"><ele>592.8571428571429</ele><time>2026-04-18T09:07:50.235Z</time></trkpt><trkpt lat="43.4758194" lon="11.3394566"><ele>592.1428571428571</ele><time>2026-04-18T09:07:51.242Z</time></trkpt><trkpt lat="43.4758084" lon="11.3395523"><ele>591.4285714285714</ele><time>2026-04-18T09:07:52.23Z</time></trkpt><trkpt lat="43.4757926" lon="11.3396524"><ele>590.7142857142858</ele><time>2026-04-18T09:07:53.232Z</time></trkpt><trkpt lat="43.4757769" lon="11.339755"><ele>590.0</ele><time>2026-04-18T09:07:54.324Z</time></trkpt><trkpt lat="43.4757633" lon="11.3398498"><ele>590.0</ele><time>2026-04-18T09:07:55.321Z</time></trkpt><trkpt lat="43.475748" lon="11.339954"><ele>590.0</ele><time>2026-04-18T09:07:56.245Z</time></trkpt><trkpt lat="43.4757465" lon="11.3400639"><ele>590.0</ele><time>2026-04-18T09:07:57.229Z</time></trkpt><trkpt lat="43.4757553" lon="11.3401702"><ele>590.0</ele><time>2026-04-18T09:07:58.239Z</time></trkpt><trkpt lat="43.475761" lon="11.3402883"><ele>590.0</ele><time>2026-04-18T09:07:59.252Z</time></trkpt><trkpt lat="43.475775" lon="11.3404044"><ele>590.0</ele><time>2026-04-18T09:08:00.247Z</time></trkpt><trkpt lat="43.4757895" lon="11.3405226"><ele>589.4</ele><time>2026-04-18T09:08:01.233Z</time></trkpt><trkpt lat="43.4757991" lon="11.3406467"><ele>588.8</ele><time>2026-04-18T09:08:02.248Z</time></trkpt><trkpt lat="43.4758" lon="11.3407717"><ele>588.2</ele><time>2026-04-18T09:08:03.22Z</time></trkpt><trkpt lat="43.4757891" lon="11.3409002"><ele>587.6</ele><time>2026-04-18T09:08:04.246Z</time></trkpt><trkpt lat="43.4757694" lon="11.3410245"><ele>587.0</ele><time>2026-04-18T09:08:05.245Z</time></trkpt><trkpt lat="43.4757492" lon="11.3411523"><ele>587.0</ele><time>2026-04-18T09:08:06.234Z</time></trkpt><trkpt lat="43.4757268" lon="11.3412808"><ele>587.0</ele><time>2026-04-18T09:08:07.247Z</time></trkpt><trkpt lat="43.4757039" lon="11.3414056"><ele>587.0</ele><time>2026-04-18T09:08:08.236Z</time></trkpt><trkpt lat="43.4756858" lon="11.3415339"><ele>587.0</ele><time>2026-04-18T09:08:09.244Z</time></trkpt><trkpt lat="43.4756683" lon="11.3416623"><ele>587.0</ele><time>2026-04-18T09:08:10.236Z</time></trkpt><trkpt lat="43.4756516" lon="11.3417889"><ele>586.6666666666666</ele><time>2026-04-18T09:08:11.26Z</time></trkpt><trkpt lat="43.4756359" lon="11.3419096"><ele>586.3333333333333</ele><time>2026-04-18T09:08:12.247Z</time></trkpt><trkpt lat="43.4756179" lon="11.3420286"><ele>586.0</ele><time>2026-04-18T09:08:13.241Z</time></trkpt><trkpt lat="43.4756009" lon="11.3421437"><ele>585.6666666666666</ele><time>2026-04-18T09:08:14.232Z</time></trkpt><trkpt lat="43.475581" lon="11.3422557"><ele>585.3333333333334</ele><time>2026-04-18T09:08:15.251Z</time></trkpt><trkpt lat="43.4755646" lon="11.3423596"><ele>585.0</ele><time>2026-04-18T09:08:16.237Z</time></trkpt><trkpt lat="43.4755478" lon="11.3424609"><ele>584.7142857142858</ele><time>2026-04-18T09:08:17.242Z</time></trkpt><trkpt lat="43.4755329" lon="11.3425645"><ele>584.4285714285714</ele><time>2026-04-18T09:08:18.242Z</time></trkpt><trkpt lat="43.4755227" lon="11.3426665"><ele>584.1428571428571</ele><time>2026-04-18T09:08:19.248Z</time></trkpt><trkpt lat="43.4755169" lon="11.3427654"><ele>583.8571428571429</ele><time>2026-04-18T09:08:20.246Z</time></trkpt><trkpt lat="43.475515" lon="11.3428645"><ele>583.5714285714286</ele><time>2026-04-18T09:08:21.236Z</time></trkpt><trkpt lat="43.4755222" lon="11.3429622"><ele>583.2857142857143</ele><time>2026-04-18T09:08:22.234Z</time></trkpt><trkpt lat="43.4755436" lon="11.3430556"><ele>583.0</ele><time>2026-04-18T09:08:23.247Z</time></trkpt><trkpt lat="43.4755753" lon="11.3431504"><ele>582.1666666666667</ele><time>2026-04-18T09:08:24.334Z</time></trkpt><trkpt lat="43.4756061" lon="11.3432407"><ele>581.3333333333334</ele><time>2026-04-18T09:08:25.306Z</time></trkpt><trkpt lat="43.4756403" lon="11.343332"><ele>580.5</ele><time>2026-04-18T09:08:26.299Z</time></trkpt><trkpt lat="43.4756739" lon="11.3434259"><ele>579.6666666666666</ele><time>2026-04-18T09:08:27.222Z</time></trkpt><trkpt lat="43.4757104" lon="11.3435207"><ele>578.8333333333333</ele><time>2026-04-18T09:08:28.231Z</time></trkpt><trkpt lat="43.4757418" lon="11.3436169"><ele>578.0</ele><time>2026-04-18T09:08:29.238Z</time></trkpt><trkpt lat="43.4757705" lon="11.3437133"><ele>578.0</ele><time>2026-04-18T09:08:30.217Z</time></trkpt><trkpt lat="43.4757969" lon="11.3438144"><ele>578.0</ele><time>2026-04-18T09:08:31.212Z</time></trkpt><trkpt lat="43.4758239" lon="11.3439077"><ele>578.0</ele><time>2026-04-18T09:08:32.223Z</time></trkpt><trkpt lat="43.4758385" lon="11.3440098"><ele>578.0</ele><time>2026-04-18T09:08:33.227Z</time></trkpt><trkpt lat="43.475838" lon="11.3441263"><ele>578.0</ele><time>2026-04-18T09:08:34.317Z</time></trkpt><trkpt lat="43.4758337" lon="11.344237"><ele>578.0</ele><time>2026-04-18T09:08:35.227Z</time></trkpt><trkpt lat="43.4758306" lon="11.3443507"><ele>577.8333333333333</ele><time>2026-04-18T09:08:36.314Z</time></trkpt><trkpt lat="43.4758219" lon="11.3444655"><ele>577.6666666666666</ele><time>2026-04-18T09:08:37.228Z</time></trkpt><trkpt lat="43.4758019" lon="11.3445935"><ele>577.5</ele><time>2026-04-18T09:08:38.232Z</time></trkpt><trkpt lat="43.4757852" lon="11.3447138"><ele>577.3333333333334</ele><time>2026-04-18T09:08:39.254Z</time></trkpt><trkpt lat="43.4757639" lon="11.344831"><ele>577.1666666666667</ele><time>2026-04-18T09:08:40.217Z</time></trkpt><trkpt lat="43.4757317" lon="11.3449434"><ele>577.0</ele><time>2026-04-18T09:08:41.24Z</time></trkpt><trkpt lat="43.4756976" lon="11.3450384"><ele>576.4</ele><time>2026-04-18T09:08:42.237Z</time></trkpt><trkpt lat="43.4756646" lon="11.3451489"><ele>575.8000000000001</ele><time>2026-04-18T09:08:43.247Z</time></trkpt><trkpt lat="43.4756256" lon="11.3452659"><ele>575.2</ele><time>2026-04-18T09:08:44.245Z</time></trkpt><trkpt lat="43.475591" lon="11.3453913"><ele>574.6</ele><time>2026-04-18T09:08:45.231Z</time></trkpt><trkpt lat="43.4755578" lon="11.3455164"><ele>574.0</ele><time>2026-04-18T09:08:46.242Z</time></trkpt><trkpt lat="43.4755225" lon="11.3456357"><ele>572.8</ele><time>2026-04-18T09:08:47.238Z</time></trkpt><trkpt lat="43.4754852" lon="11.3457541"><ele>571.5999999999999</ele><time>2026-04-18T09:08:48.246Z</time></trkpt><trkpt lat="43.4754453" lon="11.345873"><ele>570.4</ele><time>2026-04-18T09:08:49.244Z</time></trkpt><trkpt lat="43.4754047" lon="11.3459909"><ele>569.1999999999999</ele><time>2026-04-18T09:08:50.234Z</time></trkpt><trkpt lat="43.4753639" lon="11.3461125"><ele>568.0</ele><time>2026-04-18T09:08:51.321Z</time></trkpt><trkpt lat="43.475327" lon="11.3462188"><ele>570.6666666666667</ele><time>2026-04-18T09:08:52.248Z</time></trkpt><trkpt lat="43.4752912" lon="11.3463267"><ele>573.3333333333334</ele><time>2026-04-18T09:08:53.236Z</time></trkpt><trkpt lat="43.4752572" lon="11.3464367"><ele>576.0</ele><time>2026-04-18T09:08:54.235Z</time></trkpt><trkpt lat="43.4752437" lon="11.3465515"><ele>578.6666666666666</ele><time>2026-04-18T09:08:55.239Z</time></trkpt><trkpt lat="43.4752668" lon="11.3466746"><ele>581.3333333333333</ele><time>2026-04-18T09:08:56.24Z</time></trkpt><trkpt lat="43.4753234" lon="11.3467768"><ele>584.0</ele><time>2026-04-18T09:08:57.224Z</time></trkpt><trkpt lat="43.4754042" lon="11.3468435"><ele>581.6666666666666</ele><time>2026-04-18T09:08:58.241Z</time></trkpt><trkpt lat="43.4754944" lon="11.346861"><ele>579.3333333333333</ele><time>2026-04-18T09:08:59.239Z</time></trkpt><trkpt lat="43.4755885" lon="11.346856"><ele>577.0</ele><time>2026-04-18T09:09:00.252Z</time></trkpt><trkpt lat="43.4756787" lon="11.3468367"><ele>574.6666666666666</ele><time>2026-04-18T09:09:01.23Z</time></trkpt><trkpt lat="43.4757649" lon="11.3468105"><ele>572.3333333333334</ele><time>2026-04-18T09:09:02.246Z</time></trkpt><trkpt lat="43.4758454" lon="11.3467853"><ele>570.0</ele><time>2026-04-18T09:09:03.24Z</time></trkpt><trkpt lat="43.4759251" lon="11.3467673"><ele>570.0</ele><time>2026-04-18T09:09:04.217Z</time></trkpt><trkpt lat="43.4760079" lon="11.3467479"><ele>570.0</ele><time>2026-04-18T09:09:05.226Z</time></trkpt><trkpt lat="43.4760913" lon="11.3467321"><ele>570.0</ele><time>2026-04-18T09:09:06.238Z</time></trkpt><trkpt lat="43.476173" lon="11.3467234"><ele>570.0</ele><time>2026-04-18T09:09:07.244Z</time></trkpt><trkpt lat="43.4762507" lon="11.3467234"><ele>570.0</ele><time>2026-04-18T09:09:08.236Z</time></trkpt><trkpt lat="43.4763253" lon="11.3467291"><ele>570.0</ele><time>2026-04-18T09:09:09.241Z</time></trkpt><trkpt lat="43.4763959" lon="11.3467499"><ele>570.2857142857142</ele><time>2026-04-18T09:09:10.222Z</time></trkpt><trkpt lat="43.4764644" lon="11.3467857"><ele>570.5714285714286</ele><time>2026-04-18T09:09:11.24Z</time></trkpt><trkpt lat="43.4765278" lon="11.346837"><ele>570.8571428571429</ele><time>2026-04-18T09:09:12.23Z</time></trkpt><trkpt lat="43.4765816" lon="11.3468997"><ele>571.1428571428571</ele><time>2026-04-18T09:09:13.24Z</time></trkpt><trkpt lat="43.4766274" lon="11.3469647"><ele>571.4285714285714</ele><time>2026-04-18T09:09:14.237Z</time></trkpt><trkpt lat="43.4766687" lon="11.3470389"><ele>571.7142857142857</ele><time>2026-04-18T09:09:15.305Z</time></trkpt><trkpt lat="43.476691" lon="11.3471274"><ele>572.0</ele><time>2026-04-18T09:09:16.217Z</time></trkpt><trkpt lat="43.4767072" lon="11.3472159"><ele>572.0</ele><time>2026-04-18T09:09:17.229Z</time></trkpt><trkpt lat="43.4767592" lon="11.3473619"><ele>572.0</ele><time>2026-04-18T09:09:19.244Z</time></trkpt><trkpt lat="43.4768108" lon="11.3475661"><ele>572.0</ele><time>2026-04-18T09:09:22.221Z</time></trkpt><trkpt lat="43.476849" lon="11.3477334"><ele>572.0</ele><time>2026-04-18T09:09:24.226Z</time></trkpt><trkpt lat="43.4768687" lon="11.3479039"><ele>573.5</ele><time>2026-04-18T09:09:26.297Z</time></trkpt><trkpt lat="43.4769001" lon="11.3480676"><ele>575.0</ele><time>2026-04-18T09:09:28.232Z</time></trkpt><trkpt lat="43.4769215" lon="11.3482374"><ele>576.5</ele><time>2026-04-18T09:09:30.237Z</time></trkpt><trkpt lat="43.4769402" lon="11.3483967"><ele>578.0</ele><time>2026-04-18T09:09:32.231Z</time></trkpt><trkpt lat="43.4769509" lon="11.3485484"><ele>578.0</ele><time>2026-04-18T09:09:34.245Z</time></trkpt><trkpt lat="43.4769686" lon="11.348697"><ele>578.0</ele><time>2026-04-18T09:09:36.232Z</time></trkpt><trkpt lat="43.4770007" lon="11.348833"><ele>578.0</ele><time>2026-04-18T09:09:38.237Z</time></trkpt><trkpt lat="43.4770503" lon="11.3489577"><ele>578.0</ele><time>2026-04-18T09:09:40.239Z</time></trkpt><trkpt lat="43.4771269" lon="11.34907"><ele>578.0</ele><time>2026-04-18T09:09:42.23Z</time></trkpt><trkpt lat="43.4772077" lon="11.3491715"><ele>573.5</ele><time>2026-04-18T09:09:44.233Z</time></trkpt><trkpt lat="43.4772934" lon="11.3492725"><ele>569.0</ele><time>2026-04-18T09:09:46.236Z</time></trkpt><trkpt lat="43.4773802" lon="11.3493763"><ele>564.5</ele><time>2026-04-18T09:09:48.237Z</time></trkpt><trkpt lat="43.4774537" lon="11.3494994"><ele>560.0</ele><time>2026-04-18T09:09:50.244Z</time></trkpt><trkpt lat="43.4775153" lon="11.3496364"><ele>561.8</ele><time>2026-04-18T09:09:52.231Z</time></trkpt><trkpt lat="43.4775442" lon="11.3497916"><ele>563.6</ele><time>2026-04-18T09:09:54.237Z</time></trkpt><trkpt lat="43.4775432" lon="11.3499404"><ele>565.4</ele><time>2026-04-18T09:09:56.231Z</time></trkpt><trkpt lat="43.4775262" lon="11.3500794"><ele>567.2</ele><time>2026-04-18T09:09:58.214Z</time></trkpt><trkpt lat="43.4774986" lon="11.3502076"><ele>569.0</ele><time>2026-04-18T09:10:00.232Z</time></trkpt><trkpt lat="43.4774658" lon="11.3503296"><ele>569.0</ele><time>2026-04-18T09:10:02.243Z</time></trkpt><trkpt lat="43.477445" lon="11.3504504"><ele>569.0</ele><time>2026-04-18T09:10:04.234Z</time></trkpt><trkpt lat="43.4774286" lon="11.3505736"><ele>569.0</ele><time>2026-04-18T09:10:06.229Z</time></trkpt><trkpt lat="43.477437" lon="11.3506956"><ele>569.0</ele><time>2026-04-18T09:10:08.233Z</time></trkpt><trkpt lat="43.4774504" lon="11.3508203"><ele>569.0</ele><time>2026-04-18T09:10:10.229Z</time></trkpt><trkpt lat="43.4774696" lon="11.3509359"><ele>569.0</ele><time>2026-04-18T09:10:12.223Z</time></trkpt><trkpt lat="43.4774883" lon="11.3510944"><ele>569.6</ele><time>2026-04-18T09:10:15.213Z</time></trkpt><trkpt lat="43.4775005" lon="11.3512057"><ele>570.2</ele><time>2026-04-18T09:10:17.226Z</time></trkpt><trkpt lat="43.4775278" lon="11.3513103"><ele>570.8000000000001</ele><time>2026-04-18T09:10:19.264Z</time></trkpt><trkpt lat="43.4775836" lon="11.351429"><ele>571.4</ele><time>2026-04-18T09:10:21.226Z</time></trkpt><trkpt lat="43.4776444" lon="11.3515385"><ele>572.0</ele><time>2026-04-18T09:10:23.25Z</time></trkpt><trkpt lat="43.4777076" lon="11.3516402"><ele>573.1666666666666</ele><time>2026-04-18T09:10:25.225Z</time></trkpt><trkpt lat="43.4777677" lon="11.3517436"><ele>574.3333333333333</ele><time>2026-04-18T09:10:27.231Z</time></trkpt><trkpt lat="43.4778127" lon="11.3518584"><ele>575.5</ele><time>2026-04-18T09:10:29.224Z</time></trkpt><trkpt lat="43.4778433" lon="11.3519745"><ele>576.6666666666666</ele><time>2026-04-18T09:10:31.215Z</time></trkpt><trkpt lat="43.4778558" lon="11.3520925"><ele>577.8333333333334</ele><time>2026-04-18T09:10:33.242Z</time></trkpt><trkpt lat="43.4778567" lon="11.3522042"><ele>579.0</ele><time>2026-04-18T09:10:35.224Z</time></trkpt><trkpt lat="43.4778517" lon="11.3523175"><ele>579.8333333333334</ele><time>2026-04-18T09:10:37.214Z</time></trkpt><trkpt lat="43.4778486" lon="11.3524398"><ele>580.6666666666666</ele><time>2026-04-18T09:10:39.238Z</time></trkpt><trkpt lat="43.4778457" lon="11.3525604"><ele>581.5</ele><time>2026-04-18T09:10:41.216Z</time></trkpt><trkpt lat="43.4778471" lon="11.3526739"><ele>582.3333333333333</ele><time>2026-04-18T09:10:43.237Z</time></trkpt><trkpt lat="43.4778594" lon="11.3527871"><ele>583.1666666666666</ele><time>2026-04-18T09:10:45.223Z</time></trkpt><trkpt lat="43.4778919" lon="11.3528997"><ele>584.0</ele><time>2026-04-18T09:10:47.23Z</time></trkpt><trkpt lat="43.4779516" lon="11.3530137"><ele>579.0</ele><time>2026-04-18T09:10:49.221Z</time></trkpt><trkpt lat="43.4780209" lon="11.3531246"><ele>574.0</ele><time>2026-04-18T09:10:51.242Z</time></trkpt><trkpt lat="43.4780865" lon="11.3532362"><ele>569.0</ele><time>2026-04-18T09:10:53.23Z</time></trkpt><trkpt lat="43.4781494" lon="11.3533532"><ele>564.0</ele><time>2026-04-18T09:10:55.229Z</time></trkpt><trkpt lat="43.4782096" lon="11.3534858"><ele>559.0</ele><time>2026-04-18T09:10:57.234Z</time></trkpt><trkpt lat="43.4782702" lon="11.35363"><ele>559.0</ele><time>2026-04-18T09:10:59.229Z</time></trkpt><trkpt lat="43.4783361" lon="11.3537749"><ele>559.0</ele><time>2026-04-18T09:11:01.247Z</time></trkpt><trkpt lat="43.478368" lon="11.3538511"><ele>559.0</ele><time>2026-04-18T09:11:02.236Z</time></trkpt><trkpt lat="43.4784319" lon="11.3539983"><ele>559.0</ele><time>2026-04-18T09:11:04.222Z</time></trkpt><trkpt lat="43.4784891" lon="11.354152"><ele>559.0</ele><time>2026-04-18T09:11:06.241Z</time></trkpt><trkpt lat="43.4785383" lon="11.3543095"><ele>559.3333333333334</ele><time>2026-04-18T09:11:08.256Z</time></trkpt><trkpt lat="43.4785631" lon="11.3543905"><ele>559.6666666666667</ele><time>2026-04-18T09:11:09.233Z</time></trkpt><trkpt lat="43.4785846" lon="11.3544721"><ele>560.0</ele><time>2026-04-18T09:11:10.227Z</time></trkpt><trkpt lat="43.4786162" lon="11.354635"><ele>560.3333333333334</ele><time>2026-04-18T09:11:12.236Z</time></trkpt><trkpt lat="43.4786293" lon="11.3547213"><ele>560.6666666666666</ele><time>2026-04-18T09:11:13.219Z</time></trkpt><trkpt lat="43.4786527" lon="11.3548932"><ele>561.0</ele><time>2026-04-18T09:11:15.246Z</time></trkpt><trkpt lat="43.4786755" lon="11.3550615"><ele>561.0</ele><time>2026-04-18T09:11:17.216Z</time></trkpt><trkpt lat="43.4787013" lon="11.3552272"><ele>561.0</ele><time>2026-04-18T09:11:19.234Z</time></trkpt><trkpt lat="43.4787262" lon="11.3553922"><ele>561.0</ele><time>2026-04-18T09:11:21.223Z</time></trkpt><trkpt lat="43.4787593" lon="11.3555537"><ele>561.0</ele><time>2026-04-18T09:11:23.223Z</time></trkpt><trkpt lat="43.4787883" lon="11.3557092"><ele>560.8</ele><time>2026-04-18T09:11:25.216Z</time></trkpt><trkpt lat="43.4788148" lon="11.3558607"><ele>560.6</ele><time>2026-04-18T09:11:27.236Z</time></trkpt><trkpt lat="43.4788381" lon="11.3560044"><ele>560.4</ele><time>2026-04-18T09:11:29.226Z</time></trkpt><trkpt lat="43.4788628" lon="11.3561419"><ele>560.2</ele><time>2026-04-18T09:11:31.231Z</time></trkpt><trkpt lat="43.4788909" lon="11.3562748"><ele>560.0</ele><time>2026-04-18T09:11:33.231Z</time></trkpt><trkpt lat="43.4789173" lon="11.3564063"><ele>560.3333333333333</ele><time>2026-04-18T09:11:35.221Z</time></trkpt><trkpt lat="43.4789403" lon="11.3565252"><ele>560.6666666666666</ele><time>2026-04-18T09:11:37.244Z</time></trkpt><trkpt lat="43.4789605" lon="11.3566405"><ele>561.0</ele><time>2026-04-18T09:11:39.23Z</time></trkpt><trkpt lat="43.4789814" lon="11.356758"><ele>561.3333333333334</ele><time>2026-04-18T09:11:41.251Z</time></trkpt><trkpt lat="43.4790041" lon="11.3568721"><ele>561.6666666666667</ele><time>2026-04-18T09:11:43.244Z</time></trkpt><trkpt lat="43.4790197" lon="11.35699"><ele>562.0</ele><time>2026-04-18T09:11:45.233Z</time></trkpt><trkpt lat="43.4790302" lon="11.3571096"><ele>563.2</ele><time>2026-04-18T09:11:47.22Z</time></trkpt><trkpt lat="43.4790235" lon="11.3572327"><ele>564.4000000000001</ele><time>2026-04-18T09:11:49.232Z</time></trkpt><trkpt lat="43.4789947" lon="11.3573493"><ele>565.5999999999999</ele><time>2026-04-18T09:11:51.218Z</time></trkpt><trkpt lat="43.4789536" lon="11.3574615"><ele>566.8</ele><time>2026-04-18T09:11:53.264Z</time></trkpt><trkpt lat="43.4789013" lon="11.3575714"><ele>568.0</ele><time>2026-04-18T09:11:55.218Z</time></trkpt><trkpt lat="43.4788403" lon="11.3576763"><ele>568.0</ele><time>2026-04-18T09:11:57.232Z</time></trkpt><trkpt lat="43.4787769" lon="11.3577694"><ele>568.0</ele><time>2026-04-18T09:11:59.231Z</time></trkpt><trkpt lat="43.4787132" lon="11.3578617"><ele>568.0</ele><time>2026-04-18T09:12:01.216Z</time></trkpt><trkpt lat="43.4786531" lon="11.3579486"><ele>568.0</ele><time>2026-04-18T09:12:03.228Z</time></trkpt><trkpt lat="43.4786036" lon="11.3580436"><ele>568.0</ele><time>2026-04-18T09:12:05.213Z</time></trkpt><trkpt lat="43.4785588" lon="11.3581429"><ele>568.0</ele><time>2026-04-18T09:12:07.225Z</time></trkpt><trkpt lat="43.4785217" lon="11.3582514"><ele>564.8</ele><time>2026-04-18T09:12:09.227Z</time></trkpt><trkpt lat="43.4784995" lon="11.3583635"><ele>561.5999999999999</ele><time>2026-04-18T09:12:11.214Z</time></trkpt><trkpt lat="43.4784992" lon="11.3584901"><ele>558.4000000000001</ele><time>2026-04-18T09:12:13.224Z</time></trkpt><trkpt lat="43.4785246" lon="11.358622"><ele>555.2</ele><time>2026-04-18T09:12:15.258Z</time></trkpt><trkpt lat="43.4785629" lon="11.3587469"><ele>552.0</ele><time>2026-04-18T09:12:17.212Z</time></trkpt><trkpt lat="43.4786144" lon="11.3588828"><ele>550.75</ele><time>2026-04-18T09:12:19.214Z</time></trkpt><trkpt lat="43.4786704" lon="11.3590312"><ele>549.5</ele><time>2026-04-18T09:12:21.225Z</time></trkpt><trkpt lat="43.4787222" lon="11.359167"><ele>548.25</ele><time>2026-04-18T09:12:23.231Z</time></trkpt><trkpt lat="43.4787763" lon="11.359311"><ele>547.0</ele><time>2026-04-18T09:12:25.221Z</time></trkpt><trkpt lat="43.4788242" lon="11.3594694"><ele>550.0</ele><time>2026-04-18T09:12:27.239Z</time></trkpt><trkpt lat="43.4788677" lon="11.3596297"><ele>553.0</ele><time>2026-04-18T09:12:29.232Z</time></trkpt><trkpt lat="43.478889" lon="11.3597123"><ele>556.0</ele><time>2026-04-18T09:12:30.237Z</time></trkpt><trkpt lat="43.4789311" lon="11.3598632"><ele>559.0</ele><time>2026-04-18T09:12:32.239Z</time></trkpt><trkpt lat="43.4789683" lon="11.3600037"><ele>562.0</ele><time>2026-04-18T09:12:34.231Z</time></trkpt><trkpt lat="43.4790063" lon="11.3601487"><ele>562.0</ele><time>2026-04-18T09:12:36.231Z</time></trkpt><trkpt lat="43.4790435" lon="11.3602865"><ele>562.0</ele><time>2026-04-18T09:12:38.236Z</time></trkpt><trkpt lat="43.4790811" lon="11.3604267"><ele>562.0</ele><time>2026-04-18T09:12:40.23Z</time></trkpt><trkpt lat="43.4791212" lon="11.3605637"><ele>562.0</ele><time>2026-04-18T09:12:42.247Z</time></trkpt><trkpt lat="43.4791565" lon="11.3606987"><ele>562.0</ele><time>2026-04-18T09:12:44.245Z</time></trkpt><trkpt lat="43.4791893" lon="11.3608325"><ele>561.0</ele><time>2026-04-18T09:12:46.238Z</time></trkpt><trkpt lat="43.4792213" lon="11.3609695"><ele>560.0</ele><time>2026-04-18T09:12:48.248Z</time></trkpt><trkpt lat="43.4792437" lon="11.3611141"><ele>559.0</ele><time>2026-04-18T09:12:50.242Z</time></trkpt><trkpt lat="43.4792546" lon="11.3612644"><ele>558.0</ele><time>2026-04-18T09:12:52.243Z</time></trkpt><trkpt lat="43.4792587" lon="11.3614067"><ele>557.0</ele><time>2026-04-18T09:12:54.25Z</time></trkpt><trkpt lat="43.4792565" lon="11.3615453"><ele>556.6</ele><time>2026-04-18T09:12:56.25Z</time></trkpt><trkpt lat="43.4792679" lon="11.3616723"><ele>556.2</ele><time>2026-04-18T09:12:58.237Z</time></trkpt><trkpt lat="43.4792948" lon="11.3618002"><ele>555.8</ele><time>2026-04-18T09:13:00.237Z</time></trkpt><trkpt lat="43.4793274" lon="11.3619277"><ele>555.4</ele><time>2026-04-18T09:13:02.23Z</time></trkpt><trkpt lat="43.4793606" lon="11.3620611"><ele>555.0</ele><time>2026-04-18T09:13:04.244Z</time></trkpt><trkpt lat="43.4793949" lon="11.3622088"><ele>554.25</ele><time>2026-04-18T09:13:06.235Z</time></trkpt><trkpt lat="43.4794133" lon="11.3623657"><ele>553.5</ele><time>2026-04-18T09:13:08.23Z</time></trkpt><trkpt lat="43.4794002" lon="11.3625222"><ele>552.75</ele><time>2026-04-18T09:13:10.239Z</time></trkpt><trkpt lat="43.4793598" lon="11.3626711"><ele>552.0</ele><time>2026-04-18T09:13:12.231Z</time></trkpt><trkpt lat="43.4792985" lon="11.3628044"><ele>552.0</ele><time>2026-04-18T09:13:14.251Z</time></trkpt><trkpt lat="43.4792254" lon="11.3629042"><ele>552.0</ele><time>2026-04-18T09:13:16.227Z</time></trkpt><trkpt lat="43.4791409" lon="11.3629913"><ele>552.0</ele><time>2026-04-18T09:13:18.24Z</time></trkpt><trkpt lat="43.479053" lon="11.363057"><ele>552.0</ele><time>2026-04-18T09:13:20.228Z</time></trkpt><trkpt lat="43.4789654" lon="11.3630988"><ele>552.0</ele><time>2026-04-18T09:13:22.21Z</time></trkpt><trkpt lat="43.4788625" lon="11.3631302"><ele>551.2</ele><time>2026-04-18T09:13:24.296Z</time></trkpt><trkpt lat="43.4787785" lon="11.3632062"><ele>550.4000000000001</ele><time>2026-04-18T09:13:26.302Z</time></trkpt><trkpt lat="43.4786925" lon="11.3632884"><ele>549.5999999999999</ele><time>2026-04-18T09:13:28.252Z</time></trkpt><trkpt lat="43.4785914" lon="11.3633928"><ele>548.8</ele><time>2026-04-18T09:13:30.241Z</time></trkpt><trkpt lat="43.4785363" lon="11.363476"><ele>548.0</ele><time>2026-04-18T09:13:31.247Z</time></trkpt><trkpt lat="43.478486" lon="11.3635304"><ele>548.0</ele><time>2026-04-18T09:13:32.245Z</time></trkpt><trkpt lat="43.4783975" lon="11.3636182"><ele>548.0</ele><time>2026-04-18T09:13:34.218Z</time></trkpt><trkpt lat="43.4783017" lon="11.3637037"><ele>548.0</ele><time>2026-04-18T09:13:36.215Z</time></trkpt><trkpt lat="43.4782401" lon="11.3637517"><ele>548.0</ele><time>2026-04-18T09:13:37.239Z</time></trkpt><trkpt lat="43.4781784" lon="11.3637961"><ele>548.0</ele><time>2026-04-18T09:13:38.235Z</time></trkpt><trkpt lat="43.4781175" lon="11.3638382"><ele>548.0</ele><time>2026-04-18T09:13:39.235Z</time></trkpt><trkpt lat="43.4780566" lon="11.3638786"><ele>548.1428571428572</ele><time>2026-04-18T09:13:40.217Z</time></trkpt><trkpt lat="43.477992" lon="11.3639147"><ele>548.2857142857143</ele><time>2026-04-18T09:13:41.213Z</time></trkpt><trkpt lat="43.4779253" lon="11.3639467"><ele>548.4285714285714</ele><time>2026-04-18T09:13:42.232Z</time></trkpt><trkpt lat="43.4778591" lon="11.3639859"><ele>548.5714285714287</ele><time>2026-04-18T09:13:43.214Z</time></trkpt><trkpt lat="43.4777932" lon="11.3640264"><ele>548.7142857142858</ele><time>2026-04-18T09:13:44.213Z</time></trkpt><trkpt lat="43.4777257" lon="11.3640674"><ele>548.8571428571429</ele><time>2026-04-18T09:13:45.235Z</time></trkpt><trkpt lat="43.477658" lon="11.3641086"><ele>549.0</ele><time>2026-04-18T09:13:46.234Z</time></trkpt><trkpt lat="43.4775918" lon="11.3641514"><ele>549.0</ele><time>2026-04-18T09:13:47.234Z</time></trkpt><trkpt lat="43.4775284" lon="11.3641939"><ele>549.0</ele><time>2026-04-18T09:13:48.233Z</time></trkpt><trkpt lat="43.4774611" lon="11.3642396"><ele>549.0</ele><time>2026-04-18T09:13:49.234Z</time></trkpt><trkpt lat="43.4773954" lon="11.3642881"><ele>549.0</ele><time>2026-04-18T09:13:50.23Z</time></trkpt><trkpt lat="43.4773344" lon="11.3643395"><ele>549.0</ele><time>2026-04-18T09:13:51.234Z</time></trkpt><trkpt lat="43.4772779" lon="11.3643975"><ele>549.0</ele><time>2026-04-18T09:13:52.248Z</time></trkpt><trkpt lat="43.4772262" lon="11.3644613"><ele>549.0</ele><time>2026-04-18T09:13:53.241Z</time></trkpt><trkpt lat="43.4771746" lon="11.3645293"><ele>549.0</ele><time>2026-04-18T09:13:54.217Z</time></trkpt><trkpt lat="43.4771273" lon="11.3646042"><ele>549.0</ele><time>2026-04-18T09:13:55.246Z</time></trkpt><trkpt lat="43.4770808" lon="11.3646784"><ele>549.0</ele><time>2026-04-18T09:13:56.226Z</time></trkpt><trkpt lat="43.4770354" lon="11.3647562"><ele>549.0</ele><time>2026-04-18T09:13:57.236Z</time></trkpt><trkpt lat="43.4769903" lon="11.3648334"><ele>549.0</ele><time>2026-04-18T09:13:58.227Z</time></trkpt><trkpt lat="43.4769453" lon="11.3649117"><ele>549.0</ele><time>2026-04-18T09:13:59.25Z</time></trkpt><trkpt lat="43.4769033" lon="11.36499"><ele>549.0</ele><time>2026-04-18T09:14:00.232Z</time></trkpt><trkpt lat="43.4768628" lon="11.3650716"><ele>548.6</ele><time>2026-04-18T09:14:01.304Z</time></trkpt><trkpt lat="43.4767959" lon="11.3652174"><ele>548.2</ele><time>2026-04-18T09:14:03.242Z</time></trkpt><trkpt lat="43.4767377" lon="11.3653731"><ele>547.8000000000001</ele><time>2026-04-18T09:14:05.233Z</time></trkpt><trkpt lat="43.4767133" lon="11.3654635"><ele>547.4</ele><time>2026-04-18T09:14:06.323Z</time></trkpt><trkpt lat="43.4766893" lon="11.365549"><ele>547.0</ele><time>2026-04-18T09:14:07.238Z</time></trkpt><trkpt lat="43.4766636" lon="11.3656396"><ele>547.0</ele><time>2026-04-18T09:14:08.246Z</time></trkpt><trkpt lat="43.4766402" lon="11.3657285"><ele>547.0</ele><time>2026-04-18T09:14:09.234Z</time></trkpt><trkpt lat="43.4766159" lon="11.365818"><ele>547.0</ele><time>2026-04-18T09:14:10.232Z</time></trkpt><trkpt lat="43.4765939" lon="11.3659047"><ele>547.0</ele><time>2026-04-18T09:14:11.216Z</time></trkpt><trkpt lat="43.4765746" lon="11.3659896"><ele>547.0</ele><time>2026-04-18T09:14:12.228Z</time></trkpt><trkpt lat="43.4765822" lon="11.3661629"><ele>547.0</ele><time>2026-04-18T09:14:14.215Z</time></trkpt><trkpt lat="43.476605" lon="11.3662651"><ele>547.0</ele><time>2026-04-18T09:14:15.313Z</time></trkpt><trkpt lat="43.4766475" lon="11.3663452"><ele>547.0</ele><time>2026-04-18T09:14:16.311Z</time></trkpt><trkpt lat="43.4767037" lon="11.3664048"><ele>547.0</ele><time>2026-04-18T09:14:17.239Z</time></trkpt><trkpt lat="43.4767697" lon="11.3664354"><ele>547.0</ele><time>2026-04-18T09:14:18.23Z</time></trkpt><trkpt lat="43.4768481" lon="11.3664394"><ele>547.0</ele><time>2026-04-18T09:14:19.233Z</time></trkpt><trkpt lat="43.4769256" lon="11.3664345"><ele>547.0</ele><time>2026-04-18T09:14:20.227Z</time></trkpt><trkpt lat="43.4770056" lon="11.3664176"><ele>545.8000000000001</ele><time>2026-04-18T09:14:21.213Z</time></trkpt><trkpt lat="43.4771006" lon="11.3663957"><ele>544.6</ele><time>2026-04-18T09:14:22.231Z</time></trkpt><trkpt lat="43.4771877" lon="11.3663717"><ele>543.4000000000001</ele><time>2026-04-18T09:14:23.229Z</time></trkpt><trkpt lat="43.4772791" lon="11.3663567"><ele>542.2</ele><time>2026-04-18T09:14:24.239Z</time></trkpt><trkpt lat="43.4773705" lon="11.366362"><ele>541.0</ele><time>2026-04-18T09:14:25.23Z</time></trkpt><trkpt lat="43.4774599" lon="11.3663842"><ele>540.8333333333334</ele><time>2026-04-18T09:14:26.23Z</time></trkpt><trkpt lat="43.4775524" lon="11.366409"><ele>540.6666666666667</ele><time>2026-04-18T09:14:27.237Z</time></trkpt><trkpt lat="43.4776413" lon="11.3664357"><ele>540.5</ele><time>2026-04-18T09:14:28.248Z</time></trkpt><trkpt lat="43.4777294" lon="11.366455"><ele>540.3333333333334</ele><time>2026-04-18T09:14:29.23Z</time></trkpt><trkpt lat="43.4778165" lon="11.3664602"><ele>540.1666666666666</ele><time>2026-04-18T09:14:30.239Z</time></trkpt><trkpt lat="43.4778987" lon="11.3664474"><ele>540.0</ele><time>2026-04-18T09:14:31.231Z</time></trkpt><trkpt lat="43.4779785" lon="11.3664189"><ele>538.8333333333334</ele><time>2026-04-18T09:14:32.217Z</time></trkpt><trkpt lat="43.4780563" lon="11.3663817"><ele>537.6666666666666</ele><time>2026-04-18T09:14:33.242Z</time></trkpt><trkpt lat="43.4781351" lon="11.3663429"><ele>536.5</ele><time>2026-04-18T09:14:34.238Z</time></trkpt><trkpt lat="43.4782184" lon="11.3663036"><ele>535.3333333333333</ele><time>2026-04-18T09:14:35.226Z</time></trkpt><trkpt lat="43.4783072" lon="11.3662734"><ele>534.1666666666666</ele><time>2026-04-18T09:14:36.234Z</time></trkpt><trkpt lat="43.4783961" lon="11.3662544"><ele>533.0</ele><time>2026-04-18T09:14:37.232Z</time></trkpt><trkpt lat="43.478486" lon="11.366241"><ele>534.1999999999999</ele><time>2026-04-18T09:14:38.24Z</time></trkpt><trkpt lat="43.4785738" lon="11.3662243"><ele>535.4</ele><time>2026-04-18T09:14:39.225Z</time></trkpt><trkpt lat="43.4786608" lon="11.3662058"><ele>536.5999999999999</ele><time>2026-04-18T09:14:40.234Z</time></trkpt><trkpt lat="43.4787552" lon="11.3661847"><ele>537.8</ele><time>2026-04-18T09:14:41.307Z</time></trkpt><trkpt lat="43.4788481" lon="11.3661635"><ele>539.0</ele><time>2026-04-18T09:14:42.237Z</time></trkpt><trkpt lat="43.4789475" lon="11.3661437"><ele>539.0</ele><time>2026-04-18T09:14:43.243Z</time></trkpt><trkpt lat="43.4790515" lon="11.3661159"><ele>539.0</ele><time>2026-04-18T09:14:44.231Z</time></trkpt><trkpt lat="43.4791503" lon="11.3661014"><ele>539.0</ele><time>2026-04-18T09:14:45.229Z</time></trkpt><trkpt lat="43.4792402" lon="11.3660839"><ele>539.0</ele><time>2026-04-18T09:14:46.232Z</time></trkpt><trkpt lat="43.4793334" lon="11.3660582"><ele>539.0</ele><time>2026-04-18T09:14:47.245Z</time></trkpt><trkpt lat="43.4794229" lon="11.3660307"><ele>539.0</ele><time>2026-04-18T09:14:48.235Z</time></trkpt><trkpt lat="43.4795138" lon="11.3659925"><ele>539.0</ele><time>2026-04-18T09:14:49.321Z</time></trkpt><trkpt lat="43.4795997" lon="11.365965"><ele>539.0</ele><time>2026-04-18T09:14:50.234Z</time></trkpt><trkpt lat="43.4796854" lon="11.3659533"><ele>539.0</ele><time>2026-04-18T09:14:51.235Z</time></trkpt><trkpt lat="43.4797513" lon="11.3659265"><ele>539.0</ele><time>2026-04-18T09:14:52.222Z</time></trkpt><trkpt lat="43.4798257" lon="11.3658799"><ele>539.0</ele><time>2026-04-18T09:14:53.229Z</time></trkpt><trkpt lat="43.479913" lon="11.3658244"><ele>536.6</ele><time>2026-04-18T09:14:54.307Z</time></trkpt><trkpt lat="43.4800079" lon="11.3657723"><ele>534.2</ele><time>2026-04-18T09:14:55.224Z</time></trkpt><trkpt lat="43.4801021" lon="11.3657399"><ele>531.8000000000001</ele><time>2026-04-18T09:14:56.235Z</time></trkpt><trkpt lat="43.4801878" lon="11.3657226"><ele>529.4</ele><time>2026-04-18T09:14:57.232Z</time></trkpt><trkpt lat="43.480277" lon="11.3657032"><ele>527.0</ele><time>2026-04-18T09:14:58.231Z</time></trkpt><trkpt lat="43.4803681" lon="11.3656909"><ele>525.6</ele><time>2026-04-18T09:14:59.229Z</time></trkpt><trkpt lat="43.480468" lon="11.3656794"><ele>524.2</ele><time>2026-04-18T09:15:00.231Z</time></trkpt><trkpt lat="43.4805665" lon="11.3656696"><ele>522.8</ele><time>2026-04-18T09:15:01.316Z</time></trkpt><trkpt lat="43.4806583" lon="11.3656578"><ele>521.4</ele><time>2026-04-18T09:15:02.25Z</time></trkpt><trkpt lat="43.4807533" lon="11.3656536"><ele>520.0</ele><time>2026-04-18T09:15:03.234Z</time></trkpt><trkpt lat="43.4808546" lon="11.3656559"><ele>520.0</ele><time>2026-04-18T09:15:04.233Z</time></trkpt><trkpt lat="43.4809483" lon="11.365674"><ele>520.0</ele><time>2026-04-18T09:15:05.219Z</time></trkpt><trkpt lat="43.4810424" lon="11.3657014"><ele>520.0</ele><time>2026-04-18T09:15:06.221Z</time></trkpt><trkpt lat="43.4811307" lon="11.3657176"><ele>520.0</ele><time>2026-04-18T09:15:07.238Z</time></trkpt><trkpt lat="43.4812162" lon="11.3657349"><ele>520.0</ele><time>2026-04-18T09:15:08.245Z</time></trkpt><trkpt lat="43.4813031" lon="11.3657386"><ele>519.1666666666667</ele><time>2026-04-18T09:15:09.242Z</time></trkpt><trkpt lat="43.4813917" lon="11.365739"><ele>518.3333333333334</ele><time>2026-04-18T09:15:10.214Z</time></trkpt><trkpt lat="43.4814845" lon="11.3657428"><ele>517.5</ele><time>2026-04-18T09:15:11.322Z</time></trkpt><trkpt lat="43.4815732" lon="11.3657425"><ele>516.6666666666666</ele><time>2026-04-18T09:15:12.241Z</time></trkpt><trkpt lat="43.4816603" lon="11.365727"><ele>515.8333333333333</ele><time>2026-04-18T09:15:13.239Z</time></trkpt><trkpt lat="43.4817411" lon="11.3656862"><ele>515.0</ele><time>2026-04-18T09:15:14.225Z</time></trkpt><trkpt lat="43.4818179" lon="11.3656231"><ele>515.0</ele><time>2026-04-18T09:15:15.24Z</time></trkpt><trkpt lat="43.481889" lon="11.3655491"><ele>515.0</ele><time>2026-04-18T09:15:16.242Z</time></trkpt><trkpt lat="43.4819554" lon="11.3654735"><ele>515.0</ele><time>2026-04-18T09:15:17.234Z</time></trkpt><trkpt lat="43.4820206" lon="11.3654002"><ele>515.0</ele><time>2026-04-18T09:15:18.252Z</time></trkpt><trkpt lat="43.482081" lon="11.365331"><ele>515.0</ele><time>2026-04-18T09:15:19.225Z</time></trkpt><trkpt lat="43.4821363" lon="11.3652656"><ele>515.0</ele><time>2026-04-18T09:15:20.226Z</time></trkpt><trkpt lat="43.4821851" lon="11.3652053"><ele>515.6</ele><time>2026-04-18T09:15:21.234Z</time></trkpt><trkpt lat="43.4822713" lon="11.365107"><ele>516.2</ele><time>2026-04-18T09:15:23.24Z</time></trkpt><trkpt lat="43.4823586" lon="11.3650503"><ele>516.8</ele><time>2026-04-18T09:15:25.308Z</time></trkpt><trkpt lat="43.4824465" lon="11.3650893"><ele>517.4</ele><time>2026-04-18T09:15:27.236Z</time></trkpt><trkpt lat="43.4825177" lon="11.3652002"><ele>518.0</ele><time>2026-04-18T09:15:29.247Z</time></trkpt><trkpt lat="43.4825748" lon="11.3653209"><ele>518.0</ele><time>2026-04-18T09:15:31.252Z</time></trkpt><trkpt lat="43.4826369" lon="11.3654369"><ele>518.0</ele><time>2026-04-18T09:15:33.253Z</time></trkpt><trkpt lat="43.4827062" lon="11.365551"><ele>518.0</ele><time>2026-04-18T09:15:35.234Z</time></trkpt><trkpt lat="43.4827721" lon="11.3656688"><ele>518.0</ele><time>2026-04-18T09:15:37.23Z</time></trkpt><trkpt lat="43.4828403" lon="11.3657858"><ele>518.0</ele><time>2026-04-18T09:15:39.234Z</time></trkpt><trkpt lat="43.4829175" lon="11.3658826"><ele>515.8</ele><time>2026-04-18T09:15:41.311Z</time></trkpt><trkpt lat="43.48302" lon="11.3659762"><ele>513.5999999999999</ele><time>2026-04-18T09:15:43.239Z</time></trkpt><trkpt lat="43.483087" lon="11.3660133"><ele>511.40000000000003</ele><time>2026-04-18T09:15:44.239Z</time></trkpt><trkpt lat="43.4831576" lon="11.3660161"><ele>509.20000000000005</ele><time>2026-04-18T09:15:45.224Z</time></trkpt><trkpt lat="43.4832709" lon="11.3659709"><ele>507.0</ele><time>2026-04-18T09:15:47.238Z</time></trkpt><trkpt lat="43.483388" lon="11.365936"><ele>507.0</ele><time>2026-04-18T09:15:49.214Z</time></trkpt><trkpt lat="43.4834566" lon="11.3658983"><ele>507.0</ele><time>2026-04-18T09:15:50.255Z</time></trkpt><trkpt lat="43.4835216" lon="11.3658421"><ele>507.0</ele><time>2026-04-18T09:15:51.323Z</time></trkpt><trkpt lat="43.4836367" lon="11.3657201"><ele>507.0</ele><time>2026-04-18T09:15:53.243Z</time></trkpt><trkpt lat="43.4836963" lon="11.3656539"><ele>507.0</ele><time>2026-04-18T09:15:54.251Z</time></trkpt><trkpt lat="43.4837539" lon="11.3655932"><ele>507.0</ele><time>2026-04-18T09:15:55.301Z</time></trkpt><trkpt lat="43.483802" lon="11.3655351"><ele>507.0</ele><time>2026-04-18T09:15:56.22Z</time></trkpt><trkpt lat="43.4838508" lon="11.3654701"><ele>507.00000000000006</ele><time>2026-04-18T09:15:57.229Z</time></trkpt><trkpt lat="43.4839202" lon="11.3654259"><ele>507.00000000000006</ele><time>2026-04-18T09:15:59.239Z</time></trkpt><trkpt lat="43.4839084" lon="11.3655395"><ele>507.0</ele><time>2026-04-18T09:16:01.227Z</time></trkpt><trkpt lat="43.4838184" lon="11.365658"><ele>507.0</ele><time>2026-04-18T09:16:03.237Z</time></trkpt><trkpt lat="43.4837274" lon="11.3657558"><ele>507.0</ele><time>2026-04-18T09:16:05.245Z</time></trkpt><trkpt lat="43.4836472" lon="11.3658768"><ele>507.0</ele><time>2026-04-18T09:16:07.242Z</time></trkpt><trkpt lat="43.4835672" lon="11.3660074"><ele>507.0</ele><time>2026-04-18T09:16:09.24Z</time></trkpt><trkpt lat="43.4835219" lon="11.3660714"><ele>507.0</ele><time>2026-04-18T09:16:10.242Z</time></trkpt><trkpt lat="43.4834735" lon="11.366137"><ele>507.0</ele><time>2026-04-18T09:16:11.233Z</time></trkpt><trkpt lat="43.4834222" lon="11.3662012"><ele>507.0</ele><time>2026-04-18T09:16:12.235Z</time></trkpt><trkpt lat="43.4833691" lon="11.3662635"><ele>507.0</ele><time>2026-04-18T09:16:13.211Z</time></trkpt><trkpt lat="43.4833113" lon="11.3663297"><ele>507.0</ele><time>2026-04-18T09:16:14.243Z</time></trkpt><trkpt lat="43.4832539" lon="11.3663913"><ele>507.0</ele><time>2026-04-18T09:16:15.248Z</time></trkpt><trkpt lat="43.4831865" lon="11.3664418"><ele>507.0</ele><time>2026-04-18T09:16:16.248Z</time></trkpt><trkpt lat="43.483111" lon="11.3664799"><ele>507.0</ele><time>2026-04-18T09:16:17.231Z</time></trkpt><trkpt lat="43.4830281" lon="11.3664963"><ele>507.0</ele><time>2026-04-18T09:16:18.239Z</time></trkpt><trkpt lat="43.4829448" lon="11.3664963"><ele>504.0</ele><time>2026-04-18T09:16:19.234Z</time></trkpt><trkpt lat="43.4828563" lon="11.3664807"><ele>501.00000000000006</ele><time>2026-04-18T09:16:20.24Z</time></trkpt><trkpt lat="43.4827656" lon="11.3664515"><ele>498.00000000000006</ele><time>2026-04-18T09:16:21.239Z</time></trkpt><trkpt lat="43.482676" lon="11.3664273"><ele>495.0</ele><time>2026-04-18T09:16:22.237Z</time></trkpt><trkpt lat="43.4825871" lon="11.3664104"><ele>492.0</ele><time>2026-04-18T09:16:23.244Z</time></trkpt><trkpt lat="43.4824992" lon="11.3663993"><ele>492.0</ele><time>2026-04-18T09:16:24.232Z</time></trkpt><trkpt lat="43.4824103" lon="11.3663929"><ele>492.0</ele><time>2026-04-18T09:16:25.249Z</time></trkpt><trkpt lat="43.4823311" lon="11.366397"><ele>492.0</ele><time>2026-04-18T09:16:26.238Z</time></trkpt><trkpt lat="43.4822534" lon="11.3664289"><ele>492.0</ele><time>2026-04-18T09:16:27.226Z</time></trkpt><trkpt lat="43.482178" lon="11.3664833"><ele>492.0</ele><time>2026-04-18T09:16:28.231Z</time></trkpt><trkpt lat="43.482112" lon="11.366552"><ele>492.0</ele><time>2026-04-18T09:16:29.309Z</time></trkpt><trkpt lat="43.4820541" lon="11.3666268"><ele>492.6666666666667</ele><time>2026-04-18T09:16:30.228Z</time></trkpt><trkpt lat="43.4819932" lon="11.3667149"><ele>493.33333333333337</ele><time>2026-04-18T09:16:31.238Z</time></trkpt><trkpt lat="43.4819354" lon="11.366808"><ele>494.0</ele><time>2026-04-18T09:16:32.229Z</time></trkpt><trkpt lat="43.4818791" lon="11.3668893"><ele>494.6666666666667</ele><time>2026-04-18T09:16:33.234Z</time></trkpt><trkpt lat="43.4818195" lon="11.3669731"><ele>495.33333333333337</ele><time>2026-04-18T09:16:34.294Z</time></trkpt><trkpt lat="43.4817507" lon="11.3670445"><ele>496.0</ele><time>2026-04-18T09:16:35.316Z</time></trkpt><trkpt lat="43.4816732" lon="11.3670929"><ele>496.00000000000006</ele><time>2026-04-18T09:16:36.302Z</time></trkpt><trkpt lat="43.4815893" lon="11.3671246"><ele>496.0</ele><time>2026-04-18T09:16:37.238Z</time></trkpt><trkpt lat="43.4814985" lon="11.3671415"><ele>496.0</ele><time>2026-04-18T09:16:38.228Z</time></trkpt><trkpt lat="43.4814107" lon="11.3671322"><ele>496.0</ele><time>2026-04-18T09:16:39.228Z</time></trkpt><trkpt lat="43.4813352" lon="11.3671325"><ele>496.00000000000006</ele><time>2026-04-18T09:16:40.235Z</time></trkpt><trkpt lat="43.4812585" lon="11.3671385"><ele>496.0</ele><time>2026-04-18T09:16:41.214Z</time></trkpt><trkpt lat="43.481184" lon="11.3671539"><ele>494.8</ele><time>2026-04-18T09:16:42.239Z</time></trkpt><trkpt lat="43.4811161" lon="11.3671777"><ele>493.6</ele><time>2026-04-18T09:16:43.235Z</time></trkpt><trkpt lat="43.481013" lon="11.3672571"><ele>492.4</ele><time>2026-04-18T09:16:45.226Z</time></trkpt><trkpt lat="43.4809274" lon="11.3673736"><ele>491.2</ele><time>2026-04-18T09:16:47.238Z</time></trkpt><trkpt lat="43.4808894" lon="11.3674446"><ele>490.0</ele><time>2026-04-18T09:16:48.249Z</time></trkpt><trkpt lat="43.4808223" lon="11.3675842"><ele>490.0</ele><time>2026-04-18T09:16:50.24Z</time></trkpt><trkpt lat="43.4807379" lon="11.3676828"><ele>490.0</ele><time>2026-04-18T09:16:52.244Z</time></trkpt><trkpt lat="43.4806207" lon="11.3677261"><ele>490.0</ele><time>2026-04-18T09:16:54.235Z</time></trkpt><trkpt lat="43.480505" lon="11.3677016"><ele>490.0</ele><time>2026-04-18T09:16:56.305Z</time></trkpt><trkpt lat="43.4804085" lon="11.3676553"><ele>491.2</ele><time>2026-04-18T09:16:58.229Z</time></trkpt><trkpt lat="43.480303" lon="11.3676204"><ele>492.4</ele><time>2026-04-18T09:17:00.222Z</time></trkpt><trkpt lat="43.4801951" lon="11.3676284"><ele>493.6</ele><time>2026-04-18T09:17:02.233Z</time></trkpt><trkpt lat="43.4800953" lon="11.3677356"><ele>494.8</ele><time>2026-04-18T09:17:04.24Z</time></trkpt><trkpt lat="43.4800419" lon="11.3677968"><ele>496.0</ele><time>2026-04-18T09:17:05.313Z</time></trkpt><trkpt lat="43.4799635" lon="11.3678967"><ele>493.6666666666667</ele><time>2026-04-18T09:17:07.243Z</time></trkpt><trkpt lat="43.4798956" lon="11.3680375"><ele>491.33333333333337</ele><time>2026-04-18T09:17:09.233Z</time></trkpt><trkpt lat="43.4798578" lon="11.3681205"><ele>489.0</ele><time>2026-04-18T09:17:10.223Z</time></trkpt><trkpt lat="43.4798142" lon="11.3681949"><ele>486.66666666666663</ele><time>2026-04-18T09:17:11.275Z</time></trkpt><trkpt lat="43.4797651" lon="11.3682677"><ele>484.3333333333333</ele><time>2026-04-18T09:17:12.217Z</time></trkpt><trkpt lat="43.4797154" lon="11.368336"><ele>482.0</ele><time>2026-04-18T09:17:13.244Z</time></trkpt><trkpt lat="43.4796627" lon="11.368405"><ele>481.99999999999994</ele><time>2026-04-18T09:17:14.294Z</time></trkpt><trkpt lat="43.4796134" lon="11.3684758"><ele>482.0</ele><time>2026-04-18T09:17:15.23Z</time></trkpt><trkpt lat="43.4795609" lon="11.3685573"><ele>482.0</ele><time>2026-04-18T09:17:16.238Z</time></trkpt><trkpt lat="43.4795063" lon="11.3686362"><ele>482.0</ele><time>2026-04-18T09:17:17.228Z</time></trkpt><trkpt lat="43.4794482" lon="11.3687141"><ele>481.99999999999994</ele><time>2026-04-18T09:17:18.23Z</time></trkpt><trkpt lat="43.4793904" lon="11.3687913"><ele>482.0</ele><time>2026-04-18T09:17:19.229Z</time></trkpt><trkpt lat="43.4793336" lon="11.3688708"><ele>481.8333333333333</ele><time>2026-04-18T09:17:20.242Z</time></trkpt><trkpt lat="43.4792729" lon="11.368954"><ele>481.66666666666663</ele><time>2026-04-18T09:17:21.238Z</time></trkpt><trkpt lat="43.4792093" lon="11.3690395"><ele>481.5</ele><time>2026-04-18T09:17:22.229Z</time></trkpt><trkpt lat="43.4791463" lon="11.3691294"><ele>481.33333333333337</ele><time>2026-04-18T09:17:23.23Z</time></trkpt><trkpt lat="43.4790845" lon="11.3692201"><ele>481.1666666666667</ele><time>2026-04-18T09:17:24.241Z</time></trkpt><trkpt lat="43.4790253" lon="11.3693086"><ele>481.0</ele><time>2026-04-18T09:17:25.306Z</time></trkpt><trkpt lat="43.4789696" lon="11.3693921"><ele>481.0</ele><time>2026-04-18T09:17:26.225Z</time></trkpt><trkpt lat="43.4789105" lon="11.369482"><ele>481.0</ele><time>2026-04-18T09:17:27.242Z</time></trkpt><trkpt lat="43.4788493" lon="11.3695701"><ele>481.0</ele><time>2026-04-18T09:17:28.239Z</time></trkpt><trkpt lat="43.4787841" lon="11.3696571"><ele>481.0</ele><time>2026-04-18T09:17:29.243Z</time></trkpt><trkpt lat="43.4787115" lon="11.3697313"><ele>481.0</ele><time>2026-04-18T09:17:30.235Z</time></trkpt><trkpt lat="43.4786277" lon="11.369788"><ele>479.0</ele><time>2026-04-18T09:17:31.233Z</time></trkpt><trkpt lat="43.4785323" lon="11.3698117"><ele>477.0</ele><time>2026-04-18T09:17:32.236Z</time></trkpt><trkpt lat="43.4784326" lon="11.3698117"><ele>475.0</ele><time>2026-04-18T09:17:33.216Z</time></trkpt><trkpt lat="43.4783298" lon="11.3697978"><ele>473.0</ele><time>2026-04-18T09:17:34.315Z</time></trkpt><trkpt lat="43.4782365" lon="11.3697777"><ele>471.0</ele><time>2026-04-18T09:17:35.239Z</time></trkpt><trkpt lat="43.4781435" lon="11.3697672"><ele>471.0</ele><time>2026-04-18T09:17:36.239Z</time></trkpt><trkpt lat="43.47807" lon="11.369787"><ele>471.0</ele><time>2026-04-18T09:17:37.245Z</time></trkpt><trkpt lat="43.4780134" lon="11.369836"><ele>471.0</ele><time>2026-04-18T09:17:38.254Z</time></trkpt><trkpt lat="43.4779753" lon="11.3699283"><ele>471.0</ele><time>2026-04-18T09:17:39.241Z</time></trkpt><trkpt lat="43.4779598" lon="11.3700632"><ele>471.0</ele><time>2026-04-18T09:17:40.238Z</time></trkpt><trkpt lat="43.4779642" lon="11.3702016"><ele>471.0</ele><time>2026-04-18T09:17:41.225Z</time></trkpt><trkpt lat="43.477982" lon="11.3703436"><ele>471.0</ele><time>2026-04-18T09:17:42.238Z</time></trkpt><trkpt lat="43.4780122" lon="11.370482"><ele>471.0</ele><time>2026-04-18T09:17:43.237Z</time></trkpt><trkpt lat="43.4780461" lon="11.3706228"><ele>471.0</ele><time>2026-04-18T09:17:44.24Z</time></trkpt><trkpt lat="43.4780846" lon="11.3707561"><ele>471.0</ele><time>2026-04-18T09:17:45.233Z</time></trkpt><trkpt lat="43.4781218" lon="11.3708692"><ele>471.0</ele><time>2026-04-18T09:17:46.23Z</time></trkpt><trkpt lat="43.4781592" lon="11.3709787"><ele>469.4</ele><time>2026-04-18T09:17:47.242Z</time></trkpt><trkpt lat="43.4781996" lon="11.371105"><ele>467.8</ele><time>2026-04-18T09:17:48.237Z</time></trkpt><trkpt lat="43.4782371" lon="11.3712501"><ele>466.19999999999993</ele><time>2026-04-18T09:17:49.247Z</time></trkpt><trkpt lat="43.4782508" lon="11.3713948"><ele>464.59999999999997</ele><time>2026-04-18T09:17:50.218Z</time></trkpt><trkpt lat="43.4782371" lon="11.3715374"><ele>463.0</ele><time>2026-04-18T09:17:51.319Z</time></trkpt><trkpt lat="43.4781973" lon="11.3716649"><ele>461.5</ele><time>2026-04-18T09:17:52.228Z</time></trkpt><trkpt lat="43.4781269" lon="11.3717825"><ele>460.0</ele><time>2026-04-18T09:17:53.242Z</time></trkpt><trkpt lat="43.4780335" lon="11.3718786"><ele>458.5</ele><time>2026-04-18T09:17:54.224Z</time></trkpt><trkpt lat="43.4779188" lon="11.3719502"><ele>457.0</ele><time>2026-04-18T09:17:55.322Z</time></trkpt><trkpt lat="43.4778038" lon="11.371981"><ele>457.0</ele><time>2026-04-18T09:17:56.225Z</time></trkpt><trkpt lat="43.4776807" lon="11.3719879"><ele>457.0</ele><time>2026-04-18T09:17:57.238Z</time></trkpt><trkpt lat="43.4775579" lon="11.371981"><ele>457.0</ele><time>2026-04-18T09:17:58.241Z</time></trkpt><trkpt lat="43.4774362" lon="11.3719533"><ele>457.0</ele><time>2026-04-18T09:17:59.234Z</time></trkpt><trkpt lat="43.4773212" lon="11.3718952"><ele>457.0</ele><time>2026-04-18T09:18:00.236Z</time></trkpt><trkpt lat="43.4772134" lon="11.3718321"><ele>457.00000000000006</ele><time>2026-04-18T09:18:01.236Z</time></trkpt><trkpt lat="43.4771104" lon="11.3717865"><ele>457.00000000000006</ele><time>2026-04-18T09:18:02.241Z</time></trkpt><trkpt lat="43.4770122" lon="11.3717708"><ele>457.0</ele><time>2026-04-18T09:18:03.237Z</time></trkpt><trkpt lat="43.4769135" lon="11.3717825"><ele>457.0</ele><time>2026-04-18T09:18:04.239Z</time></trkpt><trkpt lat="43.476821" lon="11.3718272"><ele>456.6</ele><time>2026-04-18T09:18:05.317Z</time></trkpt><trkpt lat="43.4767494" lon="11.3718993"><ele>456.20000000000005</ele><time>2026-04-18T09:18:06.232Z</time></trkpt><trkpt lat="43.4766924" lon="11.3720293"><ele>455.8</ele><time>2026-04-18T09:18:07.232Z</time></trkpt><trkpt lat="43.4766698" lon="11.3721972"><ele>455.4</ele><time>2026-04-18T09:18:08.235Z</time></trkpt><trkpt lat="43.4766586" lon="11.3723629"><ele>455.0</ele><time>2026-04-18T09:18:09.243Z</time></trkpt><trkpt lat="43.4766476" lon="11.3725286"><ele>452.75</ele><time>2026-04-18T09:18:10.242Z</time></trkpt><trkpt lat="43.4766343" lon="11.3726911"><ele>450.5</ele><time>2026-04-18T09:18:11.254Z</time></trkpt><trkpt lat="43.4766153" lon="11.3728442"><ele>448.25</ele><time>2026-04-18T09:18:12.235Z</time></trkpt><trkpt lat="43.4765927" lon="11.3730009"><ele>446.0</ele><time>2026-04-18T09:18:13.233Z</time></trkpt><trkpt lat="43.4765684" lon="11.373158"><ele>443.6</ele><time>2026-04-18T09:18:14.239Z</time></trkpt><trkpt lat="43.4765481" lon="11.3733067"><ele>441.20000000000005</ele><time>2026-04-18T09:18:15.276Z</time></trkpt><trkpt lat="43.4765303" lon="11.3734433"><ele>438.79999999999995</ele><time>2026-04-18T09:18:16.228Z</time></trkpt><trkpt lat="43.476502" lon="11.3735695"><ele>436.4</ele><time>2026-04-18T09:18:17.239Z</time></trkpt><trkpt lat="43.4764487" lon="11.3736785"><ele>434.0</ele><time>2026-04-18T09:18:18.246Z</time></trkpt><trkpt lat="43.4763781" lon="11.3737649"><ele>434.0</ele><time>2026-04-18T09:18:19.317Z</time></trkpt><trkpt lat="43.4762865" lon="11.3738133"><ele>434.0</ele><time>2026-04-18T09:18:20.232Z</time></trkpt><trkpt lat="43.4761855" lon="11.373806"><ele>434.0</ele><time>2026-04-18T09:18:21.233Z</time></trkpt><trkpt lat="43.4760809" lon="11.3737844"><ele>434.0</ele><time>2026-04-18T09:18:22.236Z</time></trkpt><trkpt lat="43.4759665" lon="11.3737596"><ele>434.0</ele><time>2026-04-18T09:18:23.232Z</time></trkpt><trkpt lat="43.4758362" lon="11.3737518"><ele>435.5</ele><time>2026-04-18T09:18:24.239Z</time></trkpt><trkpt lat="43.4757128" lon="11.373774"><ele>437.0</ele><time>2026-04-18T09:18:25.235Z</time></trkpt><trkpt lat="43.4755864" lon="11.3738067"><ele>438.5</ele><time>2026-04-18T09:18:26.245Z</time></trkpt><trkpt lat="43.4754639" lon="11.3738332"><ele>440.0</ele><time>2026-04-18T09:18:27.243Z</time></trkpt><trkpt lat="43.4753396" lon="11.3738571"><ele>435.0</ele><time>2026-04-18T09:18:28.237Z</time></trkpt><trkpt lat="43.4752147" lon="11.3738814"><ele>430.0</ele><time>2026-04-18T09:18:29.245Z</time></trkpt><trkpt lat="43.4750839" lon="11.3739141"><ele>425.0</ele><time>2026-04-18T09:18:30.31Z</time></trkpt><trkpt lat="43.4749677" lon="11.3739378"><ele>420.0</ele><time>2026-04-18T09:18:31.243Z</time></trkpt><trkpt lat="43.4748517" lon="11.373936"><ele>420.0</ele><time>2026-04-18T09:18:32.255Z</time></trkpt><trkpt lat="43.4747424" lon="11.3739032"><ele>420.0</ele><time>2026-04-18T09:18:33.236Z</time></trkpt><trkpt lat="43.4746408" lon="11.3738274"><ele>420.0</ele><time>2026-04-18T09:18:34.235Z</time></trkpt><trkpt lat="43.4745481" lon="11.3737282"><ele>420.0</ele><time>2026-04-18T09:18:35.251Z</time></trkpt><trkpt lat="43.4744612" lon="11.3736277"><ele>421.8</ele><time>2026-04-18T09:18:36.235Z</time></trkpt><trkpt lat="43.4743747" lon="11.3735477"><ele>423.6</ele><time>2026-04-18T09:18:37.237Z</time></trkpt><trkpt lat="43.474281" lon="11.3735418"><ele>425.4</ele><time>2026-04-18T09:18:38.238Z</time></trkpt><trkpt lat="43.4741866" lon="11.373578"><ele>427.2</ele><time>2026-04-18T09:18:39.238Z</time></trkpt><trkpt lat="43.474091" lon="11.3736553"><ele>429.0</ele><time>2026-04-18T09:18:40.306Z</time></trkpt><trkpt lat="43.4740036" lon="11.3737592"><ele>425.25</ele><time>2026-04-18T09:18:41.249Z</time></trkpt><trkpt lat="43.4739249" lon="11.373873"><ele>421.5</ele><time>2026-04-18T09:18:42.22Z</time></trkpt><trkpt lat="43.4738476" lon="11.3739843"><ele>417.75</ele><time>2026-04-18T09:18:43.246Z</time></trkpt><trkpt lat="43.4737652" lon="11.3741035"><ele>414.0</ele><time>2026-04-18T09:18:44.23Z</time></trkpt><trkpt lat="43.4736805" lon="11.3742271"><ele>414.0</ele><time>2026-04-18T09:18:45.241Z</time></trkpt><trkpt lat="43.4735811" lon="11.3743274"><ele>414.0</ele><time>2026-04-18T09:18:46.245Z</time></trkpt><trkpt lat="43.4734675" lon="11.3743749"><ele>414.0</ele><time>2026-04-18T09:18:47.233Z</time></trkpt><trkpt lat="43.4733462" lon="11.3743808"><ele>414.0</ele><time>2026-04-18T09:18:48.237Z</time></trkpt><trkpt lat="43.4732226" lon="11.3743531"><ele>414.0</ele><time>2026-04-18T09:18:49.25Z</time></trkpt><trkpt lat="43.4731014" lon="11.3743055"><ele>414.0</ele><time>2026-04-18T09:18:50.252Z</time></trkpt><trkpt lat="43.4729808" lon="11.3742385"><ele>414.0</ele><time>2026-04-18T09:18:51.315Z</time></trkpt><trkpt lat="43.472734" lon="11.3741649"><ele>411.25</ele><time>2026-04-18T09:18:53.246Z</time></trkpt><trkpt lat="43.4726308" lon="11.3740346"><ele>408.5</ele><time>2026-04-18T09:18:54.257Z</time></trkpt><trkpt lat="43.4725133" lon="11.373937"><ele>405.75</ele><time>2026-04-18T09:18:55.229Z</time></trkpt><trkpt lat="43.4723804" lon="11.3738922"><ele>403.0</ele><time>2026-04-18T09:18:56.241Z</time></trkpt><trkpt lat="43.4722503" lon="11.3738929"><ele>403.0</ele><time>2026-04-18T09:18:57.241Z</time></trkpt><trkpt lat="43.4721182" lon="11.3739206"><ele>403.0</ele><time>2026-04-18T09:18:58.239Z</time></trkpt><trkpt lat="43.4719863" lon="11.3739543"><ele>403.0</ele><time>2026-04-18T09:18:59.302Z</time></trkpt><trkpt lat="43.4718613" lon="11.3739847"><ele>403.0</ele><time>2026-04-18T09:19:00.208Z</time></trkpt><trkpt lat="43.4717313" lon="11.3740208"><ele>401.5</ele><time>2026-04-18T09:19:01.228Z</time></trkpt><trkpt lat="43.4716042" lon="11.3740589"><ele>400.0</ele><time>2026-04-18T09:19:02.252Z</time></trkpt><trkpt lat="43.4714802" lon="11.3740974"><ele>398.5</ele><time>2026-04-18T09:19:03.236Z</time></trkpt><trkpt lat="43.4713643" lon="11.374136"><ele>397.0</ele><time>2026-04-18T09:19:04.228Z</time></trkpt><trkpt lat="43.4712565" lon="11.3741791"><ele>396.6</ele><time>2026-04-18T09:19:05.223Z</time></trkpt><trkpt lat="43.4711529" lon="11.3742332"><ele>396.20000000000005</ele><time>2026-04-18T09:19:06.313Z</time></trkpt><trkpt lat="43.4710532" lon="11.3742588"><ele>395.8</ele><time>2026-04-18T09:19:07.218Z</time></trkpt><trkpt lat="43.4709458" lon="11.3742638"><ele>395.4</ele><time>2026-04-18T09:19:08.244Z</time></trkpt><trkpt lat="43.4708196" lon="11.3742754"><ele>395.0</ele><time>2026-04-18T09:19:09.232Z</time></trkpt><trkpt lat="43.4706844" lon="11.374288"><ele>395.0</ele><time>2026-04-18T09:19:10.228Z</time></trkpt><trkpt lat="43.47055" lon="11.3742902"><ele>395.0</ele><time>2026-04-18T09:19:11.237Z</time></trkpt><trkpt lat="43.4704202" lon="11.3742878"><ele>395.0</ele><time>2026-04-18T09:19:12.228Z</time></trkpt><trkpt lat="43.4702941" lon="11.3742812"><ele>395.0</ele><time>2026-04-18T09:19:13.237Z</time></trkpt><trkpt lat="43.4701671" lon="11.3742737"><ele>394.25</ele><time>2026-04-18T09:19:14.307Z</time></trkpt><trkpt lat="43.4700426" lon="11.3742526"><ele>393.5</ele><time>2026-04-18T09:19:15.303Z</time></trkpt><trkpt lat="43.4699219" lon="11.3742222"><ele>392.75</ele><time>2026-04-18T09:19:16.302Z</time></trkpt><trkpt lat="43.469805" lon="11.374192"><ele>392.0</ele><time>2026-04-18T09:19:17.226Z</time></trkpt><trkpt lat="43.469674" lon="11.3741796"><ele>390.25</ele><time>2026-04-18T09:19:18.237Z</time></trkpt><trkpt lat="43.4695504" lon="11.3741733"><ele>388.5</ele><time>2026-04-18T09:19:19.227Z</time></trkpt><trkpt lat="43.4694215" lon="11.3741908"><ele>386.75</ele><time>2026-04-18T09:19:20.227Z</time></trkpt><trkpt lat="43.4692971" lon="11.3742049"><ele>385.0</ele><time>2026-04-18T09:19:21.251Z</time></trkpt><trkpt lat="43.4691745" lon="11.3742061"><ele>385.0</ele><time>2026-04-18T09:19:22.249Z</time></trkpt><trkpt lat="43.4690509" lon="11.3741905"><ele>385.0</ele><time>2026-04-18T09:19:23.226Z</time></trkpt><trkpt lat="43.46894" lon="11.3741395"><ele>385.0</ele><time>2026-04-18T09:19:24.224Z</time></trkpt><trkpt lat="43.4688505" lon="11.3740505"><ele>385.0</ele><time>2026-04-18T09:19:25.221Z</time></trkpt><trkpt lat="43.4687734" lon="11.3739451"><ele>384.6</ele><time>2026-04-18T09:19:26.322Z</time></trkpt><trkpt lat="43.4687092" lon="11.3738385"><ele>384.2</ele><time>2026-04-18T09:19:27.237Z</time></trkpt><trkpt lat="43.4686456" lon="11.373731"><ele>383.79999999999995</ele><time>2026-04-18T09:19:28.255Z</time></trkpt><trkpt lat="43.4685795" lon="11.3736309"><ele>383.4</ele><time>2026-04-18T09:19:29.239Z</time></trkpt><trkpt lat="43.4685061" lon="11.3735456"><ele>383.0</ele><time>2026-04-18T09:19:30.237Z</time></trkpt><trkpt lat="43.4684305" lon="11.3734801"><ele>383.0</ele><time>2026-04-18T09:19:31.232Z</time></trkpt><trkpt lat="43.4683505" lon="11.3734262"><ele>383.0</ele><time>2026-04-18T09:19:32.24Z</time></trkpt><trkpt lat="43.4682739" lon="11.3733884"><ele>383.0</ele><time>2026-04-18T09:19:33.241Z</time></trkpt><trkpt lat="43.4681996" lon="11.373361"><ele>383.0</ele><time>2026-04-18T09:19:34.245Z</time></trkpt><trkpt lat="43.468131" lon="11.3733465"><ele>383.0</ele><time>2026-04-18T09:19:35.225Z</time></trkpt><trkpt lat="43.4680639" lon="11.3733313"><ele>383.0</ele><time>2026-04-18T09:19:36.332Z</time></trkpt><trkpt lat="43.4679683" lon="11.3732644"><ele>381.79999999999995</ele><time>2026-04-18T09:19:38.236Z</time></trkpt><trkpt lat="43.4679094" lon="11.3731258"><ele>380.6</ele><time>2026-04-18T09:19:40.238Z</time></trkpt><trkpt lat="43.4679014" lon="11.3729634"><ele>379.4</ele><time>2026-04-18T09:19:42.227Z</time></trkpt><trkpt lat="43.4678969" lon="11.3728122"><ele>378.20000000000005</ele><time>2026-04-18T09:19:44.308Z</time></trkpt><trkpt lat="43.4678836" lon="11.3726859"><ele>377.0</ele><time>2026-04-18T09:19:46.225Z</time></trkpt><trkpt lat="43.4678751" lon="11.3725828"><ele>376.85714285714283</ele><time>2026-04-18T09:19:48.237Z</time></trkpt><trkpt lat="43.4678467" lon="11.3724821"><ele>376.7142857142857</ele><time>2026-04-18T09:19:50.241Z</time></trkpt><trkpt lat="43.4678054" lon="11.3724078"><ele>376.57142857142856</ele><time>2026-04-18T09:19:53.233Z</time></trkpt><trkpt lat="43.4677953" lon="11.3725084"><ele>376.42857142857144</ele><time>2026-04-18T09:19:58.245Z</time></trkpt><trkpt lat="43.4677937" lon="11.3723965"><ele>376.2857142857143</ele><time>2026-04-18T09:21:31.239Z</time></trkpt><trkpt lat="43.4677758" lon="11.3723092"><ele>376.1428571428571</ele><time>2026-04-18T09:21:33.227Z</time></trkpt><trkpt lat="43.4677441" lon="11.3722261"><ele>376.0</ele><time>2026-04-18T09:21:35.32Z</time></trkpt><trkpt lat="43.4677146" lon="11.3721455"><ele>376.57142857142856</ele><time>2026-04-18T09:21:37.228Z</time></trkpt><trkpt lat="43.4676789" lon="11.372071"><ele>377.1428571428571</ele><time>2026-04-18T09:21:39.234Z</time></trkpt><trkpt lat="43.4676241" lon="11.3719817"><ele>377.7142857142857</ele><time>2026-04-18T09:21:42.24Z</time></trkpt><trkpt lat="43.4675861" lon="11.3718907"><ele>378.2857142857143</ele><time>2026-04-18T09:21:45.235Z</time></trkpt><trkpt lat="43.4675567" lon="11.3718102"><ele>378.8571428571429</ele><time>2026-04-18T09:21:48.233Z</time></trkpt><trkpt lat="43.467514" lon="11.3717394"><ele>379.42857142857144</ele><time>2026-04-18T09:21:50.217Z</time></trkpt><trkpt lat="43.4674639" lon="11.3716757"><ele>380.0</ele><time>2026-04-18T09:21:52.237Z</time></trkpt><trkpt lat="43.4673932" lon="11.3716037"><ele>380.0</ele><time>2026-04-18T09:21:54.244Z</time></trkpt><trkpt lat="43.4673182" lon="11.3715424"><ele>380.0</ele><time>2026-04-18T09:21:56.327Z</time></trkpt><trkpt lat="43.4672444" lon="11.371487"><ele>380.0</ele><time>2026-04-18T09:21:58.229Z</time></trkpt><trkpt lat="43.467155" lon="11.3714273"><ele>380.0</ele><time>2026-04-18T09:22:00.209Z</time></trkpt><trkpt lat="43.4670709" lon="11.3713811"><ele>380.0</ele><time>2026-04-18T09:22:02.239Z</time></trkpt><trkpt lat="43.4669894" lon="11.3713092"><ele>379.8</ele><time>2026-04-18T09:22:04.233Z</time></trkpt><trkpt lat="43.4668986" lon="11.3712291"><ele>379.6</ele><time>2026-04-18T09:22:06.324Z</time></trkpt><trkpt lat="43.4668248" lon="11.3711511"><ele>379.4</ele><time>2026-04-18T09:22:08.231Z</time></trkpt><trkpt lat="43.4667419" lon="11.3710844"><ele>379.2</ele><time>2026-04-18T09:22:10.239Z</time></trkpt><trkpt lat="43.4666768" lon="11.371002"><ele>379.0</ele><time>2026-04-18T09:22:12.236Z</time></trkpt><trkpt lat="43.4666111" lon="11.3709107"><ele>379.0</ele><time>2026-04-18T09:22:14.242Z</time></trkpt><trkpt lat="43.4665559" lon="11.3708098"><ele>379.0</ele><time>2026-04-18T09:22:16.232Z</time></trkpt><trkpt lat="43.4664985" lon="11.3707071"><ele>379.0</ele><time>2026-04-18T09:22:18.231Z</time></trkpt><trkpt lat="43.4664384" lon="11.3706129"><ele>379.0</ele><time>2026-04-18T09:22:20.215Z</time></trkpt><trkpt lat="43.4663988" lon="11.3705324"><ele>379.0</ele><time>2026-04-18T09:22:22.238Z</time></trkpt><trkpt lat="43.4663525" lon="11.3704406"><ele>379.0</ele><time>2026-04-18T09:22:25.235Z</time></trkpt><trkpt lat="43.4663077" lon="11.3703731"><ele>378.5</ele><time>2026-04-18T09:22:30.245Z</time></trkpt><trkpt lat="43.4662632" lon="11.3702999"><ele>378.0</ele><time>2026-04-18T09:23:10.238Z</time></trkpt><trkpt lat="43.4662267" lon="11.3702192"><ele>377.5</ele><time>2026-04-18T09:23:13.248Z</time></trkpt><trkpt lat="43.4661888" lon="11.3701176"><ele>377.0</ele><time>2026-04-18T09:23:16.237Z</time></trkpt><trkpt lat="43.4661585" lon="11.3700405"><ele>376.5</ele><time>2026-04-18T09:23:18.23Z</time></trkpt><trkpt lat="43.4661154" lon="11.3699443"><ele>376.0</ele><time>2026-04-18T09:23:20.237Z</time></trkpt><trkpt lat="43.4660739" lon="11.3698345"><ele>376.0</ele><time>2026-04-18T09:23:22.235Z</time></trkpt><trkpt lat="43.466039" lon="11.369726"><ele>376.0</ele><time>2026-04-18T09:23:24.242Z</time></trkpt><trkpt lat="43.4660075" lon="11.3696213"><ele>376.0</ele><time>2026-04-18T09:23:26.237Z</time></trkpt><trkpt lat="43.4659759" lon="11.3695214"><ele>376.0</ele><time>2026-04-18T09:23:28.245Z</time></trkpt><trkpt lat="43.4659481" lon="11.3694157"><ele>376.0</ele><time>2026-04-18T09:23:30.241Z</time></trkpt><trkpt lat="43.4659238" lon="11.369313"><ele>376.0</ele><time>2026-04-18T09:23:32.25Z</time></trkpt><trkpt lat="43.4659016" lon="11.3692078"><ele>375.6</ele><time>2026-04-18T09:23:34.241Z</time></trkpt><trkpt lat="43.4658749" lon="11.3690904"><ele>375.20000000000005</ele><time>2026-04-18T09:23:36.235Z</time></trkpt><trkpt lat="43.4658445" lon="11.368974"><ele>374.79999999999995</ele><time>2026-04-18T09:23:38.245Z</time></trkpt><trkpt lat="43.4658197" lon="11.3688514"><ele>374.4</ele><time>2026-04-18T09:23:40.241Z</time></trkpt><trkpt lat="43.4657968" lon="11.3687306"><ele>374.0</ele><time>2026-04-18T09:23:42.237Z</time></trkpt><trkpt lat="43.465778" lon="11.3686076"><ele>374.0</ele><time>2026-04-18T09:23:44.23Z</time></trkpt><trkpt lat="43.4657667" lon="11.3684801"><ele>374.0</ele><time>2026-04-18T09:23:46.24Z</time></trkpt><trkpt lat="43.4657719" lon="11.3683513"><ele>374.0</ele><time>2026-04-18T09:23:48.235Z</time></trkpt><trkpt lat="43.4657868" lon="11.3682194"><ele>374.0</ele><time>2026-04-18T09:23:50.235Z</time></trkpt><trkpt lat="43.4658114" lon="11.3680868"><ele>374.0</ele><time>2026-04-18T09:23:52.24Z</time></trkpt><trkpt lat="43.4658369" lon="11.3679726"><ele>373.4</ele><time>2026-04-18T09:23:54.241Z</time></trkpt><trkpt lat="43.4658598" lon="11.3678633"><ele>372.79999999999995</ele><time>2026-04-18T09:23:56.235Z</time></trkpt><trkpt lat="43.4658812" lon="11.367748"><ele>372.20000000000005</ele><time>2026-04-18T09:23:58.254Z</time></trkpt><trkpt lat="43.4659101" lon="11.3676318"><ele>371.6</ele><time>2026-04-18T09:24:00.241Z</time></trkpt><trkpt lat="43.465937" lon="11.3675094"><ele>371.0</ele><time>2026-04-18T09:24:02.232Z</time></trkpt><trkpt lat="43.4659665" lon="11.3673764"><ele>371.0</ele><time>2026-04-18T09:24:04.227Z</time></trkpt><trkpt lat="43.4659959" lon="11.3672366"><ele>371.0</ele><time>2026-04-18T09:24:06.245Z</time></trkpt><trkpt lat="43.4660245" lon="11.3670881"><ele>371.0</ele><time>2026-04-18T09:24:08.242Z</time></trkpt><trkpt lat="43.4660526" lon="11.36695"><ele>371.0</ele><time>2026-04-18T09:24:10.233Z</time></trkpt><trkpt lat="43.4660803" lon="11.3668037"><ele>371.0</ele><time>2026-04-18T09:24:12.242Z</time></trkpt><trkpt lat="43.4661075" lon="11.3666505"><ele>370.6666666666667</ele><time>2026-04-18T09:24:14.238Z</time></trkpt><trkpt lat="43.4661398" lon="11.3664892"><ele>370.33333333333337</ele><time>2026-04-18T09:24:16.227Z</time></trkpt><trkpt lat="43.4661567" lon="11.3664033"><ele>370.0</ele><time>2026-04-18T09:24:17.242Z</time></trkpt><trkpt lat="43.4661955" lon="11.3662409"><ele>369.6666666666667</ele><time>2026-04-18T09:24:19.239Z</time></trkpt><trkpt lat="43.4662165" lon="11.3661521"><ele>369.3333333333333</ele><time>2026-04-18T09:24:20.237Z</time></trkpt><trkpt lat="43.4662355" lon="11.3660614"><ele>369.0</ele><time>2026-04-18T09:24:21.247Z</time></trkpt><trkpt lat="43.4662548" lon="11.3659698"><ele>368.85714285714283</ele><time>2026-04-18T09:24:22.237Z</time></trkpt><trkpt lat="43.4662747" lon="11.3658787"><ele>368.71428571428567</ele><time>2026-04-18T09:24:23.249Z</time></trkpt><trkpt lat="43.4662926" lon="11.365788"><ele>368.57142857142856</ele><time>2026-04-18T09:24:24.238Z</time></trkpt><trkpt lat="43.4663156" lon="11.365692"><ele>368.42857142857144</ele><time>2026-04-18T09:24:25.243Z</time></trkpt><trkpt lat="43.4663371" lon="11.3655963"><ele>368.2857142857143</ele><time>2026-04-18T09:24:26.239Z</time></trkpt><trkpt lat="43.4663587" lon="11.3655014"><ele>368.14285714285717</ele><time>2026-04-18T09:24:27.239Z</time></trkpt><trkpt lat="43.4663779" lon="11.3654047"><ele>368.0</ele><time>2026-04-18T09:24:28.224Z</time></trkpt><trkpt lat="43.4663984" lon="11.3653102"><ele>368.14285714285717</ele><time>2026-04-18T09:24:29.24Z</time></trkpt><trkpt lat="43.4664187" lon="11.3652126"><ele>368.2857142857143</ele><time>2026-04-18T09:24:30.24Z</time></trkpt><trkpt lat="43.4664422" lon="11.3651186"><ele>368.42857142857144</ele><time>2026-04-18T09:24:31.236Z</time></trkpt><trkpt lat="43.4664639" lon="11.3650234"><ele>368.57142857142856</ele><time>2026-04-18T09:24:32.23Z</time></trkpt><trkpt lat="43.4664839" lon="11.3649235"><ele>368.71428571428567</ele><time>2026-04-18T09:24:33.246Z</time></trkpt><trkpt lat="43.4665014" lon="11.3648257"><ele>368.85714285714283</ele><time>2026-04-18T09:24:34.231Z</time></trkpt><trkpt lat="43.4665211" lon="11.3647324"><ele>369.0</ele><time>2026-04-18T09:24:35.238Z</time></trkpt><trkpt lat="43.4665404" lon="11.364643"><ele>369.0</ele><time>2026-04-18T09:24:36.232Z</time></trkpt><trkpt lat="43.4665589" lon="11.3645565"><ele>369.0</ele><time>2026-04-18T09:24:37.237Z</time></trkpt><trkpt lat="43.4665944" lon="11.3643877"><ele>369.0</ele><time>2026-04-18T09:24:39.242Z</time></trkpt><trkpt lat="43.4666135" lon="11.3643003"><ele>369.0</ele><time>2026-04-18T09:24:40.233Z</time></trkpt><trkpt lat="43.4666343" lon="11.3642111"><ele>369.0</ele><time>2026-04-18T09:24:41.251Z</time></trkpt><trkpt lat="43.4666542" lon="11.3641234"><ele>369.0</ele><time>2026-04-18T09:24:42.239Z</time></trkpt><trkpt lat="43.4666748" lon="11.3640366"><ele>369.0</ele><time>2026-04-18T09:24:43.231Z</time></trkpt><trkpt lat="43.4666964" lon="11.3639471"><ele>369.0</ele><time>2026-04-18T09:24:44.24Z</time></trkpt><trkpt lat="43.4667176" lon="11.3638585"><ele>369.0</ele><time>2026-04-18T09:24:45.231Z</time></trkpt><trkpt lat="43.4667364" lon="11.3637681"><ele>369.0</ele><time>2026-04-18T09:24:46.235Z</time></trkpt><trkpt lat="43.4667575" lon="11.3636856"><ele>369.0</ele><time>2026-04-18T09:24:47.233Z</time></trkpt><trkpt lat="43.466779" lon="11.3636026"><ele>369.0</ele><time>2026-04-18T09:24:48.225Z</time></trkpt><trkpt lat="43.4667991" lon="11.3635196"><ele>369.0</ele><time>2026-04-18T09:24:49.243Z</time></trkpt><trkpt lat="43.4668223" lon="11.3634349"><ele>369.0</ele><time>2026-04-18T09:24:50.239Z</time></trkpt><trkpt lat="43.4668443" lon="11.3633487"><ele>369.0</ele><time>2026-04-18T09:24:51.239Z</time></trkpt><trkpt lat="43.4668622" lon="11.3632637"><ele>369.0</ele><time>2026-04-18T09:24:52.231Z</time></trkpt><trkpt lat="43.466875" lon="11.3631034"><ele>369.0</ele><time>2026-04-18T09:24:54.24Z</time></trkpt><trkpt lat="43.4668595" lon="11.3629632"><ele>369.0</ele><time>2026-04-18T09:24:56.244Z</time></trkpt><trkpt lat="43.4668067" lon="11.3628329"><ele>369.0</ele><time>2026-04-18T09:24:58.232Z</time></trkpt><trkpt lat="43.4667485" lon="11.3627208"><ele>369.0</ele><time>2026-04-18T09:25:00.24Z</time></trkpt><trkpt lat="43.4666873" lon="11.3626239"><ele>369.0</ele><time>2026-04-18T09:25:02.241Z</time></trkpt><trkpt lat="43.4666167" lon="11.3625439"><ele>369.0</ele><time>2026-04-18T09:25:04.236Z</time></trkpt><trkpt lat="43.4665649" lon="11.3624468"><ele>369.0</ele><time>2026-04-18T09:25:06.244Z</time></trkpt><trkpt lat="43.4665152" lon="11.3623382"><ele>369.0</ele><time>2026-04-18T09:25:08.241Z</time></trkpt><trkpt lat="43.4664713" lon="11.3622253"><ele>369.0</ele><time>2026-04-18T09:25:10.247Z</time></trkpt><trkpt lat="43.466427" lon="11.3621129"><ele>369.0</ele><time>2026-04-18T09:25:12.231Z</time></trkpt><trkpt lat="43.4663865" lon="11.3620054"><ele>369.0</ele><time>2026-04-18T09:25:14.241Z</time></trkpt><trkpt lat="43.4663501" lon="11.3618921"><ele>369.0</ele><time>2026-04-18T09:25:16.237Z</time></trkpt><trkpt lat="43.4663238" lon="11.3617837"><ele>369.0</ele><time>2026-04-18T09:25:18.225Z</time></trkpt><trkpt lat="43.4662949" lon="11.3616804"><ele>369.1666666666667</ele><time>2026-04-18T09:25:20.245Z</time></trkpt><trkpt lat="43.4662664" lon="11.3615777"><ele>369.3333333333333</ele><time>2026-04-18T09:25:22.241Z</time></trkpt><trkpt lat="43.4662481" lon="11.3614768"><ele>369.5</ele><time>2026-04-18T09:25:24.253Z</time></trkpt><trkpt lat="43.466222" lon="11.3613799"><ele>369.66666666666663</ele><time>2026-04-18T09:25:26.24Z</time></trkpt><trkpt lat="43.4661898" lon="11.3612932"><ele>369.8333333333333</ele><time>2026-04-18T09:25:28.237Z</time></trkpt><trkpt lat="43.466145" lon="11.3611906"><ele>370.0</ele><time>2026-04-18T09:25:31.224Z</time></trkpt><trkpt lat="43.4660747" lon="11.361104"><ele>370.0</ele><time>2026-04-18T09:25:33.229Z</time></trkpt><trkpt lat="43.4659757" lon="11.3610526"><ele>370.0</ele><time>2026-04-18T09:25:35.222Z</time></trkpt><trkpt lat="43.4658673" lon="11.3609911"><ele>370.0</ele><time>2026-04-18T09:25:37.237Z</time></trkpt><trkpt lat="43.4658065" lon="11.3609529"><ele>370.0</ele><time>2026-04-18T09:25:38.238Z</time></trkpt><trkpt lat="43.4657505" lon="11.3609011"><ele>370.0</ele><time>2026-04-18T09:25:39.231Z</time></trkpt><trkpt lat="43.4657" lon="11.3608446"><ele>370.0</ele><time>2026-04-18T09:25:40.23Z</time></trkpt><trkpt lat="43.4656566" lon="11.3607801"><ele>370.0</ele><time>2026-04-18T09:25:41.232Z</time></trkpt><trkpt lat="43.4656215" lon="11.3607023"><ele>370.0</ele><time>2026-04-18T09:25:42.227Z</time></trkpt><trkpt lat="43.4655868" lon="11.360619"><ele>370.0</ele><time>2026-04-18T09:25:43.236Z</time></trkpt><trkpt lat="43.4655569" lon="11.3605368"><ele>370.0</ele><time>2026-04-18T09:25:44.244Z</time></trkpt><trkpt lat="43.4655281" lon="11.3604581"><ele>370.0</ele><time>2026-04-18T09:25:45.315Z</time></trkpt><trkpt lat="43.4654699" lon="11.3603142"><ele>370.0</ele><time>2026-04-18T09:25:47.237Z</time></trkpt><trkpt lat="43.4654384" lon="11.3602371"><ele>369.0</ele><time>2026-04-18T09:25:48.231Z</time></trkpt><trkpt lat="43.4653916" lon="11.3601729"><ele>368.0</ele><time>2026-04-18T09:25:49.228Z</time></trkpt><trkpt lat="43.4652986" lon="11.3600925"><ele>367.0</ele><time>2026-04-18T09:25:51.243Z</time></trkpt><trkpt lat="43.4652187" lon="11.3599849"><ele>366.0</ele><time>2026-04-18T09:25:53.242Z</time></trkpt><trkpt lat="43.4651597" lon="11.3598395"><ele>365.0</ele><time>2026-04-18T09:25:55.308Z</time></trkpt><trkpt lat="43.4651052" lon="11.3596868"><ele>365.0</ele><time>2026-04-18T09:25:57.24Z</time></trkpt><trkpt lat="43.4650516" lon="11.3595527"><ele>365.0</ele><time>2026-04-18T09:25:59.246Z</time></trkpt><trkpt lat="43.4650125" lon="11.3594237"><ele>365.0</ele><time>2026-04-18T09:26:01.216Z</time></trkpt><trkpt lat="43.4649825" lon="11.3593263"><ele>365.0</ele><time>2026-04-18T09:26:03.237Z</time></trkpt><trkpt lat="43.464958" lon="11.359208"><ele>365.0</ele><time>2026-04-18T09:26:05.226Z</time></trkpt><trkpt lat="43.4649466" lon="11.3590761"><ele>365.0</ele><time>2026-04-18T09:26:07.242Z</time></trkpt><trkpt lat="43.4649497" lon="11.3589383"><ele>365.0</ele><time>2026-04-18T09:26:09.228Z</time></trkpt><trkpt lat="43.4649274" lon="11.3587741"><ele>365.0</ele><time>2026-04-18T09:26:11.233Z</time></trkpt><trkpt lat="43.4648983" lon="11.3586132"><ele>365.0</ele><time>2026-04-18T09:26:13.264Z</time></trkpt><trkpt lat="43.4648563" lon="11.3584659"><ele>365.8</ele><time>2026-04-18T09:26:15.236Z</time></trkpt><trkpt lat="43.4648245" lon="11.358334"><ele>366.6</ele><time>2026-04-18T09:26:17.306Z</time></trkpt><trkpt lat="43.4647957" lon="11.3582242"><ele>367.4</ele><time>2026-04-18T09:26:19.236Z</time></trkpt><trkpt lat="43.4647557" lon="11.3580954"><ele>368.2</ele><time>2026-04-18T09:26:21.294Z</time></trkpt><trkpt lat="43.46473" lon="11.3579732"><ele>369.0</ele><time>2026-04-18T09:26:23.228Z</time></trkpt><trkpt lat="43.4646828" lon="11.3578486"><ele>368.0</ele><time>2026-04-18T09:26:25.229Z</time></trkpt><trkpt lat="43.4646226" lon="11.3577467"><ele>367.0</ele><time>2026-04-18T09:26:27.232Z</time></trkpt><trkpt lat="43.4645592" lon="11.3576515"><ele>366.0</ele><time>2026-04-18T09:26:29.234Z</time></trkpt><trkpt lat="43.464483" lon="11.3575676"><ele>365.0</ele><time>2026-04-18T09:26:31.223Z</time></trkpt><trkpt lat="43.4644088" lon="11.3574725"><ele>364.0</ele><time>2026-04-18T09:26:33.229Z</time></trkpt><trkpt lat="43.464329" lon="11.3574054"><ele>364.0</ele><time>2026-04-18T09:26:35.231Z</time></trkpt><trkpt lat="43.4642496" lon="11.3573413"><ele>364.0</ele><time>2026-04-18T09:26:37.232Z</time></trkpt><trkpt lat="43.4641842" lon="11.3572956"><ele>364.0</ele><time>2026-04-18T09:26:39.313Z</time></trkpt><trkpt lat="43.4641104" lon="11.3572444"><ele>364.0</ele><time>2026-04-18T09:26:41.306Z</time></trkpt><trkpt lat="43.4640321" lon="11.3571906"><ele>364.0</ele><time>2026-04-18T09:26:43.23Z</time></trkpt><trkpt lat="43.4639294" lon="11.3571397"><ele>364.0</ele><time>2026-04-18T09:26:45.242Z</time></trkpt><trkpt lat="43.4638313" lon="11.3571"><ele>364.79999999999995</ele><time>2026-04-18T09:26:47.294Z</time></trkpt><trkpt lat="43.4637537" lon="11.3570838"><ele>365.59999999999997</ele><time>2026-04-18T09:26:49.231Z</time></trkpt><trkpt lat="43.4636595" lon="11.3570541"><ele>366.4</ele><time>2026-04-18T09:26:51.238Z</time></trkpt><trkpt lat="43.4635916" lon="11.357024"><ele>367.2</ele><time>2026-04-18T09:26:53.255Z</time></trkpt><trkpt lat="43.4634908" lon="11.3570039"><ele>368.0</ele><time>2026-04-18T09:26:55.308Z</time></trkpt><trkpt lat="43.4633835" lon="11.3569939"><ele>368.0</ele><time>2026-04-18T09:26:57.232Z</time></trkpt><trkpt lat="43.4632707" lon="11.3569787"><ele>368.0</ele><time>2026-04-18T09:26:59.213Z</time></trkpt><trkpt lat="43.4631468" lon="11.3569549"><ele>368.0</ele><time>2026-04-18T09:27:01.226Z</time></trkpt><trkpt lat="43.4630849" lon="11.3569291"><ele>368.0</ele><time>2026-04-18T09:27:02.316Z</time></trkpt><trkpt lat="43.4629801" lon="11.3568526"><ele>368.0</ele><time>2026-04-18T09:27:04.229Z</time></trkpt><trkpt lat="43.4629191" lon="11.3567974"><ele>365.4</ele><time>2026-04-18T09:27:05.234Z</time></trkpt><trkpt lat="43.4628502" lon="11.3567426"><ele>362.79999999999995</ele><time>2026-04-18T09:27:06.234Z</time></trkpt><trkpt lat="43.4627927" lon="11.3566888"><ele>360.2</ele><time>2026-04-18T09:27:07.224Z</time></trkpt><trkpt lat="43.4626878" lon="11.3565912"><ele>357.6</ele><time>2026-04-18T09:27:09.229Z</time></trkpt><trkpt lat="43.4626327" lon="11.3565421"><ele>355.0</ele><time>2026-04-18T09:27:10.296Z</time></trkpt><trkpt lat="43.462529" lon="11.3564569"><ele>355.0</ele><time>2026-04-18T09:27:12.235Z</time></trkpt><trkpt lat="43.4624711" lon="11.3564117"><ele>355.0</ele><time>2026-04-18T09:27:13.233Z</time></trkpt><trkpt lat="43.4624155" lon="11.3563685"><ele>355.0</ele><time>2026-04-18T09:27:14.226Z</time></trkpt><trkpt lat="43.4623573" lon="11.3563234"><ele>355.0</ele><time>2026-04-18T09:27:15.227Z</time></trkpt><trkpt lat="43.4623042" lon="11.3562683"><ele>355.0</ele><time>2026-04-18T09:27:16.242Z</time></trkpt><trkpt lat="43.4622509" lon="11.356212"><ele>355.0</ele><time>2026-04-18T09:27:17.255Z</time></trkpt><trkpt lat="43.4621954" lon="11.3561539"><ele>355.0</ele><time>2026-04-18T09:27:18.229Z</time></trkpt><trkpt lat="43.4621393" lon="11.3560927"><ele>355.16666666666663</ele><time>2026-04-18T09:27:19.222Z</time></trkpt><trkpt lat="43.4620833" lon="11.3560327"><ele>355.3333333333333</ele><time>2026-04-18T09:27:20.238Z</time></trkpt><trkpt lat="43.4620305" lon="11.3559775"><ele>355.5</ele><time>2026-04-18T09:27:21.24Z</time></trkpt><trkpt lat="43.4619288" lon="11.355875"><ele>355.6666666666667</ele><time>2026-04-18T09:27:23.241Z</time></trkpt><trkpt lat="43.4618749" lon="11.355829"><ele>355.83333333333337</ele><time>2026-04-18T09:27:24.24Z</time></trkpt><trkpt lat="43.4617687" lon="11.3557631"><ele>356.0</ele><time>2026-04-18T09:27:26.238Z</time></trkpt><trkpt lat="43.4616732" lon="11.3556904"><ele>356.0</ele><time>2026-04-18T09:27:28.229Z</time></trkpt><trkpt lat="43.4615897" lon="11.3556186"><ele>356.0</ele><time>2026-04-18T09:27:30.235Z</time></trkpt><trkpt lat="43.4615215" lon="11.3555758"><ele>356.0</ele><time>2026-04-18T09:27:32.23Z</time></trkpt><trkpt lat="43.4614574" lon="11.3555416"><ele>356.0</ele><time>2026-04-18T09:27:34.236Z</time></trkpt><trkpt lat="43.4613838" lon="11.3555318"><ele>356.0</ele><time>2026-04-18T09:27:37.218Z</time></trkpt><trkpt lat="43.4613188" lon="11.355532"><ele>356.0</ele><time>2026-04-18T09:27:39.321Z</time></trkpt><trkpt lat="43.4612353" lon="11.3555571"><ele>355.6666666666667</ele><time>2026-04-18T09:27:41.303Z</time></trkpt><trkpt lat="43.4611609" lon="11.3555669"><ele>355.33333333333337</ele><time>2026-04-18T09:27:43.238Z</time></trkpt><trkpt lat="43.4610657" lon="11.3555774"><ele>355.0</ele><time>2026-04-18T09:27:45.324Z</time></trkpt><trkpt lat="43.4609628" lon="11.355564"><ele>354.6666666666667</ele><time>2026-04-18T09:27:47.243Z</time></trkpt><trkpt lat="43.4608972" lon="11.3555872"><ele>354.3333333333333</ele><time>2026-04-18T09:27:48.234Z</time></trkpt><trkpt lat="43.4608246" lon="11.3556138"><ele>354.0</ele><time>2026-04-18T09:27:49.232Z</time></trkpt><trkpt lat="43.4607553" lon="11.3556257"><ele>354.0</ele><time>2026-04-18T09:27:50.242Z</time></trkpt><trkpt lat="43.4606891" lon="11.3556184"><ele>354.0</ele><time>2026-04-18T09:27:51.235Z</time></trkpt><trkpt lat="43.4606157" lon="11.3556062"><ele>354.0</ele><time>2026-04-18T09:27:52.24Z</time></trkpt><trkpt lat="43.4605435" lon="11.3555886"><ele>354.0</ele><time>2026-04-18T09:27:53.218Z</time></trkpt><trkpt lat="43.4604711" lon="11.3555636"><ele>354.0</ele><time>2026-04-18T09:27:54.248Z</time></trkpt><trkpt lat="43.4603992" lon="11.3555458"><ele>354.0</ele><time>2026-04-18T09:27:55.235Z</time></trkpt><trkpt lat="43.4603247" lon="11.3555313"><ele>354.0</ele><time>2026-04-18T09:27:56.319Z</time></trkpt><trkpt lat="43.4602563" lon="11.3555181"><ele>353.5</ele><time>2026-04-18T09:27:57.234Z</time></trkpt><trkpt lat="43.4601892" lon="11.3555158"><ele>353.0</ele><time>2026-04-18T09:27:58.244Z</time></trkpt><trkpt lat="43.4600656" lon="11.3555386"><ele>352.5</ele><time>2026-04-18T09:28:00.226Z</time></trkpt><trkpt lat="43.4600032" lon="11.3555615"><ele>352.0</ele><time>2026-04-18T09:28:01.231Z</time></trkpt><trkpt lat="43.4599416" lon="11.3555862"><ele>351.5</ele><time>2026-04-18T09:28:02.218Z</time></trkpt><trkpt lat="43.4598155" lon="11.35562"><ele>351.0</ele><time>2026-04-18T09:28:04.232Z</time></trkpt><trkpt lat="43.4596858" lon="11.3556194"><ele>350.6666666666667</ele><time>2026-04-18T09:28:06.302Z</time></trkpt><trkpt lat="43.4596129" lon="11.3556089"><ele>350.3333333333333</ele><time>2026-04-18T09:28:07.218Z</time></trkpt><trkpt lat="43.4595395" lon="11.3555897"><ele>350.0</ele><time>2026-04-18T09:28:08.242Z</time></trkpt><trkpt lat="43.4594735" lon="11.3555717"><ele>349.66666666666663</ele><time>2026-04-18T09:28:09.225Z</time></trkpt><trkpt lat="43.4593595" lon="11.3555281"><ele>349.3333333333333</ele><time>2026-04-18T09:28:11.212Z</time></trkpt><trkpt lat="43.4592515" lon="11.3554799"><ele>349.0</ele><time>2026-04-18T09:28:13.248Z</time></trkpt><trkpt lat="43.4591838" lon="11.3554504"><ele>349.1428571428571</ele><time>2026-04-18T09:28:14.211Z</time></trkpt><trkpt lat="43.4591151" lon="11.3554292"><ele>349.2857142857143</ele><time>2026-04-18T09:28:15.21Z</time></trkpt><trkpt lat="43.4590513" lon="11.3554092"><ele>349.42857142857144</ele><time>2026-04-18T09:28:16.31Z</time></trkpt><trkpt lat="43.4589852" lon="11.3553868"><ele>349.57142857142856</ele><time>2026-04-18T09:28:17.232Z</time></trkpt><trkpt lat="43.4589136" lon="11.355364"><ele>349.7142857142857</ele><time>2026-04-18T09:28:18.237Z</time></trkpt><trkpt lat="43.4588302" lon="11.3553431"><ele>349.85714285714283</ele><time>2026-04-18T09:28:19.225Z</time></trkpt><trkpt lat="43.4587579" lon="11.355316"><ele>350.0</ele><time>2026-04-18T09:28:20.216Z</time></trkpt><trkpt lat="43.458691" lon="11.3552801"><ele>350.0</ele><time>2026-04-18T09:28:21.309Z</time></trkpt><trkpt lat="43.4586207" lon="11.355242"><ele>350.0</ele><time>2026-04-18T09:28:22.213Z</time></trkpt><trkpt lat="43.4585525" lon="11.3552096"><ele>350.0</ele><time>2026-04-18T09:28:23.243Z</time></trkpt><trkpt lat="43.4584973" lon="11.3551469"><ele>350.0</ele><time>2026-04-18T09:28:24.23Z</time></trkpt><trkpt lat="43.4584483" lon="11.355091"><ele>350.0</ele><time>2026-04-18T09:28:25.22Z</time></trkpt><trkpt lat="43.4583612" lon="11.3549808"><ele>350.0</ele><time>2026-04-18T09:28:27.234Z</time></trkpt><trkpt lat="43.4582812" lon="11.3548889"><ele>350.0</ele><time>2026-04-18T09:28:29.237Z</time></trkpt><trkpt lat="43.4582022" lon="11.3548163"><ele>350.0</ele><time>2026-04-18T09:28:31.23Z</time></trkpt><trkpt lat="43.4581258" lon="11.3547739"><ele>350.0</ele><time>2026-04-18T09:28:33.246Z</time></trkpt><trkpt lat="43.4580527" lon="11.3547358"><ele>350.0</ele><time>2026-04-18T09:28:35.226Z</time></trkpt><trkpt lat="43.4579715" lon="11.3546937"><ele>350.0</ele><time>2026-04-18T09:28:37.238Z</time></trkpt><trkpt lat="43.4578746" lon="11.3546682"><ele>350.0</ele><time>2026-04-18T09:28:39.229Z</time></trkpt><trkpt lat="43.4577616" lon="11.354638"><ele>350.7142857142857</ele><time>2026-04-18T09:28:41.3Z</time></trkpt><trkpt lat="43.4576946" lon="11.3546159"><ele>351.42857142857144</ele><time>2026-04-18T09:28:42.228Z</time></trkpt><trkpt lat="43.4576294" lon="11.3545841"><ele>352.1428571428571</ele><time>2026-04-18T09:28:43.243Z</time></trkpt><trkpt lat="43.4575569" lon="11.3545493"><ele>352.8571428571429</ele><time>2026-04-18T09:28:44.229Z</time></trkpt><trkpt lat="43.457482" lon="11.3545165"><ele>353.57142857142856</ele><time>2026-04-18T09:28:45.243Z</time></trkpt><trkpt lat="43.4574099" lon="11.3544848"><ele>354.2857142857143</ele><time>2026-04-18T09:28:46.235Z</time></trkpt><trkpt lat="43.4573436" lon="11.3544441"><ele>355.0</ele><time>2026-04-18T09:28:47.239Z</time></trkpt><trkpt lat="43.4572766" lon="11.3544069"><ele>355.0</ele><time>2026-04-18T09:28:48.222Z</time></trkpt><trkpt lat="43.4572132" lon="11.3543767"><ele>355.0</ele><time>2026-04-18T09:28:49.237Z</time></trkpt><trkpt lat="43.4571065" lon="11.3543375"><ele>355.0</ele><time>2026-04-18T09:28:51.231Z</time></trkpt><trkpt lat="43.4570119" lon="11.3543005"><ele>355.0</ele><time>2026-04-18T09:28:53.228Z</time></trkpt><trkpt lat="43.4569146" lon="11.3542818"><ele>355.0</ele><time>2026-04-18T09:28:55.243Z</time></trkpt><trkpt lat="43.4568082" lon="11.3542584"><ele>353.2</ele><time>2026-04-18T09:28:57.231Z</time></trkpt><trkpt lat="43.4566973" lon="11.354228"><ele>351.4</ele><time>2026-04-18T09:28:59.239Z</time></trkpt><trkpt lat="43.4565903" lon="11.3542025"><ele>349.6</ele><time>2026-04-18T09:29:01.242Z</time></trkpt><trkpt lat="43.4564855" lon="11.3541712"><ele>347.8</ele><time>2026-04-18T09:29:03.284Z</time></trkpt><trkpt lat="43.4563902" lon="11.3541462"><ele>346.0</ele><time>2026-04-18T09:29:05.309Z</time></trkpt><trkpt lat="43.456294" lon="11.3541264"><ele>345.8</ele><time>2026-04-18T09:29:07.241Z</time></trkpt><trkpt lat="43.4561935" lon="11.3541117"><ele>345.6</ele><time>2026-04-18T09:29:09.232Z</time></trkpt><trkpt lat="43.4560873" lon="11.3541"><ele>345.4</ele><time>2026-04-18T09:29:11.309Z</time></trkpt><trkpt lat="43.4559966" lon="11.3540617"><ele>345.2</ele><time>2026-04-18T09:29:13.242Z</time></trkpt><trkpt lat="43.4559081" lon="11.3540384"><ele>345.0</ele><time>2026-04-18T09:29:15.225Z</time></trkpt><trkpt lat="43.4558382" lon="11.3540118"><ele>345.0</ele><time>2026-04-18T09:29:17.225Z</time></trkpt><trkpt lat="43.455757" lon="11.3539819"><ele>345.0</ele><time>2026-04-18T09:29:20.222Z</time></trkpt><trkpt lat="43.4556882" lon="11.3539666"><ele>345.0</ele><time>2026-04-18T09:29:23.26Z</time></trkpt><trkpt lat="43.4556224" lon="11.3539474"><ele>345.0</ele><time>2026-04-18T09:29:26.236Z</time></trkpt><trkpt lat="43.4555475" lon="11.353925"><ele>345.0</ele><time>2026-04-18T09:29:29.223Z</time></trkpt><trkpt lat="43.4554698" lon="11.3539051"><ele>345.0</ele><time>2026-04-18T09:29:32.236Z</time></trkpt><trkpt lat="43.455396" lon="11.3539141"><ele>344.6666666666667</ele><time>2026-04-18T09:29:35.244Z</time></trkpt><trkpt lat="43.455317" lon="11.3539214"><ele>344.3333333333333</ele><time>2026-04-18T09:29:38.226Z</time></trkpt><trkpt lat="43.455242" lon="11.3539442"><ele>344.0</ele><time>2026-04-18T09:29:41.307Z</time></trkpt><trkpt lat="43.4551559" lon="11.3539668"><ele>343.66666666666663</ele><time>2026-04-18T09:29:44.221Z</time></trkpt><trkpt lat="43.4550826" lon="11.3539569"><ele>343.3333333333333</ele><time>2026-04-18T09:29:47.228Z</time></trkpt><trkpt lat="43.4550151" lon="11.3539865"><ele>343.0</ele><time>2026-04-18T09:29:50.209Z</time></trkpt><trkpt lat="43.4549525" lon="11.3540092"><ele>343.0</ele><time>2026-04-18T09:29:53.238Z</time></trkpt><trkpt lat="43.4548945" lon="11.354048"><ele>343.0</ele><time>2026-04-18T09:31:01.306Z</time></trkpt><trkpt lat="43.4548298" lon="11.3540886"><ele>343.0</ele><time>2026-04-18T09:31:04.248Z</time></trkpt><trkpt lat="43.4547678" lon="11.3541292"><ele>343.0</ele><time>2026-04-18T09:31:06.306Z</time></trkpt><trkpt lat="43.4546931" lon="11.3541713"><ele>343.0</ele><time>2026-04-18T09:31:08.235Z</time></trkpt><trkpt lat="43.4545832" lon="11.3542299"><ele>343.0</ele><time>2026-04-18T09:31:10.22Z</time></trkpt><trkpt lat="43.4544852" lon="11.3542916"><ele>341.59999999999997</ele><time>2026-04-18T09:31:12.22Z</time></trkpt><trkpt lat="43.4543876" lon="11.3543469"><ele>340.2</ele><time>2026-04-18T09:31:14.231Z</time></trkpt><trkpt lat="43.4542965" lon="11.3543646"><ele>338.8</ele><time>2026-04-18T09:31:16.312Z</time></trkpt><trkpt lat="43.4541984" lon="11.3543555"><ele>337.4</ele><time>2026-04-18T09:31:18.248Z</time></trkpt><trkpt lat="43.4541341" lon="11.3543291"><ele>336.0</ele><time>2026-04-18T09:31:19.244Z</time></trkpt><trkpt lat="43.4540378" lon="11.3542736"><ele>336.0</ele><time>2026-04-18T09:31:21.306Z</time></trkpt><trkpt lat="43.4539483" lon="11.3542326"><ele>336.0</ele><time>2026-04-18T09:31:23.231Z</time></trkpt><trkpt lat="43.4538606" lon="11.3543109"><ele>336.0</ele><time>2026-04-18T09:31:26.23Z</time></trkpt><trkpt lat="43.4537997" lon="11.3543505"><ele>336.0</ele><time>2026-04-18T09:31:28.236Z</time></trkpt><trkpt lat="43.4537246" lon="11.3543867"><ele>336.0</ele><time>2026-04-18T09:31:31.242Z</time></trkpt><trkpt lat="43.4536376" lon="11.3544258"><ele>336.0</ele><time>2026-04-18T09:31:34.252Z</time></trkpt><trkpt lat="43.4535759" lon="11.3544641"><ele>337.3333333333333</ele><time>2026-04-18T09:31:36.239Z</time></trkpt><trkpt lat="43.4535057" lon="11.3544911"><ele>338.6666666666667</ele><time>2026-04-18T09:31:38.233Z</time></trkpt><trkpt lat="43.4534328" lon="11.3545193"><ele>340.0</ele><time>2026-04-18T09:31:40.24Z</time></trkpt><trkpt lat="43.4533458" lon="11.3545356"><ele>341.33333333333337</ele><time>2026-04-18T09:31:43.233Z</time></trkpt><trkpt lat="43.453277" lon="11.3545692"><ele>342.6666666666667</ele><time>2026-04-18T09:31:45.307Z</time></trkpt><trkpt lat="43.4532009" lon="11.3546093"><ele>344.0</ele><time>2026-04-18T09:31:48.234Z</time></trkpt><trkpt lat="43.4531442" lon="11.3546538"><ele>343.6666666666667</ele><time>2026-04-18T09:31:50.298Z</time></trkpt><trkpt lat="43.4530758" lon="11.3547252"><ele>343.33333333333337</ele><time>2026-04-18T09:31:52.241Z</time></trkpt><trkpt lat="43.4529868" lon="11.3547792"><ele>343.0</ele><time>2026-04-18T09:31:54.244Z</time></trkpt><trkpt lat="43.4529104" lon="11.3548146"><ele>342.6666666666667</ele><time>2026-04-18T09:31:56.231Z</time></trkpt><trkpt lat="43.4528331" lon="11.3548392"><ele>342.3333333333333</ele><time>2026-04-18T09:31:58.214Z</time></trkpt><trkpt lat="43.452765" lon="11.3548945"><ele>342.0</ele><time>2026-04-18T09:32:00.216Z</time></trkpt><trkpt lat="43.4526977" lon="11.3549459"><ele>341.99999999999994</ele><time>2026-04-18T09:32:02.244Z</time></trkpt><trkpt lat="43.4526301" lon="11.3549853"><ele>342.0</ele><time>2026-04-18T09:32:04.233Z</time></trkpt><trkpt lat="43.4525659" lon="11.3550213"><ele>342.0</ele><time>2026-04-18T09:32:06.307Z</time></trkpt><trkpt lat="43.4524954" lon="11.3550654"><ele>342.0</ele><time>2026-04-18T09:32:08.254Z</time></trkpt><trkpt lat="43.4524247" lon="11.3550973"><ele>342.0</ele><time>2026-04-18T09:32:10.251Z</time></trkpt><trkpt lat="43.4523576" lon="11.3551252"><ele>341.99999999999994</ele><time>2026-04-18T09:32:12.227Z</time></trkpt><trkpt lat="43.4522859" lon="11.3551552"><ele>342.0</ele><time>2026-04-18T09:32:14.234Z</time></trkpt><trkpt lat="43.4522117" lon="11.3551829"><ele>342.0</ele><time>2026-04-18T09:32:16.306Z</time></trkpt><trkpt lat="43.4521401" lon="11.3552094"><ele>342.0</ele><time>2026-04-18T09:32:18.241Z</time></trkpt><trkpt lat="43.4520676" lon="11.3552407"><ele>342.0</ele><time>2026-04-18T09:32:20.238Z</time></trkpt><trkpt lat="43.4519957" lon="11.355261"><ele>342.0</ele><time>2026-04-18T09:32:22.32Z</time></trkpt><trkpt lat="43.4519306" lon="11.3552694"><ele>342.0</ele><time>2026-04-18T09:32:24.238Z</time></trkpt><trkpt lat="43.4518543" lon="11.3552745"><ele>342.0</ele><time>2026-04-18T09:32:26.314Z</time></trkpt><trkpt lat="43.4517596" lon="11.3552715"><ele>343.1666666666667</ele><time>2026-04-18T09:32:28.254Z</time></trkpt><trkpt lat="43.4516432" lon="11.3553136"><ele>344.3333333333333</ele><time>2026-04-18T09:32:30.295Z</time></trkpt><trkpt lat="43.4515579" lon="11.355373"><ele>345.5</ele><time>2026-04-18T09:32:32.221Z</time></trkpt><trkpt lat="43.4514853" lon="11.3554284"><ele>346.66666666666663</ele><time>2026-04-18T09:32:34.221Z</time></trkpt><trkpt lat="43.4514204" lon="11.3554843"><ele>347.8333333333333</ele><time>2026-04-18T09:32:36.311Z</time></trkpt><trkpt lat="43.4513775" lon="11.3555611"><ele>349.0</ele><time>2026-04-18T09:32:38.23Z</time></trkpt><trkpt lat="43.4513113" lon="11.3556118"><ele>348.66666666666663</ele><time>2026-04-18T09:32:40.29Z</time></trkpt><trkpt lat="43.4512359" lon="11.3556369"><ele>348.3333333333333</ele><time>2026-04-18T09:32:42.249Z</time></trkpt><trkpt lat="43.4511751" lon="11.3556898"><ele>348.0</ele><time>2026-04-18T09:32:44.233Z</time></trkpt><trkpt lat="43.4511102" lon="11.355749"><ele>347.6666666666667</ele><time>2026-04-18T09:32:46.235Z</time></trkpt><trkpt lat="43.4510471" lon="11.3558204"><ele>347.33333333333337</ele><time>2026-04-18T09:32:48.242Z</time></trkpt><trkpt lat="43.4509887" lon="11.3558737"><ele>347.0</ele><time>2026-04-18T09:32:50.231Z</time></trkpt><trkpt lat="43.4508934" lon="11.3559348"><ele>347.0</ele><time>2026-04-18T09:32:53.238Z</time></trkpt><trkpt lat="43.4508194" lon="11.3560142"><ele>347.0</ele><time>2026-04-18T09:32:56.212Z</time></trkpt><trkpt lat="43.4507656" lon="11.3560761"><ele>347.0</ele><time>2026-04-18T09:32:58.227Z</time></trkpt><trkpt lat="43.450697" lon="11.3561454"><ele>347.0</ele><time>2026-04-18T09:33:01.307Z</time></trkpt><trkpt lat="43.4506313" lon="11.3562322"><ele>347.0</ele><time>2026-04-18T09:33:04.243Z</time></trkpt><trkpt lat="43.4505782" lon="11.356308"><ele>347.0</ele><time>2026-04-18T09:33:06.24Z</time></trkpt><trkpt lat="43.4505159" lon="11.3563835"><ele>345.83333333333337</ele><time>2026-04-18T09:33:08.238Z</time></trkpt><trkpt lat="43.4504352" lon="11.356454"><ele>344.6666666666667</ele><time>2026-04-18T09:33:10.308Z</time></trkpt><trkpt lat="43.4503643" lon="11.3564929"><ele>343.5</ele><time>2026-04-18T09:33:12.228Z</time></trkpt><trkpt lat="43.4502859" lon="11.3565534"><ele>342.3333333333333</ele><time>2026-04-18T09:33:14.249Z</time></trkpt><trkpt lat="43.4502142" lon="11.3566016"><ele>341.16666666666663</ele><time>2026-04-18T09:33:16.302Z</time></trkpt><trkpt lat="43.4501439" lon="11.3566452"><ele>340.0</ele><time>2026-04-18T09:33:18.229Z</time></trkpt><trkpt lat="43.4500902" lon="11.3566915"><ele>340.0</ele><time>2026-04-18T09:33:19.244Z</time></trkpt><trkpt lat="43.4499757" lon="11.3567386"><ele>340.0</ele><time>2026-04-18T09:33:21.309Z</time></trkpt><trkpt lat="43.4499124" lon="11.3567512"><ele>340.0</ele><time>2026-04-18T09:33:22.226Z</time></trkpt><trkpt lat="43.4498475" lon="11.3567503"><ele>340.0</ele><time>2026-04-18T09:33:23.241Z</time></trkpt><trkpt lat="43.4497795" lon="11.3567511"><ele>340.0</ele><time>2026-04-18T09:33:24.23Z</time></trkpt><trkpt lat="43.4497108" lon="11.3567482"><ele>340.0</ele><time>2026-04-18T09:33:25.241Z</time></trkpt><trkpt lat="43.449643" lon="11.3567356"><ele>338.8571428571429</ele><time>2026-04-18T09:33:26.236Z</time></trkpt><trkpt lat="43.4495767" lon="11.3567229"><ele>337.71428571428567</ele><time>2026-04-18T09:33:27.237Z</time></trkpt><trkpt lat="43.4495118" lon="11.3567094"><ele>336.57142857142856</ele><time>2026-04-18T09:33:28.242Z</time></trkpt><trkpt lat="43.4494449" lon="11.3566934"><ele>335.42857142857144</ele><time>2026-04-18T09:33:29.215Z</time></trkpt><trkpt lat="43.4493759" lon="11.356677"><ele>334.28571428571433</ele><time>2026-04-18T09:33:30.31Z</time></trkpt><trkpt lat="43.4493079" lon="11.3566589"><ele>333.1428571428571</ele><time>2026-04-18T09:33:31.232Z</time></trkpt><trkpt lat="43.4492358" lon="11.3566226"><ele>332.0</ele><time>2026-04-18T09:33:32.236Z</time></trkpt><trkpt lat="43.4491679" lon="11.3565767"><ele>332.0</ele><time>2026-04-18T09:33:33.249Z</time></trkpt><trkpt lat="43.449107" lon="11.3565238"><ele>332.0</ele><time>2026-04-18T09:33:34.246Z</time></trkpt><trkpt lat="43.4490487" lon="11.3564578"><ele>332.0</ele><time>2026-04-18T09:33:35.241Z</time></trkpt><trkpt lat="43.4489922" lon="11.3563875"><ele>332.0</ele><time>2026-04-18T09:33:36.236Z</time></trkpt><trkpt lat="43.4489283" lon="11.3563253"><ele>332.0</ele><time>2026-04-18T09:33:37.314Z</time></trkpt><trkpt lat="43.4488679" lon="11.3562668"><ele>332.0</ele><time>2026-04-18T09:33:38.237Z</time></trkpt><trkpt lat="43.4487965" lon="11.3562045"><ele>332.8</ele><time>2026-04-18T09:33:39.241Z</time></trkpt><trkpt lat="43.4487142" lon="11.356159"><ele>333.6</ele><time>2026-04-18T09:33:40.223Z</time></trkpt><trkpt lat="43.4486227" lon="11.3561144"><ele>334.40000000000003</ele><time>2026-04-18T09:33:41.251Z</time></trkpt><trkpt lat="43.4485307" lon="11.3560647"><ele>335.20000000000005</ele><time>2026-04-18T09:33:42.234Z</time></trkpt><trkpt lat="43.4484397" lon="11.3560146"><ele>336.0</ele><time>2026-04-18T09:33:43.249Z</time></trkpt><trkpt lat="43.4483506" lon="11.3559674"><ele>336.0</ele><time>2026-04-18T09:33:44.244Z</time></trkpt><trkpt lat="43.4482613" lon="11.3559175"><ele>336.0</ele><time>2026-04-18T09:33:45.301Z</time></trkpt><trkpt lat="43.4481804" lon="11.3558591"><ele>336.0</ele><time>2026-04-18T09:33:46.303Z</time></trkpt><trkpt lat="43.4481155" lon="11.3558018"><ele>336.0</ele><time>2026-04-18T09:33:47.223Z</time></trkpt><trkpt lat="43.4480544" lon="11.355758"><ele>336.0</ele><time>2026-04-18T09:33:48.243Z</time></trkpt><trkpt lat="43.4479967" lon="11.355716"><ele>336.0</ele><time>2026-04-18T09:33:49.25Z</time></trkpt><trkpt lat="43.4478935" lon="11.355663"><ele>334.75</ele><time>2026-04-18T09:33:51.238Z</time></trkpt><trkpt lat="43.4478106" lon="11.3556195"><ele>333.5</ele><time>2026-04-18T09:33:53.219Z</time></trkpt><trkpt lat="43.4477183" lon="11.3555775"><ele>332.25</ele><time>2026-04-18T09:33:55.239Z</time></trkpt><trkpt lat="43.4474866" lon="11.3554364"><ele>331.0</ele><time>2026-04-18T09:34:00.311Z</time></trkpt><trkpt lat="43.4473709" lon="11.3554246"><ele>332.20000000000005</ele><time>2026-04-18T09:34:03.236Z</time></trkpt><trkpt lat="43.4472757" lon="11.3554091"><ele>333.40000000000003</ele><time>2026-04-18T09:34:04.24Z</time></trkpt><trkpt lat="43.4471554" lon="11.3554039"><ele>334.6</ele><time>2026-04-18T09:34:06.309Z</time></trkpt><trkpt lat="43.4470531" lon="11.355369"><ele>335.8</ele><time>2026-04-18T09:34:08.225Z</time></trkpt><trkpt lat="43.4469341" lon="11.3553431"><ele>337.0</ele><time>2026-04-18T09:34:10.226Z</time></trkpt><trkpt lat="43.4468645" lon="11.3553332"><ele>337.0</ele><time>2026-04-18T09:34:11.315Z</time></trkpt><trkpt lat="43.4468006" lon="11.3553221"><ele>337.0</ele><time>2026-04-18T09:34:12.226Z</time></trkpt><trkpt lat="43.4466795" lon="11.3552862"><ele>337.0</ele><time>2026-04-18T09:34:14.222Z</time></trkpt><trkpt lat="43.4465823" lon="11.3552589"><ele>337.0</ele><time>2026-04-18T09:34:16.294Z</time></trkpt><trkpt lat="43.4464976" lon="11.3551828"><ele>337.0</ele><time>2026-04-18T09:34:18.224Z</time></trkpt><trkpt lat="43.446387" lon="11.3551712"><ele>336.0</ele><time>2026-04-18T09:34:20.239Z</time></trkpt><trkpt lat="43.4462693" lon="11.3551738"><ele>335.0</ele><time>2026-04-18T09:34:22.232Z</time></trkpt><trkpt lat="43.4461572" lon="11.3551703"><ele>334.0</ele><time>2026-04-18T09:34:24.227Z</time></trkpt><trkpt lat="43.4460916" lon="11.3551636"><ele>333.0</ele><time>2026-04-18T09:34:25.299Z</time></trkpt><trkpt lat="43.4459745" lon="11.3551728"><ele>332.0</ele><time>2026-04-18T09:34:27.246Z</time></trkpt><trkpt lat="43.4459089" lon="11.3551951"><ele>332.0</ele><time>2026-04-18T09:34:28.232Z</time></trkpt><trkpt lat="43.4458048" lon="11.3552052"><ele>332.0</ele><time>2026-04-18T09:34:30.245Z</time></trkpt><trkpt lat="43.4456885" lon="11.3551581"><ele>332.0</ele><time>2026-04-18T09:34:32.242Z</time></trkpt><trkpt lat="43.4455702" lon="11.355106"><ele>332.0</ele><time>2026-04-18T09:34:34.237Z</time></trkpt><trkpt lat="43.4455119" lon="11.355072"><ele>332.0</ele><time>2026-04-18T09:34:35.239Z</time></trkpt><trkpt lat="43.445452" lon="11.3550335"><ele>331.20000000000005</ele><time>2026-04-18T09:34:36.247Z</time></trkpt><trkpt lat="43.4453953" lon="11.354995"><ele>330.4</ele><time>2026-04-18T09:34:37.245Z</time></trkpt><trkpt lat="43.4452959" lon="11.3549113"><ele>329.6</ele><time>2026-04-18T09:34:39.234Z</time></trkpt><trkpt lat="43.4452047" lon="11.3548136"><ele>328.79999999999995</ele><time>2026-04-18T09:34:41.311Z</time></trkpt><trkpt lat="43.445122" lon="11.3547205"><ele>328.0</ele><time>2026-04-18T09:34:43.228Z</time></trkpt><trkpt lat="43.4450578" lon="11.3546098"><ele>328.0</ele><time>2026-04-18T09:34:45.31Z</time></trkpt><trkpt lat="43.4450079" lon="11.3544916"><ele>328.0</ele><time>2026-04-18T09:34:47.297Z</time></trkpt><trkpt lat="43.4449707" lon="11.3543627"><ele>328.0</ele><time>2026-04-18T09:34:49.227Z</time></trkpt><trkpt lat="43.4449441" lon="11.354243"><ele>328.0</ele><time>2026-04-18T09:34:51.233Z</time></trkpt><trkpt lat="43.4449312" lon="11.3541248"><ele>328.0</ele><time>2026-04-18T09:34:53.236Z</time></trkpt><trkpt lat="43.4449286" lon="11.3540124"><ele>328.0</ele><time>2026-04-18T09:34:55.227Z</time></trkpt><trkpt lat="43.4449239" lon="11.3539075"><ele>328.0</ele><time>2026-04-18T09:34:57.233Z</time></trkpt><trkpt lat="43.4449161" lon="11.3538073"><ele>328.0</ele><time>2026-04-18T09:34:59.241Z</time></trkpt><trkpt lat="43.4449133" lon="11.3537057"><ele>328.0</ele><time>2026-04-18T09:35:01.223Z</time></trkpt><trkpt lat="43.4449223" lon="11.3536064"><ele>328.0</ele><time>2026-04-18T09:35:03.237Z</time></trkpt><trkpt lat="43.4449739" lon="11.353523"><ele>328.0</ele><time>2026-04-18T09:35:05.235Z</time></trkpt><trkpt lat="43.4450305" lon="11.3534532"><ele>327.8333333333333</ele><time>2026-04-18T09:35:07.227Z</time></trkpt><trkpt lat="43.4451051" lon="11.3533914"><ele>327.66666666666663</ele><time>2026-04-18T09:35:09.236Z</time></trkpt><trkpt lat="43.4451601" lon="11.3533248"><ele>327.5</ele><time>2026-04-18T09:35:11.205Z</time></trkpt><trkpt lat="43.4452353" lon="11.3532499"><ele>327.3333333333333</ele><time>2026-04-18T09:35:14.235Z</time></trkpt><trkpt lat="43.4452964" lon="11.3531971"><ele>327.1666666666667</ele><time>2026-04-18T09:35:16.305Z</time></trkpt><trkpt lat="43.4453759" lon="11.353137"><ele>327.0</ele><time>2026-04-18T09:35:18.218Z</time></trkpt><trkpt lat="43.4454419" lon="11.353092"><ele>327.57142857142856</ele><time>2026-04-18T09:35:20.231Z</time></trkpt><trkpt lat="43.4455073" lon="11.3530525"><ele>328.14285714285717</ele><time>2026-04-18T09:35:22.238Z</time></trkpt><trkpt lat="43.4455663" lon="11.3530092"><ele>328.7142857142857</ele><time>2026-04-18T09:35:24.226Z</time></trkpt><trkpt lat="43.4456302" lon="11.3529648"><ele>329.2857142857143</ele><time>2026-04-18T09:35:26.292Z</time></trkpt><trkpt lat="43.4456932" lon="11.3529271"><ele>329.85714285714283</ele><time>2026-04-18T09:35:28.247Z</time></trkpt><trkpt lat="43.445765" lon="11.3528786"><ele>330.42857142857144</ele><time>2026-04-18T09:35:30.295Z</time></trkpt><trkpt lat="43.4458327" lon="11.352834"><ele>331.0</ele><time>2026-04-18T09:35:32.302Z</time></trkpt><trkpt lat="43.4459103" lon="11.3527837"><ele>331.0</ele><time>2026-04-18T09:35:34.237Z</time></trkpt><trkpt lat="43.4459884" lon="11.352731"><ele>331.0</ele><time>2026-04-18T09:35:36.217Z</time></trkpt><trkpt lat="43.4460567" lon="11.3526702"><ele>331.0</ele><time>2026-04-18T09:35:38.241Z</time></trkpt><trkpt lat="43.446131" lon="11.3526235"><ele>331.0</ele><time>2026-04-18T09:35:40.233Z</time></trkpt><trkpt lat="43.4462082" lon="11.3525829"><ele>331.0</ele><time>2026-04-18T09:35:42.239Z</time></trkpt><trkpt lat="43.4462837" lon="11.3525339"><ele>331.0</ele><time>2026-04-18T09:35:44.24Z</time></trkpt><trkpt lat="43.446359" lon="11.3524822"><ele>331.42857142857144</ele><time>2026-04-18T09:35:46.293Z</time></trkpt><trkpt lat="43.4464256" lon="11.352443"><ele>331.85714285714283</ele><time>2026-04-18T09:35:48.223Z</time></trkpt><trkpt lat="43.4464865" lon="11.3523884"><ele>332.2857142857143</ele><time>2026-04-18T09:35:50.241Z</time></trkpt><trkpt lat="43.4465454" lon="11.3523384"><ele>332.7142857142857</ele><time>2026-04-18T09:35:52.236Z</time></trkpt><trkpt lat="43.4466028" lon="11.3522947"><ele>333.14285714285717</ele><time>2026-04-18T09:35:54.233Z</time></trkpt><trkpt lat="43.4466596" lon="11.3522434"><ele>333.57142857142856</ele><time>2026-04-18T09:35:56.247Z</time></trkpt><trkpt lat="43.4467201" lon="11.3521914"><ele>334.0</ele><time>2026-04-18T09:35:58.237Z</time></trkpt><trkpt lat="43.4467808" lon="11.352141"><ele>334.0</ele><time>2026-04-18T09:36:00.238Z</time></trkpt><trkpt lat="43.4468369" lon="11.3521"><ele>334.0</ele><time>2026-04-18T09:36:02.301Z</time></trkpt><trkpt lat="43.4468951" lon="11.3520591"><ele>334.0</ele><time>2026-04-18T09:36:04.239Z</time></trkpt><trkpt lat="43.446956" lon="11.3520101"><ele>334.0</ele><time>2026-04-18T09:36:06.246Z</time></trkpt><trkpt lat="43.4470177" lon="11.3519529"><ele>334.0</ele><time>2026-04-18T09:36:08.235Z</time></trkpt><trkpt lat="43.4470757" lon="11.3518896"><ele>334.0</ele><time>2026-04-18T09:36:10.298Z</time></trkpt><trkpt lat="43.4471296" lon="11.3518147"><ele>334.0</ele><time>2026-04-18T09:36:12.302Z</time></trkpt><trkpt lat="43.4471848" lon="11.3517505"><ele>334.5</ele><time>2026-04-18T09:36:14.221Z</time></trkpt><trkpt lat="43.4472501" lon="11.3516831"><ele>335.0</ele><time>2026-04-18T09:36:16.293Z</time></trkpt><trkpt lat="43.4473136" lon="11.351627"><ele>335.5</ele><time>2026-04-18T09:36:18.237Z</time></trkpt><trkpt lat="43.4473786" lon="11.3515581"><ele>336.0</ele><time>2026-04-18T09:36:20.308Z</time></trkpt><trkpt lat="43.4474363" lon="11.3514949"><ele>336.5</ele><time>2026-04-18T09:36:22.236Z</time></trkpt><trkpt lat="43.4474986" lon="11.3514449"><ele>337.0</ele><time>2026-04-18T09:36:24.236Z</time></trkpt><trkpt lat="43.4475595" lon="11.3514116"><ele>337.16666666666663</ele><time>2026-04-18T09:36:26.305Z</time></trkpt><trkpt lat="43.4476422" lon="11.3513617"><ele>337.3333333333333</ele><time>2026-04-18T09:36:29.23Z</time></trkpt><trkpt lat="43.4477181" lon="11.3513023"><ele>337.5</ele><time>2026-04-18T09:36:32.296Z</time></trkpt><trkpt lat="43.4477886" lon="11.3512412"><ele>337.6666666666667</ele><time>2026-04-18T09:36:35.245Z</time></trkpt><trkpt lat="43.4478658" lon="11.3511911"><ele>337.83333333333337</ele><time>2026-04-18T09:36:38.226Z</time></trkpt><trkpt lat="43.4479383" lon="11.3511383"><ele>338.0</ele><time>2026-04-18T09:36:41.303Z</time></trkpt><trkpt lat="43.4480249" lon="11.3510836"><ele>338.0</ele><time>2026-04-18T09:36:44.243Z</time></trkpt><trkpt lat="43.4480834" lon="11.3510337"><ele>338.0</ele><time>2026-04-18T09:36:46.245Z</time></trkpt><trkpt lat="43.448144" lon="11.3509816"><ele>338.0</ele><time>2026-04-18T09:36:48.243Z</time></trkpt><trkpt lat="43.4482116" lon="11.350934"><ele>338.0</ele><time>2026-04-18T09:36:50.288Z</time></trkpt><trkpt lat="43.4482783" lon="11.3508857"><ele>338.0</ele><time>2026-04-18T09:36:52.224Z</time></trkpt><trkpt lat="43.448339" lon="11.350844"><ele>338.0</ele><time>2026-04-18T09:36:54.251Z</time></trkpt><trkpt lat="43.4483967" lon="11.3508"><ele>338.0</ele><time>2026-04-18T09:36:56.285Z</time></trkpt><trkpt lat="43.4484531" lon="11.3507597"><ele>338.0</ele><time>2026-04-18T09:36:58.225Z</time></trkpt><trkpt lat="43.4485032" lon="11.3506945"><ele>338.0</ele><time>2026-04-18T09:37:00.311Z</time></trkpt><trkpt lat="43.4485413" lon="11.3506234"><ele>338.0</ele><time>2026-04-18T09:37:02.297Z</time></trkpt><trkpt lat="43.4485907" lon="11.3505121"><ele>338.0</ele><time>2026-04-18T09:37:05.245Z</time></trkpt><trkpt lat="43.448636" lon="11.3504265"><ele>338.0</ele><time>2026-04-18T09:37:07.292Z</time></trkpt><trkpt lat="43.4486932" lon="11.3503297"><ele>338.0</ele><time>2026-04-18T09:37:09.238Z</time></trkpt><trkpt lat="43.4487548" lon="11.3502595"><ele>338.5</ele><time>2026-04-18T09:37:11.225Z</time></trkpt><trkpt lat="43.448821" lon="11.3501948"><ele>339.0</ele><time>2026-04-18T09:37:13.247Z</time></trkpt><trkpt lat="43.4488975" lon="11.3501325"><ele>339.5</ele><time>2026-04-18T09:37:15.233Z</time></trkpt><trkpt lat="43.4489661" lon="11.3500754"><ele>340.0</ele><time>2026-04-18T09:37:17.307Z</time></trkpt><trkpt lat="43.4490288" lon="11.3500217"><ele>340.5</ele><time>2026-04-18T09:37:19.237Z</time></trkpt><trkpt lat="43.4490879" lon="11.3499648"><ele>341.0</ele><time>2026-04-18T09:37:21.236Z</time></trkpt><trkpt lat="43.449148" lon="11.3499125"><ele>341.0</ele><time>2026-04-18T09:37:23.232Z</time></trkpt><trkpt lat="43.4492011" lon="11.3498586"><ele>341.0</ele><time>2026-04-18T09:37:25.294Z</time></trkpt><trkpt lat="43.4492599" lon="11.3498035"><ele>341.0</ele><time>2026-04-18T09:37:27.293Z</time></trkpt><trkpt lat="43.4493116" lon="11.3497468"><ele>341.0</ele><time>2026-04-18T09:37:29.237Z</time></trkpt><trkpt lat="43.4493589" lon="11.3496882"><ele>341.0</ele><time>2026-04-18T09:37:31.245Z</time></trkpt><trkpt lat="43.4494223" lon="11.3496063"><ele>341.0</ele><time>2026-04-18T09:37:34.227Z</time></trkpt><trkpt lat="43.4494667" lon="11.3495441"><ele>341.0</ele><time>2026-04-18T09:37:36.291Z</time></trkpt><trkpt lat="43.4495187" lon="11.349474"><ele>340.6666666666667</ele><time>2026-04-18T09:37:38.227Z</time></trkpt><trkpt lat="43.4495847" lon="11.3493888"><ele>340.33333333333337</ele><time>2026-04-18T09:37:40.236Z</time></trkpt><trkpt lat="43.44964" lon="11.3493008"><ele>340.0</ele><time>2026-04-18T09:37:42.304Z</time></trkpt><trkpt lat="43.4496946" lon="11.3492262"><ele>339.6666666666667</ele><time>2026-04-18T09:37:44.229Z</time></trkpt><trkpt lat="43.4497533" lon="11.3491544"><ele>339.3333333333333</ele><time>2026-04-18T09:37:46.294Z</time></trkpt><trkpt lat="43.4498086" lon="11.3490742"><ele>339.0</ele><time>2026-04-18T09:37:48.222Z</time></trkpt><trkpt lat="43.4498585" lon="11.3490075"><ele>339.5</ele><time>2026-04-18T09:37:50.232Z</time></trkpt><trkpt lat="43.4498993" lon="11.3489369"><ele>340.0</ele><time>2026-04-18T09:37:52.293Z</time></trkpt><trkpt lat="43.449935" lon="11.3488613"><ele>340.5</ele><time>2026-04-18T09:37:54.226Z</time></trkpt><trkpt lat="43.4499802" lon="11.3487652"><ele>341.0</ele><time>2026-04-18T09:37:57.22Z</time></trkpt><trkpt lat="43.4500121" lon="11.3486903"><ele>341.5</ele><time>2026-04-18T09:37:59.239Z</time></trkpt><trkpt lat="43.4500538" lon="11.3485888"><ele>342.0</ele><time>2026-04-18T09:38:01.245Z</time></trkpt><trkpt lat="43.4501038" lon="11.348477"><ele>342.0</ele><time>2026-04-18T09:38:03.226Z</time></trkpt><trkpt lat="43.4501545" lon="11.3483639"><ele>342.0</ele><time>2026-04-18T09:38:05.212Z</time></trkpt><trkpt lat="43.450203" lon="11.3482551"><ele>342.0</ele><time>2026-04-18T09:38:07.227Z</time></trkpt><trkpt lat="43.4502496" lon="11.3481682"><ele>342.0</ele><time>2026-04-18T09:38:09.238Z</time></trkpt><trkpt lat="43.4503114" lon="11.3480906"><ele>342.0</ele><time>2026-04-18T09:38:11.3Z</time></trkpt><trkpt lat="43.4503682" lon="11.3480184"><ele>342.0</ele><time>2026-04-18T09:38:13.237Z</time></trkpt><trkpt lat="43.4504223" lon="11.3479454"><ele>342.8333333333333</ele><time>2026-04-18T09:38:15.236Z</time></trkpt><trkpt lat="43.4504733" lon="11.347882"><ele>343.6666666666667</ele><time>2026-04-18T09:38:17.241Z</time></trkpt><trkpt lat="43.4505424" lon="11.3477999"><ele>344.5</ele><time>2026-04-18T09:38:20.237Z</time></trkpt><trkpt lat="43.4506083" lon="11.3477297"><ele>345.33333333333337</ele><time>2026-04-18T09:38:23.232Z</time></trkpt><trkpt lat="43.4506678" lon="11.3476692"><ele>346.1666666666667</ele><time>2026-04-18T09:38:26.305Z</time></trkpt><trkpt lat="43.4507391" lon="11.3476087"><ele>347.0</ele><time>2026-04-18T09:38:30.231Z</time></trkpt><trkpt lat="43.4507989" lon="11.3475517"><ele>347.0</ele><time>2026-04-18T09:38:33.24Z</time></trkpt><trkpt lat="43.4508597" lon="11.34749"><ele>347.0</ele><time>2026-04-18T09:38:36.309Z</time></trkpt><trkpt lat="43.4509167" lon="11.3474346"><ele>347.0</ele><time>2026-04-18T09:38:39.222Z</time></trkpt><trkpt lat="43.4509778" lon="11.3473872"><ele>347.0</ele><time>2026-04-18T09:38:43.213Z</time></trkpt><trkpt lat="43.4510272" lon="11.3473323"><ele>347.0</ele><time>2026-04-18T09:38:46.228Z</time></trkpt><trkpt lat="43.4510789" lon="11.347252"><ele>347.0</ele><time>2026-04-18T09:38:50.307Z</time></trkpt><trkpt lat="43.451125" lon="11.3471723"><ele>347.0</ele><time>2026-04-18T09:38:54.229Z</time></trkpt><trkpt lat="43.451175" lon="11.3470915"><ele>346.42857142857144</ele><time>2026-04-18T09:38:58.223Z</time></trkpt><trkpt lat="43.4512118" lon="11.3469904"><ele>345.85714285714283</ele><time>2026-04-18T09:39:02.216Z</time></trkpt><trkpt lat="43.4512512" lon="11.3469034"><ele>345.2857142857143</ele><time>2026-04-18T09:39:06.304Z</time></trkpt><trkpt lat="43.4512845" lon="11.34682"><ele>344.7142857142857</ele><time>2026-04-18T09:39:10.23Z</time></trkpt><trkpt lat="43.4513132" lon="11.3467359"><ele>344.1428571428571</ele><time>2026-04-18T09:39:15.241Z</time></trkpt><trkpt lat="43.4513538" lon="11.3466546"><ele>343.57142857142856</ele><time>2026-04-18T09:39:20.238Z</time></trkpt><trkpt lat="43.4513977" lon="11.3465662"><ele>343.0</ele><time>2026-04-18T09:39:25.249Z</time></trkpt><trkpt lat="43.4514372" lon="11.346477"><ele>344.57142857142856</ele><time>2026-04-18T09:39:30.238Z</time></trkpt><trkpt lat="43.4514909" lon="11.3464248"><ele>346.1428571428571</ele><time>2026-04-18T09:39:35.239Z</time></trkpt><trkpt lat="43.4515266" lon="11.3463348"><ele>347.7142857142857</ele><time>2026-04-18T09:39:40.229Z</time></trkpt><trkpt lat="43.4515625" lon="11.3462504"><ele>349.2857142857143</ele><time>2026-04-18T09:39:46.293Z</time></trkpt><trkpt lat="43.4515852" lon="11.3461603"><ele>350.85714285714283</ele><time>2026-04-18T09:39:52.293Z</time></trkpt><trkpt lat="43.4516249" lon="11.3460807"><ele>352.42857142857144</ele><time>2026-04-18T09:39:58.246Z</time></trkpt><trkpt lat="43.451657" lon="11.345993"><ele>354.0</ele><time>2026-04-18T09:40:03.24Z</time></trkpt><trkpt lat="43.4516874" lon="11.3459121"><ele>354.0</ele><time>2026-04-18T09:40:07.233Z</time></trkpt><trkpt lat="43.4517345" lon="11.3458345"><ele>354.0</ele><time>2026-04-18T09:40:12.235Z</time></trkpt><trkpt lat="43.4518051" lon="11.3457979"><ele>354.0</ele><time>2026-04-18T09:40:18.218Z</time></trkpt><trkpt lat="43.4518712" lon="11.3457544"><ele>354.0</ele><time>2026-04-18T09:40:23.234Z</time></trkpt><trkpt lat="43.4519358" lon="11.3457112"><ele>354.0</ele><time>2026-04-18T09:40:28.241Z</time></trkpt><trkpt lat="43.4519963" lon="11.3456727"><ele>354.0</ele><time>2026-04-18T09:40:35.314Z</time></trkpt><trkpt lat="43.4520547" lon="11.3456218"><ele>354.0</ele><time>2026-04-18T09:40:40.235Z</time></trkpt><trkpt lat="43.4521274" lon="11.3455878"><ele>356.14285714285717</ele><time>2026-04-18T09:40:45.241Z</time></trkpt><trkpt lat="43.4521872" lon="11.3455497"><ele>358.2857142857143</ele><time>2026-04-18T09:40:50.221Z</time></trkpt><trkpt lat="43.45225" lon="11.345502"><ele>360.42857142857144</ele><time>2026-04-18T09:40:55.235Z</time></trkpt><trkpt lat="43.4523103" lon="11.345465"><ele>362.57142857142856</ele><time>2026-04-18T09:40:59.232Z</time></trkpt><trkpt lat="43.4523699" lon="11.3454363"><ele>364.71428571428567</ele><time>2026-04-18T09:41:03.244Z</time></trkpt><trkpt lat="43.4524394" lon="11.3453997"><ele>366.85714285714283</ele><time>2026-04-18T09:41:09.224Z</time></trkpt><trkpt lat="43.4525192" lon="11.3453655"><ele>369.0</ele><time>2026-04-18T09:41:13.224Z</time></trkpt><trkpt lat="43.4525793" lon="11.3453328"><ele>369.0</ele><time>2026-04-18T09:41:16.294Z</time></trkpt><trkpt lat="43.4526513" lon="11.3452896"><ele>369.0</ele><time>2026-04-18T09:41:20.229Z</time></trkpt><trkpt lat="43.4527096" lon="11.3452238"><ele>369.0</ele><time>2026-04-18T09:41:24.243Z</time></trkpt><trkpt lat="43.4527273" lon="11.3451289"><ele>369.0</ele><time>2026-04-18T09:41:29.242Z</time></trkpt><trkpt lat="43.4527114" lon="11.3450437"><ele>369.0</ele><time>2026-04-18T09:41:35.241Z</time></trkpt><trkpt lat="43.4526588" lon="11.344989"><ele>369.0</ele><time>2026-04-18T09:41:41.303Z</time></trkpt><trkpt lat="43.4525971" lon="11.3449173"><ele>369.0</ele><time>2026-04-18T09:41:48.233Z</time></trkpt><trkpt lat="43.4525454" lon="11.3448665"><ele>369.0</ele><time>2026-04-18T09:41:52.3Z</time></trkpt><trkpt lat="43.4524894" lon="11.3448082"><ele>369.0</ele><time>2026-04-18T09:41:59.237Z</time></trkpt><trkpt lat="43.4524363" lon="11.3447603"><ele>369.0</ele><time>2026-04-18T09:42:05.253Z</time></trkpt><trkpt lat="43.4523785" lon="11.3446944"><ele>369.0</ele><time>2026-04-18T09:42:11.309Z</time></trkpt><trkpt lat="43.4523417" lon="11.3446058"><ele>369.0</ele><time>2026-04-18T09:42:19.257Z</time></trkpt><trkpt lat="43.4523112" lon="11.3445228"><ele>369.0</ele><time>2026-04-18T09:42:26.225Z</time></trkpt><trkpt lat="43.4522733" lon="11.3444446"><ele>369.0</ele><time>2026-04-18T09:42:33.239Z</time></trkpt><trkpt lat="43.4522528" lon="11.3443467"><ele>370.7142857142857</ele><time>2026-04-18T09:42:41.241Z</time></trkpt><trkpt lat="43.4522182" lon="11.3442615"><ele>372.42857142857144</ele><time>2026-04-18T09:42:48.233Z</time></trkpt><trkpt lat="43.4522321" lon="11.3441613"><ele>374.1428571428571</ele><time>2026-04-18T09:42:57.235Z</time></trkpt><trkpt lat="43.452274" lon="11.3440766"><ele>375.8571428571429</ele><time>2026-04-18T09:43:07.319Z</time></trkpt><trkpt lat="43.4523313" lon="11.3440167"><ele>377.5714285714286</ele><time>2026-04-18T09:43:09.239Z</time></trkpt><trkpt lat="43.4524019" lon="11.3440241"><ele>379.2857142857143</ele><time>2026-04-18T09:44:02.301Z</time></trkpt><trkpt lat="43.4524697" lon="11.3440429"><ele>381.0</ele><time>2026-04-18T09:44:15.241Z</time></trkpt><trkpt lat="43.4525367" lon="11.3440171"><ele>381.0</ele><time>2026-04-18T09:44:24.234Z</time></trkpt><trkpt lat="43.4525934" lon="11.3439782"><ele>381.0</ele><time>2026-04-18T09:44:29.237Z</time></trkpt><trkpt lat="43.4526531" lon="11.3439404"><ele>381.0</ele><time>2026-04-18T09:44:33.238Z</time></trkpt><trkpt lat="43.4527002" lon="11.343858"><ele>381.0</ele><time>2026-04-18T09:44:40.243Z</time></trkpt><trkpt lat="43.4527309" lon="11.3437688"><ele>381.0</ele><time>2026-04-18T09:44:45.243Z</time></trkpt><trkpt lat="43.4527536" lon="11.3436862"><ele>381.0</ele><time>2026-04-18T09:44:50.242Z</time></trkpt><trkpt lat="43.4527555" lon="11.3435919"><ele>381.0</ele><time>2026-04-18T09:44:59.232Z</time></trkpt><trkpt lat="43.4527765" lon="11.34351"><ele>382.4285714285714</ele><time>2026-04-18T09:45:07.317Z</time></trkpt><trkpt lat="43.4527997" lon="11.343421"><ele>383.8571428571429</ele><time>2026-04-18T09:45:14.241Z</time></trkpt><trkpt lat="43.4528279" lon="11.3433418"><ele>385.2857142857143</ele><time>2026-04-18T09:45:18.215Z</time></trkpt><trkpt lat="43.452832" lon="11.3432456"><ele>386.71428571428567</ele><time>2026-04-18T09:45:22.298Z</time></trkpt><trkpt lat="43.4528802" lon="11.3431802"><ele>388.1428571428571</ele><time>2026-04-18T09:45:28.235Z</time></trkpt><trkpt lat="43.4529137" lon="11.3431045"><ele>389.57142857142856</ele><time>2026-04-18T09:45:33.234Z</time></trkpt><trkpt lat="43.4529609" lon="11.3430212"><ele>391.0</ele><time>2026-04-18T09:45:47.304Z</time></trkpt><trkpt lat="43.4530159" lon="11.3429393"><ele>392.85714285714283</ele><time>2026-04-18T09:45:50.245Z</time></trkpt><trkpt lat="43.4530504" lon="11.3428658"><ele>394.7142857142857</ele><time>2026-04-18T09:45:57.242Z</time></trkpt><trkpt lat="43.4530889" lon="11.3427864"><ele>396.57142857142856</ele><time>2026-04-18T09:46:04.231Z</time></trkpt><trkpt lat="43.4531296" lon="11.3427121"><ele>398.42857142857144</ele><time>2026-04-18T09:46:10.31Z</time></trkpt><trkpt lat="43.4531596" lon="11.3426242"><ele>400.2857142857143</ele><time>2026-04-18T09:46:15.229Z</time></trkpt><trkpt lat="43.4531844" lon="11.3425398"><ele>402.1428571428571</ele><time>2026-04-18T09:46:26.234Z</time></trkpt><trkpt lat="43.4532181" lon="11.3424172"><ele>404.0</ele><time>2026-04-18T09:46:49.236Z</time></trkpt><trkpt lat="43.4532613" lon="11.3423372"><ele>404.0</ele><time>2026-04-18T09:46:54.24Z</time></trkpt><trkpt lat="43.4532998" lon="11.3422678"><ele>404.0</ele><time>2026-04-18T09:46:57.311Z</time></trkpt><trkpt lat="43.4533135" lon="11.3421819"><ele>404.0</ele><time>2026-04-18T09:47:00.24Z</time></trkpt><trkpt lat="43.453342" lon="11.3421008"><ele>404.0</ele><time>2026-04-18T09:47:07.317Z</time></trkpt><trkpt lat="43.4533766" lon="11.3420203"><ele>404.0</ele><time>2026-04-18T09:47:15.245Z</time></trkpt><trkpt lat="43.4534346" lon="11.3419778"><ele>404.0</ele><time>2026-04-18T09:47:27.24Z</time></trkpt><trkpt lat="43.453462" lon="11.3418965"><ele>404.0</ele><time>2026-04-18T09:47:30.233Z</time></trkpt><trkpt lat="43.4534953" lon="11.341821"><ele>405.0</ele><time>2026-04-18T09:47:35.256Z</time></trkpt><trkpt lat="43.4535209" lon="11.3417382"><ele>406.0</ele><time>2026-04-18T09:47:40.225Z</time></trkpt><trkpt lat="43.4535861" lon="11.3416792"><ele>407.0</ele><time>2026-04-18T09:47:46.31Z</time></trkpt><trkpt lat="43.4536168" lon="11.3415942"><ele>408.0</ele><time>2026-04-18T09:47:52.241Z</time></trkpt><trkpt lat="43.4536493" lon="11.3415166"><ele>409.0</ele><time>2026-04-18T09:48:01.227Z</time></trkpt><trkpt lat="43.4536803" lon="11.3414269"><ele>410.0</ele><time>2026-04-18T09:48:09.21Z</time></trkpt><trkpt lat="43.4536964" lon="11.3413327"><ele>411.0</ele><time>2026-04-18T09:48:22.321Z</time></trkpt><trkpt lat="43.4537469" lon="11.3412318"><ele>412.85714285714283</ele><time>2026-04-18T09:48:48.223Z</time></trkpt><trkpt lat="43.4538062" lon="11.3411559"><ele>414.71428571428567</ele><time>2026-04-18T09:51:22.293Z</time></trkpt><trkpt lat="43.4538272" lon="11.34107"><ele>416.57142857142856</ele><time>2026-04-18T09:51:28.227Z</time></trkpt><trkpt lat="43.4538704" lon="11.3409832"><ele>418.42857142857144</ele><time>2026-04-18T09:51:32.307Z</time></trkpt><trkpt lat="43.4538697" lon="11.3408955"><ele>420.2857142857143</ele><time>2026-04-18T09:51:40.231Z</time></trkpt><trkpt lat="43.4538897" lon="11.3408033"><ele>422.14285714285717</ele><time>2026-04-18T09:51:46.239Z</time></trkpt><trkpt lat="43.4539221" lon="11.3407083"><ele>424.0</ele><time>2026-04-18T09:51:56.305Z</time></trkpt><trkpt lat="43.4539651" lon="11.3406311"><ele>424.2857142857143</ele><time>2026-04-18T09:51:58.255Z</time></trkpt><trkpt lat="43.4540143" lon="11.3405447"><ele>424.57142857142856</ele><time>2026-04-18T09:52:02.245Z</time></trkpt><trkpt lat="43.4540807" lon="11.3404658"><ele>424.85714285714283</ele><time>2026-04-18T09:52:08.251Z</time></trkpt><trkpt lat="43.4541318" lon="11.3403954"><ele>425.1428571428571</ele><time>2026-04-18T09:52:13.22Z</time></trkpt><trkpt lat="43.454184" lon="11.3403402"><ele>425.42857142857144</ele><time>2026-04-18T09:52:22.227Z</time></trkpt><trkpt lat="43.4542373" lon="11.3402932"><ele>425.71428571428567</ele><time>2026-04-18T09:52:28.219Z</time></trkpt><trkpt lat="43.4542744" lon="11.3402068"><ele>426.0</ele><time>2026-04-18T09:52:35.314Z</time></trkpt><trkpt lat="43.4543208" lon="11.3401464"><ele>425.99999999999994</ele><time>2026-04-18T09:52:40.229Z</time></trkpt><trkpt lat="43.4543688" lon="11.3400823"><ele>426.0</ele><time>2026-04-18T09:52:47.32Z</time></trkpt><trkpt lat="43.4544111" lon="11.3400086"><ele>426.0</ele><time>2026-04-18T09:52:56.235Z</time></trkpt><trkpt lat="43.4544772" lon="11.3399445"><ele>426.0</ele><time>2026-04-18T09:53:08.245Z</time></trkpt><trkpt lat="43.4545248" lon="11.3398779"><ele>426.0</ele><time>2026-04-18T09:53:11.279Z</time></trkpt><trkpt lat="43.4545775" lon="11.3398094"><ele>425.99999999999994</ele><time>2026-04-18T09:53:16.312Z</time></trkpt><trkpt lat="43.4546257" lon="11.3397432"><ele>426.0</ele><time>2026-04-18T09:53:21.298Z</time></trkpt><trkpt lat="43.4546763" lon="11.3396857"><ele>427.99999999999994</ele><time>2026-04-18T09:53:28.253Z</time></trkpt><trkpt lat="43.4547229" lon="11.3396045"><ele>430.0</ele><time>2026-04-18T09:53:33.237Z</time></trkpt><trkpt lat="43.4547608" lon="11.3395284"><ele>432.0</ele><time>2026-04-18T09:53:38.231Z</time></trkpt><trkpt lat="43.4548147" lon="11.3394666"><ele>434.0</ele><time>2026-04-18T09:53:43.232Z</time></trkpt><trkpt lat="43.4548508" lon="11.3393712"><ele>436.0</ele><time>2026-04-18T09:53:47.306Z</time></trkpt><trkpt lat="43.4549055" lon="11.3393149"><ele>437.99999999999994</ele><time>2026-04-18T09:53:53.244Z</time></trkpt><trkpt lat="43.4549689" lon="11.3393099"><ele>440.0</ele><time>2026-04-18T09:54:03.238Z</time></trkpt><trkpt lat="43.4549882" lon="11.3392108"><ele>439.99999999999994</ele><time>2026-04-18T09:54:07.251Z</time></trkpt><trkpt lat="43.4550349" lon="11.3391338"><ele>440.0</ele><time>2026-04-18T09:54:15.211Z</time></trkpt><trkpt lat="43.4550717" lon="11.3390594"><ele>440.0</ele><time>2026-04-18T09:54:21.232Z</time></trkpt><trkpt lat="43.4551105" lon="11.3389896"><ele>440.0</ele><time>2026-04-18T09:54:27.237Z</time></trkpt><trkpt lat="43.4551646" lon="11.3389273"><ele>440.0</ele><time>2026-04-18T09:54:32.311Z</time></trkpt><trkpt lat="43.4552008" lon="11.3388297"><ele>439.99999999999994</ele><time>2026-04-18T09:54:39.239Z</time></trkpt><trkpt lat="43.4552514" lon="11.3387729"><ele>440.0</ele><time>2026-04-18T09:54:44.251Z</time></trkpt><trkpt lat="43.4552886" lon="11.3386962"><ele>440.2857142857143</ele><time>2026-04-18T09:54:52.248Z</time></trkpt><trkpt lat="43.4553028" lon="11.338609"><ele>440.57142857142856</ele><time>2026-04-18T09:54:58.246Z</time></trkpt><trkpt lat="43.4553628" lon="11.3385241"><ele>440.8571428571429</ele><time>2026-04-18T09:55:08.223Z</time></trkpt><trkpt lat="43.4554113" lon="11.3384572"><ele>441.1428571428571</ele><time>2026-04-18T09:55:10.231Z</time></trkpt><trkpt lat="43.4554152" lon="11.3383595"><ele>441.42857142857144</ele><time>2026-04-18T09:55:24.24Z</time></trkpt><trkpt lat="43.4554735" lon="11.3382931"><ele>441.7142857142857</ele><time>2026-04-18T09:55:29.239Z</time></trkpt><trkpt lat="43.4555496" lon="11.3382931"><ele>442.0</ele><time>2026-04-18T09:55:34.245Z</time></trkpt><trkpt lat="43.4555855" lon="11.33821"><ele>444.7142857142858</ele><time>2026-04-18T09:55:38.239Z</time></trkpt><trkpt lat="43.4556262" lon="11.3381374"><ele>447.42857142857144</ele><time>2026-04-18T09:55:42.231Z</time></trkpt><trkpt lat="43.4556999" lon="11.3381091"><ele>450.14285714285717</ele><time>2026-04-18T09:55:49.24Z</time></trkpt><trkpt lat="43.4557278" lon="11.3380275"><ele>452.8571428571429</ele><time>2026-04-18T09:55:56.232Z</time></trkpt><trkpt lat="43.4557566" lon="11.3379497"><ele>455.5714285714286</ele><time>2026-04-18T09:56:02.3Z</time></trkpt><trkpt lat="43.4557785" lon="11.3378515"><ele>458.28571428571433</ele><time>2026-04-18T09:56:06.309Z</time></trkpt><trkpt lat="43.4557975" lon="11.3377563"><ele>461.0</ele><time>2026-04-18T09:56:17.228Z</time></trkpt><trkpt lat="43.4558314" lon="11.3376771"><ele>461.14285714285717</ele><time>2026-04-18T09:56:22.309Z</time></trkpt><trkpt lat="43.4558704" lon="11.3375849"><ele>461.28571428571433</ele><time>2026-04-18T09:56:27.3Z</time></trkpt><trkpt lat="43.4559254" lon="11.3375159"><ele>461.42857142857144</ele><time>2026-04-18T09:56:30.237Z</time></trkpt><trkpt lat="43.4559536" lon="11.3374265"><ele>461.57142857142856</ele><time>2026-04-18T09:56:38.241Z</time></trkpt><trkpt lat="43.4559924" lon="11.3373488"><ele>461.7142857142857</ele><time>2026-04-18T09:56:45.232Z</time></trkpt><trkpt lat="43.4560324" lon="11.3372602"><ele>461.8571428571429</ele><time>2026-04-18T09:56:51.309Z</time></trkpt><trkpt lat="43.4560668" lon="11.337172"><ele>462.0</ele><time>2026-04-18T09:56:56.241Z</time></trkpt><trkpt lat="43.4560983" lon="11.3370934"><ele>461.57142857142856</ele><time>2026-04-18T09:57:00.221Z</time></trkpt><trkpt lat="43.4561613" lon="11.33703"><ele>461.1428571428571</ele><time>2026-04-18T09:57:04.231Z</time></trkpt><trkpt lat="43.4561699" lon="11.3369434"><ele>460.7142857142857</ele><time>2026-04-18T09:57:07.306Z</time></trkpt><trkpt lat="43.4561774" lon="11.3368442"><ele>460.2857142857143</ele><time>2026-04-18T09:57:11.305Z</time></trkpt><trkpt lat="43.4561947" lon="11.3367503"><ele>459.85714285714283</ele><time>2026-04-18T09:57:15.233Z</time></trkpt><trkpt lat="43.4562252" lon="11.3366719"><ele>459.42857142857144</ele><time>2026-04-18T09:57:18.238Z</time></trkpt><trkpt lat="43.4562435" lon="11.3365722"><ele>459.0</ele><time>2026-04-18T09:57:23.228Z</time></trkpt><trkpt lat="43.4562486" lon="11.3364738"><ele>460.14285714285717</ele><time>2026-04-18T09:57:28.253Z</time></trkpt><trkpt lat="43.4562469" lon="11.3363738"><ele>461.2857142857142</ele><time>2026-04-18T09:57:32.229Z</time></trkpt><trkpt lat="43.4562463" lon="11.336267"><ele>462.4285714285714</ele><time>2026-04-18T09:57:36.239Z</time></trkpt><trkpt lat="43.4562544" lon="11.3361652"><ele>463.57142857142856</ele><time>2026-04-18T09:57:40.293Z</time></trkpt><trkpt lat="43.4562501" lon="11.3360722"><ele>464.71428571428567</ele><time>2026-04-18T09:57:45.235Z</time></trkpt><trkpt lat="43.4562368" lon="11.3359814"><ele>465.8571428571428</ele><time>2026-04-18T09:57:51.295Z</time></trkpt><trkpt lat="43.4562352" lon="11.3358907"><ele>466.99999999999994</ele><time>2026-04-18T09:57:56.293Z</time></trkpt><trkpt lat="43.4562269" lon="11.3357997"><ele>466.99999999999994</ele><time>2026-04-18T09:58:00.241Z</time></trkpt><trkpt lat="43.456224" lon="11.3357112"><ele>467.0</ele><time>2026-04-18T09:58:06.237Z</time></trkpt><trkpt lat="43.456223" lon="11.3356176"><ele>466.99999999999994</ele><time>2026-04-18T09:58:11.219Z</time></trkpt><trkpt lat="43.4562197" lon="11.3355248"><ele>466.99999999999994</ele><time>2026-04-18T09:58:14.238Z</time></trkpt><trkpt lat="43.4561589" lon="11.3354827"><ele>467.0</ele><time>2026-04-18T09:58:18.247Z</time></trkpt><trkpt lat="43.4561269" lon="11.3353922"><ele>466.99999999999994</ele><time>2026-04-18T09:58:23.24Z</time></trkpt><trkpt lat="43.4560689" lon="11.335348"><ele>466.99999999999994</ele><time>2026-04-18T09:58:28.222Z</time></trkpt><trkpt lat="43.4560224" lon="11.3352831"><ele>469.1428571428571</ele><time>2026-04-18T09:58:32.235Z</time></trkpt><trkpt lat="43.4559665" lon="11.3352189"><ele>471.2857142857143</ele><time>2026-04-18T09:58:37.228Z</time></trkpt><trkpt lat="43.4559211" lon="11.3351285"><ele>473.42857142857144</ele><time>2026-04-18T09:58:42.235Z</time></trkpt><trkpt lat="43.4558816" lon="11.3350441"><ele>475.57142857142856</ele><time>2026-04-18T09:58:46.219Z</time></trkpt><trkpt lat="43.4558573" lon="11.3349591"><ele>477.7142857142858</ele><time>2026-04-18T09:58:50.24Z</time></trkpt><trkpt lat="43.4558491" lon="11.3348695"><ele>479.8571428571429</ele><time>2026-04-18T09:58:54.241Z</time></trkpt><trkpt lat="43.4558645" lon="11.3347736"><ele>482.0</ele><time>2026-04-18T09:58:59.227Z</time></trkpt><trkpt lat="43.4558956" lon="11.3346872"><ele>482.14285714285717</ele><time>2026-04-18T09:59:03.222Z</time></trkpt><trkpt lat="43.4559093" lon="11.3345835"><ele>482.28571428571433</ele><time>2026-04-18T09:59:07.302Z</time></trkpt><trkpt lat="43.4559454" lon="11.3344954"><ele>482.42857142857144</ele><time>2026-04-18T09:59:11.239Z</time></trkpt><trkpt lat="43.4560036" lon="11.3344432"><ele>482.57142857142856</ele><time>2026-04-18T09:59:16.305Z</time></trkpt><trkpt lat="43.4560321" lon="11.3343501"><ele>482.7142857142857</ele><time>2026-04-18T09:59:21.209Z</time></trkpt><trkpt lat="43.4560541" lon="11.3342511"><ele>482.8571428571429</ele><time>2026-04-18T09:59:25.239Z</time></trkpt><trkpt lat="43.4560954" lon="11.3341683"><ele>483.0</ele><time>2026-04-18T09:59:28.211Z</time></trkpt><trkpt lat="43.4561139" lon="11.3340658"><ele>483.0</ele><time>2026-04-18T09:59:30.319Z</time></trkpt><trkpt lat="43.4561398" lon="11.3339831"><ele>483.0</ele><time>2026-04-18T09:59:32.294Z</time></trkpt><trkpt lat="43.4561412" lon="11.3338738"><ele>483.0</ele><time>2026-04-18T09:59:36.296Z</time></trkpt><trkpt lat="43.4561253" lon="11.3337615"><ele>483.0</ele><time>2026-04-18T09:59:40.306Z</time></trkpt><trkpt lat="43.4561498" lon="11.3336677"><ele>483.0</ele><time>2026-04-18T09:59:44.225Z</time></trkpt><trkpt lat="43.456192" lon="11.3335934"><ele>483.0</ele><time>2026-04-18T09:59:48.233Z</time></trkpt><trkpt lat="43.4562318" lon="11.3335191"><ele>483.0</ele><time>2026-04-18T10:00:00.226Z</time></trkpt><trkpt lat="43.4562729" lon="11.3334286"><ele>483.1666666666667</ele><time>2026-04-18T10:00:06.294Z</time></trkpt><trkpt lat="43.4563194" lon="11.3333183"><ele>483.33333333333337</ele><time>2026-04-18T10:00:10.216Z</time></trkpt><trkpt lat="43.4563439" lon="11.3332241"><ele>483.5</ele><time>2026-04-18T10:00:19.23Z</time></trkpt><trkpt lat="43.4563591" lon="11.3331337"><ele>483.6666666666667</ele><time>2026-04-18T10:00:25.235Z</time></trkpt><trkpt lat="43.4563375" lon="11.3330134"><ele>483.83333333333337</ele><time>2026-04-18T10:00:29.233Z</time></trkpt><trkpt lat="43.4562783" lon="11.3329228"><ele>484.0</ele><time>2026-04-18T10:00:31.23Z</time></trkpt><trkpt lat="43.4562138" lon="11.3328054"><ele>484.6</ele><time>2026-04-18T10:00:33.229Z</time></trkpt><trkpt lat="43.4561549" lon="11.3326888"><ele>485.2</ele><time>2026-04-18T10:00:35.231Z</time></trkpt><trkpt lat="43.4560981" lon="11.3325789"><ele>485.80000000000007</ele><time>2026-04-18T10:00:37.233Z</time></trkpt><trkpt lat="43.4560384" lon="11.3324666"><ele>486.40000000000003</ele><time>2026-04-18T10:00:39.228Z</time></trkpt><trkpt lat="43.4559901" lon="11.3323501"><ele>487.0</ele><time>2026-04-18T10:00:41.234Z</time></trkpt><trkpt lat="43.4559713" lon="11.3322058"><ele>487.57142857142856</ele><time>2026-04-18T10:00:44.229Z</time></trkpt><trkpt lat="43.4559811" lon="11.3321109"><ele>488.1428571428571</ele><time>2026-04-18T10:00:49.243Z</time></trkpt><trkpt lat="43.4559557" lon="11.3320183"><ele>488.71428571428567</ele><time>2026-04-18T10:00:57.309Z</time></trkpt><trkpt lat="43.4559298" lon="11.3319341"><ele>489.2857142857143</ele><time>2026-04-18T10:01:02.224Z</time></trkpt><trkpt lat="43.4559198" lon="11.331844"><ele>489.8571428571428</ele><time>2026-04-18T10:01:06.249Z</time></trkpt><trkpt lat="43.4559045" lon="11.331747"><ele>490.4285714285714</ele><time>2026-04-18T10:01:10.242Z</time></trkpt><trkpt lat="43.455898" lon="11.3316569"><ele>491.0</ele><time>2026-04-18T10:01:14.243Z</time></trkpt><trkpt lat="43.4558862" lon="11.3315422"><ele>491.0</ele><time>2026-04-18T10:01:18.243Z</time></trkpt><trkpt lat="43.455881" lon="11.3314455"><ele>490.99999999999994</ele><time>2026-04-18T10:01:21.233Z</time></trkpt><trkpt lat="43.4558178" lon="11.3313958"><ele>491.0</ele><time>2026-04-18T10:01:24.232Z</time></trkpt><trkpt lat="43.4558015" lon="11.3313101"><ele>491.0</ele><time>2026-04-18T10:01:27.307Z</time></trkpt><trkpt lat="43.4557894" lon="11.3312156"><ele>490.99999999999994</ele><time>2026-04-18T10:01:29.233Z</time></trkpt><trkpt lat="43.4557868" lon="11.331113"><ele>491.0</ele><time>2026-04-18T10:01:31.297Z</time></trkpt><trkpt lat="43.4557933" lon="11.3310181"><ele>491.0</ele><time>2026-04-18T10:01:33.231Z</time></trkpt><trkpt lat="43.4557919" lon="11.3309162"><ele>490.99999999999994</ele><time>2026-04-18T10:01:35.234Z</time></trkpt><trkpt lat="43.4557826" lon="11.3308122"><ele>491.0</ele><time>2026-04-18T10:01:37.306Z</time></trkpt><trkpt lat="43.4557711" lon="11.3307269"><ele>491.0</ele><time>2026-04-18T10:01:39.231Z</time></trkpt><trkpt lat="43.4557741" lon="11.3306042"><ele>491.0</ele><time>2026-04-18T10:01:42.238Z</time></trkpt><trkpt lat="43.455787" lon="11.3305148"><ele>490.99999999999994</ele><time>2026-04-18T10:01:44.241Z</time></trkpt><trkpt lat="43.4557895" lon="11.3304144"><ele>491.0</ele><time>2026-04-18T10:01:46.301Z</time></trkpt><trkpt lat="43.4557982" lon="11.3302963"><ele>491.0</ele><time>2026-04-18T10:01:48.218Z</time></trkpt><trkpt lat="43.4558187" lon="11.3301794"><ele>491.0</ele><time>2026-04-18T10:01:51.229Z</time></trkpt><trkpt lat="43.4558248" lon="11.3300557"><ele>491.0</ele><time>2026-04-18T10:01:54.228Z</time></trkpt><trkpt lat="43.4558473" lon="11.3299109"><ele>491.0</ele><time>2026-04-18T10:01:57.228Z</time></trkpt><trkpt lat="43.4558527" lon="11.3297971"><ele>491.0</ele><time>2026-04-18T10:01:59.235Z</time></trkpt><trkpt lat="43.4558525" lon="11.3296724"><ele>490.2857142857143</ele><time>2026-04-18T10:02:02.24Z</time></trkpt><trkpt lat="43.4558338" lon="11.3295714"><ele>489.57142857142856</ele><time>2026-04-18T10:02:04.226Z</time></trkpt><trkpt lat="43.4558083" lon="11.3294691"><ele>488.85714285714283</ele><time>2026-04-18T10:02:06.304Z</time></trkpt><trkpt lat="43.4557642" lon="11.3293977"><ele>488.1428571428571</ele><time>2026-04-18T10:02:08.238Z</time></trkpt><trkpt lat="43.4557161" lon="11.3293401"><ele>487.42857142857144</ele><time>2026-04-18T10:02:10.233Z</time></trkpt><trkpt lat="43.4556733" lon="11.3292608"><ele>486.71428571428567</ele><time>2026-04-18T10:02:12.292Z</time></trkpt><trkpt lat="43.4556427" lon="11.329148"><ele>486.0</ele><time>2026-04-18T10:02:14.24Z</time></trkpt><trkpt lat="43.4555912" lon="11.3290795"><ele>486.0</ele><time>2026-04-18T10:02:16.299Z</time></trkpt><trkpt lat="43.4555508" lon="11.3289816"><ele>486.0</ele><time>2026-04-18T10:02:18.219Z</time></trkpt><trkpt lat="43.4555253" lon="11.3288501"><ele>486.0</ele><time>2026-04-18T10:02:20.227Z</time></trkpt><trkpt lat="43.4555089" lon="11.328717"><ele>486.0</ele><time>2026-04-18T10:02:22.303Z</time></trkpt><trkpt lat="43.4554878" lon="11.3285886"><ele>486.0</ele><time>2026-04-18T10:02:24.23Z</time></trkpt><trkpt lat="43.4554848" lon="11.328452"><ele>484.5</ele><time>2026-04-18T10:02:26.296Z</time></trkpt><trkpt lat="43.4554835" lon="11.328351"><ele>483.0</ele><time>2026-04-18T10:02:28.236Z</time></trkpt><trkpt lat="43.4554772" lon="11.3282618"><ele>481.5</ele><time>2026-04-18T10:02:30.249Z</time></trkpt><trkpt lat="43.4554839" lon="11.3281615"><ele>480.0</ele><time>2026-04-18T10:02:32.302Z</time></trkpt><trkpt lat="43.4555013" lon="11.3280274"><ele>478.5</ele><time>2026-04-18T10:02:34.229Z</time></trkpt><trkpt lat="43.4555353" lon="11.3278919"><ele>477.0</ele><time>2026-04-18T10:02:36.224Z</time></trkpt><trkpt lat="43.4555992" lon="11.3277551"><ele>477.0</ele><time>2026-04-18T10:02:38.24Z</time></trkpt><trkpt lat="43.4556722" lon="11.3276228"><ele>477.0</ele><time>2026-04-18T10:02:40.243Z</time></trkpt><trkpt lat="43.4557357" lon="11.3274845"><ele>477.0</ele><time>2026-04-18T10:02:42.317Z</time></trkpt><trkpt lat="43.4558051" lon="11.3273584"><ele>477.0</ele><time>2026-04-18T10:02:44.232Z</time></trkpt><trkpt lat="43.4558562" lon="11.3272254"><ele>477.3333333333333</ele><time>2026-04-18T10:02:46.245Z</time></trkpt><trkpt lat="43.455907" lon="11.3271243"><ele>477.66666666666663</ele><time>2026-04-18T10:02:48.233Z</time></trkpt><trkpt lat="43.4559587" lon="11.3270285"><ele>478.0</ele><time>2026-04-18T10:02:51.305Z</time></trkpt><trkpt lat="43.4560045" lon="11.3269176"><ele>478.3333333333333</ele><time>2026-04-18T10:02:55.232Z</time></trkpt><trkpt lat="43.4560636" lon="11.3268616"><ele>478.66666666666663</ele><time>2026-04-18T10:02:59.235Z</time></trkpt><trkpt lat="43.4560998" lon="11.3267896"><ele>479.0</ele><time>2026-04-18T10:03:02.235Z</time></trkpt><trkpt lat="43.4561283" lon="11.3267046"><ele>478.99999999999994</ele><time>2026-04-18T10:03:06.235Z</time></trkpt><trkpt lat="43.4561924" lon="11.326559"><ele>479.0</ele><time>2026-04-18T10:03:14.217Z</time></trkpt><trkpt lat="43.456224" lon="11.3264836"><ele>479.0</ele><time>2026-04-18T10:03:18.235Z</time></trkpt><trkpt lat="43.4562197" lon="11.3263919"><ele>479.0</ele><time>2026-04-18T10:03:22.234Z</time></trkpt><trkpt lat="43.4562372" lon="11.3263016"><ele>478.99999999999994</ele><time>2026-04-18T10:03:27.239Z</time></trkpt><trkpt lat="43.4562495" lon="11.3262085"><ele>479.0</ele><time>2026-04-18T10:03:32.248Z</time></trkpt><trkpt lat="43.456258" lon="11.3261107"><ele>479.16666666666663</ele><time>2026-04-18T10:03:38.232Z</time></trkpt><trkpt lat="43.4562616" lon="11.3260231"><ele>479.3333333333333</ele><time>2026-04-18T10:03:43.23Z</time></trkpt><trkpt lat="43.4562664" lon="11.3259234"><ele>479.5</ele><time>2026-04-18T10:03:49.211Z</time></trkpt><trkpt lat="43.4562707" lon="11.3258324"><ele>479.66666666666663</ele><time>2026-04-18T10:03:55.239Z</time></trkpt><trkpt lat="43.4562875" lon="11.3257394"><ele>479.8333333333333</ele><time>2026-04-18T10:04:04.23Z</time></trkpt><trkpt lat="43.4563106" lon="11.3256557"><ele>480.0</ele><time>2026-04-18T10:04:11.236Z</time></trkpt><trkpt lat="43.4563493" lon="11.3254371"><ele>483.28571428571433</ele><time>2026-04-18T10:04:36.228Z</time></trkpt><trkpt lat="43.4563693" lon="11.3253276"><ele>486.57142857142856</ele><time>2026-04-18T10:04:41.241Z</time></trkpt><trkpt lat="43.4563853" lon="11.3252432"><ele>489.8571428571429</ele><time>2026-04-18T10:04:46.235Z</time></trkpt><trkpt lat="43.4564108" lon="11.3251554"><ele>493.14285714285717</ele><time>2026-04-18T10:04:52.246Z</time></trkpt><trkpt lat="43.4564295" lon="11.3250587"><ele>496.42857142857144</ele><time>2026-04-18T10:04:59.238Z</time></trkpt><trkpt lat="43.4564387" lon="11.3249581"><ele>499.7142857142857</ele><time>2026-04-18T10:05:06.246Z</time></trkpt><trkpt lat="43.4564472" lon="11.3248496"><ele>503.0</ele><time>2026-04-18T10:05:16.243Z</time></trkpt><trkpt lat="43.4564626" lon="11.3247634"><ele>504.8571428571429</ele><time>2026-04-18T10:05:23.238Z</time></trkpt><trkpt lat="43.4564651" lon="11.3246643"><ele>506.7142857142858</ele><time>2026-04-18T10:05:34.237Z</time></trkpt><trkpt lat="43.4564746" lon="11.3245703"><ele>508.57142857142856</ele><time>2026-04-18T10:05:42.232Z</time></trkpt><trkpt lat="43.4564775" lon="11.3244676"><ele>510.42857142857144</ele><time>2026-04-18T10:05:52.245Z</time></trkpt><trkpt lat="43.4564902" lon="11.3243809"><ele>512.2857142857142</ele><time>2026-04-18T10:05:59.242Z</time></trkpt><trkpt lat="43.456501" lon="11.3242832"><ele>514.1428571428571</ele><time>2026-04-18T10:06:10.23Z</time></trkpt><trkpt lat="43.4565098" lon="11.3241882"><ele>516.0</ele><time>2026-04-18T10:06:19.245Z</time></trkpt><trkpt lat="43.4565178" lon="11.3240986"><ele>515.9999999999999</ele><time>2026-04-18T10:06:27.238Z</time></trkpt><trkpt lat="43.4565321" lon="11.3240065"><ele>516.0</ele><time>2026-04-18T10:06:36.235Z</time></trkpt><trkpt lat="43.4565336" lon="11.3239186"><ele>516.0</ele><time>2026-04-18T10:06:46.226Z</time></trkpt><trkpt lat="43.4565515" lon="11.3237918"><ele>516.0</ele><time>2026-04-18T10:06:57.238Z</time></trkpt><trkpt lat="43.4565639" lon="11.3237065"><ele>516.0</ele><time>2026-04-18T10:07:05.241Z</time></trkpt><trkpt lat="43.456577" lon="11.323621"><ele>515.9999999999999</ele><time>2026-04-18T10:07:12.234Z</time></trkpt><trkpt lat="43.4565906" lon="11.3235302"><ele>516.0</ele><time>2026-04-18T10:07:20.232Z</time></trkpt><trkpt lat="43.4566088" lon="11.3234214"><ele>517.5714285714286</ele><time>2026-04-18T10:07:30.235Z</time></trkpt><trkpt lat="43.4566259" lon="11.3233255"><ele>519.1428571428571</ele><time>2026-04-18T10:07:39.225Z</time></trkpt><trkpt lat="43.4566448" lon="11.3232305"><ele>520.7142857142858</ele><time>2026-04-18T10:07:48.24Z</time></trkpt><trkpt lat="43.4566574" lon="11.3231436"><ele>522.2857142857142</ele><time>2026-04-18T10:07:55.237Z</time></trkpt><trkpt lat="43.4566643" lon="11.3230459"><ele>523.8571428571429</ele><time>2026-04-18T10:08:03.247Z</time></trkpt><trkpt lat="43.4566766" lon="11.3229521"><ele>525.4285714285714</ele><time>2026-04-18T10:08:12.242Z</time></trkpt><trkpt lat="43.4566962" lon="11.322869"><ele>527.0</ele><time>2026-04-18T10:08:19.229Z</time></trkpt><trkpt lat="43.4567129" lon="11.3227744"><ele>527.7142857142858</ele><time>2026-04-18T10:08:26.233Z</time></trkpt><trkpt lat="43.4567159" lon="11.3226757"><ele>528.4285714285714</ele><time>2026-04-18T10:08:33.25Z</time></trkpt><trkpt lat="43.456735" lon="11.3225883"><ele>529.1428571428571</ele><time>2026-04-18T10:08:40.228Z</time></trkpt><trkpt lat="43.4567524" lon="11.3224942"><ele>529.8571428571429</ele><time>2026-04-18T10:08:47.23Z</time></trkpt><trkpt lat="43.4567691" lon="11.3224059"><ele>530.5714285714286</ele><time>2026-04-18T10:08:53.23Z</time></trkpt><trkpt lat="43.4567823" lon="11.3223097"><ele>531.2857142857143</ele><time>2026-04-18T10:09:00.239Z</time></trkpt><trkpt lat="43.45679" lon="11.3222198"><ele>532.0</ele><time>2026-04-18T10:09:06.247Z</time></trkpt><trkpt lat="43.4567956" lon="11.3221279"><ele>532.4285714285714</ele><time>2026-04-18T10:09:12.236Z</time></trkpt><trkpt lat="43.4568038" lon="11.3220334"><ele>532.8571428571429</ele><time>2026-04-18T10:09:18.227Z</time></trkpt><trkpt lat="43.4568315" lon="11.3219502"><ele>533.2857142857142</ele><time>2026-04-18T10:09:24.236Z</time></trkpt><trkpt lat="43.4568552" lon="11.3218563"><ele>533.7142857142858</ele><time>2026-04-18T10:09:29.228Z</time></trkpt><trkpt lat="43.4568894" lon="11.3217823"><ele>534.1428571428571</ele><time>2026-04-18T10:09:34.227Z</time></trkpt><trkpt lat="43.4569151" lon="11.3216968"><ele>534.5714285714286</ele><time>2026-04-18T10:09:39.232Z</time></trkpt><trkpt lat="43.4569433" lon="11.3215988"><ele>535.0</ele><time>2026-04-18T10:09:44.227Z</time></trkpt><trkpt lat="43.4569689" lon="11.3215186"><ele>535.0</ele><time>2026-04-18T10:09:48.249Z</time></trkpt><trkpt lat="43.4569964" lon="11.3214373"><ele>535.0</ele><time>2026-04-18T10:09:52.232Z</time></trkpt><trkpt lat="43.45701" lon="11.3213386"><ele>535.0</ele><time>2026-04-18T10:09:57.228Z</time></trkpt><trkpt lat="43.4570348" lon="11.3212397"><ele>535.0</ele><time>2026-04-18T10:10:02.244Z</time></trkpt><trkpt lat="43.4570475" lon="11.3211535"><ele>535.0</ele><time>2026-04-18T10:10:07.228Z</time></trkpt><trkpt lat="43.4570571" lon="11.3210451"><ele>535.0</ele><time>2026-04-18T10:10:13.247Z</time></trkpt><trkpt lat="43.4570612" lon="11.320952"><ele>535.0</ele><time>2026-04-18T10:10:18.209Z</time></trkpt><trkpt lat="43.4570584" lon="11.3208534"><ele>535.8571428571429</ele><time>2026-04-18T10:10:24.243Z</time></trkpt><trkpt lat="43.4570545" lon="11.3207545"><ele>536.7142857142858</ele><time>2026-04-18T10:10:31.233Z</time></trkpt><trkpt lat="43.4570424" lon="11.32066"><ele>537.5714285714287</ele><time>2026-04-18T10:10:36.231Z</time></trkpt><trkpt lat="43.4570448" lon="11.3205694"><ele>538.4285714285714</ele><time>2026-04-18T10:10:43.228Z</time></trkpt><trkpt lat="43.4570481" lon="11.3204746"><ele>539.2857142857143</ele><time>2026-04-18T10:10:50.237Z</time></trkpt><trkpt lat="43.4570408" lon="11.3203857"><ele>540.1428571428572</ele><time>2026-04-18T10:10:57.23Z</time></trkpt><trkpt lat="43.4570488" lon="11.3202893"><ele>541.0</ele><time>2026-04-18T10:11:04.248Z</time></trkpt><trkpt lat="43.4570285" lon="11.3201965"><ele>543.0000000000001</ele><time>2026-04-18T10:11:11.236Z</time></trkpt><trkpt lat="43.4570407" lon="11.3201045"><ele>545.0</ele><time>2026-04-18T10:11:17.238Z</time></trkpt><trkpt lat="43.4570461" lon="11.3200031"><ele>547.0</ele><time>2026-04-18T10:11:24.228Z</time></trkpt><trkpt lat="43.4570779" lon="11.3199229"><ele>549.0</ele><time>2026-04-18T10:11:30.221Z</time></trkpt><trkpt lat="43.4571525" lon="11.3198633"><ele>551.0</ele><time>2026-04-18T10:11:40.225Z</time></trkpt><trkpt lat="43.4571939" lon="11.3197856"><ele>553.0000000000001</ele><time>2026-04-18T10:11:42.307Z</time></trkpt><trkpt lat="43.4572463" lon="11.3197116"><ele>555.0</ele><time>2026-04-18T10:11:46.23Z</time></trkpt><trkpt lat="43.457294" lon="11.3196377"><ele>555.8333333333334</ele><time>2026-04-18T10:11:51.229Z</time></trkpt><trkpt lat="43.4573356" lon="11.3195476"><ele>556.6666666666666</ele><time>2026-04-18T10:11:56.23Z</time></trkpt><trkpt lat="43.4573656" lon="11.3194538"><ele>557.5</ele><time>2026-04-18T10:12:01.237Z</time></trkpt><trkpt lat="43.4573776" lon="11.3193384"><ele>558.3333333333333</ele><time>2026-04-18T10:12:07.3Z</time></trkpt><trkpt lat="43.457378" lon="11.3192375"><ele>559.1666666666666</ele><time>2026-04-18T10:12:10.23Z</time></trkpt><trkpt lat="43.4574066" lon="11.3191411"><ele>560.0</ele><time>2026-04-18T10:12:14.217Z</time></trkpt><trkpt lat="43.4574031" lon="11.3190459"><ele>560.0</ele><time>2026-04-18T10:12:18.31Z</time></trkpt><trkpt lat="43.457407" lon="11.318946"><ele>560.0</ele><time>2026-04-18T10:12:25.242Z</time></trkpt><trkpt lat="43.4574219" lon="11.3188555"><ele>560.0</ele><time>2026-04-18T10:12:28.245Z</time></trkpt><trkpt lat="43.4574101" lon="11.3187544"><ele>560.0</ele><time>2026-04-18T10:12:32.24Z</time></trkpt><trkpt lat="43.4574347" lon="11.318668"><ele>560.0</ele><time>2026-04-18T10:12:36.242Z</time></trkpt><trkpt lat="43.4574742" lon="11.3185803"><ele>560.0</ele><time>2026-04-18T10:12:40.234Z</time></trkpt><trkpt lat="43.4574782" lon="11.3184931"><ele>560.0</ele><time>2026-04-18T10:12:43.31Z</time></trkpt><trkpt lat="43.4574925" lon="11.318391"><ele>560.6666666666666</ele><time>2026-04-18T10:12:47.305Z</time></trkpt><trkpt lat="43.457541" lon="11.3183259"><ele>561.3333333333333</ele><time>2026-04-18T10:12:51.226Z</time></trkpt><trkpt lat="43.4575521" lon="11.3182199"><ele>562.0</ele><time>2026-04-18T10:12:57.297Z</time></trkpt><trkpt lat="43.4575788" lon="11.3181015"><ele>562.6666666666666</ele><time>2026-04-18T10:13:01.24Z</time></trkpt><trkpt lat="43.4576172" lon="11.3180138"><ele>563.3333333333334</ele><time>2026-04-18T10:13:03.234Z</time></trkpt><trkpt lat="43.4576526" lon="11.3179088"><ele>564.0</ele><time>2026-04-18T10:13:06.236Z</time></trkpt><trkpt lat="43.4577206" lon="11.3178708"><ele>564.6666666666666</ele><time>2026-04-18T10:13:09.216Z</time></trkpt><trkpt lat="43.4577724" lon="11.3178193"><ele>565.3333333333334</ele><time>2026-04-18T10:13:13.23Z</time></trkpt><trkpt lat="43.457785" lon="11.3176958"><ele>566.0</ele><time>2026-04-18T10:13:17.301Z</time></trkpt><trkpt lat="43.4578029" lon="11.3176045"><ele>566.6666666666667</ele><time>2026-04-18T10:13:21.24Z</time></trkpt><trkpt lat="43.4578527" lon="11.3175166"><ele>567.3333333333334</ele><time>2026-04-18T10:13:26.299Z</time></trkpt><trkpt lat="43.4579081" lon="11.317468"><ele>568.0</ele><time>2026-04-18T10:13:30.23Z</time></trkpt><trkpt lat="43.4580015" lon="11.3172871"><ele>566.6666666666667</ele><time>2026-04-18T10:13:34.224Z</time></trkpt><trkpt lat="43.4580447" lon="11.3171922"><ele>565.3333333333334</ele><time>2026-04-18T10:13:37.303Z</time></trkpt><trkpt lat="43.4580865" lon="11.3171024"><ele>564.0</ele><time>2026-04-18T10:13:39.235Z</time></trkpt><trkpt lat="43.458127" lon="11.3170331"><ele>562.6666666666666</ele><time>2026-04-18T10:13:41.24Z</time></trkpt><trkpt lat="43.4581583" lon="11.3169559"><ele>561.3333333333333</ele><time>2026-04-18T10:13:43.301Z</time></trkpt><trkpt lat="43.4582048" lon="11.3168629"><ele>560.0</ele><time>2026-04-18T10:13:45.23Z</time></trkpt><trkpt lat="43.4582558" lon="11.3167553"><ele>560.0</ele><time>2026-04-18T10:13:47.242Z</time></trkpt><trkpt lat="43.4583188" lon="11.3166501"><ele>560.0</ele><time>2026-04-18T10:13:49.23Z</time></trkpt><trkpt lat="43.4583919" lon="11.3165533"><ele>560.0</ele><time>2026-04-18T10:13:51.232Z</time></trkpt><trkpt lat="43.4584676" lon="11.3164654"><ele>560.0</ele><time>2026-04-18T10:13:53.246Z</time></trkpt><trkpt lat="43.4585365" lon="11.3163599"><ele>560.0</ele><time>2026-04-18T10:13:55.238Z</time></trkpt><trkpt lat="43.4585781" lon="11.3162369"><ele>560.2</ele><time>2026-04-18T10:13:57.307Z</time></trkpt><trkpt lat="43.4586082" lon="11.3160885"><ele>560.4</ele><time>2026-04-18T10:13:59.24Z</time></trkpt><trkpt lat="43.4586411" lon="11.315928"><ele>560.6</ele><time>2026-04-18T10:14:01.305Z</time></trkpt><trkpt lat="43.4586665" lon="11.3158446"><ele>560.8</ele><time>2026-04-18T10:14:02.236Z</time></trkpt><trkpt lat="43.4587165" lon="11.315659"><ele>561.0</ele><time>2026-04-18T10:14:04.236Z</time></trkpt><trkpt lat="43.458929" lon="11.3151618"><ele>560.5</ele><time>2026-04-18T10:14:08.304Z</time></trkpt><trkpt lat="43.4589428" lon="11.3150544"><ele>560.0</ele><time>2026-04-18T10:14:09.231Z</time></trkpt><trkpt lat="43.4589435" lon="11.314963"><ele>559.5</ele><time>2026-04-18T10:14:10.231Z</time></trkpt><trkpt lat="43.4589848" lon="11.3148807"><ele>559.0</ele><time>2026-04-18T10:14:11.234Z</time></trkpt><trkpt lat="43.4589979" lon="11.3147774"><ele>558.5</ele><time>2026-04-18T10:14:12.26Z</time></trkpt><trkpt lat="43.4590331" lon="11.3146105"><ele>558.0</ele><time>2026-04-18T10:14:14.232Z</time></trkpt><trkpt lat="43.459085" lon="11.3144982"><ele>557.0</ele><time>2026-04-18T10:14:16.224Z</time></trkpt><trkpt lat="43.4591428" lon="11.3144069"><ele>556.0</ele><time>2026-04-18T10:14:18.304Z</time></trkpt><trkpt lat="43.4591833" lon="11.3142972"><ele>555.0</ele><time>2026-04-18T10:14:20.233Z</time></trkpt><trkpt lat="43.4592135" lon="11.314176"><ele>554.0</ele><time>2026-04-18T10:14:22.222Z</time></trkpt><trkpt lat="43.4592544" lon="11.3140518"><ele>553.0</ele><time>2026-04-18T10:14:24.236Z</time></trkpt><trkpt lat="43.4592977" lon="11.3139397"><ele>552.0</ele><time>2026-04-18T10:14:26.24Z</time></trkpt><trkpt lat="43.4593472" lon="11.3138347"><ele>551.0</ele><time>2026-04-18T10:14:28.215Z</time></trkpt><trkpt lat="43.4594106" lon="11.3137407"><ele>550.0</ele><time>2026-04-18T10:14:30.232Z</time></trkpt><trkpt lat="43.4594865" lon="11.3136786"><ele>549.0</ele><time>2026-04-18T10:14:32.234Z</time></trkpt><trkpt lat="43.4595603" lon="11.3136228"><ele>548.0</ele><time>2026-04-18T10:14:34.225Z</time></trkpt><trkpt lat="43.459631" lon="11.3136036"><ele>547.0</ele><time>2026-04-18T10:14:36.232Z</time></trkpt><trkpt lat="43.4597393" lon="11.3135381"><ele>546.8000000000001</ele><time>2026-04-18T10:14:38.23Z</time></trkpt><trkpt lat="43.4598353" lon="11.3134398"><ele>546.6</ele><time>2026-04-18T10:14:40.248Z</time></trkpt><trkpt lat="43.4599226" lon="11.313315"><ele>546.4000000000001</ele><time>2026-04-18T10:14:42.287Z</time></trkpt><trkpt lat="43.4599929" lon="11.3131616"><ele>546.2</ele><time>2026-04-18T10:14:44.212Z</time></trkpt><trkpt lat="43.4600231" lon="11.3130781"><ele>546.0</ele><time>2026-04-18T10:14:45.243Z</time></trkpt><trkpt lat="43.4600492" lon="11.3129958"><ele>544.5</ele><time>2026-04-18T10:14:46.236Z</time></trkpt><trkpt lat="43.4600651" lon="11.3129095"><ele>543.0</ele><time>2026-04-18T10:14:47.235Z</time></trkpt><trkpt lat="43.4600811" lon="11.3127695"><ele>541.5</ele><time>2026-04-18T10:14:49.23Z</time></trkpt><trkpt lat="43.4600901" lon="11.3126763"><ele>540.0</ele><time>2026-04-18T10:14:50.232Z</time></trkpt><trkpt lat="43.4600906" lon="11.3125691"><ele>538.5</ele><time>2026-04-18T10:14:51.308Z</time></trkpt><trkpt lat="43.460074" lon="11.3124702"><ele>537.0</ele><time>2026-04-18T10:14:52.301Z</time></trkpt><trkpt lat="43.4600597" lon="11.3123699"><ele>537.0</ele><time>2026-04-18T10:14:53.238Z</time></trkpt><trkpt lat="43.4600346" lon="11.3122812"><ele>537.0</ele><time>2026-04-18T10:14:54.235Z</time></trkpt><trkpt lat="43.4600057" lon="11.3121935"><ele>537.0</ele><time>2026-04-18T10:14:55.241Z</time></trkpt><trkpt lat="43.4599752" lon="11.3121117"><ele>537.0</ele><time>2026-04-18T10:14:56.232Z</time></trkpt><trkpt lat="43.4599466" lon="11.3120276"><ele>537.0</ele><time>2026-04-18T10:14:57.306Z</time></trkpt><trkpt lat="43.4599193" lon="11.311937"><ele>537.0</ele><time>2026-04-18T10:14:58.301Z</time></trkpt><trkpt lat="43.459869" lon="11.3117765"><ele>537.0</ele><time>2026-04-18T10:15:00.234Z</time></trkpt><trkpt lat="43.4598201" lon="11.3117091"><ele>537.0</ele><time>2026-04-18T10:15:01.207Z</time></trkpt><trkpt lat="43.4597672" lon="11.311644"><ele>537.0</ele><time>2026-04-18T10:15:02.298Z</time></trkpt><trkpt lat="43.4596919" lon="11.311539"><ele>537.0</ele><time>2026-04-18T10:15:04.208Z</time></trkpt><trkpt lat="43.4595995" lon="11.3114703"><ele>537.0</ele><time>2026-04-18T10:15:06.238Z</time></trkpt><trkpt lat="43.4595158" lon="11.3114102"><ele>537.0</ele><time>2026-04-18T10:15:08.24Z</time></trkpt><trkpt lat="43.4594476" lon="11.3113703"><ele>537.0</ele><time>2026-04-18T10:15:10.231Z</time></trkpt><trkpt lat="43.4593801" lon="11.3113391"><ele>537.0</ele><time>2026-04-18T10:15:12.241Z</time></trkpt><trkpt lat="43.4593141" lon="11.3113176"><ele>537.0</ele><time>2026-04-18T10:15:14.231Z</time></trkpt><trkpt lat="43.4592267" lon="11.3112905"><ele>537.0</ele><time>2026-04-18T10:15:17.312Z</time></trkpt><trkpt lat="43.4591491" lon="11.3112585"><ele>537.0</ele><time>2026-04-18T10:15:20.213Z</time></trkpt><trkpt lat="43.459065" lon="11.3112226"><ele>537.0</ele><time>2026-04-18T10:15:24.241Z</time></trkpt><trkpt lat="43.4589988" lon="11.3112123"><ele>536.9999999999999</ele><time>2026-04-18T10:15:27.299Z</time></trkpt><trkpt lat="43.4589346" lon="11.3111685"><ele>537.0</ele><time>2026-04-18T10:15:31.208Z</time></trkpt><trkpt lat="43.4588788" lon="11.3111273"><ele>537.0</ele><time>2026-04-18T10:15:36.24Z</time></trkpt><trkpt lat="43.4588193" lon="11.3110682"><ele>537.0</ele><time>2026-04-18T10:15:40.232Z</time></trkpt><trkpt lat="43.4587605" lon="11.311004"><ele>537.0</ele><time>2026-04-18T10:15:45.235Z</time></trkpt><trkpt lat="43.4586901" lon="11.3109695"><ele>536.9999999999999</ele><time>2026-04-18T10:15:49.227Z</time></trkpt><trkpt lat="43.4586167" lon="11.3109262"><ele>537.0</ele><time>2026-04-18T10:15:54.244Z</time></trkpt><trkpt lat="43.4585569" lon="11.310885"><ele>537.3333333333334</ele><time>2026-04-18T10:15:58.228Z</time></trkpt><trkpt lat="43.458477" lon="11.3108518"><ele>537.6666666666666</ele><time>2026-04-18T10:16:03.302Z</time></trkpt><trkpt lat="43.4584116" lon="11.3107995"><ele>538.0</ele><time>2026-04-18T10:16:06.229Z</time></trkpt><trkpt lat="43.4583592" lon="11.3107284"><ele>538.3333333333333</ele><time>2026-04-18T10:16:12.3Z</time></trkpt><trkpt lat="43.4583056" lon="11.3106525"><ele>538.6666666666666</ele><time>2026-04-18T10:16:17.31Z</time></trkpt><trkpt lat="43.4582779" lon="11.3105678"><ele>539.0</ele><time>2026-04-18T10:16:22.294Z</time></trkpt><trkpt lat="43.4582392" lon="11.3104822"><ele>539.6666666666666</ele><time>2026-04-18T10:16:25.223Z</time></trkpt><trkpt lat="43.4581976" lon="11.3103994"><ele>540.3333333333333</ele><time>2026-04-18T10:16:29.235Z</time></trkpt><trkpt lat="43.4581471" lon="11.310313"><ele>541.0</ele><time>2026-04-18T10:16:33.228Z</time></trkpt><trkpt lat="43.4581071" lon="11.3102296"><ele>541.6666666666666</ele><time>2026-04-18T10:16:36.244Z</time></trkpt><trkpt lat="43.4580605" lon="11.3101406"><ele>542.3333333333334</ele><time>2026-04-18T10:16:39.242Z</time></trkpt><trkpt lat="43.4580052" lon="11.3100725"><ele>543.0</ele><time>2026-04-18T10:16:42.237Z</time></trkpt><trkpt lat="43.4579543" lon="11.3099901"><ele>542.8333333333334</ele><time>2026-04-18T10:16:45.227Z</time></trkpt><trkpt lat="43.4579091" lon="11.3099007"><ele>542.6666666666666</ele><time>2026-04-18T10:16:48.229Z</time></trkpt><trkpt lat="43.4578532" lon="11.3098036"><ele>542.5</ele><time>2026-04-18T10:16:51.237Z</time></trkpt><trkpt lat="43.4577989" lon="11.3097013"><ele>542.3333333333333</ele><time>2026-04-18T10:16:54.231Z</time></trkpt><trkpt lat="43.4577592" lon="11.30963"><ele>542.1666666666666</ele><time>2026-04-18T10:16:56.302Z</time></trkpt><trkpt lat="43.4577071" lon="11.3095045"><ele>542.0</ele><time>2026-04-18T10:17:01.217Z</time></trkpt><trkpt lat="43.4576802" lon="11.3094071"><ele>542.1666666666666</ele><time>2026-04-18T10:17:02.298Z</time></trkpt><trkpt lat="43.4577287" lon="11.3093233"><ele>542.3333333333333</ele><time>2026-04-18T10:17:04.196Z</time></trkpt><trkpt lat="43.4577453" lon="11.3091987"><ele>542.5</ele><time>2026-04-18T10:17:07.219Z</time></trkpt><trkpt lat="43.4577199" lon="11.3091186"><ele>542.6666666666666</ele><time>2026-04-18T10:17:09.216Z</time></trkpt><trkpt lat="43.4576929" lon="11.3090307"><ele>542.8333333333334</ele><time>2026-04-18T10:17:11.221Z</time></trkpt><trkpt lat="43.4576683" lon="11.3089269"><ele>543.0</ele><time>2026-04-18T10:17:13.222Z</time></trkpt><trkpt lat="43.4576325" lon="11.3087859"><ele>543.0</ele><time>2026-04-18T10:17:15.21Z</time></trkpt><trkpt lat="43.4576101" lon="11.3086967"><ele>543.0</ele><time>2026-04-18T10:17:16.19Z</time></trkpt><trkpt lat="43.4575712" lon="11.3085674"><ele>543.0</ele><time>2026-04-18T10:17:18.206Z</time></trkpt><trkpt lat="43.457516" lon="11.3084396"><ele>543.0</ele><time>2026-04-18T10:17:20.22Z</time></trkpt><trkpt lat="43.4574823" lon="11.3083483"><ele>543.0</ele><time>2026-04-18T10:17:21.213Z</time></trkpt><trkpt lat="43.4574621" lon="11.3082587"><ele>543.0</ele><time>2026-04-18T10:17:22.285Z</time></trkpt><trkpt lat="43.4574407" lon="11.3081709"><ele>543.1999999999999</ele><time>2026-04-18T10:17:23.216Z</time></trkpt><trkpt lat="43.4574134" lon="11.307998"><ele>543.4</ele><time>2026-04-18T10:17:25.221Z</time></trkpt><trkpt lat="43.4574023" lon="11.3079124"><ele>543.5999999999999</ele><time>2026-04-18T10:17:26.29Z</time></trkpt><trkpt lat="43.4574323" lon="11.3077812"><ele>543.8</ele><time>2026-04-18T10:17:28.284Z</time></trkpt><trkpt lat="43.4574414" lon="11.3076796"><ele>544.0</ele><time>2026-04-18T10:17:31.212Z</time></trkpt><trkpt lat="43.4574256" lon="11.3075649"><ele>543.9999999999999</ele><time>2026-04-18T10:17:34.201Z</time></trkpt><trkpt lat="43.4574394" lon="11.30747"><ele>544.0</ele><time>2026-04-18T10:17:37.289Z</time></trkpt><trkpt lat="43.4574556" lon="11.3073726"><ele>544.0</ele><time>2026-04-18T10:17:39.202Z</time></trkpt><trkpt lat="43.4574349" lon="11.3072647"><ele>544.0</ele><time>2026-04-18T10:17:44.204Z</time></trkpt><trkpt lat="43.4574183" lon="11.3071459"><ele>544.0</ele><time>2026-04-18T10:17:47.297Z</time></trkpt><trkpt lat="43.4574017" lon="11.3070616"><ele>543.9999999999999</ele><time>2026-04-18T10:17:48.229Z</time></trkpt><trkpt lat="43.4573982" lon="11.3069744"><ele>544.0</ele><time>2026-04-18T10:17:51.218Z</time></trkpt><trkpt lat="43.4574006" lon="11.306863"><ele>544.2857142857142</ele><time>2026-04-18T10:17:56.3Z</time></trkpt><trkpt lat="43.4574381" lon="11.3067805"><ele>544.5714285714286</ele><time>2026-04-18T10:17:58.218Z</time></trkpt><trkpt lat="43.4574311" lon="11.3066943"><ele>544.8571428571429</ele><time>2026-04-18T10:18:02.209Z</time></trkpt><trkpt lat="43.4574492" lon="11.3065663"><ele>545.1428571428571</ele><time>2026-04-18T10:18:05.224Z</time></trkpt><trkpt lat="43.45745" lon="11.3064776"><ele>545.4285714285714</ele><time>2026-04-18T10:18:07.289Z</time></trkpt><trkpt lat="43.4574055" lon="11.3064081"><ele>545.7142857142857</ele><time>2026-04-18T10:18:10.205Z</time></trkpt><trkpt lat="43.4573631" lon="11.3063198"><ele>546.0</ele><time>2026-04-18T10:18:14.227Z</time></trkpt><trkpt lat="43.457326" lon="11.3062271"><ele>546.0</ele><time>2026-04-18T10:18:19.223Z</time></trkpt><trkpt lat="43.4572604" lon="11.306125"><ele>546.0</ele><time>2026-04-18T10:18:23.209Z</time></trkpt><trkpt lat="43.4572407" lon="11.3060389"><ele>546.0</ele><time>2026-04-18T10:18:27.223Z</time></trkpt><trkpt lat="43.45727" lon="11.3059499"><ele>546.0</ele><time>2026-04-18T10:18:32.294Z</time></trkpt><trkpt lat="43.4573048" lon="11.3058468"><ele>546.0</ele><time>2026-04-18T10:18:34.198Z</time></trkpt><trkpt lat="43.4572998" lon="11.3056972"><ele>546.0</ele><time>2026-04-18T10:18:36.215Z</time></trkpt><trkpt lat="43.4572801" lon="11.3055823"><ele>545.5</ele><time>2026-04-18T10:18:38.222Z</time></trkpt><trkpt lat="43.4572596" lon="11.3054928"><ele>545.0</ele><time>2026-04-18T10:18:40.218Z</time></trkpt><trkpt lat="43.4572308" lon="11.3054043"><ele>544.5</ele><time>2026-04-18T10:18:42.294Z</time></trkpt><trkpt lat="43.4572348" lon="11.3052964"><ele>544.0</ele><time>2026-04-18T10:18:44.212Z</time></trkpt><trkpt lat="43.4571954" lon="11.3051682"><ele>543.5</ele><time>2026-04-18T10:18:53.292Z</time></trkpt><trkpt lat="43.4571814" lon="11.3050535"><ele>543.0</ele><time>2026-04-18T10:18:56.289Z</time></trkpt><trkpt lat="43.4571487" lon="11.3049604"><ele>543.0</ele><time>2026-04-18T10:18:59.207Z</time></trkpt><trkpt lat="43.4571651" lon="11.304861"><ele>543.0</ele><time>2026-04-18T10:19:02.281Z</time></trkpt><trkpt lat="43.4571678" lon="11.3047438"><ele>543.0</ele><time>2026-04-18T10:19:05.202Z</time></trkpt><trkpt lat="43.4571202" lon="11.3046661"><ele>543.0</ele><time>2026-04-18T10:19:07.301Z</time></trkpt><trkpt lat="43.4571182" lon="11.3045769"><ele>543.0</ele><time>2026-04-18T10:19:11.214Z</time></trkpt><trkpt lat="43.4570841" lon="11.304491"><ele>543.0</ele><time>2026-04-18T10:19:14.213Z</time></trkpt><trkpt lat="43.4570555" lon="11.3043907"><ele>543.0</ele><time>2026-04-18T10:19:18.287Z</time></trkpt><trkpt lat="43.4570318" lon="11.3042962"><ele>544.8571428571429</ele><time>2026-04-18T10:19:20.206Z</time></trkpt><trkpt lat="43.4569915" lon="11.304224"><ele>546.7142857142857</ele><time>2026-04-18T10:19:23.212Z</time></trkpt><trkpt lat="43.4569478" lon="11.3041387"><ele>548.5714285714286</ele><time>2026-04-18T10:19:27.222Z</time></trkpt><trkpt lat="43.4569019" lon="11.3040713"><ele>550.4285714285714</ele><time>2026-04-18T10:19:30.223Z</time></trkpt><trkpt lat="43.456848" lon="11.3040064"><ele>552.2857142857143</ele><time>2026-04-18T10:19:37.286Z</time></trkpt><trkpt lat="43.4567883" lon="11.3039571"><ele>554.1428571428571</ele><time>2026-04-18T10:19:41.212Z</time></trkpt><trkpt lat="43.4567207" lon="11.3039085"><ele>556.0</ele><time>2026-04-18T10:19:44.215Z</time></trkpt><trkpt lat="43.4566827" lon="11.3038345"><ele>556.1666666666667</ele><time>2026-04-18T10:19:47.306Z</time></trkpt><trkpt lat="43.4566294" lon="11.3037441"><ele>556.3333333333334</ele><time>2026-04-18T10:19:50.215Z</time></trkpt><trkpt lat="43.4565582" lon="11.3036592"><ele>556.5</ele><time>2026-04-18T10:19:52.298Z</time></trkpt><trkpt lat="43.4564962" lon="11.3035724"><ele>556.6666666666666</ele><time>2026-04-18T10:19:54.232Z</time></trkpt><trkpt lat="43.4564603" lon="11.3034999"><ele>556.8333333333333</ele><time>2026-04-18T10:19:59.231Z</time></trkpt><trkpt lat="43.4564209" lon="11.3034304"><ele>557.0</ele><time>2026-04-18T10:20:03.295Z</time></trkpt><trkpt lat="43.4563869" lon="11.3033556"><ele>557.0</ele><time>2026-04-18T10:20:07.217Z</time></trkpt><trkpt lat="43.4563443" lon="11.3032638"><ele>557.0</ele><time>2026-04-18T10:20:12.212Z</time></trkpt><trkpt lat="43.4563136" lon="11.303179"><ele>557.0</ele><time>2026-04-18T10:20:16.298Z</time></trkpt><trkpt lat="43.4562942" lon="11.3030921"><ele>557.0</ele><time>2026-04-18T10:20:20.216Z</time></trkpt><trkpt lat="43.4562718" lon="11.3029886"><ele>557.0</ele><time>2026-04-18T10:20:25.218Z</time></trkpt><trkpt lat="43.4562711" lon="11.3028912"><ele>557.0</ele><time>2026-04-18T10:20:28.281Z</time></trkpt><trkpt lat="43.4563131" lon="11.302814"><ele>557.0</ele><time>2026-04-18T10:20:32.294Z</time></trkpt><trkpt lat="43.4563515" lon="11.3027214"><ele>557.2857142857143</ele><time>2026-04-18T10:20:36.209Z</time></trkpt><trkpt lat="43.4563582" lon="11.3026325"><ele>557.5714285714286</ele><time>2026-04-18T10:20:40.209Z</time></trkpt><trkpt lat="43.456335" lon="11.3025466"><ele>557.8571428571429</ele><time>2026-04-18T10:20:43.216Z</time></trkpt><trkpt lat="43.4563009" lon="11.3024523"><ele>558.1428571428571</ele><time>2026-04-18T10:20:47.218Z</time></trkpt><trkpt lat="43.4562697" lon="11.302368"><ele>558.4285714285714</ele><time>2026-04-18T10:20:52.195Z</time></trkpt><trkpt lat="43.4562346" lon="11.3022881"><ele>558.7142857142858</ele><time>2026-04-18T10:20:56.217Z</time></trkpt><trkpt lat="43.4561871" lon="11.3022079"><ele>559.0</ele><time>2026-04-18T10:20:59.216Z</time></trkpt><trkpt lat="43.4561434" lon="11.3021214"><ele>559.8571428571429</ele><time>2026-04-18T10:21:02.212Z</time></trkpt><trkpt lat="43.4561199" lon="11.3020386"><ele>560.7142857142858</ele><time>2026-04-18T10:21:06.224Z</time></trkpt><trkpt lat="43.456067" lon="11.3019748"><ele>561.5714285714286</ele><time>2026-04-18T10:21:10.236Z</time></trkpt><trkpt lat="43.4560112" lon="11.3019115"><ele>562.4285714285714</ele><time>2026-04-18T10:21:13.299Z</time></trkpt><trkpt lat="43.4559884" lon="11.3018271"><ele>563.2857142857142</ele><time>2026-04-18T10:21:15.211Z</time></trkpt><trkpt lat="43.4559497" lon="11.3017359"><ele>564.1428571428571</ele><time>2026-04-18T10:21:18.285Z</time></trkpt><trkpt lat="43.4558993" lon="11.3016419"><ele>565.0</ele><time>2026-04-18T10:21:20.208Z</time></trkpt><trkpt lat="43.4558877" lon="11.3015329"><ele>565.0</ele><time>2026-04-18T10:21:23.352Z</time></trkpt><trkpt lat="43.4558342" lon="11.3014267"><ele>565.0</ele><time>2026-04-18T10:21:25.194Z</time></trkpt><trkpt lat="43.4557762" lon="11.3013125"><ele>565.0</ele><time>2026-04-18T10:21:27.209Z</time></trkpt><trkpt lat="43.4557288" lon="11.301179"><ele>565.0</ele><time>2026-04-18T10:21:29.205Z</time></trkpt><trkpt lat="43.4556907" lon="11.3010165"><ele>565.0</ele><time>2026-04-18T10:21:31.223Z</time></trkpt><trkpt lat="43.4556797" lon="11.3008466"><ele>565.0</ele><time>2026-04-18T10:21:33.22Z</time></trkpt><trkpt lat="43.4556703" lon="11.3007498"><ele>565.0</ele><time>2026-04-18T10:21:34.197Z</time></trkpt><trkpt lat="43.4556717" lon="11.3005858"><ele>565.0</ele><time>2026-04-18T10:21:36.215Z</time></trkpt><trkpt lat="43.4556783" lon="11.3004353"><ele>565.0</ele><time>2026-04-18T10:21:38.297Z</time></trkpt><trkpt lat="43.4556935" lon="11.3002657"><ele>565.0</ele><time>2026-04-18T10:21:40.227Z</time></trkpt><trkpt lat="43.4556901" lon="11.3001043"><ele>564.9999999999999</ele><time>2026-04-18T10:21:42.291Z</time></trkpt><trkpt lat="43.4556672" lon="11.3000122"><ele>565.0</ele><time>2026-04-18T10:21:44.205Z</time></trkpt><trkpt lat="43.4556403" lon="11.2999248"><ele>565.0</ele><time>2026-04-18T10:21:47.291Z</time></trkpt><trkpt lat="43.4556518" lon="11.299805"><ele>565.0</ele><time>2026-04-18T10:21:49.221Z</time></trkpt><trkpt lat="43.4556955" lon="11.2997349"><ele>565.0</ele><time>2026-04-18T10:21:51.213Z</time></trkpt><trkpt lat="43.4557605" lon="11.2997142"><ele>564.9999999999999</ele><time>2026-04-18T10:21:56.216Z</time></trkpt><trkpt lat="43.4558323" lon="11.2996727"><ele>565.0</ele><time>2026-04-18T10:22:00.216Z</time></trkpt><trkpt lat="43.4558998" lon="11.2996738"><ele>566.1666666666667</ele><time>2026-04-18T10:22:05.227Z</time></trkpt><trkpt lat="43.4559753" lon="11.2996361"><ele>567.3333333333334</ele><time>2026-04-18T10:22:12.218Z</time></trkpt><trkpt lat="43.4560364" lon="11.29958"><ele>568.5</ele><time>2026-04-18T10:22:16.218Z</time></trkpt><trkpt lat="43.4560852" lon="11.2995071"><ele>569.6666666666666</ele><time>2026-04-18T10:22:19.213Z</time></trkpt><trkpt lat="43.4561529" lon="11.2994854"><ele>570.8333333333333</ele><time>2026-04-18T10:22:23.3Z</time></trkpt><trkpt lat="43.4562291" lon="11.2994148"><ele>572.0</ele><time>2026-04-18T10:22:30.219Z</time></trkpt><trkpt lat="43.4562969" lon="11.2993857"><ele>571.9999999999999</ele><time>2026-04-18T10:22:32.284Z</time></trkpt><trkpt lat="43.456306" lon="11.299294"><ele>572.0</ele><time>2026-04-18T10:22:38.211Z</time></trkpt><trkpt lat="43.4563606" lon="11.2992059"><ele>572.0</ele><time>2026-04-18T10:22:44.209Z</time></trkpt><trkpt lat="43.4564183" lon="11.299146"><ele>572.0</ele><time>2026-04-18T10:22:51.221Z</time></trkpt><trkpt lat="43.4564266" lon="11.2990483"><ele>572.0</ele><time>2026-04-18T10:22:56.215Z</time></trkpt><trkpt lat="43.4564436" lon="11.2989429"><ele>571.9999999999999</ele><time>2026-04-18T10:23:07.297Z</time></trkpt><trkpt lat="43.4564602" lon="11.2988495"><ele>572.0</ele><time>2026-04-18T10:23:13.284Z</time></trkpt><trkpt lat="43.4564399" lon="11.298765"><ele>573.3333333333333</ele><time>2026-04-18T10:23:15.213Z</time></trkpt><trkpt lat="43.4564349" lon="11.298644"><ele>574.6666666666666</ele><time>2026-04-18T10:23:18.232Z</time></trkpt><trkpt lat="43.4564296" lon="11.2985386"><ele>576.0</ele><time>2026-04-18T10:23:21.208Z</time></trkpt><trkpt lat="43.4564249" lon="11.2984386"><ele>577.3333333333334</ele><time>2026-04-18T10:23:24.286Z</time></trkpt><trkpt lat="43.4564463" lon="11.2983426"><ele>578.6666666666667</ele><time>2026-04-18T10:23:33.283Z</time></trkpt><trkpt lat="43.4564882" lon="11.2982552"><ele>580.0</ele><time>2026-04-18T10:23:37.206Z</time></trkpt><trkpt lat="43.4565082" lon="11.2981469"><ele>579.8333333333334</ele><time>2026-04-18T10:23:40.211Z</time></trkpt><trkpt lat="43.4565195" lon="11.2980436"><ele>579.6666666666667</ele><time>2026-04-18T10:23:42.291Z</time></trkpt><trkpt lat="43.4565429" lon="11.2979255"><ele>579.5</ele><time>2026-04-18T10:23:44.224Z</time></trkpt><trkpt lat="43.4565563" lon="11.2978103"><ele>579.3333333333334</ele><time>2026-04-18T10:23:46.22Z</time></trkpt><trkpt lat="43.4565736" lon="11.2977045"><ele>579.1666666666666</ele><time>2026-04-18T10:23:48.294Z</time></trkpt><trkpt lat="43.456644" lon="11.2976057"><ele>579.0</ele><time>2026-04-18T10:23:50.217Z</time></trkpt><trkpt lat="43.456727" lon="11.2975383"><ele>579.0</ele><time>2026-04-18T10:23:52.289Z</time></trkpt><trkpt lat="43.456815" lon="11.2975029"><ele>579.0</ele><time>2026-04-18T10:23:55.223Z</time></trkpt><trkpt lat="43.4568731" lon="11.2974345"><ele>579.0</ele><time>2026-04-18T10:23:59.22Z</time></trkpt><trkpt lat="43.4569356" lon="11.2973929"><ele>579.0</ele><time>2026-04-18T10:24:01.302Z</time></trkpt><trkpt lat="43.4569593" lon="11.2972885"><ele>579.0</ele><time>2026-04-18T10:24:03.287Z</time></trkpt><trkpt lat="43.4569283" lon="11.2971226"><ele>579.0</ele><time>2026-04-18T10:24:05.209Z</time></trkpt><trkpt lat="43.4568842" lon="11.2970331"><ele>579.0</ele><time>2026-04-18T10:24:06.215Z</time></trkpt><trkpt lat="43.4568422" lon="11.2969626"><ele>579.0</ele><time>2026-04-18T10:24:07.208Z</time></trkpt><trkpt lat="43.4567483" lon="11.2968162"><ele>579.0</ele><time>2026-04-18T10:24:09.214Z</time></trkpt><trkpt lat="43.4567015" lon="11.2966724"><ele>579.0</ele><time>2026-04-18T10:24:11.218Z</time></trkpt><trkpt lat="43.4566844" lon="11.2965103"><ele>579.0</ele><time>2026-04-18T10:24:13.298Z</time></trkpt><trkpt lat="43.456708" lon="11.2963536"><ele>579.5</ele><time>2026-04-18T10:24:15.223Z</time></trkpt><trkpt lat="43.4567322" lon="11.296223"><ele>580.0</ele><time>2026-04-18T10:24:17.212Z</time></trkpt><trkpt lat="43.4567576" lon="11.2960994"><ele>580.5</ele><time>2026-04-18T10:24:19.224Z</time></trkpt><trkpt lat="43.456797" lon="11.2960186"><ele>581.0</ele><time>2026-04-18T10:24:21.225Z</time></trkpt><trkpt lat="43.4568502" lon="11.2959571"><ele>581.5</ele><time>2026-04-18T10:24:23.305Z</time></trkpt><trkpt lat="43.4569191" lon="11.2958982"><ele>582.0</ele><time>2026-04-18T10:24:25.22Z</time></trkpt><trkpt lat="43.456976" lon="11.2958256"><ele>582.0</ele><time>2026-04-18T10:24:28.287Z</time></trkpt><trkpt lat="43.4570388" lon="11.2957985"><ele>582.0</ele><time>2026-04-18T10:24:30.213Z</time></trkpt><trkpt lat="43.4570428" lon="11.2956946"><ele>582.0</ele><time>2026-04-18T10:24:34.198Z</time></trkpt><trkpt lat="43.4570677" lon="11.2956137"><ele>582.0</ele><time>2026-04-18T10:24:38.292Z</time></trkpt><trkpt lat="43.4571046" lon="11.2955261"><ele>582.0</ele><time>2026-04-18T10:24:42.215Z</time></trkpt><trkpt lat="43.4571166" lon="11.2954232"><ele>582.0</ele><time>2026-04-18T10:24:46.214Z</time></trkpt><trkpt lat="43.457174" lon="11.2953426"><ele>582.0</ele><time>2026-04-18T10:24:50.219Z</time></trkpt><trkpt lat="43.4571948" lon="11.2952551"><ele>583.0</ele><time>2026-04-18T10:24:54.208Z</time></trkpt><trkpt lat="43.4572214" lon="11.295161"><ele>584.0</ele><time>2026-04-18T10:24:59.222Z</time></trkpt><trkpt lat="43.4572209" lon="11.2950668"><ele>585.0</ele><time>2026-04-18T10:25:02.291Z</time></trkpt><trkpt lat="43.4572364" lon="11.2949708"><ele>586.0</ele><time>2026-04-18T10:25:06.222Z</time></trkpt><trkpt lat="43.4572373" lon="11.2948718"><ele>587.0</ele><time>2026-04-18T10:25:09.212Z</time></trkpt><trkpt lat="43.4572335" lon="11.2947585"><ele>588.0</ele><time>2026-04-18T10:25:14.222Z</time></trkpt><trkpt lat="43.4572608" lon="11.2946705"><ele>589.0</ele><time>2026-04-18T10:25:17.296Z</time></trkpt><trkpt lat="43.4572996" lon="11.2945838"><ele>589.6666666666667</ele><time>2026-04-18T10:25:20.219Z</time></trkpt><trkpt lat="43.4573399" lon="11.2944826"><ele>590.3333333333334</ele><time>2026-04-18T10:25:23.218Z</time></trkpt><trkpt lat="43.457373" lon="11.2943778"><ele>591.0</ele><time>2026-04-18T10:25:26.195Z</time></trkpt><trkpt lat="43.4574101" lon="11.2942743"><ele>591.6666666666666</ele><time>2026-04-18T10:25:28.221Z</time></trkpt><trkpt lat="43.4574394" lon="11.2941768"><ele>592.3333333333333</ele><time>2026-04-18T10:25:30.224Z</time></trkpt><trkpt lat="43.4574636" lon="11.2940834"><ele>593.0</ele><time>2026-04-18T10:25:32.22Z</time></trkpt><trkpt lat="43.4575186" lon="11.2939574"><ele>592.0</ele><time>2026-04-18T10:25:34.22Z</time></trkpt><trkpt lat="43.4575514" lon="11.2938593"><ele>591.0</ele><time>2026-04-18T10:25:36.211Z</time></trkpt><trkpt lat="43.4575814" lon="11.2937578"><ele>590.0</ele><time>2026-04-18T10:25:38.205Z</time></trkpt><trkpt lat="43.4576321" lon="11.2936321"><ele>589.0</ele><time>2026-04-18T10:25:40.214Z</time></trkpt><trkpt lat="43.4576634" lon="11.2935104"><ele>588.0</ele><time>2026-04-18T10:25:42.289Z</time></trkpt><trkpt lat="43.4576899" lon="11.2933906"><ele>587.0</ele><time>2026-04-18T10:25:44.2Z</time></trkpt><trkpt lat="43.4576819" lon="11.2932609"><ele>587.0</ele><time>2026-04-18T10:25:46.22Z</time></trkpt><trkpt lat="43.4576526" lon="11.2931808"><ele>587.0</ele><time>2026-04-18T10:25:47.296Z</time></trkpt><trkpt lat="43.4576227" lon="11.2931003"><ele>587.0</ele><time>2026-04-18T10:25:48.293Z</time></trkpt><trkpt lat="43.457583" lon="11.2929583"><ele>587.0</ele><time>2026-04-18T10:25:50.214Z</time></trkpt><trkpt lat="43.4575268" lon="11.2928288"><ele>587.0</ele><time>2026-04-18T10:25:52.295Z</time></trkpt><trkpt lat="43.4574791" lon="11.2927671"><ele>587.0</ele><time>2026-04-18T10:25:53.208Z</time></trkpt><trkpt lat="43.4574217" lon="11.2927122"><ele>586.2857142857143</ele><time>2026-04-18T10:25:54.294Z</time></trkpt><trkpt lat="43.457366" lon="11.2926571"><ele>585.5714285714287</ele><time>2026-04-18T10:25:55.221Z</time></trkpt><trkpt lat="43.457309" lon="11.2926179"><ele>584.8571428571429</ele><time>2026-04-18T10:25:56.198Z</time></trkpt><trkpt lat="43.457249" lon="11.2925776"><ele>584.1428571428571</ele><time>2026-04-18T10:25:57.282Z</time></trkpt><trkpt lat="43.457178" lon="11.292555"><ele>583.4285714285713</ele><time>2026-04-18T10:25:58.282Z</time></trkpt><trkpt lat="43.4570909" lon="11.292544"><ele>582.7142857142857</ele><time>2026-04-18T10:25:59.211Z</time></trkpt><trkpt lat="43.4570087" lon="11.2925382"><ele>582.0</ele><time>2026-04-18T10:26:00.218Z</time></trkpt><trkpt lat="43.4569353" lon="11.2925431"><ele>581.0</ele><time>2026-04-18T10:26:01.208Z</time></trkpt><trkpt lat="43.4568562" lon="11.2925501"><ele>580.0</ele><time>2026-04-18T10:26:02.292Z</time></trkpt><trkpt lat="43.4567906" lon="11.2925575"><ele>579.0</ele><time>2026-04-18T10:26:03.288Z</time></trkpt><trkpt lat="43.4566945" lon="11.2925388"><ele>578.0</ele><time>2026-04-18T10:26:05.211Z</time></trkpt><trkpt lat="43.4566253" lon="11.2924619"><ele>577.0</ele><time>2026-04-18T10:26:07.201Z</time></trkpt><trkpt lat="43.4566779" lon="11.2923809"><ele>576.0</ele><time>2026-04-18T10:26:11.218Z</time></trkpt><trkpt lat="43.4567287" lon="11.2923024"><ele>576.0000000000001</ele><time>2026-04-18T10:26:34.203Z</time></trkpt><trkpt lat="43.4567742" lon="11.2923631"><ele>576.0</ele><time>2026-04-18T10:26:38.284Z</time></trkpt><trkpt lat="43.4568586" lon="11.292359"><ele>576.0</ele><time>2026-04-18T10:26:40.222Z</time></trkpt><trkpt lat="43.4569158" lon="11.2923121"><ele>576.0</ele><time>2026-04-18T10:26:43.306Z</time></trkpt><trkpt lat="43.4569816" lon="11.2922802"><ele>576.0</ele><time>2026-04-18T10:26:49.225Z</time></trkpt><trkpt lat="43.4570516" lon="11.292275"><ele>576.0000000000001</ele><time>2026-04-18T10:26:52.225Z</time></trkpt><trkpt lat="43.4571363" lon="11.2922724"><ele>576.0</ele><time>2026-04-18T10:26:55.224Z</time></trkpt><trkpt lat="43.457235" lon="11.2922641"><ele>572.5</ele><time>2026-04-18T10:26:58.294Z</time></trkpt><trkpt lat="43.4573458" lon="11.2922486"><ele>569.0</ele><time>2026-04-18T10:27:00.213Z</time></trkpt><trkpt lat="43.457452" lon="11.2922424"><ele>565.5</ele><time>2026-04-18T10:27:02.226Z</time></trkpt><trkpt lat="43.4575653" lon="11.2922313"><ele>562.0</ele><time>2026-04-18T10:27:04.22Z</time></trkpt><trkpt lat="43.4576824" lon="11.2922078"><ele>562.0000000000001</ele><time>2026-04-18T10:27:06.217Z</time></trkpt><trkpt lat="43.4577502" lon="11.2921929"><ele>562.0</ele><time>2026-04-18T10:27:07.21Z</time></trkpt><trkpt lat="43.4578187" lon="11.2921783"><ele>562.0</ele><time>2026-04-18T10:27:08.283Z</time></trkpt><trkpt lat="43.4578882" lon="11.2921665"><ele>562.0</ele><time>2026-04-18T10:27:09.214Z</time></trkpt><trkpt lat="43.4579604" lon="11.2921533"><ele>562.0</ele><time>2026-04-18T10:27:10.229Z</time></trkpt><trkpt lat="43.4580324" lon="11.2921363"><ele>562.0000000000001</ele><time>2026-04-18T10:27:11.222Z</time></trkpt><trkpt lat="43.4580997" lon="11.2921171"><ele>562.0</ele><time>2026-04-18T10:27:12.286Z</time></trkpt><trkpt lat="43.4581704" lon="11.2920975"><ele>562.2</ele><time>2026-04-18T10:27:13.299Z</time></trkpt><trkpt lat="43.45824" lon="11.2920769"><ele>562.4000000000001</ele><time>2026-04-18T10:27:14.203Z</time></trkpt><trkpt lat="43.4583064" lon="11.2920544"><ele>562.5999999999999</ele><time>2026-04-18T10:27:15.217Z</time></trkpt><trkpt lat="43.4584164" lon="11.2920183"><ele>562.8</ele><time>2026-04-18T10:27:17.288Z</time></trkpt><trkpt lat="43.4585079" lon="11.2919664"><ele>563.0</ele><time>2026-04-18T10:27:19.271Z</time></trkpt><trkpt lat="43.4586101" lon="11.2919294"><ele>563.0</ele><time>2026-04-18T10:27:21.205Z</time></trkpt><trkpt lat="43.4587311" lon="11.2918777"><ele>563.0</ele><time>2026-04-18T10:27:23.292Z</time></trkpt><trkpt lat="43.4588007" lon="11.2918549"><ele>563.0</ele><time>2026-04-18T10:27:24.212Z</time></trkpt><trkpt lat="43.4588676" lon="11.2918482"><ele>563.0</ele><time>2026-04-18T10:27:25.201Z</time></trkpt><trkpt lat="43.4589976" lon="11.2918148"><ele>563.0</ele><time>2026-04-18T10:27:27.301Z</time></trkpt><trkpt lat="43.4591362" lon="11.2917319"><ele>564.0</ele><time>2026-04-18T10:27:29.194Z</time></trkpt><trkpt lat="43.4592145" lon="11.2916777"><ele>565.0</ele><time>2026-04-18T10:27:30.206Z</time></trkpt><trkpt lat="43.4592807" lon="11.2916287"><ele>566.0</ele><time>2026-04-18T10:27:31.215Z</time></trkpt><trkpt lat="43.4593574" lon="11.2915763"><ele>567.0</ele><time>2026-04-18T10:27:32.217Z</time></trkpt><trkpt lat="43.4594396" lon="11.2915224"><ele>568.0</ele><time>2026-04-18T10:27:33.218Z</time></trkpt><trkpt lat="43.4595195" lon="11.2914811"><ele>569.0</ele><time>2026-04-18T10:27:34.206Z</time></trkpt><trkpt lat="43.4595956" lon="11.2914422"><ele>567.5</ele><time>2026-04-18T10:27:35.225Z</time></trkpt><trkpt lat="43.4596757" lon="11.2913984"><ele>566.0</ele><time>2026-04-18T10:27:36.22Z</time></trkpt><trkpt lat="43.4597541" lon="11.2913575"><ele>564.5</ele><time>2026-04-18T10:27:37.297Z</time></trkpt><trkpt lat="43.4598231" lon="11.2913338"><ele>563.0</ele><time>2026-04-18T10:27:38.205Z</time></trkpt><trkpt lat="43.4598877" lon="11.2913208"><ele>561.5</ele><time>2026-04-18T10:27:39.208Z</time></trkpt><trkpt lat="43.4600018" lon="11.2912551"><ele>560.0</ele><time>2026-04-18T10:27:41.235Z</time></trkpt><trkpt lat="43.4601077" lon="11.2911669"><ele>560.0</ele><time>2026-04-18T10:27:43.293Z</time></trkpt><trkpt lat="43.4602109" lon="11.2911048"><ele>560.0</ele><time>2026-04-18T10:27:45.206Z</time></trkpt><trkpt lat="43.4603028" lon="11.2910572"><ele>560.0</ele><time>2026-04-18T10:27:47.213Z</time></trkpt><trkpt lat="43.4603566" lon="11.2910065"><ele>560.0</ele><time>2026-04-18T10:27:48.29Z</time></trkpt><trkpt lat="43.4604764" lon="11.2909569"><ele>560.0</ele><time>2026-04-18T10:27:50.205Z</time></trkpt><trkpt lat="43.4605638" lon="11.2909137"><ele>561.6</ele><time>2026-04-18T10:27:52.286Z</time></trkpt><trkpt lat="43.4606402" lon="11.2908784"><ele>563.2</ele><time>2026-04-18T10:27:54.198Z</time></trkpt><trkpt lat="43.4607319" lon="11.2908455"><ele>564.8</ele><time>2026-04-18T10:27:56.224Z</time></trkpt><trkpt lat="43.4608113" lon="11.2907945"><ele>566.4</ele><time>2026-04-18T10:27:58.3Z</time></trkpt><trkpt lat="43.4608972" lon="11.2907256"><ele>568.0</ele><time>2026-04-18T10:28:00.218Z</time></trkpt><trkpt lat="43.4609741" lon="11.2906621"><ele>568.0</ele><time>2026-04-18T10:28:03.294Z</time></trkpt><trkpt lat="43.4610384" lon="11.2906242"><ele>568.0</ele><time>2026-04-18T10:28:05.208Z</time></trkpt><trkpt lat="43.4611071" lon="11.2906123"><ele>568.0</ele><time>2026-04-18T10:28:07.214Z</time></trkpt><trkpt lat="43.4611679" lon="11.2905833"><ele>568.0</ele><time>2026-04-18T10:28:09.214Z</time></trkpt><trkpt lat="43.4612653" lon="11.2905226"><ele>568.0</ele><time>2026-04-18T10:28:11.21Z</time></trkpt><trkpt lat="43.4613549" lon="11.2904832"><ele>568.0</ele><time>2026-04-18T10:28:13.284Z</time></trkpt><trkpt lat="43.4614584" lon="11.2904491"><ele>566.8333333333334</ele><time>2026-04-18T10:28:15.219Z</time></trkpt><trkpt lat="43.4615732" lon="11.290398"><ele>565.6666666666667</ele><time>2026-04-18T10:28:17.219Z</time></trkpt><trkpt lat="43.4616329" lon="11.2903662"><ele>564.5</ele><time>2026-04-18T10:28:18.216Z</time></trkpt><trkpt lat="43.4616956" lon="11.2903396"><ele>563.3333333333334</ele><time>2026-04-18T10:28:19.213Z</time></trkpt><trkpt lat="43.4617614" lon="11.2903184"><ele>562.1666666666666</ele><time>2026-04-18T10:28:20.212Z</time></trkpt><trkpt lat="43.4618263" lon="11.290289"><ele>561.0</ele><time>2026-04-18T10:28:21.222Z</time></trkpt><trkpt lat="43.4618912" lon="11.2902592"><ele>561.0</ele><time>2026-04-18T10:28:22.216Z</time></trkpt><trkpt lat="43.4619578" lon="11.2902319"><ele>561.0</ele><time>2026-04-18T10:28:23.269Z</time></trkpt><trkpt lat="43.4620273" lon="11.2902094"><ele>561.0</ele><time>2026-04-18T10:28:24.217Z</time></trkpt><trkpt lat="43.4620932" lon="11.2901915"><ele>561.0</ele><time>2026-04-18T10:28:25.204Z</time></trkpt><trkpt lat="43.4621611" lon="11.290175"><ele>561.0</ele><time>2026-04-18T10:28:26.225Z</time></trkpt><trkpt lat="43.4622229" lon="11.2901582"><ele>561.0</ele><time>2026-04-18T10:28:27.204Z</time></trkpt><trkpt lat="43.4623379" lon="11.2901335"><ele>561.2</ele><time>2026-04-18T10:28:29.209Z</time></trkpt><trkpt lat="43.4624497" lon="11.290121"><ele>561.4000000000001</ele><time>2026-04-18T10:28:31.201Z</time></trkpt><trkpt lat="43.4625536" lon="11.2901036"><ele>561.6</ele><time>2026-04-18T10:28:33.225Z</time></trkpt><trkpt lat="43.462643" lon="11.2900809"><ele>561.8000000000001</ele><time>2026-04-18T10:28:35.215Z</time></trkpt><trkpt lat="43.4627282" lon="11.2900545"><ele>562.0</ele><time>2026-04-18T10:28:37.304Z</time></trkpt><trkpt lat="43.4628218" lon="11.2900515"><ele>562.0</ele><time>2026-04-18T10:28:39.196Z</time></trkpt><trkpt lat="43.4629211" lon="11.2900256"><ele>562.0</ele><time>2026-04-18T10:28:41.293Z</time></trkpt><trkpt lat="43.4630361" lon="11.289971"><ele>562.0</ele><time>2026-04-18T10:28:43.289Z</time></trkpt><trkpt lat="43.4631818" lon="11.29001"><ele>562.0</ele><time>2026-04-18T10:28:45.214Z</time></trkpt><trkpt lat="43.4632871" lon="11.2900558"><ele>562.5</ele><time>2026-04-18T10:28:46.213Z</time></trkpt><trkpt lat="43.4634194" lon="11.2901105"><ele>563.0</ele><time>2026-04-18T10:28:47.3Z</time></trkpt><trkpt lat="43.4635591" lon="11.2901584"><ele>563.5</ele><time>2026-04-18T10:28:48.29Z</time></trkpt><trkpt lat="43.463658" lon="11.2901344"><ele>564.0</ele><time>2026-04-18T10:28:49.229Z</time></trkpt><trkpt lat="43.4637282" lon="11.2900885"><ele>564.0</ele><time>2026-04-18T10:28:50.217Z</time></trkpt><trkpt lat="43.4637446" lon="11.2900035"><ele>564.0</ele><time>2026-04-18T10:28:51.217Z</time></trkpt><trkpt lat="43.4637186" lon="11.2899158"><ele>564.0</ele><time>2026-04-18T10:28:52.287Z</time></trkpt><trkpt lat="43.4636528" lon="11.2898513"><ele>564.0</ele><time>2026-04-18T10:28:55.207Z</time></trkpt><trkpt lat="43.4637115" lon="11.2897804"><ele>564.0</ele><time>2026-04-18T10:28:58.207Z</time></trkpt><trkpt lat="43.4637897" lon="11.2897366"><ele>564.0</ele><time>2026-04-18T10:29:00.205Z</time></trkpt><trkpt lat="43.4638833" lon="11.2897083"><ele>563.5</ele><time>2026-04-18T10:29:02.291Z</time></trkpt><trkpt lat="43.4639705" lon="11.289676"><ele>563.0</ele><time>2026-04-18T10:29:04.202Z</time></trkpt><trkpt lat="43.4640496" lon="11.2896466"><ele>562.5</ele><time>2026-04-18T10:29:06.205Z</time></trkpt><trkpt lat="43.4641286" lon="11.2896233"><ele>562.0</ele><time>2026-04-18T10:29:08.283Z</time></trkpt><trkpt lat="43.4642298" lon="11.2895894"><ele>561.5</ele><time>2026-04-18T10:29:10.218Z</time></trkpt><trkpt lat="43.4642934" lon="11.2895344"><ele>561.0</ele><time>2026-04-18T10:29:13.288Z</time></trkpt><trkpt lat="43.4643669" lon="11.2895615"><ele>561.0</ele><time>2026-04-18T10:29:16.216Z</time></trkpt><trkpt lat="43.4643839" lon="11.2894501"><ele>561.0</ele><time>2026-04-18T10:29:27.221Z</time></trkpt><trkpt lat="43.4643442" lon="11.2893207"><ele>561.0</ele><time>2026-04-18T10:29:29.218Z</time></trkpt><trkpt lat="43.4643225" lon="11.2891938"><ele>561.0</ele><time>2026-04-18T10:29:31.202Z</time></trkpt><trkpt lat="43.4642922" lon="11.2890857"><ele>561.0</ele><time>2026-04-18T10:29:33.225Z</time></trkpt><trkpt lat="43.4642524" lon="11.288983"><ele>561.0</ele><time>2026-04-18T10:29:35.222Z</time></trkpt><trkpt lat="43.4642064" lon="11.2888605"><ele>560.8</ele><time>2026-04-18T10:29:37.3Z</time></trkpt><trkpt lat="43.464143" lon="11.2886799"><ele>560.6</ele><time>2026-04-18T10:29:40.206Z</time></trkpt><trkpt lat="43.4641009" lon="11.2885795"><ele>560.4</ele><time>2026-04-18T10:29:42.216Z</time></trkpt><trkpt lat="43.464049" lon="11.2885153"><ele>560.2</ele><time>2026-04-18T10:29:44.221Z</time></trkpt><trkpt lat="43.4639833" lon="11.2884567"><ele>560.0</ele><time>2026-04-18T10:29:46.222Z</time></trkpt><trkpt lat="43.4639134" lon="11.2884139"><ele>560.0</ele><time>2026-04-18T10:29:48.208Z</time></trkpt><trkpt lat="43.4638258" lon="11.2883832"><ele>560.0</ele><time>2026-04-18T10:29:51.219Z</time></trkpt><trkpt lat="43.4637142" lon="11.2883049"><ele>560.0</ele><time>2026-04-18T10:29:53.291Z</time></trkpt><trkpt lat="43.4636057" lon="11.2882284"><ele>560.0</ele><time>2026-04-18T10:29:55.201Z</time></trkpt><trkpt lat="43.4635081" lon="11.2881655"><ele>560.0</ele><time>2026-04-18T10:29:57.223Z</time></trkpt><trkpt lat="43.4634096" lon="11.2881206"><ele>557.1666666666666</ele><time>2026-04-18T10:29:59.204Z</time></trkpt><trkpt lat="43.4632978" lon="11.2880528"><ele>554.3333333333333</ele><time>2026-04-18T10:30:01.223Z</time></trkpt><trkpt lat="43.4632331" lon="11.2880175"><ele>551.5</ele><time>2026-04-18T10:30:02.281Z</time></trkpt><trkpt lat="43.463138" lon="11.287947"><ele>548.6666666666666</ele><time>2026-04-18T10:30:04.284Z</time></trkpt><trkpt lat="43.46307" lon="11.287943"><ele>545.8333333333334</ele><time>2026-04-18T10:30:05.2Z</time></trkpt><trkpt lat="43.4630025" lon="11.2879318"><ele>543.0</ele><time>2026-04-18T10:30:06.213Z</time></trkpt><trkpt lat="43.4629212" lon="11.2879047"><ele>542.8</ele><time>2026-04-18T10:30:07.298Z</time></trkpt><trkpt lat="43.4628538" lon="11.2878859"><ele>542.5999999999999</ele><time>2026-04-18T10:30:08.207Z</time></trkpt><trkpt lat="43.4627296" lon="11.2878897"><ele>542.4000000000001</ele><time>2026-04-18T10:30:10.22Z</time></trkpt><trkpt lat="43.4626072" lon="11.287927"><ele>542.2</ele><time>2026-04-18T10:30:12.21Z</time></trkpt><trkpt lat="43.4625386" lon="11.2879504"><ele>542.0</ele><time>2026-04-18T10:30:13.221Z</time></trkpt><trkpt lat="43.4624741" lon="11.2879842"><ele>542.0</ele><time>2026-04-18T10:30:14.281Z</time></trkpt><trkpt lat="43.4623981" lon="11.2880174"><ele>542.0</ele><time>2026-04-18T10:30:15.203Z</time></trkpt><trkpt lat="43.4623064" lon="11.2880559"><ele>542.0</ele><time>2026-04-18T10:30:16.217Z</time></trkpt><trkpt lat="43.4622274" lon="11.2880905"><ele>542.0</ele><time>2026-04-18T10:30:17.192Z</time></trkpt><trkpt lat="43.4621525" lon="11.2881228"><ele>542.0</ele><time>2026-04-18T10:30:18.213Z</time></trkpt><trkpt lat="43.4620766" lon="11.2881584"><ele>542.0</ele><time>2026-04-18T10:30:19.202Z</time></trkpt><trkpt lat="43.4619983" lon="11.288193"><ele>542.3333333333333</ele><time>2026-04-18T10:30:20.209Z</time></trkpt><trkpt lat="43.4619202" lon="11.2882399"><ele>542.6666666666666</ele><time>2026-04-18T10:30:21.223Z</time></trkpt><trkpt lat="43.4618393" lon="11.2882859"><ele>543.0</ele><time>2026-04-18T10:30:22.292Z</time></trkpt><trkpt lat="43.4617607" lon="11.2883328"><ele>543.3333333333334</ele><time>2026-04-18T10:30:23.292Z</time></trkpt><trkpt lat="43.461682" lon="11.2883744"><ele>543.6666666666667</ele><time>2026-04-18T10:30:24.23Z</time></trkpt><trkpt lat="43.4616028" lon="11.2884209"><ele>544.0</ele><time>2026-04-18T10:30:25.241Z</time></trkpt><trkpt lat="43.4615248" lon="11.2884648"><ele>544.0</ele><time>2026-04-18T10:30:26.206Z</time></trkpt><trkpt lat="43.4614453" lon="11.2885111"><ele>544.0</ele><time>2026-04-18T10:30:27.226Z</time></trkpt><trkpt lat="43.4613663" lon="11.2885577"><ele>544.0</ele><time>2026-04-18T10:30:28.228Z</time></trkpt><trkpt lat="43.4612869" lon="11.2886019"><ele>544.0</ele><time>2026-04-18T10:30:29.218Z</time></trkpt><trkpt lat="43.4612069" lon="11.2886469"><ele>544.0</ele><time>2026-04-18T10:30:30.209Z</time></trkpt><trkpt lat="43.4611256" lon="11.2886899"><ele>544.0</ele><time>2026-04-18T10:30:31.231Z</time></trkpt><trkpt lat="43.4610486" lon="11.2887333"><ele>543.5</ele><time>2026-04-18T10:30:32.205Z</time></trkpt><trkpt lat="43.460971" lon="11.2887796"><ele>543.0</ele><time>2026-04-18T10:30:33.29Z</time></trkpt><trkpt lat="43.4608969" lon="11.2888151"><ele>542.5</ele><time>2026-04-18T10:30:34.223Z</time></trkpt><trkpt lat="43.4608176" lon="11.2888543"><ele>542.0</ele><time>2026-04-18T10:30:35.206Z</time></trkpt><trkpt lat="43.4607346" lon="11.2888985"><ele>541.5</ele><time>2026-04-18T10:30:36.227Z</time></trkpt><trkpt lat="43.4606603" lon="11.2889533"><ele>541.0</ele><time>2026-04-18T10:30:37.295Z</time></trkpt><trkpt lat="43.460583" lon="11.2889989"><ele>541.0</ele><time>2026-04-18T10:30:38.294Z</time></trkpt><trkpt lat="43.4605117" lon="11.289054"><ele>541.0</ele><time>2026-04-18T10:30:39.208Z</time></trkpt><trkpt lat="43.4604324" lon="11.2891017"><ele>541.0</ele><time>2026-04-18T10:30:40.202Z</time></trkpt><trkpt lat="43.4603575" lon="11.2891459"><ele>541.0</ele><time>2026-04-18T10:30:41.216Z</time></trkpt><trkpt lat="43.4602851" lon="11.2891813"><ele>541.0</ele><time>2026-04-18T10:30:42.31Z</time></trkpt><trkpt lat="43.4602194" lon="11.2892187"><ele>541.0</ele><time>2026-04-18T10:30:43.283Z</time></trkpt><trkpt lat="43.4601521" lon="11.2892675"><ele>539.1666666666667</ele><time>2026-04-18T10:30:44.201Z</time></trkpt><trkpt lat="43.4600796" lon="11.2893115"><ele>537.3333333333334</ele><time>2026-04-18T10:30:45.221Z</time></trkpt><trkpt lat="43.4600051" lon="11.2893611"><ele>535.5</ele><time>2026-04-18T10:30:46.213Z</time></trkpt><trkpt lat="43.4599184" lon="11.2894013"><ele>533.6666666666666</ele><time>2026-04-18T10:30:47.306Z</time></trkpt><trkpt lat="43.45984" lon="11.2894375"><ele>531.8333333333333</ele><time>2026-04-18T10:30:48.291Z</time></trkpt><trkpt lat="43.4597617" lon="11.2894784"><ele>530.0</ele><time>2026-04-18T10:30:49.209Z</time></trkpt><trkpt lat="43.4596814" lon="11.2895193"><ele>531.0</ele><time>2026-04-18T10:30:50.216Z</time></trkpt><trkpt lat="43.4596023" lon="11.289553"><ele>532.0</ele><time>2026-04-18T10:30:51.209Z</time></trkpt><trkpt lat="43.4595255" lon="11.2895949"><ele>533.0</ele><time>2026-04-18T10:30:52.287Z</time></trkpt><trkpt lat="43.4594534" lon="11.2896463"><ele>534.0</ele><time>2026-04-18T10:30:53.296Z</time></trkpt><trkpt lat="43.4593688" lon="11.2896973"><ele>535.0</ele><time>2026-04-18T10:30:54.229Z</time></trkpt><trkpt lat="43.4592833" lon="11.2897372"><ele>536.0</ele><time>2026-04-18T10:30:55.223Z</time></trkpt><trkpt lat="43.4592047" lon="11.2897678"><ele>536.0</ele><time>2026-04-18T10:30:56.225Z</time></trkpt><trkpt lat="43.459125" lon="11.2897992"><ele>536.0</ele><time>2026-04-18T10:30:57.227Z</time></trkpt><trkpt lat="43.4590409" lon="11.2898264"><ele>536.0</ele><time>2026-04-18T10:30:58.213Z</time></trkpt><trkpt lat="43.458956" lon="11.2898633"><ele>536.0</ele><time>2026-04-18T10:30:59.227Z</time></trkpt><trkpt lat="43.4588768" lon="11.2899064"><ele>536.0</ele><time>2026-04-18T10:31:00.222Z</time></trkpt><trkpt lat="43.4587976" lon="11.2899412"><ele>536.0</ele><time>2026-04-18T10:31:01.221Z</time></trkpt><trkpt lat="43.4587173" lon="11.289974"><ele>535.5</ele><time>2026-04-18T10:31:02.285Z</time></trkpt><trkpt lat="43.4586447" lon="11.2900046"><ele>535.0</ele><time>2026-04-18T10:31:03.197Z</time></trkpt><trkpt lat="43.4585676" lon="11.2900342"><ele>534.5</ele><time>2026-04-18T10:31:04.211Z</time></trkpt><trkpt lat="43.458479" lon="11.2900534"><ele>534.0</ele><time>2026-04-18T10:31:05.213Z</time></trkpt><trkpt lat="43.4583856" lon="11.2900677"><ele>533.5</ele><time>2026-04-18T10:31:06.214Z</time></trkpt><trkpt lat="43.4582859" lon="11.2900759"><ele>533.0</ele><time>2026-04-18T10:31:07.212Z</time></trkpt><trkpt lat="43.4581889" lon="11.2900823"><ele>533.0</ele><time>2026-04-18T10:31:08.282Z</time></trkpt><trkpt lat="43.4580981" lon="11.2900851"><ele>533.0</ele><time>2026-04-18T10:31:09.191Z</time></trkpt><trkpt lat="43.4580057" lon="11.2900784"><ele>533.0</ele><time>2026-04-18T10:31:10.213Z</time></trkpt><trkpt lat="43.4579126" lon="11.2900682"><ele>533.0</ele><time>2026-04-18T10:31:11.222Z</time></trkpt><trkpt lat="43.4578221" lon="11.2900572"><ele>533.0</ele><time>2026-04-18T10:31:12.209Z</time></trkpt><trkpt lat="43.4577282" lon="11.2900379"><ele>532.6666666666666</ele><time>2026-04-18T10:31:13.213Z</time></trkpt><trkpt lat="43.4576376" lon="11.2900121"><ele>532.3333333333333</ele><time>2026-04-18T10:31:14.21Z</time></trkpt><trkpt lat="43.4575493" lon="11.2899845"><ele>532.0</ele><time>2026-04-18T10:31:15.21Z</time></trkpt><trkpt lat="43.4574611" lon="11.2899485"><ele>531.6666666666666</ele><time>2026-04-18T10:31:16.199Z</time></trkpt><trkpt lat="43.4573752" lon="11.2899154"><ele>531.3333333333334</ele><time>2026-04-18T10:31:17.282Z</time></trkpt><trkpt lat="43.4572997" lon="11.2898711"><ele>531.0</ele><time>2026-04-18T10:31:18.285Z</time></trkpt><trkpt lat="43.457221" lon="11.2898261"><ele>531.0</ele><time>2026-04-18T10:31:19.216Z</time></trkpt><trkpt lat="43.45714" lon="11.2897756"><ele>531.0</ele><time>2026-04-18T10:31:20.215Z</time></trkpt><trkpt lat="43.4570627" lon="11.2897114"><ele>531.0</ele><time>2026-04-18T10:31:21.209Z</time></trkpt><trkpt lat="43.4569898" lon="11.2896606"><ele>531.0</ele><time>2026-04-18T10:31:22.301Z</time></trkpt><trkpt lat="43.4569189" lon="11.2896079"><ele>531.0</ele><time>2026-04-18T10:31:23.3Z</time></trkpt><trkpt lat="43.4568512" lon="11.2895492"><ele>531.0</ele><time>2026-04-18T10:31:24.233Z</time></trkpt><trkpt lat="43.456781" lon="11.2894887"><ele>530.3333333333334</ele><time>2026-04-18T10:31:25.226Z</time></trkpt><trkpt lat="43.4567216" lon="11.2894045"><ele>529.6666666666666</ele><time>2026-04-18T10:31:26.214Z</time></trkpt><trkpt lat="43.4566594" lon="11.2893359"><ele>529.0</ele><time>2026-04-18T10:31:27.283Z</time></trkpt><trkpt lat="43.4565988" lon="11.2892659"><ele>528.3333333333333</ele><time>2026-04-18T10:31:28.284Z</time></trkpt><trkpt lat="43.45653" lon="11.2891901"><ele>527.6666666666666</ele><time>2026-04-18T10:31:29.231Z</time></trkpt><trkpt lat="43.4564518" lon="11.2890982"><ele>527.0</ele><time>2026-04-18T10:31:30.217Z</time></trkpt><trkpt lat="43.4563708" lon="11.2890071"><ele>525.6666666666666</ele><time>2026-04-18T10:31:31.215Z</time></trkpt><trkpt lat="43.4562916" lon="11.2889195"><ele>524.3333333333333</ele><time>2026-04-18T10:31:32.286Z</time></trkpt><trkpt lat="43.4562246" lon="11.2888636"><ele>523.0</ele><time>2026-04-18T10:31:33.231Z</time></trkpt><trkpt lat="43.4561561" lon="11.2888093"><ele>521.6666666666666</ele><time>2026-04-18T10:31:34.283Z</time></trkpt><trkpt lat="43.4560913" lon="11.2887427"><ele>520.3333333333334</ele><time>2026-04-18T10:31:35.222Z</time></trkpt><trkpt lat="43.4560185" lon="11.2886608"><ele>519.0</ele><time>2026-04-18T10:31:36.219Z</time></trkpt><trkpt lat="43.4559464" lon="11.2885801"><ele>519.0</ele><time>2026-04-18T10:31:37.297Z</time></trkpt><trkpt lat="43.4558696" lon="11.2885265"><ele>519.0</ele><time>2026-04-18T10:31:38.294Z</time></trkpt><trkpt lat="43.4556897" lon="11.2884491"><ele>519.0</ele><time>2026-04-18T10:31:40.21Z</time></trkpt><trkpt lat="43.4555938" lon="11.2883817"><ele>519.0</ele><time>2026-04-18T10:31:41.208Z</time></trkpt><trkpt lat="43.4554934" lon="11.2883137"><ele>519.6</ele><time>2026-04-18T10:31:42.203Z</time></trkpt><trkpt lat="43.455392" lon="11.2882689"><ele>520.2</ele><time>2026-04-18T10:31:43.205Z</time></trkpt><trkpt lat="43.4552997" lon="11.2882172"><ele>520.8000000000001</ele><time>2026-04-18T10:31:44.226Z</time></trkpt><trkpt lat="43.4551919" lon="11.2881777"><ele>521.4</ele><time>2026-04-18T10:31:45.196Z</time></trkpt><trkpt lat="43.4550889" lon="11.2881448"><ele>522.0</ele><time>2026-04-18T10:31:46.22Z</time></trkpt><trkpt lat="43.4549923" lon="11.2881024"><ele>519.8000000000001</ele><time>2026-04-18T10:31:47.208Z</time></trkpt><trkpt lat="43.4548935" lon="11.2880613"><ele>517.6</ele><time>2026-04-18T10:31:48.281Z</time></trkpt><trkpt lat="43.4548043" lon="11.2880257"><ele>515.4000000000001</ele><time>2026-04-18T10:31:49.221Z</time></trkpt><trkpt lat="43.4547186" lon="11.2879808"><ele>513.2</ele><time>2026-04-18T10:31:50.206Z</time></trkpt><trkpt lat="43.4546162" lon="11.2879177"><ele>511.0</ele><time>2026-04-18T10:31:51.217Z</time></trkpt><trkpt lat="43.4545002" lon="11.2878652"><ele>511.0</ele><time>2026-04-18T10:31:52.198Z</time></trkpt><trkpt lat="43.4544085" lon="11.2878166"><ele>511.0</ele><time>2026-04-18T10:31:53.208Z</time></trkpt><trkpt lat="43.454317" lon="11.2877878"><ele>511.0</ele><time>2026-04-18T10:31:54.193Z</time></trkpt><trkpt lat="43.4542214" lon="11.287752"><ele>511.0</ele><time>2026-04-18T10:31:55.198Z</time></trkpt><trkpt lat="43.454108" lon="11.2877052"><ele>511.0</ele><time>2026-04-18T10:31:56.212Z</time></trkpt><trkpt lat="43.4539997" lon="11.2876544"><ele>511.0</ele><time>2026-04-18T10:31:57.199Z</time></trkpt><trkpt lat="43.4538964" lon="11.2876038"><ele>511.0</ele><time>2026-04-18T10:31:58.192Z</time></trkpt><trkpt lat="43.453799" lon="11.2875568"><ele>511.0</ele><time>2026-04-18T10:31:59.202Z</time></trkpt><trkpt lat="43.453726" lon="11.2875125"><ele>511.0</ele><time>2026-04-18T10:32:00.19Z</time></trkpt><trkpt lat="43.4536515" lon="11.2874266"><ele>511.0</ele><time>2026-04-18T10:32:01.194Z</time></trkpt><trkpt lat="43.4535762" lon="11.2873011"><ele>510.25</ele><time>2026-04-18T10:32:02.287Z</time></trkpt><trkpt lat="43.4535136" lon="11.2871426"><ele>509.5</ele><time>2026-04-18T10:32:03.216Z</time></trkpt><trkpt lat="43.4534581" lon="11.2869899"><ele>508.75</ele><time>2026-04-18T10:32:04.216Z</time></trkpt><trkpt lat="43.4534315" lon="11.2868331"><ele>508.0</ele><time>2026-04-18T10:32:05.211Z</time></trkpt><trkpt lat="43.4533961" lon="11.2866674"><ele>508.0</ele><time>2026-04-18T10:32:06.241Z</time></trkpt><trkpt lat="43.4533611" lon="11.2865267"><ele>508.0</ele><time>2026-04-18T10:32:07.197Z</time></trkpt><trkpt lat="43.4533216" lon="11.2863768"><ele>508.0</ele><time>2026-04-18T10:32:08.202Z</time></trkpt><trkpt lat="43.4532834" lon="11.2862182"><ele>508.0</ele><time>2026-04-18T10:32:09.202Z</time></trkpt><trkpt lat="43.4532541" lon="11.2860756"><ele>507.0</ele><time>2026-04-18T10:32:10.205Z</time></trkpt><trkpt lat="43.4532326" lon="11.2859413"><ele>506.0</ele><time>2026-04-18T10:32:11.209Z</time></trkpt><trkpt lat="43.4531927" lon="11.2858048"><ele>505.0</ele><time>2026-04-18T10:32:12.212Z</time></trkpt><trkpt lat="43.4531394" lon="11.2856747"><ele>504.0</ele><time>2026-04-18T10:32:13.198Z</time></trkpt><trkpt lat="43.452909" lon="11.2853012"><ele>502.5</ele><time>2026-04-18T10:32:16.23Z</time></trkpt><trkpt lat="43.4528084" lon="11.285209"><ele>501.0</ele><time>2026-04-18T10:32:17.211Z</time></trkpt><trkpt lat="43.452703" lon="11.285135"><ele>499.5</ele><time>2026-04-18T10:32:18.201Z</time></trkpt><trkpt lat="43.4525962" lon="11.2850749"><ele>498.0</ele><time>2026-04-18T10:32:19.242Z</time></trkpt><trkpt lat="43.4524871" lon="11.2850111"><ele>498.0</ele><time>2026-04-18T10:32:20.205Z</time></trkpt><trkpt lat="43.4522812" lon="11.2848872"><ele>498.0</ele><time>2026-04-18T10:32:22.23Z</time></trkpt><trkpt lat="43.452184" lon="11.2848294"><ele>498.0</ele><time>2026-04-18T10:32:23.246Z</time></trkpt><trkpt lat="43.452086" lon="11.2847748"><ele>498.0</ele><time>2026-04-18T10:32:24.235Z</time></trkpt><trkpt lat="43.4519819" lon="11.2847108"><ele>496.2</ele><time>2026-04-18T10:32:25.206Z</time></trkpt><trkpt lat="43.4518871" lon="11.2846551"><ele>494.4</ele><time>2026-04-18T10:32:26.208Z</time></trkpt><trkpt lat="43.4517922" lon="11.2845923"><ele>492.59999999999997</ele><time>2026-04-18T10:32:27.208Z</time></trkpt><trkpt lat="43.4516937" lon="11.2845389"><ele>490.79999999999995</ele><time>2026-04-18T10:32:28.199Z</time></trkpt><trkpt lat="43.4515994" lon="11.2844864"><ele>489.0</ele><time>2026-04-18T10:32:29.208Z</time></trkpt><trkpt lat="43.4515233" lon="11.2844371"><ele>489.0</ele><time>2026-04-18T10:32:30.207Z</time></trkpt><trkpt lat="43.451451" lon="11.2843936"><ele>489.0</ele><time>2026-04-18T10:32:31.202Z</time></trkpt><trkpt lat="43.4513866" lon="11.2843541"><ele>489.0</ele><time>2026-04-18T10:32:32.217Z</time></trkpt><trkpt lat="43.4513242" lon="11.2843178"><ele>489.0</ele><time>2026-04-18T10:32:33.206Z</time></trkpt><trkpt lat="43.4512202" lon="11.2842765"><ele>489.0</ele><time>2026-04-18T10:32:35.204Z</time></trkpt><trkpt lat="43.4511336" lon="11.2842083"><ele>489.0</ele><time>2026-04-18T10:32:37.21Z</time></trkpt><trkpt lat="43.4510775" lon="11.284168"><ele>489.0</ele><time>2026-04-18T10:32:38.223Z</time></trkpt><trkpt lat="43.4510161" lon="11.2841211"><ele>489.00000000000006</ele><time>2026-04-18T10:32:39.227Z</time></trkpt><trkpt lat="43.4509581" lon="11.2840721"><ele>489.0</ele><time>2026-04-18T10:32:40.199Z</time></trkpt><trkpt lat="43.4509016" lon="11.2840258"><ele>489.0</ele><time>2026-04-18T10:32:41.199Z</time></trkpt><trkpt lat="43.4508407" lon="11.2839887"><ele>489.00000000000006</ele><time>2026-04-18T10:32:42.213Z</time></trkpt><trkpt lat="43.4507804" lon="11.2839594"><ele>489.0</ele><time>2026-04-18T10:32:43.194Z</time></trkpt><trkpt lat="43.4507152" lon="11.2839129"><ele>489.0</ele><time>2026-04-18T10:32:44.227Z</time></trkpt><trkpt lat="43.4506588" lon="11.2838711"><ele>487.5</ele><time>2026-04-18T10:32:45.202Z</time></trkpt><trkpt lat="43.4505973" lon="11.2838284"><ele>486.0</ele><time>2026-04-18T10:32:46.206Z</time></trkpt><trkpt lat="43.45053" lon="11.2837906"><ele>484.5</ele><time>2026-04-18T10:32:47.196Z</time></trkpt><trkpt lat="43.4504637" lon="11.2837414"><ele>483.0</ele><time>2026-04-18T10:32:48.2Z</time></trkpt><trkpt lat="43.4503957" lon="11.2836823"><ele>481.5</ele><time>2026-04-18T10:32:49.216Z</time></trkpt><trkpt lat="43.4503253" lon="11.283623"><ele>480.0</ele><time>2026-04-18T10:32:50.199Z</time></trkpt><trkpt lat="43.4502568" lon="11.2835541"><ele>480.0</ele><time>2026-04-18T10:32:51.215Z</time></trkpt><trkpt lat="43.4501945" lon="11.2834834"><ele>480.0</ele><time>2026-04-18T10:32:52.202Z</time></trkpt><trkpt lat="43.4501345" lon="11.2834042"><ele>480.0</ele><time>2026-04-18T10:32:53.204Z</time></trkpt><trkpt lat="43.4500731" lon="11.2833185"><ele>480.0</ele><time>2026-04-18T10:32:54.221Z</time></trkpt><trkpt lat="43.4500134" lon="11.2832161"><ele>480.0</ele><time>2026-04-18T10:32:55.208Z</time></trkpt><trkpt lat="43.4499556" lon="11.283112"><ele>480.0</ele><time>2026-04-18T10:32:56.215Z</time></trkpt><trkpt lat="43.4498991" lon="11.2830038"><ele>478.3333333333333</ele><time>2026-04-18T10:32:57.217Z</time></trkpt><trkpt lat="43.4498462" lon="11.2828926"><ele>476.66666666666663</ele><time>2026-04-18T10:32:58.2Z</time></trkpt><trkpt lat="43.4498006" lon="11.2827864"><ele>475.0</ele><time>2026-04-18T10:32:59.195Z</time></trkpt><trkpt lat="43.4497595" lon="11.2826816"><ele>473.3333333333333</ele><time>2026-04-18T10:33:00.201Z</time></trkpt><trkpt lat="43.4497229" lon="11.282574"><ele>471.66666666666663</ele><time>2026-04-18T10:33:01.207Z</time></trkpt><trkpt lat="43.4496851" lon="11.2824734"><ele>470.0</ele><time>2026-04-18T10:33:02.189Z</time></trkpt><trkpt lat="43.4496448" lon="11.282378"><ele>470.16666666666663</ele><time>2026-04-18T10:33:03.221Z</time></trkpt><trkpt lat="43.4496096" lon="11.2822796"><ele>470.3333333333333</ele><time>2026-04-18T10:33:04.215Z</time></trkpt><trkpt lat="43.4495745" lon="11.2821843"><ele>470.5</ele><time>2026-04-18T10:33:05.196Z</time></trkpt><trkpt lat="43.4495365" lon="11.2820787"><ele>470.66666666666663</ele><time>2026-04-18T10:33:06.206Z</time></trkpt><trkpt lat="43.449496" lon="11.281973"><ele>470.8333333333333</ele><time>2026-04-18T10:33:07.222Z</time></trkpt><trkpt lat="43.4494491" lon="11.2818642"><ele>471.0</ele><time>2026-04-18T10:33:08.226Z</time></trkpt><trkpt lat="43.4493967" lon="11.2817566"><ele>471.0</ele><time>2026-04-18T10:33:09.2Z</time></trkpt><trkpt lat="43.4493315" lon="11.2816419"><ele>471.0</ele><time>2026-04-18T10:33:10.195Z</time></trkpt><trkpt lat="43.4492669" lon="11.2815365"><ele>471.0</ele><time>2026-04-18T10:33:11.207Z</time></trkpt><trkpt lat="43.4491924" lon="11.2814413"><ele>471.0</ele><time>2026-04-18T10:33:12.211Z</time></trkpt><trkpt lat="43.4491111" lon="11.2813639"><ele>471.0</ele><time>2026-04-18T10:33:13.224Z</time></trkpt><trkpt lat="43.4490228" lon="11.2812944"><ele>468.4</ele><time>2026-04-18T10:33:14.2Z</time></trkpt><trkpt lat="43.4489264" lon="11.2812264"><ele>465.8</ele><time>2026-04-18T10:33:15.192Z</time></trkpt><trkpt lat="43.4488313" lon="11.2811652"><ele>463.19999999999993</ele><time>2026-04-18T10:33:16.208Z</time></trkpt><trkpt lat="43.4487363" lon="11.2811037"><ele>460.59999999999997</ele><time>2026-04-18T10:33:17.197Z</time></trkpt><trkpt lat="43.4486438" lon="11.2810341"><ele>458.0</ele><time>2026-04-18T10:33:18.23Z</time></trkpt><trkpt lat="43.4485504" lon="11.280963"><ele>458.0</ele><time>2026-04-18T10:33:19.207Z</time></trkpt><trkpt lat="43.4484603" lon="11.2808873"><ele>457.99999999999994</ele><time>2026-04-18T10:33:20.2Z</time></trkpt><trkpt lat="43.4483757" lon="11.280805"><ele>457.99999999999994</ele><time>2026-04-18T10:33:21.21Z</time></trkpt><trkpt lat="43.4482985" lon="11.2807077"><ele>458.0</ele><time>2026-04-18T10:33:22.205Z</time></trkpt><trkpt lat="43.4482317" lon="11.2805978"><ele>458.0</ele><time>2026-04-18T10:33:23.198Z</time></trkpt><trkpt lat="43.4481731" lon="11.2804844"><ele>455.59999999999997</ele><time>2026-04-18T10:33:24.203Z</time></trkpt><trkpt lat="43.4481231" lon="11.2803649"><ele>453.19999999999993</ele><time>2026-04-18T10:33:25.208Z</time></trkpt><trkpt lat="43.448086" lon="11.2802398"><ele>450.8</ele><time>2026-04-18T10:33:26.208Z</time></trkpt><trkpt lat="43.4480608" lon="11.2801108"><ele>448.4</ele><time>2026-04-18T10:33:27.203Z</time></trkpt><trkpt lat="43.4480371" lon="11.2799813"><ele>446.0</ele><time>2026-04-18T10:33:28.211Z</time></trkpt><trkpt lat="43.4480158" lon="11.2798534"><ele>444.4</ele><time>2026-04-18T10:33:29.199Z</time></trkpt><trkpt lat="43.4479936" lon="11.2797201"><ele>442.8</ele><time>2026-04-18T10:33:30.202Z</time></trkpt><trkpt lat="43.4479705" lon="11.2795846"><ele>441.19999999999993</ele><time>2026-04-18T10:33:31.215Z</time></trkpt><trkpt lat="43.4479445" lon="11.2794497"><ele>439.59999999999997</ele><time>2026-04-18T10:33:32.211Z</time></trkpt><trkpt lat="43.4479157" lon="11.2793129"><ele>438.0</ele><time>2026-04-18T10:33:33.22Z</time></trkpt><trkpt lat="43.4478787" lon="11.2791762"><ele>438.0</ele><time>2026-04-18T10:33:34.197Z</time></trkpt><trkpt lat="43.4478285" lon="11.2790324"><ele>438.0</ele><time>2026-04-18T10:33:35.216Z</time></trkpt><trkpt lat="43.4477767" lon="11.2788986"><ele>438.0</ele><time>2026-04-18T10:33:36.202Z</time></trkpt><trkpt lat="43.4477128" lon="11.2787719"><ele>438.0</ele><time>2026-04-18T10:33:37.22Z</time></trkpt><trkpt lat="43.4476384" lon="11.2786566"><ele>438.5</ele><time>2026-04-18T10:33:38.215Z</time></trkpt><trkpt lat="43.4475583" lon="11.2785441"><ele>439.0</ele><time>2026-04-18T10:33:39.227Z</time></trkpt><trkpt lat="43.4474726" lon="11.2784287"><ele>439.5</ele><time>2026-04-18T10:33:40.219Z</time></trkpt><trkpt lat="43.4473872" lon="11.2783098"><ele>440.0</ele><time>2026-04-18T10:33:41.21Z</time></trkpt><trkpt lat="43.4473073" lon="11.2781944"><ele>439.0</ele><time>2026-04-18T10:33:42.214Z</time></trkpt><trkpt lat="43.4472216" lon="11.2780728"><ele>438.0</ele><time>2026-04-18T10:33:43.212Z</time></trkpt><trkpt lat="43.4471219" lon="11.277944"><ele>437.0</ele><time>2026-04-18T10:33:44.196Z</time></trkpt><trkpt lat="43.4470174" lon="11.2778134"><ele>436.0</ele><time>2026-04-18T10:33:45.215Z</time></trkpt><trkpt lat="43.4469188" lon="11.2776827"><ele>433.75</ele><time>2026-04-18T10:33:46.219Z</time></trkpt><trkpt lat="43.4468225" lon="11.2775546"><ele>431.5</ele><time>2026-04-18T10:33:47.2Z</time></trkpt><trkpt lat="43.4467268" lon="11.2774297"><ele>429.25</ele><time>2026-04-18T10:33:48.238Z</time></trkpt><trkpt lat="43.4466271" lon="11.2773025"><ele>427.0</ele><time>2026-04-18T10:33:49.214Z</time></trkpt><trkpt lat="43.4465325" lon="11.2771636"><ele>426.5</ele><time>2026-04-18T10:33:50.206Z</time></trkpt><trkpt lat="43.4464416" lon="11.2770173"><ele>426.0</ele><time>2026-04-18T10:33:51.209Z</time></trkpt><trkpt lat="43.4463622" lon="11.2768611"><ele>425.5</ele><time>2026-04-18T10:33:52.204Z</time></trkpt><trkpt lat="43.4462947" lon="11.2766931"><ele>425.0</ele><time>2026-04-18T10:33:53.198Z</time></trkpt><trkpt lat="43.446238" lon="11.2765063"><ele>422.5</ele><time>2026-04-18T10:33:54.211Z</time></trkpt><trkpt lat="43.4461883" lon="11.2763144"><ele>420.0</ele><time>2026-04-18T10:33:55.214Z</time></trkpt><trkpt lat="43.4461361" lon="11.2761207"><ele>417.5</ele><time>2026-04-18T10:33:56.211Z</time></trkpt><trkpt lat="43.4460839" lon="11.2759267"><ele>415.0</ele><time>2026-04-18T10:33:57.203Z</time></trkpt><trkpt lat="43.4460324" lon="11.2757306"><ele>414.0</ele><time>2026-04-18T10:33:58.198Z</time></trkpt><trkpt lat="43.4459811" lon="11.275532"><ele>413.0</ele><time>2026-04-18T10:33:59.238Z</time></trkpt><trkpt lat="43.4459323" lon="11.2753374"><ele>412.0</ele><time>2026-04-18T10:34:00.227Z</time></trkpt><trkpt lat="43.4458785" lon="11.2751389"><ele>412.0</ele><time>2026-04-18T10:34:01.211Z</time></trkpt><trkpt lat="43.4458218" lon="11.274945"><ele>412.0</ele><time>2026-04-18T10:34:02.207Z</time></trkpt><trkpt lat="43.4457622" lon="11.2747616"><ele>412.0</ele><time>2026-04-18T10:34:03.207Z</time></trkpt><trkpt lat="43.4456977" lon="11.2745876"><ele>412.0</ele><time>2026-04-18T10:34:04.219Z</time></trkpt><trkpt lat="43.4456225" lon="11.2744278"><ele>411.75</ele><time>2026-04-18T10:34:05.207Z</time></trkpt><trkpt lat="43.4455357" lon="11.2742811"><ele>411.5</ele><time>2026-04-18T10:34:06.211Z</time></trkpt><trkpt lat="43.4454402" lon="11.2741533"><ele>411.25</ele><time>2026-04-18T10:34:07.229Z</time></trkpt><trkpt lat="43.4453314" lon="11.2740375"><ele>411.0</ele><time>2026-04-18T10:34:08.222Z</time></trkpt><trkpt lat="43.4452208" lon="11.2739317"><ele>412.75</ele><time>2026-04-18T10:34:09.203Z</time></trkpt><trkpt lat="43.4451017" lon="11.2738276"><ele>414.5</ele><time>2026-04-18T10:34:10.196Z</time></trkpt><trkpt lat="43.4449803" lon="11.2737397"><ele>416.25</ele><time>2026-04-18T10:34:11.204Z</time></trkpt><trkpt lat="43.4448608" lon="11.2736637"><ele>418.0</ele><time>2026-04-18T10:34:12.217Z</time></trkpt><trkpt lat="43.4447484" lon="11.273593"><ele>418.0</ele><time>2026-04-18T10:34:13.204Z</time></trkpt><trkpt lat="43.4446394" lon="11.2735228"><ele>418.0</ele><time>2026-04-18T10:34:14.224Z</time></trkpt><trkpt lat="43.4445325" lon="11.2734536"><ele>418.0</ele><time>2026-04-18T10:34:15.206Z</time></trkpt><trkpt lat="43.4444255" lon="11.2733818"><ele>418.0</ele><time>2026-04-18T10:34:16.215Z</time></trkpt><trkpt lat="43.4443191" lon="11.2733086"><ele>418.5</ele><time>2026-04-18T10:34:17.21Z</time></trkpt><trkpt lat="43.4442099" lon="11.2732333"><ele>419.0</ele><time>2026-04-18T10:34:18.205Z</time></trkpt><trkpt lat="43.4441085" lon="11.2731502"><ele>419.5</ele><time>2026-04-18T10:34:19.213Z</time></trkpt><trkpt lat="43.4440219" lon="11.2730463"><ele>420.0</ele><time>2026-04-18T10:34:20.21Z</time></trkpt><trkpt lat="43.4439439" lon="11.2729397"><ele>420.0</ele><time>2026-04-18T10:34:21.205Z</time></trkpt><trkpt lat="43.4438741" lon="11.2728321"><ele>420.0</ele><time>2026-04-18T10:34:22.211Z</time></trkpt><trkpt lat="43.4438131" lon="11.2727177"><ele>420.0</ele><time>2026-04-18T10:34:23.229Z</time></trkpt><trkpt lat="43.4437617" lon="11.2726008"><ele>420.0</ele><time>2026-04-18T10:34:24.215Z</time></trkpt><trkpt lat="43.4437133" lon="11.2724795"><ele>420.0</ele><time>2026-04-18T10:34:25.213Z</time></trkpt><trkpt lat="43.4436719" lon="11.2723599"><ele>417.2</ele><time>2026-04-18T10:34:26.205Z</time></trkpt><trkpt lat="43.4436377" lon="11.2722303"><ele>414.4</ele><time>2026-04-18T10:34:27.2Z</time></trkpt><trkpt lat="43.4436065" lon="11.2721071"><ele>411.6</ele><time>2026-04-18T10:34:28.208Z</time></trkpt><trkpt lat="43.4435762" lon="11.2719881"><ele>408.8</ele><time>2026-04-18T10:34:29.203Z</time></trkpt><trkpt lat="43.4435509" lon="11.2718749"><ele>406.0</ele><time>2026-04-18T10:34:30.2Z</time></trkpt><trkpt lat="43.4435234" lon="11.2717608"><ele>406.0</ele><time>2026-04-18T10:34:31.217Z</time></trkpt><trkpt lat="43.4434957" lon="11.2716435"><ele>406.0</ele><time>2026-04-18T10:34:32.204Z</time></trkpt><trkpt lat="43.4434694" lon="11.2715215"><ele>406.0</ele><time>2026-04-18T10:34:33.208Z</time></trkpt><trkpt lat="43.4434407" lon="11.2713984"><ele>406.0</ele><time>2026-04-18T10:34:34.214Z</time></trkpt><trkpt lat="43.443411" lon="11.2712802"><ele>406.0</ele><time>2026-04-18T10:34:35.221Z</time></trkpt><trkpt lat="43.4433812" lon="11.2711642"><ele>406.6</ele><time>2026-04-18T10:34:36.215Z</time></trkpt><trkpt lat="43.4433442" lon="11.2710477"><ele>407.20000000000005</ele><time>2026-04-18T10:34:37.208Z</time></trkpt><trkpt lat="43.4432983" lon="11.2709405"><ele>407.79999999999995</ele><time>2026-04-18T10:34:38.207Z</time></trkpt><trkpt lat="43.4432465" lon="11.270838"><ele>408.4</ele><time>2026-04-18T10:34:39.213Z</time></trkpt><trkpt lat="43.443185" lon="11.2707446"><ele>409.0</ele><time>2026-04-18T10:34:40.204Z</time></trkpt><trkpt lat="43.4431085" lon="11.2706552"><ele>408.6</ele><time>2026-04-18T10:34:41.203Z</time></trkpt><trkpt lat="43.4430276" lon="11.2705758"><ele>408.2</ele><time>2026-04-18T10:34:42.225Z</time></trkpt><trkpt lat="43.4429445" lon="11.2705087"><ele>407.8</ele><time>2026-04-18T10:34:43.211Z</time></trkpt><trkpt lat="43.4428588" lon="11.2704496"><ele>407.40000000000003</ele><time>2026-04-18T10:34:44.199Z</time></trkpt><trkpt lat="43.4427742" lon="11.2703962"><ele>407.0</ele><time>2026-04-18T10:34:45.2Z</time></trkpt><trkpt lat="43.442692" lon="11.2703596"><ele>407.0</ele><time>2026-04-18T10:34:46.228Z</time></trkpt><trkpt lat="43.4426035" lon="11.2703348"><ele>407.0</ele><time>2026-04-18T10:34:47.222Z</time></trkpt><trkpt lat="43.4425105" lon="11.2703296"><ele>407.0</ele><time>2026-04-18T10:34:48.202Z</time></trkpt><trkpt lat="43.4424127" lon="11.2703351"><ele>407.0</ele><time>2026-04-18T10:34:49.207Z</time></trkpt><trkpt lat="43.4423126" lon="11.2703496"><ele>407.0</ele><time>2026-04-18T10:34:50.21Z</time></trkpt><trkpt lat="43.4422187" lon="11.270376"><ele>406.20000000000005</ele><time>2026-04-18T10:34:51.212Z</time></trkpt><trkpt lat="43.4421266" lon="11.2704098"><ele>405.4</ele><time>2026-04-18T10:34:52.213Z</time></trkpt><trkpt lat="43.4420307" lon="11.2704424"><ele>404.6</ele><time>2026-04-18T10:34:53.203Z</time></trkpt><trkpt lat="43.4419314" lon="11.2704742"><ele>403.79999999999995</ele><time>2026-04-18T10:34:54.224Z</time></trkpt><trkpt lat="43.441838" lon="11.2705105"><ele>403.0</ele><time>2026-04-18T10:34:55.2Z</time></trkpt><trkpt lat="43.4417493" lon="11.2705549"><ele>403.0</ele><time>2026-04-18T10:34:56.202Z</time></trkpt><trkpt lat="43.4416617" lon="11.2705982"><ele>403.0</ele><time>2026-04-18T10:34:57.198Z</time></trkpt><trkpt lat="43.4415727" lon="11.2706379"><ele>403.0</ele><time>2026-04-18T10:34:58.198Z</time></trkpt><trkpt lat="43.4414822" lon="11.2706782"><ele>403.0</ele><time>2026-04-18T10:34:59.211Z</time></trkpt><trkpt lat="43.4413942" lon="11.2707168"><ele>403.0</ele><time>2026-04-18T10:35:00.196Z</time></trkpt><trkpt lat="43.4413096" lon="11.2707568"><ele>402.2</ele><time>2026-04-18T10:35:01.213Z</time></trkpt><trkpt lat="43.4412261" lon="11.2707993"><ele>401.4</ele><time>2026-04-18T10:35:02.213Z</time></trkpt><trkpt lat="43.4411388" lon="11.2708363"><ele>400.59999999999997</ele><time>2026-04-18T10:35:03.202Z</time></trkpt><trkpt lat="43.4410472" lon="11.270875"><ele>399.79999999999995</ele><time>2026-04-18T10:35:04.209Z</time></trkpt><trkpt lat="43.4409585" lon="11.2709093"><ele>399.0</ele><time>2026-04-18T10:35:05.207Z</time></trkpt><trkpt lat="43.440866" lon="11.2709446"><ele>399.0</ele><time>2026-04-18T10:35:06.2Z</time></trkpt><trkpt lat="43.4407744" lon="11.2709815"><ele>399.0</ele><time>2026-04-18T10:35:07.21Z</time></trkpt><trkpt lat="43.4406795" lon="11.2710192"><ele>399.0</ele><time>2026-04-18T10:35:08.214Z</time></trkpt><trkpt lat="43.4405852" lon="11.2710621"><ele>399.0</ele><time>2026-04-18T10:35:09.204Z</time></trkpt><trkpt lat="43.4404865" lon="11.2711098"><ele>399.0</ele><time>2026-04-18T10:35:10.197Z</time></trkpt><trkpt lat="43.4403798" lon="11.2711549"><ele>398.0</ele><time>2026-04-18T10:35:11.203Z</time></trkpt><trkpt lat="43.440269" lon="11.2712012"><ele>397.0</ele><time>2026-04-18T10:35:12.207Z</time></trkpt><trkpt lat="43.440155" lon="11.2712473"><ele>396.0</ele><time>2026-04-18T10:35:13.207Z</time></trkpt><trkpt lat="43.4400376" lon="11.2712932"><ele>395.0</ele><time>2026-04-18T10:35:14.206Z</time></trkpt><trkpt lat="43.4399207" lon="11.2713424"><ele>395.0</ele><time>2026-04-18T10:35:15.218Z</time></trkpt><trkpt lat="43.439802" lon="11.2713895"><ele>395.0</ele><time>2026-04-18T10:35:16.203Z</time></trkpt><trkpt lat="43.4396828" lon="11.2714419"><ele>395.0</ele><time>2026-04-18T10:35:17.198Z</time></trkpt><trkpt lat="43.4395591" lon="11.271489"><ele>395.0</ele><time>2026-04-18T10:35:18.213Z</time></trkpt><trkpt lat="43.4394296" lon="11.2715277"><ele>392.25</ele><time>2026-04-18T10:35:19.208Z</time></trkpt><trkpt lat="43.4392919" lon="11.2715555"><ele>389.5</ele><time>2026-04-18T10:35:20.208Z</time></trkpt><trkpt lat="43.439154" lon="11.2715703"><ele>386.75</ele><time>2026-04-18T10:35:21.214Z</time></trkpt><trkpt lat="43.4390136" lon="11.2715714"><ele>384.0</ele><time>2026-04-18T10:35:22.211Z</time></trkpt><trkpt lat="43.4388745" lon="11.2715586"><ele>380.25</ele><time>2026-04-18T10:35:23.21Z</time></trkpt><trkpt lat="43.4387368" lon="11.2715375"><ele>376.5</ele><time>2026-04-18T10:35:24.195Z</time></trkpt><trkpt lat="43.4385997" lon="11.2715138"><ele>372.75</ele><time>2026-04-18T10:35:25.209Z</time></trkpt><trkpt lat="43.4384597" lon="11.2714877"><ele>369.0</ele><time>2026-04-18T10:35:26.197Z</time></trkpt><trkpt lat="43.4383132" lon="11.2714545"><ele>370.0</ele><time>2026-04-18T10:35:27.2Z</time></trkpt><trkpt lat="43.4381682" lon="11.2714234"><ele>371.0</ele><time>2026-04-18T10:35:28.2Z</time></trkpt><trkpt lat="43.4380263" lon="11.2713817"><ele>372.0</ele><time>2026-04-18T10:35:29.21Z</time></trkpt><trkpt lat="43.4378908" lon="11.2713243"><ele>373.0</ele><time>2026-04-18T10:35:30.196Z</time></trkpt><trkpt lat="43.4377555" lon="11.2712421"><ele>368.0</ele><time>2026-04-18T10:35:31.196Z</time></trkpt><trkpt lat="43.4376346" lon="11.2711309"><ele>363.0</ele><time>2026-04-18T10:35:32.199Z</time></trkpt><trkpt lat="43.4375188" lon="11.270994"><ele>358.0</ele><time>2026-04-18T10:35:33.23Z</time></trkpt><trkpt lat="43.4374117" lon="11.2708459"><ele>358.0</ele><time>2026-04-18T10:35:34.195Z</time></trkpt><trkpt lat="43.4373037" lon="11.2707009"><ele>358.0</ele><time>2026-04-18T10:35:35.207Z</time></trkpt><trkpt lat="43.4371958" lon="11.2705585"><ele>358.0</ele><time>2026-04-18T10:35:36.204Z</time></trkpt><trkpt lat="43.4370861" lon="11.270413"><ele>356.0</ele><time>2026-04-18T10:35:37.215Z</time></trkpt><trkpt lat="43.4369717" lon="11.2702687"><ele>354.0</ele><time>2026-04-18T10:35:38.204Z</time></trkpt><trkpt lat="43.4368571" lon="11.2701245"><ele>352.0</ele><time>2026-04-18T10:35:39.216Z</time></trkpt><trkpt lat="43.4367414" lon="11.269979"><ele>352.0</ele><time>2026-04-18T10:35:40.219Z</time></trkpt><trkpt lat="43.4366258" lon="11.2698347"><ele>352.0</ele><time>2026-04-18T10:35:41.221Z</time></trkpt><trkpt lat="43.4365104" lon="11.2696906"><ele>352.0</ele><time>2026-04-18T10:35:42.204Z</time></trkpt><trkpt lat="43.4363952" lon="11.2695447"><ele>350.0</ele><time>2026-04-18T10:35:43.203Z</time></trkpt><trkpt lat="43.4362756" lon="11.2693901"><ele>348.0</ele><time>2026-04-18T10:35:44.206Z</time></trkpt><trkpt lat="43.4361574" lon="11.2692348"><ele>346.0</ele><time>2026-04-18T10:35:45.199Z</time></trkpt><trkpt lat="43.4360366" lon="11.2690806"><ele>344.0</ele><time>2026-04-18T10:35:46.202Z</time></trkpt><trkpt lat="43.4359171" lon="11.2689352"><ele>342.0</ele><time>2026-04-18T10:35:47.209Z</time></trkpt><trkpt lat="43.4357979" lon="11.2687895"><ele>340.0</ele><time>2026-04-18T10:35:48.217Z</time></trkpt><trkpt lat="43.4356846" lon="11.2686463"><ele>340.0</ele><time>2026-04-18T10:35:49.204Z</time></trkpt><trkpt lat="43.4355682" lon="11.2685004"><ele>340.0</ele><time>2026-04-18T10:35:50.221Z</time></trkpt><trkpt lat="43.4354489" lon="11.2683507"><ele>340.0</ele><time>2026-04-18T10:35:51.202Z</time></trkpt><trkpt lat="43.4353291" lon="11.2681958"><ele>337.3333333333333</ele><time>2026-04-18T10:35:52.22Z</time></trkpt><trkpt lat="43.4352144" lon="11.2680486"><ele>334.6666666666667</ele><time>2026-04-18T10:35:53.22Z</time></trkpt><trkpt lat="43.4351074" lon="11.267906"><ele>332.0</ele><time>2026-04-18T10:35:54.212Z</time></trkpt><trkpt lat="43.4349995" lon="11.2677608"><ele>332.0</ele><time>2026-04-18T10:35:55.208Z</time></trkpt><trkpt lat="43.4348896" lon="11.2676176"><ele>332.0</ele><time>2026-04-18T10:35:56.22Z</time></trkpt><trkpt lat="43.4347768" lon="11.2674705"><ele>332.0</ele><time>2026-04-18T10:35:57.21Z</time></trkpt><trkpt lat="43.4346665" lon="11.2673244"><ele>329.75</ele><time>2026-04-18T10:35:58.21Z</time></trkpt><trkpt lat="43.4345583" lon="11.2671845"><ele>327.5</ele><time>2026-04-18T10:35:59.213Z</time></trkpt><trkpt lat="43.4344475" lon="11.2670456"><ele>325.25</ele><time>2026-04-18T10:36:00.22Z</time></trkpt><trkpt lat="43.4343366" lon="11.2669047"><ele>323.0</ele><time>2026-04-18T10:36:01.21Z</time></trkpt><trkpt lat="43.4342265" lon="11.2667618"><ele>323.0</ele><time>2026-04-18T10:36:02.2Z</time></trkpt><trkpt lat="43.4341141" lon="11.2666214"><ele>323.0</ele><time>2026-04-18T10:36:03.227Z</time></trkpt><trkpt lat="43.4340028" lon="11.2664833"><ele>323.0</ele><time>2026-04-18T10:36:04.207Z</time></trkpt><trkpt lat="43.43389" lon="11.2663436"><ele>322.33333333333337</ele><time>2026-04-18T10:36:05.22Z</time></trkpt><trkpt lat="43.4337809" lon="11.2662068"><ele>321.6666666666667</ele><time>2026-04-18T10:36:06.226Z</time></trkpt><trkpt lat="43.4336675" lon="11.266066"><ele>321.0</ele><time>2026-04-18T10:36:07.208Z</time></trkpt><trkpt lat="43.4335579" lon="11.2659223"><ele>321.0</ele><time>2026-04-18T10:36:08.208Z</time></trkpt><trkpt lat="43.4334523" lon="11.2657669"><ele>321.0</ele><time>2026-04-18T10:36:09.211Z</time></trkpt><trkpt lat="43.433354" lon="11.2656049"><ele>321.0</ele><time>2026-04-18T10:36:10.234Z</time></trkpt><trkpt lat="43.4332709" lon="11.2654441"><ele>321.0</ele><time>2026-04-18T10:36:11.203Z</time></trkpt><trkpt lat="43.4331929" lon="11.26527"><ele>321.0</ele><time>2026-04-18T10:36:12.22Z</time></trkpt><trkpt lat="43.4331259" lon="11.2650824"><ele>321.0</ele><time>2026-04-18T10:36:13.217Z</time></trkpt><trkpt lat="43.4330697" lon="11.2648856"><ele>320.5</ele><time>2026-04-18T10:36:14.222Z</time></trkpt><trkpt lat="43.4330249" lon="11.2646877"><ele>320.0</ele><time>2026-04-18T10:36:15.198Z</time></trkpt><trkpt lat="43.4329862" lon="11.2644816"><ele>319.5</ele><time>2026-04-18T10:36:16.223Z</time></trkpt><trkpt lat="43.4329642" lon="11.2642861"><ele>319.0</ele><time>2026-04-18T10:36:17.2Z</time></trkpt><trkpt lat="43.4329569" lon="11.2640871"><ele>317.25</ele><time>2026-04-18T10:36:18.209Z</time></trkpt><trkpt lat="43.4329666" lon="11.2638925"><ele>315.5</ele><time>2026-04-18T10:36:19.198Z</time></trkpt><trkpt lat="43.4329886" lon="11.2637018"><ele>313.75</ele><time>2026-04-18T10:36:20.219Z</time></trkpt><trkpt lat="43.4330137" lon="11.2635138"><ele>312.0</ele><time>2026-04-18T10:36:21.211Z</time></trkpt><trkpt lat="43.4330474" lon="11.2633259"><ele>312.0</ele><time>2026-04-18T10:36:22.21Z</time></trkpt><trkpt lat="43.4330896" lon="11.2631444"><ele>312.0</ele><time>2026-04-18T10:36:23.21Z</time></trkpt><trkpt lat="43.4331315" lon="11.2629648"><ele>312.0</ele><time>2026-04-18T10:36:24.209Z</time></trkpt><trkpt lat="43.4331728" lon="11.2627838"><ele>312.0</ele><time>2026-04-18T10:36:25.228Z</time></trkpt><trkpt lat="43.4332174" lon="11.262604"><ele>310.5</ele><time>2026-04-18T10:36:26.213Z</time></trkpt><trkpt lat="43.4332601" lon="11.2624173"><ele>309.0</ele><time>2026-04-18T10:36:27.212Z</time></trkpt><trkpt lat="43.4332982" lon="11.2622248"><ele>307.5</ele><time>2026-04-18T10:36:28.222Z</time></trkpt><trkpt lat="43.4333348" lon="11.2620321"><ele>306.0</ele><time>2026-04-18T10:36:29.216Z</time></trkpt><trkpt lat="43.4333733" lon="11.2618375"><ele>303.6666666666667</ele><time>2026-04-18T10:36:30.197Z</time></trkpt><trkpt lat="43.4334094" lon="11.2616353"><ele>301.33333333333337</ele><time>2026-04-18T10:36:31.209Z</time></trkpt><trkpt lat="43.4334489" lon="11.2614323"><ele>299.0</ele><time>2026-04-18T10:36:32.21Z</time></trkpt><trkpt lat="43.4334887" lon="11.2612304"><ele>296.33333333333337</ele><time>2026-04-18T10:36:33.208Z</time></trkpt><trkpt lat="43.4335232" lon="11.2610222"><ele>293.6666666666667</ele><time>2026-04-18T10:36:34.208Z</time></trkpt><trkpt lat="43.4335553" lon="11.2607963"><ele>291.0</ele><time>2026-04-18T10:36:35.23Z</time></trkpt><trkpt lat="43.4335799" lon="11.2605767"><ele>288.3333333333333</ele><time>2026-04-18T10:36:36.203Z</time></trkpt><trkpt lat="43.4335962" lon="11.2603558"><ele>285.66666666666663</ele><time>2026-04-18T10:36:37.199Z</time></trkpt><trkpt lat="43.4336052" lon="11.2601278"><ele>283.0</ele><time>2026-04-18T10:36:38.208Z</time></trkpt><trkpt lat="43.4336131" lon="11.2599061"><ele>280.66666666666663</ele><time>2026-04-18T10:36:39.211Z</time></trkpt><trkpt lat="43.4336118" lon="11.259688"><ele>278.3333333333333</ele><time>2026-04-18T10:36:40.206Z</time></trkpt><trkpt lat="43.4336015" lon="11.2594628"><ele>276.0</ele><time>2026-04-18T10:36:41.219Z</time></trkpt><trkpt lat="43.4335821" lon="11.2592386"><ele>276.0</ele><time>2026-04-18T10:36:42.217Z</time></trkpt><trkpt lat="43.433551" lon="11.2590135"><ele>276.0</ele><time>2026-04-18T10:36:43.197Z</time></trkpt><trkpt lat="43.4335164" lon="11.2587905"><ele>276.0</ele><time>2026-04-18T10:36:44.217Z</time></trkpt><trkpt lat="43.433476" lon="11.2585728"><ele>274.6666666666667</ele><time>2026-04-18T10:36:45.208Z</time></trkpt><trkpt lat="43.4334275" lon="11.2583539"><ele>273.33333333333337</ele><time>2026-04-18T10:36:46.218Z</time></trkpt><trkpt lat="43.4333751" lon="11.258139"><ele>272.0</ele><time>2026-04-18T10:36:47.216Z</time></trkpt><trkpt lat="43.4333245" lon="11.2579225"><ele>270.33333333333337</ele><time>2026-04-18T10:36:48.219Z</time></trkpt><trkpt lat="43.433274" lon="11.2577065"><ele>268.6666666666667</ele><time>2026-04-18T10:36:49.196Z</time></trkpt><trkpt lat="43.4332204" lon="11.2574874"><ele>267.0</ele><time>2026-04-18T10:36:50.229Z</time></trkpt><trkpt lat="43.4331671" lon="11.2572674"><ele>264.3333333333333</ele><time>2026-04-18T10:36:51.207Z</time></trkpt><trkpt lat="43.433117" lon="11.257051"><ele>261.66666666666663</ele><time>2026-04-18T10:36:52.205Z</time></trkpt><trkpt lat="43.4330674" lon="11.2568352"><ele>259.0</ele><time>2026-04-18T10:36:53.223Z</time></trkpt><trkpt lat="43.4330128" lon="11.256619"><ele>254.66666666666666</ele><time>2026-04-18T10:36:54.207Z</time></trkpt><trkpt lat="43.4329584" lon="11.2564027"><ele>250.33333333333331</ele><time>2026-04-18T10:36:55.206Z</time></trkpt><trkpt lat="43.4329051" lon="11.2561878"><ele>246.0</ele><time>2026-04-18T10:36:56.21Z</time></trkpt><trkpt lat="43.4328496" lon="11.2559649"><ele>246.0</ele><time>2026-04-18T10:36:57.199Z</time></trkpt><trkpt lat="43.4327951" lon="11.2557421"><ele>246.0</ele><time>2026-04-18T10:36:58.229Z</time></trkpt><trkpt lat="43.4327403" lon="11.255517"><ele>246.0</ele><time>2026-04-18T10:36:59.202Z</time></trkpt><trkpt lat="43.4326878" lon="11.255296"><ele>246.0</ele><time>2026-04-18T10:37:00.213Z</time></trkpt><trkpt lat="43.4326408" lon="11.2550846"><ele>246.0</ele><time>2026-04-18T10:37:01.204Z</time></trkpt><trkpt lat="43.4325987" lon="11.2548735"><ele>246.0</ele><time>2026-04-18T10:37:02.207Z</time></trkpt><trkpt lat="43.4325558" lon="11.254669"><ele>246.66666666666669</ele><time>2026-04-18T10:37:03.21Z</time></trkpt><trkpt lat="43.4325064" lon="11.2544645"><ele>247.33333333333334</ele><time>2026-04-18T10:37:04.209Z</time></trkpt><trkpt lat="43.432454" lon="11.2542674"><ele>248.0</ele><time>2026-04-18T10:37:05.213Z</time></trkpt><trkpt lat="43.4323952" lon="11.2540731"><ele>249.0</ele><time>2026-04-18T10:37:06.211Z</time></trkpt><trkpt lat="43.4323219" lon="11.2538861"><ele>250.0</ele><time>2026-04-18T10:37:07.206Z</time></trkpt><trkpt lat="43.4322264" lon="11.253728"><ele>251.0</ele><time>2026-04-18T10:37:08.202Z</time></trkpt><trkpt lat="43.4321167" lon="11.253591"><ele>249.25</ele><time>2026-04-18T10:37:09.207Z</time></trkpt><trkpt lat="43.432002" lon="11.2534824"><ele>247.5</ele><time>2026-04-18T10:37:10.21Z</time></trkpt><trkpt lat="43.4318784" lon="11.2533974"><ele>245.75</ele><time>2026-04-18T10:37:11.208Z</time></trkpt><trkpt lat="43.4317525" lon="11.2533164"><ele>244.0</ele><time>2026-04-18T10:37:12.21Z</time></trkpt><trkpt lat="43.4316247" lon="11.2532343"><ele>244.0</ele><time>2026-04-18T10:37:13.21Z</time></trkpt><trkpt lat="43.4315083" lon="11.2531594"><ele>244.0</ele><time>2026-04-18T10:37:14.212Z</time></trkpt><trkpt lat="43.4313979" lon="11.2530814"><ele>244.0</ele><time>2026-04-18T10:37:15.228Z</time></trkpt><trkpt lat="43.4312906" lon="11.2530019"><ele>244.0</ele><time>2026-04-18T10:37:16.219Z</time></trkpt><trkpt lat="43.4311813" lon="11.2529263"><ele>243.25</ele><time>2026-04-18T10:37:17.216Z</time></trkpt><trkpt lat="43.4310719" lon="11.2528535"><ele>242.5</ele><time>2026-04-18T10:37:18.208Z</time></trkpt><trkpt lat="43.4309664" lon="11.2527814"><ele>241.75</ele><time>2026-04-18T10:37:19.213Z</time></trkpt><trkpt lat="43.4308635" lon="11.2527117"><ele>241.0</ele><time>2026-04-18T10:37:20.217Z</time></trkpt><trkpt lat="43.4307651" lon="11.2526435"><ele>241.0</ele><time>2026-04-18T10:37:21.204Z</time></trkpt><trkpt lat="43.4306667" lon="11.2525707"><ele>241.00000000000003</ele><time>2026-04-18T10:37:22.222Z</time></trkpt><trkpt lat="43.4305705" lon="11.252501"><ele>241.00000000000003</ele><time>2026-04-18T10:37:23.228Z</time></trkpt><trkpt lat="43.4304763" lon="11.2524324"><ele>241.0</ele><time>2026-04-18T10:37:24.2Z</time></trkpt><trkpt lat="43.4303781" lon="11.2523735"><ele>241.0</ele><time>2026-04-18T10:37:25.216Z</time></trkpt><trkpt lat="43.4302797" lon="11.2523156"><ele>240.20000000000002</ele><time>2026-04-18T10:37:26.212Z</time></trkpt><trkpt lat="43.4301819" lon="11.2522526"><ele>239.40000000000003</ele><time>2026-04-18T10:37:27.204Z</time></trkpt><trkpt lat="43.430089" lon="11.2521873"><ele>238.6</ele><time>2026-04-18T10:37:28.217Z</time></trkpt><trkpt lat="43.4299981" lon="11.2521121"><ele>237.8</ele><time>2026-04-18T10:37:29.225Z</time></trkpt><trkpt lat="43.4299081" lon="11.2520311"><ele>237.0</ele><time>2026-04-18T10:37:30.215Z</time></trkpt><trkpt lat="43.4298243" lon="11.2519379"><ele>237.0</ele><time>2026-04-18T10:37:31.201Z</time></trkpt><trkpt lat="43.4297474" lon="11.251832"><ele>237.0</ele><time>2026-04-18T10:37:32.207Z</time></trkpt><trkpt lat="43.4296792" lon="11.2517138"><ele>237.0</ele><time>2026-04-18T10:37:33.217Z</time></trkpt><trkpt lat="43.4296184" lon="11.2515865"><ele>237.0</ele><time>2026-04-18T10:37:34.21Z</time></trkpt><trkpt lat="43.4295706" lon="11.2514462"><ele>237.0</ele><time>2026-04-18T10:37:35.204Z</time></trkpt><trkpt lat="43.4295326" lon="11.2513004"><ele>234.25</ele><time>2026-04-18T10:37:36.208Z</time></trkpt><trkpt lat="43.4294995" lon="11.251152"><ele>231.5</ele><time>2026-04-18T10:37:37.216Z</time></trkpt><trkpt lat="43.4294685" lon="11.2510002"><ele>228.75</ele><time>2026-04-18T10:37:38.203Z</time></trkpt><trkpt lat="43.4294377" lon="11.2508502"><ele>226.0</ele><time>2026-04-18T10:37:39.207Z</time></trkpt><trkpt lat="43.4294069" lon="11.2507031"><ele>226.0</ele><time>2026-04-18T10:37:40.203Z</time></trkpt><trkpt lat="43.4293793" lon="11.250557"><ele>226.00000000000003</ele><time>2026-04-18T10:37:41.194Z</time></trkpt><trkpt lat="43.4293565" lon="11.2504091"><ele>226.00000000000003</ele><time>2026-04-18T10:37:42.212Z</time></trkpt><trkpt lat="43.4293499" lon="11.2502571"><ele>226.0</ele><time>2026-04-18T10:37:43.212Z</time></trkpt><trkpt lat="43.429351" lon="11.2500957"><ele>226.0</ele><time>2026-04-18T10:37:44.22Z</time></trkpt><trkpt lat="43.4293524" lon="11.2499465"><ele>226.0</ele><time>2026-04-18T10:37:45.206Z</time></trkpt><trkpt lat="43.4293582" lon="11.2497921"><ele>226.00000000000003</ele><time>2026-04-18T10:37:46.213Z</time></trkpt><trkpt lat="43.4293705" lon="11.2496397"><ele>226.00000000000003</ele><time>2026-04-18T10:37:47.208Z</time></trkpt><trkpt lat="43.4293816" lon="11.2494906"><ele>226.0</ele><time>2026-04-18T10:37:48.222Z</time></trkpt><trkpt lat="43.4293905" lon="11.2493487"><ele>226.0</ele><time>2026-04-18T10:37:49.204Z</time></trkpt><trkpt lat="43.4293972" lon="11.2492147"><ele>225.8</ele><time>2026-04-18T10:37:50.222Z</time></trkpt><trkpt lat="43.4293974" lon="11.2490864"><ele>225.60000000000002</ele><time>2026-04-18T10:37:51.231Z</time></trkpt><trkpt lat="43.4293856" lon="11.248961"><ele>225.4</ele><time>2026-04-18T10:37:52.209Z</time></trkpt><trkpt lat="43.429365" lon="11.2488332"><ele>225.2</ele><time>2026-04-18T10:37:53.205Z</time></trkpt><trkpt lat="43.429335" lon="11.2486986"><ele>225.0</ele><time>2026-04-18T10:37:54.225Z</time></trkpt><trkpt lat="43.4293107" lon="11.2485782"><ele>225.0</ele><time>2026-04-18T10:37:55.207Z</time></trkpt><trkpt lat="43.4292875" lon="11.2484677"><ele>225.0</ele><time>2026-04-18T10:37:56.207Z</time></trkpt><trkpt lat="43.4292673" lon="11.2483632"><ele>225.0</ele><time>2026-04-18T10:37:57.197Z</time></trkpt><trkpt lat="43.4292459" lon="11.248259"><ele>225.0</ele><time>2026-04-18T10:37:58.227Z</time></trkpt><trkpt lat="43.4292188" lon="11.2481626"><ele>225.0</ele><time>2026-04-18T10:37:59.202Z</time></trkpt><trkpt lat="43.4291979" lon="11.2480685"><ele>225.0</ele><time>2026-04-18T10:38:00.208Z</time></trkpt><trkpt lat="43.4291783" lon="11.247979"><ele>227.0</ele><time>2026-04-18T10:38:01.209Z</time></trkpt><trkpt lat="43.429143" lon="11.247817"><ele>229.0</ele><time>2026-04-18T10:38:03.217Z</time></trkpt><trkpt lat="43.4291045" lon="11.2476608"><ele>231.0</ele><time>2026-04-18T10:38:05.199Z</time></trkpt><trkpt lat="43.4290677" lon="11.2475169"><ele>233.0</ele><time>2026-04-18T10:38:07.212Z</time></trkpt><trkpt lat="43.4290177" lon="11.2473986"><ele>231.83333333333334</ele><time>2026-04-18T10:38:09.223Z</time></trkpt><trkpt lat="43.4289666" lon="11.2472924"><ele>230.66666666666669</ele><time>2026-04-18T10:38:11.21Z</time></trkpt><trkpt lat="43.4289187" lon="11.2471851"><ele>229.5</ele><time>2026-04-18T10:38:13.215Z</time></trkpt><trkpt lat="43.4288606" lon="11.2470854"><ele>228.33333333333331</ele><time>2026-04-18T10:38:15.217Z</time></trkpt><trkpt lat="43.4288042" lon="11.2470021"><ele>227.16666666666666</ele><time>2026-04-18T10:38:17.211Z</time></trkpt><trkpt lat="43.4287684" lon="11.2469289"><ele>226.0</ele><time>2026-04-18T10:38:19.228Z</time></trkpt><trkpt lat="43.4287251" lon="11.2468314"><ele>226.0</ele><time>2026-04-18T10:38:22.212Z</time></trkpt><trkpt lat="43.4286824" lon="11.2467626"><ele>226.0</ele><time>2026-04-18T10:38:24.217Z</time></trkpt><trkpt lat="43.42864" lon="11.2466944"><ele>226.0</ele><time>2026-04-18T10:38:26.195Z</time></trkpt><trkpt lat="43.4285998" lon="11.2466191"><ele>226.0</ele><time>2026-04-18T10:38:28.196Z</time></trkpt><trkpt lat="43.4285543" lon="11.2465452"><ele>226.0</ele><time>2026-04-18T10:38:30.205Z</time></trkpt><trkpt lat="43.4285156" lon="11.2464477"><ele>226.0</ele><time>2026-04-18T10:38:33.21Z</time></trkpt><trkpt lat="43.4284678" lon="11.2463543"><ele>226.0</ele><time>2026-04-18T10:38:36.21Z</time></trkpt><trkpt lat="43.4284242" lon="11.2462663"><ele>226.42857142857144</ele><time>2026-04-18T10:38:39.208Z</time></trkpt><trkpt lat="43.4283942" lon="11.2461775"><ele>226.85714285714283</ele><time>2026-04-18T10:38:42.215Z</time></trkpt><trkpt lat="43.4283746" lon="11.246091"><ele>227.28571428571428</ele><time>2026-04-18T10:38:46.206Z</time></trkpt><trkpt lat="43.4283716" lon="11.2459913"><ele>227.71428571428572</ele><time>2026-04-18T10:38:50.21Z</time></trkpt><trkpt lat="43.4283452" lon="11.2459023"><ele>228.14285714285717</ele><time>2026-04-18T10:38:53.207Z</time></trkpt><trkpt lat="43.4283166" lon="11.2458138"><ele>228.57142857142856</ele><time>2026-04-18T10:38:56.214Z</time></trkpt><trkpt lat="43.4283134" lon="11.2457085"><ele>229.0</ele><time>2026-04-18T10:38:59.211Z</time></trkpt><trkpt lat="43.4283226" lon="11.2456064"><ele>228.99999999999997</ele><time>2026-04-18T10:39:02.218Z</time></trkpt><trkpt lat="43.428329" lon="11.2455005"><ele>229.0</ele><time>2026-04-18T10:39:05.22Z</time></trkpt><trkpt lat="43.4283419" lon="11.2453892"><ele>229.0</ele><time>2026-04-18T10:39:08.205Z</time></trkpt><trkpt lat="43.4283723" lon="11.2452794"><ele>229.0</ele><time>2026-04-18T10:39:11.203Z</time></trkpt><trkpt lat="43.428384" lon="11.2451482"><ele>228.99999999999997</ele><time>2026-04-18T10:39:14.217Z</time></trkpt><trkpt lat="43.4283881" lon="11.2450504"><ele>229.0</ele><time>2026-04-18T10:39:16.214Z</time></trkpt><trkpt lat="43.428387" lon="11.2449465"><ele>229.0</ele><time>2026-04-18T10:39:18.204Z</time></trkpt><trkpt lat="43.4284018" lon="11.244853"><ele>229.0</ele><time>2026-04-18T10:39:20.218Z</time></trkpt><trkpt lat="43.428421" lon="11.2447672"><ele>229.0</ele><time>2026-04-18T10:39:22.212Z</time></trkpt><trkpt lat="43.4284304" lon="11.2446764"><ele>229.0</ele><time>2026-04-18T10:39:24.203Z</time></trkpt><trkpt lat="43.4284403" lon="11.2445816"><ele>229.0</ele><time>2026-04-18T10:39:26.212Z</time></trkpt><trkpt lat="43.4284469" lon="11.2444831"><ele>229.0</ele><time>2026-04-18T10:39:28.207Z</time></trkpt><trkpt lat="43.4284596" lon="11.2443922"><ele>229.0</ele><time>2026-04-18T10:39:30.214Z</time></trkpt><trkpt lat="43.4284733" lon="11.2443007"><ele>228.99999999999997</ele><time>2026-04-18T10:39:32.213Z</time></trkpt><trkpt lat="43.4284897" lon="11.2441718"><ele>229.0</ele><time>2026-04-18T10:39:35.222Z</time></trkpt><trkpt lat="43.4284916" lon="11.2440559"><ele>229.0</ele><time>2026-04-18T10:39:38.222Z</time></trkpt><trkpt lat="43.4285165" lon="11.2439528"><ele>229.0</ele><time>2026-04-18T10:39:41.205Z</time></trkpt><trkpt lat="43.4285262" lon="11.2438362"><ele>228.99999999999997</ele><time>2026-04-18T10:39:44.211Z</time></trkpt><trkpt lat="43.4284816" lon="11.2437735"><ele>229.0</ele><time>2026-04-18T10:39:49.213Z</time></trkpt><trkpt lat="43.4284737" lon="11.2438739"><ele>228.99999999999997</ele><time>2026-04-18T10:39:53.208Z</time></trkpt><trkpt lat="43.4284702" lon="11.2439726"><ele>229.0</ele><time>2026-04-18T10:39:56.208Z</time></trkpt><trkpt lat="43.4284386" lon="11.2440495"><ele>229.0</ele><time>2026-04-18T10:40:00.215Z</time></trkpt><trkpt lat="43.4284835" lon="11.2439493"><ele>229.0</ele><time>2026-04-18T10:40:40.212Z</time></trkpt><trkpt lat="43.4285012" lon="11.2438615"><ele>228.99999999999997</ele><time>2026-04-18T10:40:42.208Z</time></trkpt><trkpt lat="43.4285162" lon="11.2437444"><ele>229.0</ele><time>2026-04-18T10:40:44.211Z</time></trkpt><trkpt lat="43.4285314" lon="11.2436188"><ele>229.2</ele><time>2026-04-18T10:40:46.211Z</time></trkpt><trkpt lat="43.4285264" lon="11.2434947"><ele>229.39999999999998</ele><time>2026-04-18T10:40:48.217Z</time></trkpt><trkpt lat="43.4285195" lon="11.2433739"><ele>229.6</ele><time>2026-04-18T10:40:50.208Z</time></trkpt><trkpt lat="43.4285066" lon="11.2432548"><ele>229.8</ele><time>2026-04-18T10:40:52.22Z</time></trkpt><trkpt lat="43.4284714" lon="11.2431164"><ele>230.0</ele><time>2026-04-18T10:40:54.207Z</time></trkpt><trkpt lat="43.4284375" lon="11.2429874"><ele>230.0</ele><time>2026-04-18T10:40:56.204Z</time></trkpt><trkpt lat="43.4284" lon="11.2428582"><ele>230.0</ele><time>2026-04-18T10:40:58.198Z</time></trkpt><trkpt lat="43.4283351" lon="11.242723"><ele>230.0</ele><time>2026-04-18T10:41:00.2Z</time></trkpt><trkpt lat="43.428261" lon="11.2425992"><ele>230.0</ele><time>2026-04-18T10:41:02.201Z</time></trkpt><trkpt lat="43.4281889" lon="11.2424646"><ele>230.0</ele><time>2026-04-18T10:41:04.21Z</time></trkpt><trkpt lat="43.4281112" lon="11.2423464"><ele>230.0</ele><time>2026-04-18T10:41:06.216Z</time></trkpt><trkpt lat="43.4280279" lon="11.2422261"><ele>230.0</ele><time>2026-04-18T10:41:08.232Z</time></trkpt><trkpt lat="43.4279413" lon="11.2421032"><ele>230.0</ele><time>2026-04-18T10:41:10.209Z</time></trkpt><trkpt lat="43.427896" lon="11.2420385"><ele>230.0</ele><time>2026-04-18T10:41:11.203Z</time></trkpt><trkpt lat="43.4278483" lon="11.2419794"><ele>230.50000000000003</ele><time>2026-04-18T10:41:12.198Z</time></trkpt><trkpt lat="43.4277546" lon="11.241866"><ele>231.0</ele><time>2026-04-18T10:41:14.229Z</time></trkpt><trkpt lat="43.4277067" lon="11.2418054"><ele>231.5</ele><time>2026-04-18T10:41:15.218Z</time></trkpt><trkpt lat="43.4276556" lon="11.2417381"><ele>232.0</ele><time>2026-04-18T10:41:16.211Z</time></trkpt><trkpt lat="43.4276096" lon="11.2416699"><ele>232.50000000000003</ele><time>2026-04-18T10:41:17.205Z</time></trkpt><trkpt lat="43.4275628" lon="11.2416021"><ele>233.0</ele><time>2026-04-18T10:41:18.213Z</time></trkpt><trkpt lat="43.4274867" lon="11.2414883"><ele>232.14285714285717</ele><time>2026-04-18T10:41:20.206Z</time></trkpt><trkpt lat="43.4274411" lon="11.2414156"><ele>231.28571428571428</ele><time>2026-04-18T10:41:22.215Z</time></trkpt><trkpt lat="43.4273785" lon="11.2413643"><ele>230.42857142857144</ele><time>2026-04-18T10:41:50.212Z</time></trkpt><trkpt lat="43.4273287" lon="11.2413061"><ele>229.57142857142858</ele><time>2026-04-18T10:41:53.212Z</time></trkpt><trkpt lat="43.4272682" lon="11.2412486"><ele>228.71428571428572</ele><time>2026-04-18T10:41:56.201Z</time></trkpt><trkpt lat="43.4272016" lon="11.241195"><ele>227.85714285714286</ele><time>2026-04-18T10:41:59.208Z</time></trkpt><trkpt lat="43.4271272" lon="11.2411564"><ele>227.0</ele><time>2026-04-18T10:42:01.215Z</time></trkpt><trkpt lat="43.4270303" lon="11.2411125"><ele>226.39999999999998</ele><time>2026-04-18T10:42:03.208Z</time></trkpt><trkpt lat="43.4269355" lon="11.2410787"><ele>225.79999999999998</ele><time>2026-04-18T10:42:05.21Z</time></trkpt><trkpt lat="43.4268447" lon="11.2410312"><ele>225.2</ele><time>2026-04-18T10:42:07.2Z</time></trkpt><trkpt lat="43.426743" lon="11.2409931"><ele>224.6</ele><time>2026-04-18T10:42:09.205Z</time></trkpt><trkpt lat="43.4266279" lon="11.2409628"><ele>224.0</ele><time>2026-04-18T10:42:11.216Z</time></trkpt><trkpt lat="43.4265582" lon="11.2409487"><ele>224.0</ele><time>2026-04-18T10:42:12.215Z</time></trkpt><trkpt lat="43.4264941" lon="11.2409414"><ele>224.0</ele><time>2026-04-18T10:42:13.203Z</time></trkpt><trkpt lat="43.4264283" lon="11.2409316"><ele>224.0</ele><time>2026-04-18T10:42:14.212Z</time></trkpt><trkpt lat="43.4263592" lon="11.2409215"><ele>224.0</ele><time>2026-04-18T10:42:15.215Z</time></trkpt><trkpt lat="43.4262832" lon="11.2409129"><ele>224.0</ele><time>2026-04-18T10:42:16.215Z</time></trkpt><trkpt lat="43.4262066" lon="11.2409093"><ele>224.0</ele><time>2026-04-18T10:42:17.201Z</time></trkpt><trkpt lat="43.4261261" lon="11.2408973"><ele>224.0</ele><time>2026-04-18T10:42:18.199Z</time></trkpt><trkpt lat="43.4260541" lon="11.2408867"><ele>223.33333333333334</ele><time>2026-04-18T10:42:19.213Z</time></trkpt><trkpt lat="43.4259809" lon="11.2408792"><ele>222.66666666666669</ele><time>2026-04-18T10:42:20.214Z</time></trkpt><trkpt lat="43.4259033" lon="11.2408691"><ele>222.0</ele><time>2026-04-18T10:42:21.217Z</time></trkpt><trkpt lat="43.4258209" lon="11.2408548"><ele>221.33333333333331</ele><time>2026-04-18T10:42:22.206Z</time></trkpt><trkpt lat="43.4257409" lon="11.2408421"><ele>220.66666666666666</ele><time>2026-04-18T10:42:23.215Z</time></trkpt><trkpt lat="43.4256575" lon="11.2408251"><ele>220.0</ele><time>2026-04-18T10:42:24.211Z</time></trkpt><trkpt lat="43.4255745" lon="11.2408009"><ele>220.0</ele><time>2026-04-18T10:42:25.205Z</time></trkpt><trkpt lat="43.4254927" lon="11.240764"><ele>220.0</ele><time>2026-04-18T10:42:26.214Z</time></trkpt><trkpt lat="43.4254086" lon="11.2407193"><ele>220.0</ele><time>2026-04-18T10:42:27.205Z</time></trkpt><trkpt lat="43.4253257" lon="11.2406628"><ele>220.0</ele><time>2026-04-18T10:42:28.202Z</time></trkpt><trkpt lat="43.4252463" lon="11.2405932"><ele>220.0</ele><time>2026-04-18T10:42:29.222Z</time></trkpt><trkpt lat="43.4251678" lon="11.2405121"><ele>218.2</ele><time>2026-04-18T10:42:30.212Z</time></trkpt><trkpt lat="43.4250865" lon="11.2404205"><ele>216.4</ele><time>2026-04-18T10:42:31.212Z</time></trkpt><trkpt lat="43.4250092" lon="11.2403209"><ele>214.60000000000002</ele><time>2026-04-18T10:42:32.208Z</time></trkpt><trkpt lat="43.424939" lon="11.2402121"><ele>212.8</ele><time>2026-04-18T10:42:33.208Z</time></trkpt><trkpt lat="43.4248752" lon="11.2401001"><ele>211.0</ele><time>2026-04-18T10:42:34.208Z</time></trkpt><trkpt lat="43.4248086" lon="11.2399822"><ele>211.0</ele><time>2026-04-18T10:42:35.205Z</time></trkpt><trkpt lat="43.4247401" lon="11.2398613"><ele>211.0</ele><time>2026-04-18T10:42:36.225Z</time></trkpt><trkpt lat="43.4246714" lon="11.239747"><ele>211.0</ele><time>2026-04-18T10:42:37.203Z</time></trkpt><trkpt lat="43.4246001" lon="11.2396324"><ele>211.0</ele><time>2026-04-18T10:42:38.218Z</time></trkpt><trkpt lat="43.4245356" lon="11.239521"><ele>211.0</ele><time>2026-04-18T10:42:39.206Z</time></trkpt><trkpt lat="43.4244637" lon="11.2394068"><ele>210.25</ele><time>2026-04-18T10:42:40.208Z</time></trkpt><trkpt lat="43.4243894" lon="11.2392892"><ele>209.5</ele><time>2026-04-18T10:42:41.215Z</time></trkpt><trkpt lat="43.4243152" lon="11.2391661"><ele>208.75</ele><time>2026-04-18T10:42:42.231Z</time></trkpt><trkpt lat="43.4242503" lon="11.2390414"><ele>208.0</ele><time>2026-04-18T10:42:43.203Z</time></trkpt><trkpt lat="43.424194" lon="11.2389083"><ele>206.8</ele><time>2026-04-18T10:42:44.212Z</time></trkpt><trkpt lat="43.4241452" lon="11.2387753"><ele>205.60000000000002</ele><time>2026-04-18T10:42:45.205Z</time></trkpt><trkpt lat="43.424102" lon="11.2386354"><ele>204.39999999999998</ele><time>2026-04-18T10:42:46.206Z</time></trkpt><trkpt lat="43.4240671" lon="11.2384909"><ele>203.2</ele><time>2026-04-18T10:42:47.212Z</time></trkpt><trkpt lat="43.4240406" lon="11.2383427"><ele>202.0</ele><time>2026-04-18T10:42:48.213Z</time></trkpt><trkpt lat="43.42402" lon="11.238193"><ele>201.75</ele><time>2026-04-18T10:42:49.223Z</time></trkpt><trkpt lat="43.4240077" lon="11.2380392"><ele>201.5</ele><time>2026-04-18T10:42:50.214Z</time></trkpt><trkpt lat="43.4240077" lon="11.2378825"><ele>201.25</ele><time>2026-04-18T10:42:51.197Z</time></trkpt><trkpt lat="43.4240172" lon="11.2377218"><ele>201.0</ele><time>2026-04-18T10:42:52.222Z</time></trkpt><trkpt lat="43.4240329" lon="11.2375611"><ele>201.0</ele><time>2026-04-18T10:42:53.225Z</time></trkpt><trkpt lat="43.4240527" lon="11.2374076"><ele>201.0</ele><time>2026-04-18T10:42:54.235Z</time></trkpt><trkpt lat="43.4240785" lon="11.2372589"><ele>201.0</ele><time>2026-04-18T10:42:55.215Z</time></trkpt><trkpt lat="43.4241103" lon="11.2371097"><ele>201.0</ele><time>2026-04-18T10:42:56.228Z</time></trkpt><trkpt lat="43.4241497" lon="11.2369704"><ele>201.0</ele><time>2026-04-18T10:42:57.229Z</time></trkpt><trkpt lat="43.4242002" lon="11.236831"><ele>200.75</ele><time>2026-04-18T10:42:58.22Z</time></trkpt><trkpt lat="43.4242584" lon="11.236693"><ele>200.5</ele><time>2026-04-18T10:42:59.228Z</time></trkpt><trkpt lat="43.4243107" lon="11.2365569"><ele>200.25</ele><time>2026-04-18T10:43:00.229Z</time></trkpt><trkpt lat="43.4243642" lon="11.2364172"><ele>200.0</ele><time>2026-04-18T10:43:01.214Z</time></trkpt><trkpt lat="43.4244213" lon="11.2362815"><ele>199.8</ele><time>2026-04-18T10:43:02.212Z</time></trkpt><trkpt lat="43.4244805" lon="11.2361493"><ele>199.6</ele><time>2026-04-18T10:43:03.222Z</time></trkpt><trkpt lat="43.4245357" lon="11.2360206"><ele>199.39999999999998</ele><time>2026-04-18T10:43:04.217Z</time></trkpt><trkpt lat="43.4245886" lon="11.2358916"><ele>199.2</ele><time>2026-04-18T10:43:05.212Z</time></trkpt><trkpt lat="43.4246307" lon="11.2357605"><ele>199.0</ele><time>2026-04-18T10:43:06.204Z</time></trkpt><trkpt lat="43.4246627" lon="11.2356367"><ele>198.79999999999998</ele><time>2026-04-18T10:43:07.216Z</time></trkpt><trkpt lat="43.4246851" lon="11.2355057"><ele>198.6</ele><time>2026-04-18T10:43:08.205Z</time></trkpt><trkpt lat="43.4246939" lon="11.2353734"><ele>198.4</ele><time>2026-04-18T10:43:09.226Z</time></trkpt><trkpt lat="43.4246951" lon="11.2352411"><ele>198.2</ele><time>2026-04-18T10:43:10.22Z</time></trkpt><trkpt lat="43.4246908" lon="11.2351133"><ele>198.0</ele><time>2026-04-18T10:43:11.216Z</time></trkpt><trkpt lat="43.4246749" lon="11.234985"><ele>198.0</ele><time>2026-04-18T10:43:12.224Z</time></trkpt><trkpt lat="43.4246472" lon="11.2348621"><ele>198.0</ele><time>2026-04-18T10:43:13.206Z</time></trkpt><trkpt lat="43.424615" lon="11.2347417"><ele>198.0</ele><time>2026-04-18T10:43:14.23Z</time></trkpt><trkpt lat="43.4245766" lon="11.234625"><ele>198.0</ele><time>2026-04-18T10:43:15.207Z</time></trkpt><trkpt lat="43.424533" lon="11.234513"><ele>198.0</ele><time>2026-04-18T10:43:16.206Z</time></trkpt><trkpt lat="43.4244924" lon="11.2344022"><ele>198.0</ele><time>2026-04-18T10:43:17.203Z</time></trkpt><trkpt lat="43.4244503" lon="11.2342919"><ele>198.0</ele><time>2026-04-18T10:43:18.201Z</time></trkpt><trkpt lat="43.4244053" lon="11.2341836"><ele>198.0</ele><time>2026-04-18T10:43:19.22Z</time></trkpt><trkpt lat="43.424361" lon="11.2340766"><ele>198.0</ele><time>2026-04-18T10:43:20.218Z</time></trkpt><trkpt lat="43.4243183" lon="11.2339692"><ele>198.0</ele><time>2026-04-18T10:43:21.213Z</time></trkpt><trkpt lat="43.4242741" lon="11.2338618"><ele>198.0</ele><time>2026-04-18T10:43:22.219Z</time></trkpt><trkpt lat="43.4242321" lon="11.2337513"><ele>198.16666666666666</ele><time>2026-04-18T10:43:23.207Z</time></trkpt><trkpt lat="43.4241943" lon="11.2336383"><ele>198.33333333333331</ele><time>2026-04-18T10:43:24.205Z</time></trkpt><trkpt lat="43.4241653" lon="11.2335371"><ele>198.5</ele><time>2026-04-18T10:43:25.203Z</time></trkpt><trkpt lat="43.4241304" lon="11.2334404"><ele>198.66666666666666</ele><time>2026-04-18T10:43:26.229Z</time></trkpt><trkpt lat="43.4240955" lon="11.2333434"><ele>198.83333333333331</ele><time>2026-04-18T10:43:27.218Z</time></trkpt><trkpt lat="43.4240632" lon="11.2332474"><ele>199.0</ele><time>2026-04-18T10:43:28.217Z</time></trkpt><trkpt lat="43.4240333" lon="11.2331584"><ele>198.85714285714283</ele><time>2026-04-18T10:43:29.211Z</time></trkpt><trkpt lat="43.4240033" lon="11.2330672"><ele>198.71428571428572</ele><time>2026-04-18T10:43:30.205Z</time></trkpt><trkpt lat="43.423972" lon="11.2329755"><ele>198.57142857142856</ele><time>2026-04-18T10:43:31.212Z</time></trkpt><trkpt lat="43.423939" lon="11.2328845"><ele>198.42857142857142</ele><time>2026-04-18T10:43:32.196Z</time></trkpt><trkpt lat="43.423907" lon="11.2327958"><ele>198.28571428571428</ele><time>2026-04-18T10:43:33.205Z</time></trkpt><trkpt lat="43.4238807" lon="11.2327095"><ele>198.14285714285714</ele><time>2026-04-18T10:43:34.206Z</time></trkpt><trkpt lat="43.4238554" lon="11.2326241"><ele>198.0</ele><time>2026-04-18T10:43:35.196Z</time></trkpt><trkpt lat="43.4238334" lon="11.2325399"><ele>197.75</ele><time>2026-04-18T10:43:36.231Z</time></trkpt><trkpt lat="43.4237865" lon="11.2323768"><ele>197.5</ele><time>2026-04-18T10:43:38.209Z</time></trkpt><trkpt lat="43.4237417" lon="11.2322215"><ele>197.25</ele><time>2026-04-18T10:43:40.224Z</time></trkpt><trkpt lat="43.4236927" lon="11.232067"><ele>197.0</ele><time>2026-04-18T10:43:42.207Z</time></trkpt><trkpt lat="43.4236415" lon="11.2319202"><ele>196.83333333333334</ele><time>2026-04-18T10:43:44.207Z</time></trkpt><trkpt lat="43.4235841" lon="11.2317643"><ele>196.66666666666669</ele><time>2026-04-18T10:43:46.216Z</time></trkpt><trkpt lat="43.4235564" lon="11.2316852"><ele>196.5</ele><time>2026-04-18T10:43:47.206Z</time></trkpt><trkpt lat="43.4235033" lon="11.231532"><ele>196.33333333333331</ele><time>2026-04-18T10:43:49.204Z</time></trkpt><trkpt lat="43.4234745" lon="11.2314538"><ele>196.16666666666666</ele><time>2026-04-18T10:43:50.199Z</time></trkpt><trkpt lat="43.423442" lon="11.2313722"><ele>196.0</ele><time>2026-04-18T10:43:51.201Z</time></trkpt><trkpt lat="43.4233926" lon="11.2312219"><ele>196.0</ele><time>2026-04-18T10:43:53.216Z</time></trkpt><trkpt lat="43.4233406" lon="11.231069"><ele>196.0</ele><time>2026-04-18T10:43:55.21Z</time></trkpt><trkpt lat="43.4233105" lon="11.2309921"><ele>196.0</ele><time>2026-04-18T10:43:56.231Z</time></trkpt><trkpt lat="43.4232613" lon="11.2308482"><ele>196.0</ele><time>2026-04-18T10:43:58.215Z</time></trkpt><trkpt lat="43.4232179" lon="11.2307131"><ele>196.0</ele><time>2026-04-18T10:44:00.212Z</time></trkpt><trkpt lat="43.4231705" lon="11.230574"><ele>196.20000000000002</ele><time>2026-04-18T10:44:02.199Z</time></trkpt><trkpt lat="43.4231227" lon="11.2304366"><ele>196.4</ele><time>2026-04-18T10:44:04.212Z</time></trkpt><trkpt lat="43.423081" lon="11.2303037"><ele>196.6</ele><time>2026-04-18T10:44:06.208Z</time></trkpt><trkpt lat="43.4230386" lon="11.2301704"><ele>196.8</ele><time>2026-04-18T10:44:08.208Z</time></trkpt><trkpt lat="43.4229995" lon="11.2300372"><ele>197.0</ele><time>2026-04-18T10:44:10.215Z</time></trkpt><trkpt lat="43.4229514" lon="11.2298983"><ele>196.8</ele><time>2026-04-18T10:44:12.204Z</time></trkpt><trkpt lat="43.4229008" lon="11.2297726"><ele>196.6</ele><time>2026-04-18T10:44:14.198Z</time></trkpt><trkpt lat="43.4228603" lon="11.2296384"><ele>196.4</ele><time>2026-04-18T10:44:16.215Z</time></trkpt><trkpt lat="43.4228131" lon="11.2295019"><ele>196.20000000000002</ele><time>2026-04-18T10:44:18.211Z</time></trkpt><trkpt lat="43.4227629" lon="11.2293642"><ele>196.0</ele><time>2026-04-18T10:44:20.216Z</time></trkpt><trkpt lat="43.4227294" lon="11.2292336"><ele>196.0</ele><time>2026-04-18T10:44:22.209Z</time></trkpt><trkpt lat="43.4226892" lon="11.2291062"><ele>196.0</ele><time>2026-04-18T10:44:24.214Z</time></trkpt><trkpt lat="43.4226495" lon="11.2289899"><ele>196.0</ele><time>2026-04-18T10:44:26.225Z</time></trkpt><trkpt lat="43.42261" lon="11.2288767"><ele>196.0</ele><time>2026-04-18T10:44:28.208Z</time></trkpt><trkpt lat="43.4225753" lon="11.2287717"><ele>196.0</ele><time>2026-04-18T10:44:30.218Z</time></trkpt><trkpt lat="43.422537" lon="11.2286684"><ele>196.4</ele><time>2026-04-18T10:44:32.205Z</time></trkpt><trkpt lat="43.4224999" lon="11.2285528"><ele>196.8</ele><time>2026-04-18T10:44:34.217Z</time></trkpt><trkpt lat="43.4224679" lon="11.2284431"><ele>197.20000000000002</ele><time>2026-04-18T10:44:36.204Z</time></trkpt><trkpt lat="43.4224299" lon="11.2283196"><ele>197.60000000000002</ele><time>2026-04-18T10:44:38.212Z</time></trkpt><trkpt lat="43.4223896" lon="11.2281961"><ele>198.0</ele><time>2026-04-18T10:44:40.23Z</time></trkpt><trkpt lat="43.4223453" lon="11.2280739"><ele>198.16666666666666</ele><time>2026-04-18T10:44:42.212Z</time></trkpt><trkpt lat="43.4223185" lon="11.2279601"><ele>198.33333333333331</ele><time>2026-04-18T10:44:44.219Z</time></trkpt><trkpt lat="43.4222839" lon="11.2278448"><ele>198.5</ele><time>2026-04-18T10:44:46.22Z</time></trkpt><trkpt lat="43.4222508" lon="11.2277273"><ele>198.66666666666666</ele><time>2026-04-18T10:44:48.199Z</time></trkpt><trkpt lat="43.42222" lon="11.2276132"><ele>198.83333333333331</ele><time>2026-04-18T10:44:50.209Z</time></trkpt><trkpt lat="43.4221915" lon="11.2274994"><ele>199.0</ele><time>2026-04-18T10:44:52.213Z</time></trkpt><trkpt lat="43.4221563" lon="11.227384"><ele>198.49999999999997</ele><time>2026-04-18T10:44:54.21Z</time></trkpt><trkpt lat="43.4221282" lon="11.2272728"><ele>198.0</ele><time>2026-04-18T10:44:56.21Z</time></trkpt><trkpt lat="43.4220985" lon="11.2271643"><ele>197.5</ele><time>2026-04-18T10:44:58.21Z</time></trkpt><trkpt lat="43.4220676" lon="11.2270463"><ele>197.0</ele><time>2026-04-18T10:45:00.215Z</time></trkpt><trkpt lat="43.422034" lon="11.2269341"><ele>196.49999999999997</ele><time>2026-04-18T10:45:02.213Z</time></trkpt><trkpt lat="43.4220134" lon="11.2268279"><ele>196.0</ele><time>2026-04-18T10:45:04.211Z</time></trkpt><trkpt lat="43.4219916" lon="11.2267309"><ele>195.99999999999997</ele><time>2026-04-18T10:45:06.215Z</time></trkpt><trkpt lat="43.4219697" lon="11.226624"><ele>196.0</ele><time>2026-04-18T10:45:08.214Z</time></trkpt><trkpt lat="43.4219457" lon="11.2265136"><ele>196.0</ele><time>2026-04-18T10:45:10.207Z</time></trkpt><trkpt lat="43.4219242" lon="11.2264106"><ele>196.0</ele><time>2026-04-18T10:45:12.205Z</time></trkpt><trkpt lat="43.4219016" lon="11.2263096"><ele>195.99999999999997</ele><time>2026-04-18T10:45:14.223Z</time></trkpt><trkpt lat="43.4218815" lon="11.2262039"><ele>196.0</ele><time>2026-04-18T10:45:16.215Z</time></trkpt><trkpt lat="43.4218538" lon="11.2260876"><ele>196.33333333333331</ele><time>2026-04-18T10:45:18.215Z</time></trkpt><trkpt lat="43.4218243" lon="11.2259728"><ele>196.66666666666666</ele><time>2026-04-18T10:45:20.203Z</time></trkpt><trkpt lat="43.4217971" lon="11.2258618"><ele>197.0</ele><time>2026-04-18T10:45:22.231Z</time></trkpt><trkpt lat="43.4217744" lon="11.225752"><ele>197.33333333333331</ele><time>2026-04-18T10:45:24.205Z</time></trkpt><trkpt lat="43.4217481" lon="11.2256501"><ele>197.66666666666666</ele><time>2026-04-18T10:45:26.205Z</time></trkpt><trkpt lat="43.4217268" lon="11.2255337"><ele>198.0</ele><time>2026-04-18T10:45:28.211Z</time></trkpt><trkpt lat="43.4217036" lon="11.2254291"><ele>198.16666666666666</ele><time>2026-04-18T10:45:30.21Z</time></trkpt><trkpt lat="43.4216692" lon="11.2253286"><ele>198.33333333333331</ele><time>2026-04-18T10:45:32.21Z</time></trkpt><trkpt lat="43.4216408" lon="11.2252182"><ele>198.5</ele><time>2026-04-18T10:45:34.21Z</time></trkpt><trkpt lat="43.4216136" lon="11.2251015"><ele>198.66666666666666</ele><time>2026-04-18T10:45:36.198Z</time></trkpt><trkpt lat="43.4215835" lon="11.224991"><ele>198.83333333333331</ele><time>2026-04-18T10:45:38.213Z</time></trkpt><trkpt lat="43.4215529" lon="11.2248773"><ele>199.0</ele><time>2026-04-18T10:45:40.201Z</time></trkpt><trkpt lat="43.4215395" lon="11.2247695"><ele>199.16666666666666</ele><time>2026-04-18T10:45:42.203Z</time></trkpt><trkpt lat="43.421516" lon="11.2246615"><ele>199.33333333333331</ele><time>2026-04-18T10:45:44.208Z</time></trkpt><trkpt lat="43.4214876" lon="11.2245616"><ele>199.5</ele><time>2026-04-18T10:45:46.211Z</time></trkpt><trkpt lat="43.4214602" lon="11.2244533"><ele>199.66666666666669</ele><time>2026-04-18T10:45:48.211Z</time></trkpt><trkpt lat="43.421424" lon="11.2243363"><ele>199.83333333333334</ele><time>2026-04-18T10:45:50.201Z</time></trkpt><trkpt lat="43.421392" lon="11.2242259"><ele>200.0</ele><time>2026-04-18T10:45:52.199Z</time></trkpt><trkpt lat="43.4213677" lon="11.2241218"><ele>200.0</ele><time>2026-04-18T10:45:54.224Z</time></trkpt><trkpt lat="43.4213368" lon="11.2240089"><ele>200.0</ele><time>2026-04-18T10:45:56.216Z</time></trkpt><trkpt lat="43.4212962" lon="11.2238946"><ele>200.0</ele><time>2026-04-18T10:45:58.216Z</time></trkpt><trkpt lat="43.4212497" lon="11.2237831"><ele>200.0</ele><time>2026-04-18T10:46:00.205Z</time></trkpt><trkpt lat="43.4212018" lon="11.2236747"><ele>200.0</ele><time>2026-04-18T10:46:02.206Z</time></trkpt><trkpt lat="43.4211511" lon="11.22356"><ele>200.0</ele><time>2026-04-18T10:46:04.217Z</time></trkpt><trkpt lat="43.4210952" lon="11.2234546"><ele>200.0</ele><time>2026-04-18T10:46:06.219Z</time></trkpt><trkpt lat="43.4210338" lon="11.223362"><ele>200.0</ele><time>2026-04-18T10:46:08.2Z</time></trkpt><trkpt lat="43.4209682" lon="11.2232738"><ele>200.0</ele><time>2026-04-18T10:46:10.22Z</time></trkpt><trkpt lat="43.4209073" lon="11.2231862"><ele>200.0</ele><time>2026-04-18T10:46:12.226Z</time></trkpt><trkpt lat="43.4208431" lon="11.2230973"><ele>200.0</ele><time>2026-04-18T10:46:14.207Z</time></trkpt><trkpt lat="43.4207687" lon="11.2230015"><ele>200.0</ele><time>2026-04-18T10:46:16.218Z</time></trkpt><trkpt lat="43.4206971" lon="11.2229075"><ele>200.0</ele><time>2026-04-18T10:46:18.207Z</time></trkpt><trkpt lat="43.4206256" lon="11.222814"><ele>200.0</ele><time>2026-04-18T10:46:20.209Z</time></trkpt><trkpt lat="43.4205593" lon="11.2227208"><ele>200.0</ele><time>2026-04-18T10:46:22.205Z</time></trkpt><trkpt lat="43.420488" lon="11.2226249"><ele>200.0</ele><time>2026-04-18T10:46:24.207Z</time></trkpt><trkpt lat="43.420415" lon="11.2225259"><ele>200.0</ele><time>2026-04-18T10:46:26.226Z</time></trkpt><trkpt lat="43.4203473" lon="11.2224292"><ele>200.0</ele><time>2026-04-18T10:46:28.217Z</time></trkpt><trkpt lat="43.4202788" lon="11.2223279"><ele>200.0</ele><time>2026-04-18T10:46:30.212Z</time></trkpt><trkpt lat="43.4202031" lon="11.2222169"><ele>200.0</ele><time>2026-04-18T10:46:32.216Z</time></trkpt><trkpt lat="43.4201267" lon="11.2221012"><ele>200.0</ele><time>2026-04-18T10:46:34.208Z</time></trkpt><trkpt lat="43.4200519" lon="11.2219798"><ele>200.0</ele><time>2026-04-18T10:46:36.222Z</time></trkpt><trkpt lat="43.4199879" lon="11.2218597"><ele>200.0</ele><time>2026-04-18T10:46:38.212Z</time></trkpt><trkpt lat="43.4199341" lon="11.2217373"><ele>200.0</ele><time>2026-04-18T10:46:40.197Z</time></trkpt><trkpt lat="43.4198792" lon="11.2216028"><ele>200.0</ele><time>2026-04-18T10:46:42.205Z</time></trkpt><trkpt lat="43.4198168" lon="11.2214581"><ele>199.6</ele><time>2026-04-18T10:46:44.207Z</time></trkpt><trkpt lat="43.4197816" lon="11.2212974"><ele>199.2</ele><time>2026-04-18T10:46:46.216Z</time></trkpt><trkpt lat="43.4197573" lon="11.2211228"><ele>198.8</ele><time>2026-04-18T10:46:48.218Z</time></trkpt><trkpt lat="43.4197458" lon="11.2210297"><ele>198.4</ele><time>2026-04-18T10:46:49.203Z</time></trkpt><trkpt lat="43.4197324" lon="11.2209337"><ele>198.0</ele><time>2026-04-18T10:46:50.215Z</time></trkpt><trkpt lat="43.4197209" lon="11.2208418"><ele>198.0</ele><time>2026-04-18T10:46:51.214Z</time></trkpt><trkpt lat="43.4197063" lon="11.220745"><ele>198.0</ele><time>2026-04-18T10:46:52.205Z</time></trkpt><trkpt lat="43.4196912" lon="11.2206508"><ele>198.0</ele><time>2026-04-18T10:46:53.213Z</time></trkpt><trkpt lat="43.4196733" lon="11.2205505"><ele>198.0</ele><time>2026-04-18T10:46:54.217Z</time></trkpt><trkpt lat="43.4196534" lon="11.2204439"><ele>198.0</ele><time>2026-04-18T10:46:55.211Z</time></trkpt><trkpt lat="43.4196384" lon="11.2203342"><ele>198.0</ele><time>2026-04-18T10:46:56.209Z</time></trkpt><trkpt lat="43.4196229" lon="11.2202193"><ele>198.0</ele><time>2026-04-18T10:46:57.206Z</time></trkpt><trkpt lat="43.4196083" lon="11.2201042"><ele>198.0</ele><time>2026-04-18T10:46:58.219Z</time></trkpt><trkpt lat="43.419593" lon="11.2199923"><ele>198.0</ele><time>2026-04-18T10:46:59.217Z</time></trkpt><trkpt lat="43.4195809" lon="11.2198827"><ele>198.0</ele><time>2026-04-18T10:47:00.211Z</time></trkpt><trkpt lat="43.4195595" lon="11.2197697"><ele>198.0</ele><time>2026-04-18T10:47:01.222Z</time></trkpt><trkpt lat="43.4195282" lon="11.2196608"><ele>198.0</ele><time>2026-04-18T10:47:02.206Z</time></trkpt><trkpt lat="43.4194934" lon="11.2195544"><ele>197.16666666666666</ele><time>2026-04-18T10:47:03.221Z</time></trkpt><trkpt lat="43.419456" lon="11.2194505"><ele>196.33333333333331</ele><time>2026-04-18T10:47:04.217Z</time></trkpt><trkpt lat="43.4194098" lon="11.2193487"><ele>195.5</ele><time>2026-04-18T10:47:05.216Z</time></trkpt><trkpt lat="43.4193589" lon="11.2192425"><ele>194.66666666666666</ele><time>2026-04-18T10:47:06.214Z</time></trkpt><trkpt lat="43.4193026" lon="11.2191421"><ele>193.83333333333331</ele><time>2026-04-18T10:47:07.209Z</time></trkpt><trkpt lat="43.4192465" lon="11.2190431"><ele>193.0</ele><time>2026-04-18T10:47:08.214Z</time></trkpt><trkpt lat="43.4191867" lon="11.2189468"><ele>192.60000000000002</ele><time>2026-04-18T10:47:09.229Z</time></trkpt><trkpt lat="43.4191232" lon="11.2188502"><ele>192.20000000000002</ele><time>2026-04-18T10:47:10.222Z</time></trkpt><trkpt lat="43.4190606" lon="11.2187546"><ele>191.8</ele><time>2026-04-18T10:47:11.221Z</time></trkpt><trkpt lat="43.4190001" lon="11.2186598"><ele>191.4</ele><time>2026-04-18T10:47:12.222Z</time></trkpt><trkpt lat="43.4189425" lon="11.2185627"><ele>191.0</ele><time>2026-04-18T10:47:13.231Z</time></trkpt><trkpt lat="43.4188922" lon="11.2184685"><ele>191.0</ele><time>2026-04-18T10:47:14.218Z</time></trkpt><trkpt lat="43.4188438" lon="11.2183712"><ele>191.0</ele><time>2026-04-18T10:47:15.222Z</time></trkpt><trkpt lat="43.4187976" lon="11.2182724"><ele>191.0</ele><time>2026-04-18T10:47:16.203Z</time></trkpt><trkpt lat="43.4187473" lon="11.2181665"><ele>191.0</ele><time>2026-04-18T10:47:17.249Z</time></trkpt><trkpt lat="43.418707" lon="11.2180639"><ele>191.0</ele><time>2026-04-18T10:47:18.213Z</time></trkpt><trkpt lat="43.4186646" lon="11.2179586"><ele>191.0</ele><time>2026-04-18T10:47:19.202Z</time></trkpt><trkpt lat="43.4186238" lon="11.2178452"><ele>190.4</ele><time>2026-04-18T10:47:20.208Z</time></trkpt><trkpt lat="43.4185802" lon="11.2177272"><ele>189.8</ele><time>2026-04-18T10:47:21.208Z</time></trkpt><trkpt lat="43.4185331" lon="11.2176055"><ele>189.20000000000002</ele><time>2026-04-18T10:47:22.23Z</time></trkpt><trkpt lat="43.4184847" lon="11.2174805"><ele>188.60000000000002</ele><time>2026-04-18T10:47:23.199Z</time></trkpt><trkpt lat="43.4184419" lon="11.2173504"><ele>188.0</ele><time>2026-04-18T10:47:24.2Z</time></trkpt><trkpt lat="43.418402" lon="11.2172262"><ele>187.4</ele><time>2026-04-18T10:47:25.208Z</time></trkpt><trkpt lat="43.4183663" lon="11.2171047"><ele>186.8</ele><time>2026-04-18T10:47:26.199Z</time></trkpt><trkpt lat="43.4183304" lon="11.2169883"><ele>186.2</ele><time>2026-04-18T10:47:27.209Z</time></trkpt><trkpt lat="43.4182914" lon="11.2168717"><ele>185.6</ele><time>2026-04-18T10:47:28.214Z</time></trkpt><trkpt lat="43.4182462" lon="11.2167532"><ele>185.0</ele><time>2026-04-18T10:47:29.213Z</time></trkpt><trkpt lat="43.4181953" lon="11.2166301"><ele>185.0</ele><time>2026-04-18T10:47:30.224Z</time></trkpt><trkpt lat="43.4181471" lon="11.2165148"><ele>185.0</ele><time>2026-04-18T10:47:31.212Z</time></trkpt><trkpt lat="43.4180967" lon="11.2163982"><ele>185.0</ele><time>2026-04-18T10:47:32.204Z</time></trkpt><trkpt lat="43.4180499" lon="11.2162842"><ele>185.0</ele><time>2026-04-18T10:47:33.21Z</time></trkpt><trkpt lat="43.4180081" lon="11.2161752"><ele>185.0</ele><time>2026-04-18T10:47:34.205Z</time></trkpt><trkpt lat="43.4179652" lon="11.2160658"><ele>183.8</ele><time>2026-04-18T10:47:35.2Z</time></trkpt><trkpt lat="43.4179219" lon="11.2159567"><ele>182.6</ele><time>2026-04-18T10:47:36.21Z</time></trkpt><trkpt lat="43.41788" lon="11.2158458"><ele>181.39999999999998</ele><time>2026-04-18T10:47:37.216Z</time></trkpt><trkpt lat="43.4178394" lon="11.2157307"><ele>180.2</ele><time>2026-04-18T10:47:38.213Z</time></trkpt><trkpt lat="43.4177963" lon="11.2156225"><ele>179.0</ele><time>2026-04-18T10:47:39.215Z</time></trkpt><trkpt lat="43.4177543" lon="11.2155111"><ele>178.6</ele><time>2026-04-18T10:47:40.199Z</time></trkpt><trkpt lat="43.4177103" lon="11.215399"><ele>178.2</ele><time>2026-04-18T10:47:41.217Z</time></trkpt><trkpt lat="43.4176618" lon="11.2152822"><ele>177.79999999999998</ele><time>2026-04-18T10:47:42.203Z</time></trkpt><trkpt lat="43.417619" lon="11.2151729"><ele>177.39999999999998</ele><time>2026-04-18T10:47:43.212Z</time></trkpt><trkpt lat="43.4175756" lon="11.2150692"><ele>177.0</ele><time>2026-04-18T10:47:44.206Z</time></trkpt><trkpt lat="43.4175329" lon="11.2149665"><ele>177.0</ele><time>2026-04-18T10:47:45.218Z</time></trkpt><trkpt lat="43.4174943" lon="11.2148681"><ele>177.0</ele><time>2026-04-18T10:47:46.202Z</time></trkpt><trkpt lat="43.4174624" lon="11.2147797"><ele>177.0</ele><time>2026-04-18T10:47:47.218Z</time></trkpt><trkpt lat="43.4174269" lon="11.2146975"><ele>177.0</ele><time>2026-04-18T10:47:48.217Z</time></trkpt><trkpt lat="43.4173907" lon="11.2146144"><ele>177.0</ele><time>2026-04-18T10:47:49.21Z</time></trkpt><trkpt lat="43.4173596" lon="11.214537"><ele>177.0</ele><time>2026-04-18T10:47:50.212Z</time></trkpt><trkpt lat="43.4173013" lon="11.2143882"><ele>177.0</ele><time>2026-04-18T10:47:52.207Z</time></trkpt><trkpt lat="43.417242" lon="11.2142408"><ele>177.0</ele><time>2026-04-18T10:47:54.222Z</time></trkpt><trkpt lat="43.4171788" lon="11.2141006"><ele>177.0</ele><time>2026-04-18T10:47:56.211Z</time></trkpt><trkpt lat="43.4171411" lon="11.2140283"><ele>177.0</ele><time>2026-04-18T10:47:57.217Z</time></trkpt><trkpt lat="43.4171056" lon="11.2139522"><ele>177.0</ele><time>2026-04-18T10:47:58.22Z</time></trkpt><trkpt lat="43.417045" lon="11.2138039"><ele>177.2857142857143</ele><time>2026-04-18T10:48:00.207Z</time></trkpt><trkpt lat="43.4170144" lon="11.2137209"><ele>177.57142857142856</ele><time>2026-04-18T10:48:01.212Z</time></trkpt><trkpt lat="43.416982" lon="11.2136394"><ele>177.85714285714286</ele><time>2026-04-18T10:48:02.22Z</time></trkpt><trkpt lat="43.4169449" lon="11.2135564"><ele>178.14285714285717</ele><time>2026-04-18T10:48:03.209Z</time></trkpt><trkpt lat="43.4169125" lon="11.2134695"><ele>178.42857142857144</ele><time>2026-04-18T10:48:04.207Z</time></trkpt><trkpt lat="43.4168782" lon="11.2133844"><ele>178.71428571428572</ele><time>2026-04-18T10:48:05.209Z</time></trkpt><trkpt lat="43.4168476" lon="11.213301"><ele>179.0</ele><time>2026-04-18T10:48:06.227Z</time></trkpt><trkpt lat="43.416818" lon="11.2132173"><ele>179.16666666666666</ele><time>2026-04-18T10:48:07.208Z</time></trkpt><trkpt lat="43.4167866" lon="11.2131329"><ele>179.33333333333331</ele><time>2026-04-18T10:48:08.204Z</time></trkpt><trkpt lat="43.4167552" lon="11.2130516"><ele>179.5</ele><time>2026-04-18T10:48:09.217Z</time></trkpt><trkpt lat="43.4167218" lon="11.2129722"><ele>179.66666666666666</ele><time>2026-04-18T10:48:10.223Z</time></trkpt><trkpt lat="43.41669" lon="11.2128974"><ele>179.83333333333334</ele><time>2026-04-18T10:48:11.229Z</time></trkpt><trkpt lat="43.4166216" lon="11.212749"><ele>180.0</ele><time>2026-04-18T10:48:13.222Z</time></trkpt><trkpt lat="43.4165606" lon="11.2126006"><ele>180.0</ele><time>2026-04-18T10:48:15.2Z</time></trkpt><trkpt lat="43.4165278" lon="11.2125188"><ele>180.0</ele><time>2026-04-18T10:48:16.221Z</time></trkpt><trkpt lat="43.4164668" lon="11.212371"><ele>180.0</ele><time>2026-04-18T10:48:18.201Z</time></trkpt><trkpt lat="43.416404" lon="11.2122252"><ele>180.0</ele><time>2026-04-18T10:48:20.211Z</time></trkpt><trkpt lat="43.4163429" lon="11.2120794"><ele>180.0</ele><time>2026-04-18T10:48:22.222Z</time></trkpt><trkpt lat="43.4162804" lon="11.2119477"><ele>181.0</ele><time>2026-04-18T10:48:24.207Z</time></trkpt><trkpt lat="43.4162171" lon="11.211827"><ele>182.0</ele><time>2026-04-18T10:48:26.194Z</time></trkpt><trkpt lat="43.4161566" lon="11.2117128"><ele>183.0</ele><time>2026-04-18T10:48:28.2Z</time></trkpt><trkpt lat="43.4160917" lon="11.2116102"><ele>184.0</ele><time>2026-04-18T10:48:30.203Z</time></trkpt><trkpt lat="43.4160273" lon="11.2115254"><ele>185.0</ele><time>2026-04-18T10:48:32.21Z</time></trkpt><trkpt lat="43.4159483" lon="11.2114625"><ele>185.0</ele><time>2026-04-18T10:48:34.218Z</time></trkpt><trkpt lat="43.4158742" lon="11.2114152"><ele>185.0</ele><time>2026-04-18T10:48:36.219Z</time></trkpt><trkpt lat="43.4158008" lon="11.2113661"><ele>185.0</ele><time>2026-04-18T10:48:38.202Z</time></trkpt><trkpt lat="43.4157186" lon="11.2113314"><ele>185.0</ele><time>2026-04-18T10:48:40.208Z</time></trkpt><trkpt lat="43.415634" lon="11.2112732"><ele>185.0</ele><time>2026-04-18T10:48:42.231Z</time></trkpt><trkpt lat="43.4155447" lon="11.2112462"><ele>185.0</ele><time>2026-04-18T10:48:44.205Z</time></trkpt><trkpt lat="43.4154496" lon="11.2112199"><ele>185.2</ele><time>2026-04-18T10:48:46.199Z</time></trkpt><trkpt lat="43.4153593" lon="11.2111685"><ele>185.4</ele><time>2026-04-18T10:48:48.208Z</time></trkpt><trkpt lat="43.4152749" lon="11.2111249"><ele>185.60000000000002</ele><time>2026-04-18T10:48:50.205Z</time></trkpt><trkpt lat="43.4151911" lon="11.2110931"><ele>185.8</ele><time>2026-04-18T10:48:52.222Z</time></trkpt><trkpt lat="43.4151035" lon="11.2110574"><ele>186.0</ele><time>2026-04-18T10:48:54.199Z</time></trkpt><trkpt lat="43.415019" lon="11.2110343"><ele>186.0</ele><time>2026-04-18T10:48:56.208Z</time></trkpt><trkpt lat="43.414935" lon="11.2110042"><ele>186.0</ele><time>2026-04-18T10:48:58.209Z</time></trkpt><trkpt lat="43.4148519" lon="11.2109702"><ele>186.0</ele><time>2026-04-18T10:49:00.205Z</time></trkpt><trkpt lat="43.4147689" lon="11.2109393"><ele>186.0</ele><time>2026-04-18T10:49:02.203Z</time></trkpt><trkpt lat="43.4146891" lon="11.2109181"><ele>186.0</ele><time>2026-04-18T10:49:04.224Z</time></trkpt><trkpt lat="43.4146179" lon="11.2108957"><ele>186.0</ele><time>2026-04-18T10:49:06.216Z</time></trkpt><trkpt lat="43.4145483" lon="11.210858"><ele>186.16666666666666</ele><time>2026-04-18T10:49:08.21Z</time></trkpt><trkpt lat="43.4144782" lon="11.2108207"><ele>186.33333333333334</ele><time>2026-04-18T10:49:10.219Z</time></trkpt><trkpt lat="43.4144107" lon="11.2107873"><ele>186.5</ele><time>2026-04-18T10:49:12.217Z</time></trkpt><trkpt lat="43.4143378" lon="11.2107563"><ele>186.66666666666669</ele><time>2026-04-18T10:49:14.223Z</time></trkpt><trkpt lat="43.414261" lon="11.210728"><ele>186.83333333333334</ele><time>2026-04-18T10:49:16.207Z</time></trkpt><trkpt lat="43.4141886" lon="11.2106925"><ele>187.0</ele><time>2026-04-18T10:49:18.196Z</time></trkpt><trkpt lat="43.414117" lon="11.2106753"><ele>186.85714285714286</ele><time>2026-04-18T10:49:20.213Z</time></trkpt><trkpt lat="43.4140442" lon="11.2106566"><ele>186.71428571428572</ele><time>2026-04-18T10:49:22.202Z</time></trkpt><trkpt lat="43.4139796" lon="11.2106302"><ele>186.57142857142858</ele><time>2026-04-18T10:49:24.212Z</time></trkpt><trkpt lat="43.4139152" lon="11.2106137"><ele>186.42857142857144</ele><time>2026-04-18T10:49:26.214Z</time></trkpt><trkpt lat="43.4138467" lon="11.2106026"><ele>186.28571428571428</ele><time>2026-04-18T10:49:28.223Z</time></trkpt><trkpt lat="43.4137592" lon="11.2106142"><ele>186.14285714285717</ele><time>2026-04-18T10:49:31.225Z</time></trkpt><trkpt lat="43.4136905" lon="11.2106125"><ele>186.0</ele><time>2026-04-18T10:49:33.207Z</time></trkpt><trkpt lat="43.4136232" lon="11.2105558"><ele>186.0</ele><time>2026-04-18T10:49:35.201Z</time></trkpt><trkpt lat="43.4136188" lon="11.210459"><ele>186.0</ele><time>2026-04-18T10:49:37.207Z</time></trkpt><trkpt lat="43.4136372" lon="11.2103547"><ele>186.0</ele><time>2026-04-18T10:49:39.214Z</time></trkpt><trkpt lat="43.4136685" lon="11.2102719"><ele>186.0</ele><time>2026-04-18T10:49:41.198Z</time></trkpt><trkpt lat="43.4137099" lon="11.2102005"><ele>186.0</ele><time>2026-04-18T10:49:43.211Z</time></trkpt><trkpt lat="43.4137607" lon="11.210126"><ele>186.0</ele><time>2026-04-18T10:49:46.205Z</time></trkpt><trkpt lat="43.4138467" lon="11.2100761"><ele>186.0</ele><time>2026-04-18T10:49:49.22Z</time></trkpt><trkpt lat="43.413921" lon="11.2100175"><ele>186.0</ele><time>2026-04-18T10:49:51.215Z</time></trkpt><trkpt lat="43.4140034" lon="11.2099721"><ele>186.0</ele><time>2026-04-18T10:49:53.205Z</time></trkpt><trkpt lat="43.4140805" lon="11.2099238"><ele>186.0</ele><time>2026-04-18T10:49:55.211Z</time></trkpt><trkpt lat="43.4141585" lon="11.2098624"><ele>186.0</ele><time>2026-04-18T10:49:57.199Z</time></trkpt><trkpt lat="43.4142554" lon="11.2097858"><ele>185.8</ele><time>2026-04-18T10:49:59.204Z</time></trkpt><trkpt lat="43.4143448" lon="11.2097178"><ele>185.60000000000002</ele><time>2026-04-18T10:50:01.212Z</time></trkpt><trkpt lat="43.4144131" lon="11.2096595"><ele>185.4</ele><time>2026-04-18T10:50:03.203Z</time></trkpt><trkpt lat="43.4144979" lon="11.2096023"><ele>185.2</ele><time>2026-04-18T10:50:05.194Z</time></trkpt><trkpt lat="43.4145858" lon="11.2095522"><ele>185.0</ele><time>2026-04-18T10:50:07.196Z</time></trkpt><trkpt lat="43.4146601" lon="11.2095124"><ele>184.8</ele><time>2026-04-18T10:50:09.207Z</time></trkpt><trkpt lat="43.4147369" lon="11.2094758"><ele>184.6</ele><time>2026-04-18T10:50:11.206Z</time></trkpt><trkpt lat="43.4148174" lon="11.2094359"><ele>184.39999999999998</ele><time>2026-04-18T10:50:13.216Z</time></trkpt><trkpt lat="43.4149111" lon="11.2093707"><ele>184.2</ele><time>2026-04-18T10:50:15.209Z</time></trkpt><trkpt lat="43.4150035" lon="11.2092826"><ele>184.0</ele><time>2026-04-18T10:50:17.202Z</time></trkpt><trkpt lat="43.4150973" lon="11.2092086"><ele>184.0</ele><time>2026-04-18T10:50:19.235Z</time></trkpt><trkpt lat="43.4151839" lon="11.2091603"><ele>184.0</ele><time>2026-04-18T10:50:21.192Z</time></trkpt><trkpt lat="43.4152754" lon="11.2091064"><ele>184.0</ele><time>2026-04-18T10:50:23.195Z</time></trkpt><trkpt lat="43.4153945" lon="11.2090547"><ele>184.0</ele><time>2026-04-18T10:50:25.221Z</time></trkpt><trkpt lat="43.4154688" lon="11.2090184"><ele>184.0</ele><time>2026-04-18T10:50:26.204Z</time></trkpt><trkpt lat="43.4155454" lon="11.2089783"><ele>183.83333333333334</ele><time>2026-04-18T10:50:27.218Z</time></trkpt><trkpt lat="43.4156089" lon="11.2089399"><ele>183.66666666666669</ele><time>2026-04-18T10:50:28.198Z</time></trkpt><trkpt lat="43.415678" lon="11.2088968"><ele>183.5</ele><time>2026-04-18T10:50:29.205Z</time></trkpt><trkpt lat="43.4157493" lon="11.2088495"><ele>183.33333333333334</ele><time>2026-04-18T10:50:30.2Z</time></trkpt><trkpt lat="43.4158224" lon="11.2088064"><ele>183.16666666666666</ele><time>2026-04-18T10:50:31.211Z</time></trkpt><trkpt lat="43.4158962" lon="11.2087671"><ele>183.0</ele><time>2026-04-18T10:50:32.201Z</time></trkpt><trkpt lat="43.4159613" lon="11.2087348"><ele>183.0</ele><time>2026-04-18T10:50:33.23Z</time></trkpt><trkpt lat="43.4160239" lon="11.2087033"><ele>183.0</ele><time>2026-04-18T10:50:34.2Z</time></trkpt><trkpt lat="43.4160883" lon="11.2086708"><ele>183.0</ele><time>2026-04-18T10:50:35.207Z</time></trkpt><trkpt lat="43.4161556" lon="11.2086386"><ele>183.0</ele><time>2026-04-18T10:50:36.202Z</time></trkpt><trkpt lat="43.4162219" lon="11.2086049"><ele>183.0</ele><time>2026-04-18T10:50:37.205Z</time></trkpt><trkpt lat="43.4162867" lon="11.2085711"><ele>183.0</ele><time>2026-04-18T10:50:38.201Z</time></trkpt><trkpt lat="43.4163518" lon="11.208541"><ele>183.0</ele><time>2026-04-18T10:50:39.203Z</time></trkpt><trkpt lat="43.4164147" lon="11.2085085"><ele>182.83333333333334</ele><time>2026-04-18T10:50:40.195Z</time></trkpt><trkpt lat="43.4164753" lon="11.2084771"><ele>182.66666666666666</ele><time>2026-04-18T10:50:41.202Z</time></trkpt><trkpt lat="43.4165809" lon="11.2084304"><ele>182.5</ele><time>2026-04-18T10:50:43.208Z</time></trkpt><trkpt lat="43.4166718" lon="11.2083942"><ele>182.33333333333331</ele><time>2026-04-18T10:50:45.222Z</time></trkpt><trkpt lat="43.4167354" lon="11.2083428"><ele>182.16666666666666</ele><time>2026-04-18T10:50:47.213Z</time></trkpt><trkpt lat="43.41678" lon="11.2082631"><ele>182.0</ele><time>2026-04-18T10:50:49.212Z</time></trkpt><trkpt lat="43.4168125" lon="11.2081549"><ele>182.0</ele><time>2026-04-18T10:50:51.2Z</time></trkpt><trkpt lat="43.4168477" lon="11.2080364"><ele>182.0</ele><time>2026-04-18T10:50:53.204Z</time></trkpt><trkpt lat="43.416843" lon="11.2079226"><ele>182.0</ele><time>2026-04-18T10:50:55.2Z</time></trkpt><trkpt lat="43.4168368" lon="11.2078302"><ele>182.0</ele><time>2026-04-18T10:50:57.199Z</time></trkpt><trkpt lat="43.4168613" lon="11.2077386"><ele>182.0</ele><time>2026-04-18T10:50:59.214Z</time></trkpt><trkpt lat="43.4169088" lon="11.2076492"><ele>182.0</ele><time>2026-04-18T10:51:01.206Z</time></trkpt><trkpt lat="43.4170029" lon="11.2075348"><ele>182.0</ele><time>2026-04-18T10:51:03.205Z</time></trkpt><trkpt lat="43.4170943" lon="11.2074131"><ele>182.0</ele><time>2026-04-18T10:51:05.206Z</time></trkpt><trkpt lat="43.4171212" lon="11.2073258"><ele>182.0</ele><time>2026-04-18T10:51:06.195Z</time></trkpt><trkpt lat="43.417097" lon="11.2072289"><ele>182.0</ele><time>2026-04-18T10:51:07.208Z</time></trkpt><trkpt lat="43.4170453" lon="11.2071305"><ele>182.0</ele><time>2026-04-18T10:51:09.194Z</time></trkpt><trkpt lat="43.4169734" lon="11.2070389"><ele>181.5</ele><time>2026-04-18T10:51:11.204Z</time></trkpt><trkpt lat="43.4168924" lon="11.2069896"><ele>181.0</ele><time>2026-04-18T10:51:13.203Z</time></trkpt><trkpt lat="43.4168331" lon="11.2070546"><ele>180.5</ele><time>2026-04-18T10:51:17.205Z</time></trkpt><trkpt lat="43.4167578" lon="11.2071143"><ele>180.0</ele><time>2026-04-18T10:51:20.211Z</time></trkpt><trkpt lat="43.4166903" lon="11.2071773"><ele>179.5</ele><time>2026-04-18T10:51:23.193Z</time></trkpt><trkpt lat="43.4166203" lon="11.2072107"><ele>179.0</ele><time>2026-04-18T10:51:26.191Z</time></trkpt><trkpt lat="43.4165533" lon="11.2072178"><ele>179.0</ele><time>2026-04-18T10:51:29.195Z</time></trkpt><trkpt lat="43.4164844" lon="11.2071966"><ele>179.0</ele><time>2026-04-18T10:51:32.199Z</time></trkpt><trkpt lat="43.4164235" lon="11.207138"><ele>179.0</ele><time>2026-04-18T10:51:36.216Z</time></trkpt><trkpt lat="43.4163551" lon="11.2070963"><ele>179.0</ele><time>2026-04-18T10:51:39.223Z</time></trkpt><trkpt lat="43.4162826" lon="11.2070429"><ele>179.0</ele><time>2026-04-18T10:51:42.211Z</time></trkpt><trkpt lat="43.4162177" lon="11.206983"><ele>179.0</ele><time>2026-04-18T10:51:45.209Z</time></trkpt><trkpt lat="43.4161532" lon="11.2069312"><ele>179.71428571428572</ele><time>2026-04-18T10:51:48.219Z</time></trkpt><trkpt lat="43.4160984" lon="11.2068846"><ele>180.42857142857144</ele><time>2026-04-18T10:51:51.211Z</time></trkpt><trkpt lat="43.416026" lon="11.2068338"><ele>181.14285714285717</ele><time>2026-04-18T10:51:55.209Z</time></trkpt><trkpt lat="43.4159589" lon="11.2068194"><ele>181.85714285714286</ele><time>2026-04-18T10:51:59.209Z</time></trkpt><trkpt lat="43.4159254" lon="11.2067386"><ele>182.57142857142856</ele><time>2026-04-18T10:52:04.204Z</time></trkpt><trkpt lat="43.4159138" lon="11.2066436"><ele>183.2857142857143</ele><time>2026-04-18T10:52:08.212Z</time></trkpt><trkpt lat="43.415919" lon="11.2065445"><ele>184.0</ele><time>2026-04-18T10:52:11.196Z</time></trkpt><trkpt lat="43.4159539" lon="11.2064461"><ele>184.0</ele><time>2026-04-18T10:52:14.22Z</time></trkpt><trkpt lat="43.4159843" lon="11.2063649"><ele>184.0</ele><time>2026-04-18T10:52:16.199Z</time></trkpt><trkpt lat="43.4160169" lon="11.206281"><ele>184.0</ele><time>2026-04-18T10:52:18.197Z</time></trkpt><trkpt lat="43.4160236" lon="11.2061559"><ele>184.0</ele><time>2026-04-18T10:52:21.208Z</time></trkpt><trkpt lat="43.4160158" lon="11.2060301"><ele>184.0</ele><time>2026-04-18T10:52:24.213Z</time></trkpt><trkpt lat="43.4160199" lon="11.2059431"><ele>184.0</ele><time>2026-04-18T10:52:26.214Z</time></trkpt><trkpt lat="43.4160371" lon="11.2058486"><ele>184.0</ele><time>2026-04-18T10:52:28.198Z</time></trkpt><trkpt lat="43.416049" lon="11.2057592"><ele>184.0</ele><time>2026-04-18T10:52:30.203Z</time></trkpt><trkpt lat="43.4160636" lon="11.2056488"><ele>184.0</ele><time>2026-04-18T10:52:32.216Z</time></trkpt><trkpt lat="43.4160673" lon="11.2055246"><ele>184.0</ele><time>2026-04-18T10:52:34.221Z</time></trkpt><trkpt lat="43.4160698" lon="11.2054084"><ele>184.0</ele><time>2026-04-18T10:52:36.206Z</time></trkpt><trkpt lat="43.4160931" lon="11.205302"><ele>184.0</ele><time>2026-04-18T10:52:38.2Z</time></trkpt><trkpt lat="43.416137" lon="11.2051528"><ele>184.0</ele><time>2026-04-18T10:52:40.217Z</time></trkpt><trkpt lat="43.4161835" lon="11.2050428"><ele>184.0</ele><time>2026-04-18T10:52:42.192Z</time></trkpt><trkpt lat="43.4162322" lon="11.2049236"><ele>184.0</ele><time>2026-04-18T10:52:44.204Z</time></trkpt><trkpt lat="43.416269" lon="11.2047685"><ele>184.0</ele><time>2026-04-18T10:52:46.201Z</time></trkpt><trkpt lat="43.4162881" lon="11.2046501"><ele>184.0</ele><time>2026-04-18T10:52:48.205Z</time></trkpt><trkpt lat="43.4162819" lon="11.2044958"><ele>184.0</ele><time>2026-04-18T10:52:50.205Z</time></trkpt><trkpt lat="43.4162689" lon="11.2043579"><ele>184.0</ele><time>2026-04-18T10:52:52.199Z</time></trkpt><trkpt lat="43.4162571" lon="11.2042623"><ele>184.0</ele><time>2026-04-18T10:52:54.205Z</time></trkpt><trkpt lat="43.4162703" lon="11.2041284"><ele>184.0</ele><time>2026-04-18T10:52:57.222Z</time></trkpt><trkpt lat="43.4162878" lon="11.2040181"><ele>184.0</ele><time>2026-04-18T10:52:59.207Z</time></trkpt><trkpt lat="43.4163023" lon="11.2038971"><ele>184.0</ele><time>2026-04-18T10:53:01.203Z</time></trkpt><trkpt lat="43.4163401" lon="11.2037609"><ele>183.79999999999998</ele><time>2026-04-18T10:53:03.198Z</time></trkpt><trkpt lat="43.4163727" lon="11.2036269"><ele>183.6</ele><time>2026-04-18T10:53:05.196Z</time></trkpt><trkpt lat="43.4164012" lon="11.2035051"><ele>183.4</ele><time>2026-04-18T10:53:07.205Z</time></trkpt><trkpt lat="43.4164337" lon="11.2033902"><ele>183.2</ele><time>2026-04-18T10:53:09.209Z</time></trkpt><trkpt lat="43.4164698" lon="11.2032614"><ele>183.0</ele><time>2026-04-18T10:53:11.207Z</time></trkpt><trkpt lat="43.4164944" lon="11.2031374"><ele>183.0</ele><time>2026-04-18T10:53:13.216Z</time></trkpt><trkpt lat="43.416514" lon="11.2030399"><ele>183.0</ele><time>2026-04-18T10:53:15.214Z</time></trkpt><trkpt lat="43.4165475" lon="11.2029323"><ele>183.0</ele><time>2026-04-18T10:53:17.217Z</time></trkpt><trkpt lat="43.4165957" lon="11.2027884"><ele>183.0</ele><time>2026-04-18T10:53:19.209Z</time></trkpt><trkpt lat="43.4166483" lon="11.2026832"><ele>183.0</ele><time>2026-04-18T10:53:21.225Z</time></trkpt><trkpt lat="43.4166928" lon="11.2025998"><ele>183.0</ele><time>2026-04-18T10:53:23.213Z</time></trkpt><trkpt lat="43.4167509" lon="11.2025097"><ele>183.0</ele><time>2026-04-18T10:53:26.212Z</time></trkpt><trkpt lat="43.4168119" lon="11.2024387"><ele>183.0</ele><time>2026-04-18T10:53:29.209Z</time></trkpt><trkpt lat="43.4168556" lon="11.2023611"><ele>183.0</ele><time>2026-04-18T10:53:32.202Z</time></trkpt><trkpt lat="43.4168878" lon="11.2022842"><ele>183.0</ele><time>2026-04-18T10:53:35.208Z</time></trkpt><trkpt lat="43.4169221" lon="11.2021793"><ele>183.0</ele><time>2026-04-18T10:53:37.2Z</time></trkpt><trkpt lat="43.4169793" lon="11.2020636"><ele>183.0</ele><time>2026-04-18T10:53:39.207Z</time></trkpt><trkpt lat="43.4170217" lon="11.2019418"><ele>182.83333333333334</ele><time>2026-04-18T10:53:41.228Z</time></trkpt><trkpt lat="43.4170625" lon="11.2018076"><ele>182.66666666666666</ele><time>2026-04-18T10:53:43.224Z</time></trkpt><trkpt lat="43.4170951" lon="11.2017265"><ele>182.5</ele><time>2026-04-18T10:53:44.201Z</time></trkpt><trkpt lat="43.4171586" lon="11.2015996"><ele>182.33333333333331</ele><time>2026-04-18T10:53:46.211Z</time></trkpt><trkpt lat="43.4171728" lon="11.2014963"><ele>182.16666666666666</ele><time>2026-04-18T10:53:47.222Z</time></trkpt><trkpt lat="43.4172068" lon="11.2013881"><ele>182.0</ele><time>2026-04-18T10:53:49.225Z</time></trkpt><trkpt lat="43.4172403" lon="11.2012719"><ele>182.0</ele><time>2026-04-18T10:53:52.212Z</time></trkpt><trkpt lat="43.4172431" lon="11.2011503"><ele>182.0</ele><time>2026-04-18T10:53:54.214Z</time></trkpt><trkpt lat="43.4172465" lon="11.2009984"><ele>182.0</ele><time>2026-04-18T10:53:56.219Z</time></trkpt><trkpt lat="43.4172557" lon="11.2008514"><ele>182.0</ele><time>2026-04-18T10:53:58.209Z</time></trkpt><trkpt lat="43.41725" lon="11.2007248"><ele>182.0</ele><time>2026-04-18T10:54:00.2Z</time></trkpt><trkpt lat="43.4172623" lon="11.2006178"><ele>181.0</ele><time>2026-04-18T10:54:02.2Z</time></trkpt><trkpt lat="43.4172785" lon="11.2004929"><ele>180.0</ele><time>2026-04-18T10:54:05.202Z</time></trkpt><trkpt lat="43.4172867" lon="11.200376"><ele>179.0</ele><time>2026-04-18T10:54:07.194Z</time></trkpt><trkpt lat="43.417303" lon="11.2002438"><ele>178.0</ele><time>2026-04-18T10:54:09.202Z</time></trkpt><trkpt lat="43.4173137" lon="11.2001163"><ele>177.0</ele><time>2026-04-18T10:54:11.211Z</time></trkpt><trkpt lat="43.4173203" lon="11.1999806"><ele>177.0</ele><time>2026-04-18T10:54:13.2Z</time></trkpt><trkpt lat="43.4173286" lon="11.1998376"><ele>177.0</ele><time>2026-04-18T10:54:15.209Z</time></trkpt><trkpt lat="43.417331" lon="11.1996789"><ele>177.0</ele><time>2026-04-18T10:54:17.201Z</time></trkpt><trkpt lat="43.4173386" lon="11.1995314"><ele>177.0</ele><time>2026-04-18T10:54:19.202Z</time></trkpt><trkpt lat="43.4173467" lon="11.1993872"><ele>177.0</ele><time>2026-04-18T10:54:21.212Z</time></trkpt><trkpt lat="43.4173635" lon="11.199252"><ele>176.8</ele><time>2026-04-18T10:54:23.202Z</time></trkpt><trkpt lat="43.4173856" lon="11.1991133"><ele>176.6</ele><time>2026-04-18T10:54:25.203Z</time></trkpt><trkpt lat="43.4174006" lon="11.1989719"><ele>176.4</ele><time>2026-04-18T10:54:27.201Z</time></trkpt><trkpt lat="43.4174166" lon="11.1988274"><ele>176.20000000000002</ele><time>2026-04-18T10:54:29.213Z</time></trkpt><trkpt lat="43.4174336" lon="11.198719"><ele>176.0</ele><time>2026-04-18T10:54:31.205Z</time></trkpt><trkpt lat="43.4174505" lon="11.198568"><ele>176.0</ele><time>2026-04-18T10:54:34.204Z</time></trkpt><trkpt lat="43.4174254" lon="11.1984851"><ele>176.0</ele><time>2026-04-18T10:54:35.213Z</time></trkpt><trkpt lat="43.4173962" lon="11.1983952"><ele>176.0</ele><time>2026-04-18T10:54:36.198Z</time></trkpt><trkpt lat="43.417367" lon="11.1982991"><ele>176.0</ele><time>2026-04-18T10:54:37.212Z</time></trkpt><trkpt lat="43.4173355" lon="11.1982119"><ele>176.0</ele><time>2026-04-18T10:54:38.203Z</time></trkpt><trkpt lat="43.4173003" lon="11.1980749"><ele>176.0</ele><time>2026-04-18T10:54:40.223Z</time></trkpt><trkpt lat="43.4172749" lon="11.1979537"><ele>175.60000000000002</ele><time>2026-04-18T10:54:42.223Z</time></trkpt><trkpt lat="43.4172396" lon="11.1978637"><ele>175.2</ele><time>2026-04-18T10:54:44.204Z</time></trkpt><trkpt lat="43.4171683" lon="11.1977693"><ele>174.8</ele><time>2026-04-18T10:54:46.235Z</time></trkpt><trkpt lat="43.4170699" lon="11.1977197"><ele>174.39999999999998</ele><time>2026-04-18T10:54:48.216Z</time></trkpt><trkpt lat="43.4169647" lon="11.1976991"><ele>174.0</ele><time>2026-04-18T10:54:50.217Z</time></trkpt><trkpt lat="43.4168521" lon="11.1976756"><ele>175.0</ele><time>2026-04-18T10:54:52.213Z</time></trkpt><trkpt lat="43.4167903" lon="11.1976322"><ele>176.0</ele><time>2026-04-18T10:54:53.23Z</time></trkpt><trkpt lat="43.4166869" lon="11.1975725"><ele>177.0</ele><time>2026-04-18T10:54:55.225Z</time></trkpt><trkpt lat="43.416592" lon="11.1975286"><ele>178.0</ele><time>2026-04-18T10:54:57.214Z</time></trkpt><trkpt lat="43.4165065" lon="11.1974707"><ele>179.0</ele><time>2026-04-18T10:54:59.206Z</time></trkpt><trkpt lat="43.4164331" lon="11.1974017"><ele>178.66666666666666</ele><time>2026-04-18T10:55:01.212Z</time></trkpt><trkpt lat="43.4163851" lon="11.1973049"><ele>178.33333333333331</ele><time>2026-04-18T10:55:03.198Z</time></trkpt><trkpt lat="43.416353" lon="11.1971995"><ele>178.0</ele><time>2026-04-18T10:55:05.218Z</time></trkpt><trkpt lat="43.4163814" lon="11.1971098"><ele>177.66666666666666</ele><time>2026-04-18T10:55:07.207Z</time></trkpt><trkpt lat="43.416453" lon="11.1970145"><ele>177.33333333333334</ele><time>2026-04-18T10:55:09.212Z</time></trkpt><trkpt lat="43.4164857" lon="11.196914"><ele>177.0</ele><time>2026-04-18T10:55:11.219Z</time></trkpt><trkpt lat="43.4165287" lon="11.1968276"><ele>177.0</ele><time>2026-04-18T10:55:13.214Z</time></trkpt><trkpt lat="43.4165563" lon="11.1967233"><ele>177.0</ele><time>2026-04-18T10:55:15.193Z</time></trkpt><trkpt lat="43.4165827" lon="11.1966162"><ele>177.0</ele><time>2026-04-18T10:55:17.208Z</time></trkpt><trkpt lat="43.4166113" lon="11.1965178"><ele>177.0</ele><time>2026-04-18T10:55:19.219Z</time></trkpt><trkpt lat="43.4166495" lon="11.196409"><ele>177.0</ele><time>2026-04-18T10:55:21.215Z</time></trkpt><trkpt lat="43.4166845" lon="11.1963027"><ele>177.0</ele><time>2026-04-18T10:55:23.202Z</time></trkpt><trkpt lat="43.416724" lon="11.1961833"><ele>176.5</ele><time>2026-04-18T10:55:25.202Z</time></trkpt><trkpt lat="43.4167529" lon="11.1960526"><ele>176.0</ele><time>2026-04-18T10:55:27.22Z</time></trkpt><trkpt lat="43.4167784" lon="11.1959213"><ele>175.5</ele><time>2026-04-18T10:55:29.216Z</time></trkpt><trkpt lat="43.4167988" lon="11.1958182"><ele>175.0</ele><time>2026-04-18T10:55:31.214Z</time></trkpt><trkpt lat="43.4168265" lon="11.19572"><ele>174.5</ele><time>2026-04-18T10:55:34.206Z</time></trkpt><trkpt lat="43.4168475" lon="11.1956268"><ele>174.0</ele><time>2026-04-18T10:55:40.212Z</time></trkpt><trkpt lat="43.4168676" lon="11.1955237"><ele>173.39999999999998</ele><time>2026-04-18T10:55:44.224Z</time></trkpt><trkpt lat="43.4168721" lon="11.195415"><ele>172.8</ele><time>2026-04-18T10:55:47.204Z</time></trkpt><trkpt lat="43.4168849" lon="11.1953044"><ele>172.2</ele><time>2026-04-18T10:55:50.2Z</time></trkpt><trkpt lat="43.416983" lon="11.1952497"><ele>171.60000000000002</ele><time>2026-04-18T10:55:52.212Z</time></trkpt><trkpt lat="43.4170723" lon="11.1951739"><ele>171.0</ele><time>2026-04-18T10:55:54.22Z</time></trkpt><trkpt lat="43.4171555" lon="11.1951154"><ele>170.4</ele><time>2026-04-18T10:55:56.212Z</time></trkpt><trkpt lat="43.4172383" lon="11.1950512"><ele>169.8</ele><time>2026-04-18T10:55:58.22Z</time></trkpt><trkpt lat="43.4173294" lon="11.1949876"><ele>169.20000000000002</ele><time>2026-04-18T10:56:00.21Z</time></trkpt><trkpt lat="43.41742" lon="11.1949486"><ele>168.60000000000002</ele><time>2026-04-18T10:56:02.22Z</time></trkpt><trkpt lat="43.4175085" lon="11.1949505"><ele>168.0</ele><time>2026-04-18T10:56:04.197Z</time></trkpt><trkpt lat="43.4175858" lon="11.1949885"><ele>168.0</ele><time>2026-04-18T10:56:06.198Z</time></trkpt><trkpt lat="43.4176557" lon="11.1950343"><ele>168.0</ele><time>2026-04-18T10:56:08.201Z</time></trkpt><trkpt lat="43.4177241" lon="11.1950755"><ele>168.0</ele><time>2026-04-18T10:56:10.208Z</time></trkpt><trkpt lat="43.4177797" lon="11.1951322"><ele>168.0</ele><time>2026-04-18T10:56:12.208Z</time></trkpt><trkpt lat="43.417836" lon="11.1951882"><ele>168.0</ele><time>2026-04-18T10:56:14.199Z</time></trkpt><trkpt lat="43.4178844" lon="11.1952501"><ele>168.0</ele><time>2026-04-18T10:56:16.201Z</time></trkpt><trkpt lat="43.4179365" lon="11.1953133"><ele>168.0</ele><time>2026-04-18T10:56:19.217Z</time></trkpt><trkpt lat="43.4179826" lon="11.1953902"><ele>168.42857142857142</ele><time>2026-04-18T10:56:22.201Z</time></trkpt><trkpt lat="43.4180328" lon="11.1954588"><ele>168.85714285714286</ele><time>2026-04-18T10:56:25.202Z</time></trkpt><trkpt lat="43.418069" lon="11.1955382"><ele>169.28571428571428</ele><time>2026-04-18T10:56:28.22Z</time></trkpt><trkpt lat="43.4181068" lon="11.1956077"><ele>169.71428571428572</ele><time>2026-04-18T10:56:31.22Z</time></trkpt><trkpt lat="43.4181603" lon="11.1956718"><ele>170.14285714285714</ele><time>2026-04-18T10:56:36.206Z</time></trkpt><trkpt lat="43.4182244" lon="11.1957088"><ele>170.57142857142856</ele><time>2026-04-18T10:56:40.205Z</time></trkpt><trkpt lat="43.4183047" lon="11.1957259"><ele>171.0</ele><time>2026-04-18T10:56:44.199Z</time></trkpt><trkpt lat="43.418376" lon="11.1957238"><ele>171.0</ele><time>2026-04-18T10:56:48.212Z</time></trkpt><trkpt lat="43.4184512" lon="11.1957076"><ele>171.0</ele><time>2026-04-18T10:56:52.207Z</time></trkpt><trkpt lat="43.4184879" lon="11.1956311"><ele>171.0</ele><time>2026-04-18T10:56:54.211Z</time></trkpt><trkpt lat="43.4184683" lon="11.1955166"><ele>171.0</ele><time>2026-04-18T10:56:56.22Z</time></trkpt><trkpt lat="43.4184387" lon="11.1953922"><ele>171.0</ele><time>2026-04-18T10:56:58.222Z</time></trkpt><trkpt lat="43.4184348" lon="11.195267"><ele>171.0</ele><time>2026-04-18T10:57:00.208Z</time></trkpt><trkpt lat="43.4184419" lon="11.1951557"><ele>171.0</ele><time>2026-04-18T10:57:02.203Z</time></trkpt><trkpt lat="43.4184475" lon="11.1950431"><ele>171.0</ele><time>2026-04-18T10:57:04.218Z</time></trkpt><trkpt lat="43.4184499" lon="11.1949359"><ele>171.0</ele><time>2026-04-18T10:57:06.207Z</time></trkpt><trkpt lat="43.418456" lon="11.1948312"><ele>171.0</ele><time>2026-04-18T10:57:08.213Z</time></trkpt><trkpt lat="43.4184669" lon="11.1947255"><ele>171.0</ele><time>2026-04-18T10:57:10.199Z</time></trkpt><trkpt lat="43.4184735" lon="11.1946041"><ele>171.0</ele><time>2026-04-18T10:57:12.209Z</time></trkpt><trkpt lat="43.4184751" lon="11.1945028"><ele>170.66666666666666</ele><time>2026-04-18T10:57:14.2Z</time></trkpt><trkpt lat="43.4184876" lon="11.1944135"><ele>170.33333333333334</ele><time>2026-04-18T10:57:16.216Z</time></trkpt><trkpt lat="43.4185036" lon="11.194314"><ele>170.0</ele><time>2026-04-18T10:57:18.207Z</time></trkpt><trkpt lat="43.4185285" lon="11.1942147"><ele>169.66666666666669</ele><time>2026-04-18T10:57:20.2Z</time></trkpt><trkpt lat="43.4185592" lon="11.1940938"><ele>169.33333333333334</ele><time>2026-04-18T10:57:22.219Z</time></trkpt><trkpt lat="43.4185799" lon="11.1939488"><ele>169.0</ele><time>2026-04-18T10:57:24.208Z</time></trkpt><trkpt lat="43.4186054" lon="11.1937949"><ele>168.6</ele><time>2026-04-18T10:57:26.221Z</time></trkpt><trkpt lat="43.4186401" lon="11.1936474"><ele>168.2</ele><time>2026-04-18T10:57:28.205Z</time></trkpt><trkpt lat="43.4186743" lon="11.1934933"><ele>167.79999999999998</ele><time>2026-04-18T10:57:30.204Z</time></trkpt><trkpt lat="43.4187204" lon="11.1933534"><ele>167.39999999999998</ele><time>2026-04-18T10:57:32.19Z</time></trkpt><trkpt lat="43.4187723" lon="11.1932319"><ele>167.0</ele><time>2026-04-18T10:57:34.204Z</time></trkpt><trkpt lat="43.4188358" lon="11.1931373"><ele>166.83333333333331</ele><time>2026-04-18T10:57:36.196Z</time></trkpt><trkpt lat="43.4188941" lon="11.1930337"><ele>166.66666666666666</ele><time>2026-04-18T10:57:38.206Z</time></trkpt><trkpt lat="43.4189398" lon="11.1929329"><ele>166.5</ele><time>2026-04-18T10:57:40.204Z</time></trkpt><trkpt lat="43.4189885" lon="11.1928413"><ele>166.33333333333334</ele><time>2026-04-18T10:57:42.205Z</time></trkpt><trkpt lat="43.4190481" lon="11.1927477"><ele>166.16666666666669</ele><time>2026-04-18T10:57:44.209Z</time></trkpt><trkpt lat="43.4191109" lon="11.1926831"><ele>166.0</ele><time>2026-04-18T10:57:46.203Z</time></trkpt><trkpt lat="43.4191828" lon="11.1926192"><ele>166.0</ele><time>2026-04-18T10:57:48.198Z</time></trkpt><trkpt lat="43.4192591" lon="11.1925881"><ele>166.0</ele><time>2026-04-18T10:57:50.214Z</time></trkpt><trkpt lat="43.419336" lon="11.1925894"><ele>166.0</ele><time>2026-04-18T10:57:52.205Z</time></trkpt><trkpt lat="43.4194145" lon="11.1925879"><ele>166.0</ele><time>2026-04-18T10:57:54.227Z</time></trkpt><trkpt lat="43.4194992" lon="11.1925688"><ele>166.0</ele><time>2026-04-18T10:57:56.232Z</time></trkpt><trkpt lat="43.4195896" lon="11.1925146"><ele>166.0</ele><time>2026-04-18T10:57:58.216Z</time></trkpt><trkpt lat="43.4196638" lon="11.1924398"><ele>166.16666666666669</ele><time>2026-04-18T10:58:00.224Z</time></trkpt><trkpt lat="43.4197227" lon="11.19235"><ele>166.33333333333334</ele><time>2026-04-18T10:58:02.202Z</time></trkpt><trkpt lat="43.419774" lon="11.1922566"><ele>166.5</ele><time>2026-04-18T10:58:04.196Z</time></trkpt><trkpt lat="43.4198313" lon="11.1921686"><ele>166.66666666666666</ele><time>2026-04-18T10:58:06.213Z</time></trkpt><trkpt lat="43.4198903" lon="11.1920887"><ele>166.83333333333331</ele><time>2026-04-18T10:58:08.213Z</time></trkpt><trkpt lat="43.4199459" lon="11.191999"><ele>167.0</ele><time>2026-04-18T10:58:10.198Z</time></trkpt><trkpt lat="43.4199936" lon="11.1919083"><ele>167.0</ele><time>2026-04-18T10:58:12.21Z</time></trkpt><trkpt lat="43.42003" lon="11.1918003"><ele>167.0</ele><time>2026-04-18T10:58:14.201Z</time></trkpt><trkpt lat="43.4200658" lon="11.1916906"><ele>167.0</ele><time>2026-04-18T10:58:16.198Z</time></trkpt><trkpt lat="43.420117" lon="11.1915997"><ele>167.0</ele><time>2026-04-18T10:58:18.195Z</time></trkpt><trkpt lat="43.4201875" lon="11.191537"><ele>167.0</ele><time>2026-04-18T10:58:20.199Z</time></trkpt><trkpt lat="43.4202634" lon="11.1914759"><ele>167.0</ele><time>2026-04-18T10:58:22.215Z</time></trkpt><trkpt lat="43.4203427" lon="11.1914191"><ele>167.0</ele><time>2026-04-18T10:58:24.221Z</time></trkpt><trkpt lat="43.4204126" lon="11.1913581"><ele>167.0</ele><time>2026-04-18T10:58:26.201Z</time></trkpt><trkpt lat="43.4204681" lon="11.1912805"><ele>167.0</ele><time>2026-04-18T10:58:28.2Z</time></trkpt><trkpt lat="43.4205216" lon="11.1911977"><ele>167.0</ele><time>2026-04-18T10:58:30.218Z</time></trkpt><trkpt lat="43.4205819" lon="11.1911241"><ele>167.0</ele><time>2026-04-18T10:58:32.208Z</time></trkpt><trkpt lat="43.4206359" lon="11.1910549"><ele>167.0</ele><time>2026-04-18T10:58:34.205Z</time></trkpt><trkpt lat="43.4206927" lon="11.1909831"><ele>167.0</ele><time>2026-04-18T10:58:36.194Z</time></trkpt><trkpt lat="43.4207527" lon="11.1909162"><ele>167.0</ele><time>2026-04-18T10:58:38.207Z</time></trkpt><trkpt lat="43.4208208" lon="11.1908589"><ele>167.0</ele><time>2026-04-18T10:58:40.203Z</time></trkpt><trkpt lat="43.4208756" lon="11.1907976"><ele>167.0</ele><time>2026-04-18T10:58:42.201Z</time></trkpt><trkpt lat="43.4209336" lon="11.1907473"><ele>167.0</ele><time>2026-04-18T10:58:44.21Z</time></trkpt><trkpt lat="43.4209896" lon="11.190697"><ele>167.0</ele><time>2026-04-18T10:58:46.211Z</time></trkpt><trkpt lat="43.4210588" lon="11.1906293"><ele>167.0</ele><time>2026-04-18T10:58:49.198Z</time></trkpt><trkpt lat="43.4211289" lon="11.1905467"><ele>166.66666666666666</ele><time>2026-04-18T10:58:52.204Z</time></trkpt><trkpt lat="43.4212091" lon="11.1904774"><ele>166.33333333333331</ele><time>2026-04-18T10:58:55.212Z</time></trkpt><trkpt lat="43.4212696" lon="11.1904359"><ele>166.0</ele><time>2026-04-18T10:58:57.206Z</time></trkpt><trkpt lat="43.4213618" lon="11.1904091"><ele>165.66666666666666</ele><time>2026-04-18T10:58:59.198Z</time></trkpt><trkpt lat="43.421429" lon="11.1904447"><ele>165.33333333333334</ele><time>2026-04-18T10:59:01.212Z</time></trkpt><trkpt lat="43.4214843" lon="11.1905029"><ele>165.0</ele><time>2026-04-18T10:59:03.203Z</time></trkpt><trkpt lat="43.4215397" lon="11.1905665"><ele>165.0</ele><time>2026-04-18T10:59:05.203Z</time></trkpt><trkpt lat="43.4216038" lon="11.190611"><ele>165.0</ele><time>2026-04-18T10:59:07.216Z</time></trkpt><trkpt lat="43.4216842" lon="11.1906556"><ele>165.0</ele><time>2026-04-18T10:59:09.2Z</time></trkpt><trkpt lat="43.4217693" lon="11.1906414"><ele>165.0</ele><time>2026-04-18T10:59:11.205Z</time></trkpt><trkpt lat="43.4218544" lon="11.190619"><ele>165.0</ele><time>2026-04-18T10:59:13.203Z</time></trkpt><trkpt lat="43.4219243" lon="11.1906047"><ele>165.0</ele><time>2026-04-18T10:59:15.202Z</time></trkpt><trkpt lat="43.4220066" lon="11.1906185"><ele>165.0</ele><time>2026-04-18T10:59:17.204Z</time></trkpt><trkpt lat="43.4220774" lon="11.1906665"><ele>165.0</ele><time>2026-04-18T10:59:19.219Z</time></trkpt><trkpt lat="43.4221397" lon="11.190734"><ele>165.0</ele><time>2026-04-18T10:59:21.224Z</time></trkpt><trkpt lat="43.422203" lon="11.1908087"><ele>165.0</ele><time>2026-04-18T10:59:24.215Z</time></trkpt><trkpt lat="43.4222432" lon="11.1908823"><ele>165.0</ele><time>2026-04-18T10:59:27.209Z</time></trkpt><trkpt lat="43.4222869" lon="11.1909699"><ele>165.0</ele><time>2026-04-18T10:59:31.208Z</time></trkpt><trkpt lat="43.422326" lon="11.1910509"><ele>166.57142857142858</ele><time>2026-04-18T10:59:34.219Z</time></trkpt><trkpt lat="43.4223777" lon="11.19113"><ele>168.14285714285714</ele><time>2026-04-18T10:59:38.214Z</time></trkpt><trkpt lat="43.4224354" lon="11.191197"><ele>169.71428571428572</ele><time>2026-04-18T10:59:42.207Z</time></trkpt><trkpt lat="43.4224803" lon="11.1912637"><ele>171.28571428571428</ele><time>2026-04-18T10:59:46.203Z</time></trkpt><trkpt lat="43.4225253" lon="11.1913273"><ele>172.85714285714286</ele><time>2026-04-18T10:59:50.2Z</time></trkpt><trkpt lat="43.422576" lon="11.1913999"><ele>174.42857142857144</ele><time>2026-04-18T10:59:54.215Z</time></trkpt><trkpt lat="43.422624" lon="11.1914618"><ele>176.0</ele><time>2026-04-18T10:59:58.2Z</time></trkpt><trkpt lat="43.4226812" lon="11.1915303"><ele>176.71428571428572</ele><time>2026-04-18T11:00:03.202Z</time></trkpt><trkpt lat="43.4227174" lon="11.191605"><ele>177.42857142857142</ele><time>2026-04-18T11:00:08.211Z</time></trkpt><trkpt lat="43.4227285" lon="11.1916956"><ele>178.14285714285714</ele><time>2026-04-18T11:00:13.212Z</time></trkpt><trkpt lat="43.4227686" lon="11.1917679"><ele>178.85714285714286</ele><time>2026-04-18T11:00:18.218Z</time></trkpt><trkpt lat="43.4228231" lon="11.1918386"><ele>179.57142857142856</ele><time>2026-04-18T11:00:23.204Z</time></trkpt><trkpt lat="43.4228807" lon="11.1918898"><ele>180.28571428571428</ele><time>2026-04-18T11:00:28.209Z</time></trkpt><trkpt lat="43.4229445" lon="11.1918944"><ele>181.0</ele><time>2026-04-18T11:00:33.199Z</time></trkpt><trkpt lat="43.4230194" lon="11.1918692"><ele>181.28571428571428</ele><time>2026-04-18T11:00:39.206Z</time></trkpt><trkpt lat="43.4231" lon="11.1918725"><ele>181.57142857142856</ele><time>2026-04-18T11:00:44.194Z</time></trkpt><trkpt lat="43.4231537" lon="11.1918269"><ele>181.85714285714286</ele><time>2026-04-18T11:00:55.195Z</time></trkpt><trkpt lat="43.4231902" lon="11.191743"><ele>182.14285714285714</ele><time>2026-04-18T11:00:58.184Z</time></trkpt><trkpt lat="43.4232287" lon="11.1916503"><ele>182.42857142857144</ele><time>2026-04-18T11:01:01.199Z</time></trkpt><trkpt lat="43.4232679" lon="11.1915789"><ele>182.71428571428572</ele><time>2026-04-18T11:01:03.195Z</time></trkpt><trkpt lat="43.4233094" lon="11.1914944"><ele>183.0</ele><time>2026-04-18T11:01:05.197Z</time></trkpt><trkpt lat="43.423352" lon="11.1914099"><ele>183.0</ele><time>2026-04-18T11:01:07.197Z</time></trkpt><trkpt lat="43.4233882" lon="11.1913188"><ele>183.0</ele><time>2026-04-18T11:01:09.214Z</time></trkpt><trkpt lat="43.4234165" lon="11.1912066"><ele>183.0</ele><time>2026-04-18T11:01:11.217Z</time></trkpt><trkpt lat="43.4234506" lon="11.1910942"><ele>183.0</ele><time>2026-04-18T11:01:13.197Z</time></trkpt><trkpt lat="43.4234889" lon="11.1909976"><ele>183.0</ele><time>2026-04-18T11:01:15.205Z</time></trkpt><trkpt lat="43.4235219" lon="11.1908807"><ele>183.0</ele><time>2026-04-18T11:01:17.205Z</time></trkpt><trkpt lat="43.4235365" lon="11.1907757"><ele>182.0</ele><time>2026-04-18T11:01:19.192Z</time></trkpt><trkpt lat="43.4235609" lon="11.1906731"><ele>181.0</ele><time>2026-04-18T11:01:21.191Z</time></trkpt><trkpt lat="43.4236061" lon="11.1905805"><ele>180.0</ele><time>2026-04-18T11:01:23.208Z</time></trkpt><trkpt lat="43.4236256" lon="11.1904476"><ele>179.0</ele><time>2026-04-18T11:01:25.217Z</time></trkpt><trkpt lat="43.4236575" lon="11.1903277"><ele>178.0</ele><time>2026-04-18T11:01:27.223Z</time></trkpt><trkpt lat="43.4236852" lon="11.1902344"><ele>177.0</ele><time>2026-04-18T11:01:29.206Z</time></trkpt><trkpt lat="43.4237131" lon="11.1901489"><ele>177.0</ele><time>2026-04-18T11:01:31.208Z</time></trkpt><trkpt lat="43.4237379" lon="11.1900613"><ele>177.0</ele><time>2026-04-18T11:01:34.222Z</time></trkpt><trkpt lat="43.4237759" lon="11.18996"><ele>177.0</ele><time>2026-04-18T11:01:37.197Z</time></trkpt><trkpt lat="43.4238564" lon="11.1898848"><ele>177.0</ele><time>2026-04-18T11:01:39.211Z</time></trkpt><trkpt lat="43.4239444" lon="11.1898236"><ele>177.0</ele><time>2026-04-18T11:01:41.206Z</time></trkpt><trkpt lat="43.4240227" lon="11.1897946"><ele>177.0</ele><time>2026-04-18T11:01:43.198Z</time></trkpt><trkpt lat="43.4241021" lon="11.1897412"><ele>176.16666666666666</ele><time>2026-04-18T11:01:45.213Z</time></trkpt><trkpt lat="43.4241723" lon="11.18971"><ele>175.33333333333334</ele><time>2026-04-18T11:01:47.202Z</time></trkpt><trkpt lat="43.4242409" lon="11.189671"><ele>174.5</ele><time>2026-04-18T11:01:49.194Z</time></trkpt><trkpt lat="43.4243233" lon="11.1896237"><ele>173.66666666666669</ele><time>2026-04-18T11:01:52.198Z</time></trkpt><trkpt lat="43.4243786" lon="11.1895579"><ele>172.83333333333334</ele><time>2026-04-18T11:01:55.207Z</time></trkpt><trkpt lat="43.4244392" lon="11.189507"><ele>172.0</ele><time>2026-04-18T11:02:00.193Z</time></trkpt><trkpt lat="43.4245207" lon="11.1894586"><ele>172.0</ele><time>2026-04-18T11:02:03.202Z</time></trkpt><trkpt lat="43.4245987" lon="11.1894235"><ele>172.0</ele><time>2026-04-18T11:02:06.196Z</time></trkpt><trkpt lat="43.4246602" lon="11.1893808"><ele>172.0</ele><time>2026-04-18T11:02:09.203Z</time></trkpt><trkpt lat="43.4247295" lon="11.1893383"><ele>172.0</ele><time>2026-04-18T11:02:12.188Z</time></trkpt><trkpt lat="43.4247978" lon="11.1892901"><ele>172.0</ele><time>2026-04-18T11:02:16.192Z</time></trkpt><trkpt lat="43.4248606" lon="11.1892187"><ele>172.0</ele><time>2026-04-18T11:02:19.195Z</time></trkpt><trkpt lat="43.4249148" lon="11.1891613"><ele>172.5</ele><time>2026-04-18T11:02:21.207Z</time></trkpt><trkpt lat="43.4249809" lon="11.1891009"><ele>173.0</ele><time>2026-04-18T11:02:24.196Z</time></trkpt><trkpt lat="43.4250361" lon="11.1890147"><ele>173.5</ele><time>2026-04-18T11:02:29.196Z</time></trkpt><trkpt lat="43.4250981" lon="11.1889404"><ele>174.0</ele><time>2026-04-18T11:02:32.212Z</time></trkpt><trkpt lat="43.425138" lon="11.1888554"><ele>174.5</ele><time>2026-04-18T11:02:36.189Z</time></trkpt><trkpt lat="43.4251678" lon="11.1887668"><ele>175.0</ele><time>2026-04-18T11:02:38.219Z</time></trkpt><trkpt lat="43.425197" lon="11.1886824"><ele>175.0</ele><time>2026-04-18T11:02:40.193Z</time></trkpt><trkpt lat="43.4252524" lon="11.1885685"><ele>175.0</ele><time>2026-04-18T11:02:43.211Z</time></trkpt><trkpt lat="43.4252926" lon="11.1884307"><ele>175.0</ele><time>2026-04-18T11:02:45.2Z</time></trkpt><trkpt lat="43.4253289" lon="11.188343"><ele>175.0</ele><time>2026-04-18T11:02:46.216Z</time></trkpt><trkpt lat="43.425381" lon="11.1882481"><ele>175.0</ele><time>2026-04-18T11:02:48.212Z</time></trkpt><trkpt lat="43.4254421" lon="11.1882156"><ele>175.0</ele><time>2026-04-18T11:02:50.204Z</time></trkpt><trkpt lat="43.4254696" lon="11.1881052"><ele>174.57142857142858</ele><time>2026-04-18T11:02:53.196Z</time></trkpt><trkpt lat="43.4254982" lon="11.1880087"><ele>174.14285714285714</ele><time>2026-04-18T11:02:55.203Z</time></trkpt><trkpt lat="43.4255387" lon="11.187942"><ele>173.71428571428572</ele><time>2026-04-18T11:02:57.202Z</time></trkpt><trkpt lat="43.4255755" lon="11.187867"><ele>173.28571428571428</ele><time>2026-04-18T11:03:00.188Z</time></trkpt><trkpt lat="43.4256157" lon="11.1877934"><ele>172.85714285714286</ele><time>2026-04-18T11:03:02.2Z</time></trkpt><trkpt lat="43.4256719" lon="11.1877261"><ele>172.42857142857144</ele><time>2026-04-18T11:03:04.204Z</time></trkpt><trkpt lat="43.4257326" lon="11.1876711"><ele>172.0</ele><time>2026-04-18T11:03:06.203Z</time></trkpt><trkpt lat="43.4257969" lon="11.1875571"><ele>172.0</ele><time>2026-04-18T11:03:08.194Z</time></trkpt><trkpt lat="43.4258855" lon="11.1874486"><ele>172.0</ele><time>2026-04-18T11:03:10.219Z</time></trkpt><trkpt lat="43.4259571" lon="11.1873375"><ele>172.0</ele><time>2026-04-18T11:03:12.193Z</time></trkpt><trkpt lat="43.4260257" lon="11.1872489"><ele>172.0</ele><time>2026-04-18T11:03:14.192Z</time></trkpt><trkpt lat="43.4260894" lon="11.1871471"><ele>172.0</ele><time>2026-04-18T11:03:16.202Z</time></trkpt><trkpt lat="43.4261536" lon="11.1870527"><ele>171.66666666666669</ele><time>2026-04-18T11:03:18.207Z</time></trkpt><trkpt lat="43.4262191" lon="11.1869613"><ele>171.33333333333334</ele><time>2026-04-18T11:03:20.202Z</time></trkpt><trkpt lat="43.426281" lon="11.1868855"><ele>171.0</ele><time>2026-04-18T11:03:22.2Z</time></trkpt><trkpt lat="43.4263466" lon="11.1868087"><ele>170.66666666666666</ele><time>2026-04-18T11:03:24.204Z</time></trkpt><trkpt lat="43.4263755" lon="11.1867217"><ele>170.33333333333331</ele><time>2026-04-18T11:03:26.203Z</time></trkpt><trkpt lat="43.4263516" lon="11.1866392"><ele>170.0</ele><time>2026-04-18T11:03:28.205Z</time></trkpt><trkpt lat="43.426291" lon="11.1865526"><ele>167.0</ele><time>2026-04-18T11:03:31.192Z</time></trkpt><trkpt lat="43.4262396" lon="11.186499"><ele>164.0</ele><time>2026-04-18T11:03:33.197Z</time></trkpt><trkpt lat="43.426163" lon="11.1864425"><ele>161.0</ele><time>2026-04-18T11:03:36.208Z</time></trkpt><trkpt lat="43.4260786" lon="11.1863686"><ele>158.0</ele><time>2026-04-18T11:03:39.213Z</time></trkpt><trkpt lat="43.4260159" lon="11.1863128"><ele>155.0</ele><time>2026-04-18T11:03:41.206Z</time></trkpt><trkpt lat="43.4259757" lon="11.1862171"><ele>152.0</ele><time>2026-04-18T11:03:43.196Z</time></trkpt><trkpt lat="43.4259807" lon="11.1860959"><ele>152.0</ele><time>2026-04-18T11:03:45.218Z</time></trkpt><trkpt lat="43.4260289" lon="11.1859656"><ele>152.0</ele><time>2026-04-18T11:03:47.199Z</time></trkpt><trkpt lat="43.4260828" lon="11.1858597"><ele>152.0</ele><time>2026-04-18T11:03:49.217Z</time></trkpt><trkpt lat="43.4261425" lon="11.185779"><ele>152.0</ele><time>2026-04-18T11:03:51.204Z</time></trkpt><trkpt lat="43.4262006" lon="11.1857017"><ele>152.0</ele><time>2026-04-18T11:03:53.207Z</time></trkpt><trkpt lat="43.426251" lon="11.1856053"><ele>152.79999999999998</ele><time>2026-04-18T11:03:55.205Z</time></trkpt><trkpt lat="43.4263065" lon="11.1855025"><ele>153.6</ele><time>2026-04-18T11:03:57.212Z</time></trkpt><trkpt lat="43.4263678" lon="11.1854151"><ele>154.39999999999998</ele><time>2026-04-18T11:03:59.2Z</time></trkpt><trkpt lat="43.4264263" lon="11.1853234"><ele>155.2</ele><time>2026-04-18T11:04:01.197Z</time></trkpt><trkpt lat="43.4264775" lon="11.1852196"><ele>156.0</ele><time>2026-04-18T11:04:03.207Z</time></trkpt><trkpt lat="43.4265333" lon="11.1851051"><ele>156.0</ele><time>2026-04-18T11:04:05.202Z</time></trkpt><trkpt lat="43.4265787" lon="11.1849781"><ele>156.0</ele><time>2026-04-18T11:04:07.203Z</time></trkpt><trkpt lat="43.4266302" lon="11.1848415"><ele>156.0</ele><time>2026-04-18T11:04:09.202Z</time></trkpt><trkpt lat="43.4266837" lon="11.1847096"><ele>156.0</ele><time>2026-04-18T11:04:11.207Z</time></trkpt><trkpt lat="43.4267344" lon="11.1845826"><ele>156.0</ele><time>2026-04-18T11:04:13.193Z</time></trkpt><trkpt lat="43.4267855" lon="11.1844624"><ele>155.2</ele><time>2026-04-18T11:04:15.207Z</time></trkpt><trkpt lat="43.4268317" lon="11.1843308"><ele>154.39999999999998</ele><time>2026-04-18T11:04:17.207Z</time></trkpt><trkpt lat="43.4268782" lon="11.1841883"><ele>153.6</ele><time>2026-04-18T11:04:19.204Z</time></trkpt><trkpt lat="43.4269422" lon="11.1840831"><ele>152.79999999999998</ele><time>2026-04-18T11:04:21.203Z</time></trkpt><trkpt lat="43.4270078" lon="11.1839987"><ele>152.0</ele><time>2026-04-18T11:04:23.188Z</time></trkpt><trkpt lat="43.4270381" lon="11.1838897"><ele>151.16666666666666</ele><time>2026-04-18T11:04:25.195Z</time></trkpt><trkpt lat="43.4270674" lon="11.183808"><ele>150.33333333333331</ele><time>2026-04-18T11:04:27.213Z</time></trkpt><trkpt lat="43.427111" lon="11.1837094"><ele>149.5</ele><time>2026-04-18T11:04:30.203Z</time></trkpt><trkpt lat="43.4271424" lon="11.1836059"><ele>148.66666666666666</ele><time>2026-04-18T11:04:33.201Z</time></trkpt><trkpt lat="43.4271814" lon="11.1834983"><ele>147.83333333333334</ele><time>2026-04-18T11:04:36.202Z</time></trkpt><trkpt lat="43.427212" lon="11.1833914"><ele>147.0</ele><time>2026-04-18T11:04:39.209Z</time></trkpt><trkpt lat="43.4272603" lon="11.1832954"><ele>147.71428571428572</ele><time>2026-04-18T11:04:42.218Z</time></trkpt><trkpt lat="43.4273001" lon="11.1832053"><ele>148.42857142857144</ele><time>2026-04-18T11:04:45.211Z</time></trkpt><trkpt lat="43.4273292" lon="11.1831275"><ele>149.14285714285714</ele><time>2026-04-18T11:04:47.201Z</time></trkpt><trkpt lat="43.4273382" lon="11.183041"><ele>149.85714285714286</ele><time>2026-04-18T11:04:49.207Z</time></trkpt><trkpt lat="43.4273505" lon="11.1829512"><ele>150.57142857142858</ele><time>2026-04-18T11:04:51.195Z</time></trkpt><trkpt lat="43.4273904" lon="11.1828348"><ele>151.28571428571428</ele><time>2026-04-18T11:04:54.212Z</time></trkpt><trkpt lat="43.4274185" lon="11.1827542"><ele>152.0</ele><time>2026-04-18T11:04:56.196Z</time></trkpt><trkpt lat="43.4274539" lon="11.1826547"><ele>152.0</ele><time>2026-04-18T11:04:58.214Z</time></trkpt><trkpt lat="43.4275142" lon="11.1825504"><ele>152.0</ele><time>2026-04-18T11:05:00.202Z</time></trkpt><trkpt lat="43.4275644" lon="11.1824441"><ele>152.0</ele><time>2026-04-18T11:05:03.197Z</time></trkpt><trkpt lat="43.4276086" lon="11.1823726"><ele>152.0</ele><time>2026-04-18T11:05:05.224Z</time></trkpt><trkpt lat="43.4276573" lon="11.1822854"><ele>152.0</ele><time>2026-04-18T11:05:08.212Z</time></trkpt><trkpt lat="43.4276849" lon="11.1821675"><ele>152.0</ele><time>2026-04-18T11:05:11.192Z</time></trkpt><trkpt lat="43.4277242" lon="11.1820641"><ele>151.33333333333331</ele><time>2026-04-18T11:05:14.207Z</time></trkpt><trkpt lat="43.4277379" lon="11.1819516"><ele>150.66666666666666</ele><time>2026-04-18T11:05:17.218Z</time></trkpt><trkpt lat="43.4277127" lon="11.1818694"><ele>150.0</ele><time>2026-04-18T11:05:20.21Z</time></trkpt><trkpt lat="43.4276291" lon="11.1818577"><ele>149.33333333333334</ele><time>2026-04-18T11:05:23.206Z</time></trkpt><trkpt lat="43.4275558" lon="11.1818381"><ele>148.66666666666669</ele><time>2026-04-18T11:05:25.215Z</time></trkpt><trkpt lat="43.42748" lon="11.181813"><ele>148.0</ele><time>2026-04-18T11:05:27.212Z</time></trkpt><trkpt lat="43.4273915" lon="11.1818272"><ele>148.0</ele><time>2026-04-18T11:05:30.194Z</time></trkpt><trkpt lat="43.4273036" lon="11.1818512"><ele>148.0</ele><time>2026-04-18T11:05:33.199Z</time></trkpt><trkpt lat="43.4272371" lon="11.1818888"><ele>148.0</ele><time>2026-04-18T11:05:36.21Z</time></trkpt><trkpt lat="43.4271608" lon="11.1819286"><ele>148.0</ele><time>2026-04-18T11:05:39.209Z</time></trkpt><trkpt lat="43.4270811" lon="11.1819632"><ele>148.0</ele><time>2026-04-18T11:05:42.2Z</time></trkpt><trkpt lat="43.4270161" lon="11.1819826"><ele>148.0</ele><time>2026-04-18T11:05:44.2Z</time></trkpt><trkpt lat="43.4269196" lon="11.1820002"><ele>147.16666666666669</ele><time>2026-04-18T11:05:46.212Z</time></trkpt><trkpt lat="43.4267977" lon="11.1820521"><ele>146.33333333333334</ele><time>2026-04-18T11:05:48.202Z</time></trkpt><trkpt lat="43.4267229" lon="11.182083"><ele>145.5</ele><time>2026-04-18T11:05:49.207Z</time></trkpt><trkpt lat="43.4266478" lon="11.1821153"><ele>144.66666666666666</ele><time>2026-04-18T11:05:50.199Z</time></trkpt><trkpt lat="43.426571" lon="11.1821488"><ele>143.83333333333331</ele><time>2026-04-18T11:05:51.198Z</time></trkpt><trkpt lat="43.4264896" lon="11.1821791"><ele>143.0</ele><time>2026-04-18T11:05:52.206Z</time></trkpt><trkpt lat="43.4264127" lon="11.1821951"><ele>143.0</ele><time>2026-04-18T11:05:53.203Z</time></trkpt><trkpt lat="43.4263358" lon="11.1822059"><ele>143.0</ele><time>2026-04-18T11:05:54.205Z</time></trkpt><trkpt lat="43.4262503" lon="11.1822096"><ele>143.0</ele><time>2026-04-18T11:05:55.21Z</time></trkpt><trkpt lat="43.4261599" lon="11.1822125"><ele>143.0</ele><time>2026-04-18T11:05:56.199Z</time></trkpt><trkpt lat="43.4260616" lon="11.1822202"><ele>143.0</ele><time>2026-04-18T11:05:57.219Z</time></trkpt><trkpt lat="43.4259714" lon="11.1822291"><ele>143.0</ele><time>2026-04-18T11:05:58.223Z</time></trkpt><trkpt lat="43.4258915" lon="11.1822526"><ele>142.83333333333331</ele><time>2026-04-18T11:05:59.204Z</time></trkpt><trkpt lat="43.4258221" lon="11.18229"><ele>142.66666666666666</ele><time>2026-04-18T11:06:00.197Z</time></trkpt><trkpt lat="43.4257709" lon="11.1823492"><ele>142.5</ele><time>2026-04-18T11:06:01.2Z</time></trkpt><trkpt lat="43.4257258" lon="11.1824208"><ele>142.33333333333334</ele><time>2026-04-18T11:06:02.209Z</time></trkpt><trkpt lat="43.4256824" lon="11.1824843"><ele>142.16666666666669</ele><time>2026-04-18T11:06:03.208Z</time></trkpt><trkpt lat="43.4256176" lon="11.1826169"><ele>142.0</ele><time>2026-04-18T11:06:05.195Z</time></trkpt><trkpt lat="43.4255585" lon="11.1827421"><ele>142.0</ele><time>2026-04-18T11:06:07.192Z</time></trkpt><trkpt lat="43.4255168" lon="11.1828532"><ele>142.0</ele><time>2026-04-18T11:06:09.206Z</time></trkpt><trkpt lat="43.4254755" lon="11.182938"><ele>142.0</ele><time>2026-04-18T11:06:11.206Z</time></trkpt><trkpt lat="43.4254309" lon="11.1830308"><ele>142.0</ele><time>2026-04-18T11:06:14.215Z</time></trkpt><trkpt lat="43.4253688" lon="11.1831047"><ele>142.0</ele><time>2026-04-18T11:06:18.203Z</time></trkpt><trkpt lat="43.4253293" lon="11.1831957"><ele>142.0</ele><time>2026-04-18T11:06:23.207Z</time></trkpt><trkpt lat="43.4252763" lon="11.1832649"><ele>143.71428571428572</ele><time>2026-04-18T11:06:27.206Z</time></trkpt><trkpt lat="43.42522" lon="11.1833242"><ele>145.42857142857142</ele><time>2026-04-18T11:06:31.205Z</time></trkpt><trkpt lat="43.4251478" lon="11.1833238"><ele>147.14285714285714</ele><time>2026-04-18T11:06:36.205Z</time></trkpt><trkpt lat="43.425086" lon="11.1832979"><ele>148.85714285714286</ele><time>2026-04-18T11:06:41.204Z</time></trkpt><trkpt lat="43.4250338" lon="11.1832406"><ele>150.57142857142856</ele><time>2026-04-18T11:06:45.201Z</time></trkpt><trkpt lat="43.424978" lon="11.1831759"><ele>152.28571428571428</ele><time>2026-04-18T11:06:51.206Z</time></trkpt><trkpt lat="43.424926" lon="11.1831076"><ele>154.0</ele><time>2026-04-18T11:06:56.202Z</time></trkpt><trkpt lat="43.4248779" lon="11.1830455"><ele>154.85714285714286</ele><time>2026-04-18T11:07:00.205Z</time></trkpt><trkpt lat="43.4248247" lon="11.1829831"><ele>155.71428571428572</ele><time>2026-04-18T11:07:05.196Z</time></trkpt><trkpt lat="43.424777" lon="11.182891"><ele>156.57142857142856</ele><time>2026-04-18T11:07:12.205Z</time></trkpt><trkpt lat="43.4247372" lon="11.182806"><ele>157.42857142857144</ele><time>2026-04-18T11:07:16.195Z</time></trkpt><trkpt lat="43.4247199" lon="11.1827214"><ele>158.28571428571428</ele><time>2026-04-18T11:07:20.208Z</time></trkpt><trkpt lat="43.4246823" lon="11.182648"><ele>159.14285714285714</ele><time>2026-04-18T11:07:23.196Z</time></trkpt><trkpt lat="43.4246587" lon="11.1825672"><ele>160.0</ele><time>2026-04-18T11:07:31.191Z</time></trkpt><trkpt lat="43.4246074" lon="11.1824859"><ele>160.71428571428572</ele><time>2026-04-18T11:07:35.202Z</time></trkpt><trkpt lat="43.4245416" lon="11.1824435"><ele>161.42857142857144</ele><time>2026-04-18T11:07:39.211Z</time></trkpt><trkpt lat="43.4244698" lon="11.1824318"><ele>162.14285714285717</ele><time>2026-04-18T11:07:45.199Z</time></trkpt><trkpt lat="43.4244086" lon="11.1823835"><ele>162.85714285714286</ele><time>2026-04-18T11:07:50.192Z</time></trkpt><trkpt lat="43.4243352" lon="11.1823801"><ele>163.57142857142858</ele><time>2026-04-18T11:07:56.197Z</time></trkpt><trkpt lat="43.4242629" lon="11.1823603"><ele>164.2857142857143</ele><time>2026-04-18T11:08:00.187Z</time></trkpt><trkpt lat="43.4241988" lon="11.1823631"><ele>165.0</ele><time>2026-04-18T11:08:03.195Z</time></trkpt><trkpt lat="43.4241362" lon="11.1823287"><ele>165.00000000000003</ele><time>2026-04-18T11:08:08.192Z</time></trkpt><trkpt lat="43.4241446" lon="11.1822233"><ele>165.0</ele><time>2026-04-18T11:08:14.198Z</time></trkpt><trkpt lat="43.4241529" lon="11.1821168"><ele>165.0</ele><time>2026-04-18T11:08:20.191Z</time></trkpt><trkpt lat="43.4241623" lon="11.1820304"><ele>165.0</ele><time>2026-04-18T11:08:24.185Z</time></trkpt><trkpt lat="43.4241662" lon="11.1819212"><ele>165.0</ele><time>2026-04-18T11:08:27.192Z</time></trkpt><trkpt lat="43.424204" lon="11.1818254"><ele>165.00000000000003</ele><time>2026-04-18T11:08:30.192Z</time></trkpt><trkpt lat="43.4242468" lon="11.1817518"><ele>165.0</ele><time>2026-04-18T11:08:33.202Z</time></trkpt><trkpt lat="43.4242863" lon="11.1816637"><ele>165.00000000000003</ele><time>2026-04-18T11:08:36.214Z</time></trkpt><trkpt lat="43.4243497" lon="11.1816121"><ele>165.0</ele><time>2026-04-18T11:08:39.206Z</time></trkpt><trkpt lat="43.4244241" lon="11.1815591"><ele>165.0</ele><time>2026-04-18T11:08:42.197Z</time></trkpt><trkpt lat="43.4244762" lon="11.1814717"><ele>165.0</ele><time>2026-04-18T11:08:45.2Z</time></trkpt><trkpt lat="43.4245084" lon="11.1813961"><ele>165.0</ele><time>2026-04-18T11:08:48.205Z</time></trkpt><trkpt lat="43.4244418" lon="11.1813401"><ele>165.00000000000003</ele><time>2026-04-18T11:08:52.192Z</time></trkpt><trkpt lat="43.4243832" lon="11.1813048"><ele>165.0</ele><time>2026-04-18T11:08:55.205Z</time></trkpt><trkpt lat="43.4243141" lon="11.181243"><ele>165.14285714285717</ele><time>2026-04-18T11:08:58.207Z</time></trkpt><trkpt lat="43.4242439" lon="11.1812376"><ele>165.28571428571428</ele><time>2026-04-18T11:09:02.203Z</time></trkpt><trkpt lat="43.4241637" lon="11.1812061"><ele>165.42857142857144</ele><time>2026-04-18T11:09:06.218Z</time></trkpt><trkpt lat="43.4240874" lon="11.1812085"><ele>165.57142857142858</ele><time>2026-04-18T11:09:10.203Z</time></trkpt><trkpt lat="43.424035" lon="11.181268"><ele>165.71428571428572</ele><time>2026-04-18T11:09:14.205Z</time></trkpt><trkpt lat="43.4239738" lon="11.1813016"><ele>165.85714285714286</ele><time>2026-04-18T11:09:18.198Z</time></trkpt><trkpt lat="43.4239064" lon="11.1813159"><ele>166.0</ele><time>2026-04-18T11:09:22.197Z</time></trkpt><trkpt lat="43.4238365" lon="11.1813427"><ele>166.28571428571428</ele><time>2026-04-18T11:09:26.204Z</time></trkpt><trkpt lat="43.4237724" lon="11.1813551"><ele>166.57142857142858</ele><time>2026-04-18T11:09:29.194Z</time></trkpt><trkpt lat="43.4237042" lon="11.1813447"><ele>166.85714285714286</ele><time>2026-04-18T11:09:32.197Z</time></trkpt><trkpt lat="43.4236174" lon="11.18134"><ele>167.14285714285714</ele><time>2026-04-18T11:09:35.192Z</time></trkpt><trkpt lat="43.4235438" lon="11.1813295"><ele>167.42857142857144</ele><time>2026-04-18T11:09:38.218Z</time></trkpt><trkpt lat="43.423477" lon="11.1813576"><ele>167.71428571428572</ele><time>2026-04-18T11:09:41.196Z</time></trkpt><trkpt lat="43.4234152" lon="11.1813821"><ele>168.0</ele><time>2026-04-18T11:09:44.198Z</time></trkpt><trkpt lat="43.4233399" lon="11.1813969"><ele>168.0</ele><time>2026-04-18T11:09:47.192Z</time></trkpt><trkpt lat="43.4232747" lon="11.1814116"><ele>168.0</ele><time>2026-04-18T11:09:50.192Z</time></trkpt><trkpt lat="43.4231861" lon="11.1814139"><ele>168.0</ele><time>2026-04-18T11:09:53.203Z</time></trkpt><trkpt lat="43.4230995" lon="11.181438"><ele>168.0</ele><time>2026-04-18T11:09:56.196Z</time></trkpt><trkpt lat="43.4230296" lon="11.1814375"><ele>168.0</ele><time>2026-04-18T11:09:59.197Z</time></trkpt><trkpt lat="43.4229556" lon="11.1814594"><ele>168.0</ele><time>2026-04-18T11:10:02.2Z</time></trkpt><trkpt lat="43.4228615" lon="11.181471"><ele>168.33333333333334</ele><time>2026-04-18T11:10:05.203Z</time></trkpt><trkpt lat="43.4227716" lon="11.1814756"><ele>168.66666666666666</ele><time>2026-04-18T11:10:08.193Z</time></trkpt><trkpt lat="43.4226861" lon="11.1814933"><ele>169.0</ele><time>2026-04-18T11:10:11.194Z</time></trkpt><trkpt lat="43.4226004" lon="11.181509"><ele>169.33333333333331</ele><time>2026-04-18T11:10:14.202Z</time></trkpt><trkpt lat="43.4225111" lon="11.1814987"><ele>169.66666666666666</ele><time>2026-04-18T11:10:17.201Z</time></trkpt><trkpt lat="43.4224228" lon="11.181523"><ele>170.0</ele><time>2026-04-18T11:10:20.213Z</time></trkpt><trkpt lat="43.4223408" lon="11.1814964"><ele>170.0</ele><time>2026-04-18T11:10:23.197Z</time></trkpt><trkpt lat="43.4222912" lon="11.1814126"><ele>170.0</ele><time>2026-04-18T11:10:28.202Z</time></trkpt><trkpt lat="43.4222726" lon="11.1813153"><ele>170.0</ele><time>2026-04-18T11:10:32.216Z</time></trkpt><trkpt lat="43.4222587" lon="11.1812122"><ele>170.0</ele><time>2026-04-18T11:10:35.194Z</time></trkpt><trkpt lat="43.4222434" lon="11.18111"><ele>170.0</ele><time>2026-04-18T11:10:38.198Z</time></trkpt><trkpt lat="43.4222121" lon="11.181026"><ele>170.0</ele><time>2026-04-18T11:10:43.214Z</time></trkpt><trkpt lat="43.4221481" lon="11.1810766"><ele>170.0</ele><time>2026-04-18T11:11:29.206Z</time></trkpt><trkpt lat="43.422088" lon="11.1811257"><ele>174.0</ele><time>2026-04-18T11:11:32.192Z</time></trkpt><trkpt lat="43.4220401" lon="11.1811835"><ele>174.0</ele><time>2026-04-18T11:11:38.197Z</time></trkpt></trkseg></trk></gpx>